<?xml version="1.0" encoding="UTF-8" standalone="no" ?>
<gpx xmlns="http://www.topografix.com/GPX/1/1" xmlns:xsi="http://www.w3.org/2001/XMLSchema-instance" xsi:schemaLocation="http://www.topografix.com/GPX/1/1 http://www.topografix.com/GPX/1/1/gpx.xsd" version="1.1" creator="VisuGPX - https://www.visugpx.com">
  <metadata>
    <name>Via-rhôna de Lyon à Sète</name>
    <desc><![CDATA[Via Rhona de Lyon à Sète en 7 jours soit un total de 594 km]]></desc>
  </metadata>
  <trk>
    <name><![CDATA[2019-05-26 09:45:24]]></name>
    <trkseg>
      <trkpt lat="45.3858" lon="4.7517">
        <ele>137.49</ele>
        <time>2019-05-26T07:45:24.000Z</time>
      </trkpt>
      <trkpt lat="45.3857" lon="4.75172">
        <ele>139.41</ele>
        <time>2019-05-26T07:45:36.000Z</time>
      </trkpt>
      <trkpt lat="45.38544" lon="4.75178">
        <ele>158.4</ele>
        <time>2019-05-26T07:46:25.000Z</time>
      </trkpt>
      <trkpt lat="45.38536" lon="4.75186">
        <ele>146.39</ele>
        <time>2019-05-26T07:46:39.000Z</time>
      </trkpt>
      <trkpt lat="45.38525" lon="4.75185">
        <ele>145.78</ele>
        <time>2019-05-26T07:46:44.000Z</time>
      </trkpt>
      <trkpt lat="45.38482" lon="4.75201">
        <ele>146.98</ele>
        <time>2019-05-26T07:47:30.000Z</time>
      </trkpt>
      <trkpt lat="45.38466" lon="4.7518">
        <ele>151.15</ele>
        <time>2019-05-26T07:47:35.000Z</time>
      </trkpt>
      <trkpt lat="45.38462" lon="4.75169">
        <ele>154.49</ele>
        <time>2019-05-26T07:47:41.000Z</time>
      </trkpt>
      <trkpt lat="45.38446" lon="4.75189">
        <ele>144.45</ele>
        <time>2019-05-26T07:48:21.430Z</time>
      </trkpt>
      <trkpt lat="45.38302" lon="4.75259">
        <ele>140.47</ele>
        <time>2019-05-26T07:48:56.000Z</time>
      </trkpt>
      <trkpt lat="45.38254" lon="4.75289">
        <ele>134.28</ele>
        <time>2019-05-26T07:51:42.730Z</time>
      </trkpt>
      <trkpt lat="45.38244" lon="4.75304">
        <ele>136.7</ele>
        <time>2019-05-26T07:51:47.000Z</time>
      </trkpt>
      <trkpt lat="45.38232" lon="4.75326">
        <ele>138.65</ele>
        <time>2019-05-26T07:51:52.000Z</time>
      </trkpt>
      <trkpt lat="45.38174" lon="4.75449">
        <ele>142.45</ele>
        <time>2019-05-26T07:52:23.000Z</time>
      </trkpt>
      <trkpt lat="45.38151" lon="4.75466">
        <ele>145.46</ele>
        <time>2019-05-26T07:52:28.684Z</time>
      </trkpt>
      <trkpt lat="45.38107" lon="4.75511">
        <ele>144.39</ele>
        <time>2019-05-26T07:52:40.000Z</time>
      </trkpt>
      <trkpt lat="45.38089" lon="4.75531">
        <ele>145.59</ele>
        <time>2019-05-26T07:52:45.000Z</time>
      </trkpt>
      <trkpt lat="45.38069" lon="4.75541">
        <ele>145.53</ele>
        <time>2019-05-26T07:52:50.000Z</time>
      </trkpt>
      <trkpt lat="45.3805" lon="4.75534">
        <ele>144.47</ele>
        <time>2019-05-26T07:52:55.000Z</time>
      </trkpt>
      <trkpt lat="45.38005" lon="4.75545">
        <ele>145.78</ele>
        <time>2019-05-26T07:53:28.309Z</time>
      </trkpt>
      <trkpt lat="45.37826" lon="4.75531">
        <ele>137.31</ele>
        <time>2019-05-26T07:55:23.000Z</time>
      </trkpt>
      <trkpt lat="45.37754" lon="4.75499">
        <ele>137.46</ele>
        <time>2019-05-26T07:55:46.054Z</time>
      </trkpt>
      <trkpt lat="45.37765" lon="4.755">
        <ele>144.21</ele>
        <time>2019-05-26T07:56:20.000Z</time>
      </trkpt>
      <trkpt lat="45.37769" lon="4.75486">
        <ele>142.48</ele>
        <time>2019-05-26T07:56:28.000Z</time>
      </trkpt>
      <trkpt lat="45.37779" lon="4.75483">
        <ele>142.46</ele>
        <time>2019-05-26T07:56:33.000Z</time>
      </trkpt>
      <trkpt lat="45.37794" lon="4.75496">
        <ele>143.22</ele>
        <time>2019-05-26T07:56:38.000Z</time>
      </trkpt>
      <trkpt lat="45.37814" lon="4.75499">
        <ele>143.47</ele>
        <time>2019-05-26T07:56:43.000Z</time>
      </trkpt>
      <trkpt lat="45.37831" lon="4.75506">
        <ele>143.47</ele>
        <time>2019-05-26T07:56:48.000Z</time>
      </trkpt>
      <trkpt lat="45.37849" lon="4.75514">
        <ele>142.7</ele>
        <time>2019-05-26T07:56:53.000Z</time>
      </trkpt>
      <trkpt lat="45.37865" lon="4.75519">
        <ele>142.48</ele>
        <time>2019-05-26T07:56:58.000Z</time>
      </trkpt>
      <trkpt lat="45.37881" lon="4.75526">
        <ele>142.46</ele>
        <time>2019-05-26T07:57:03.000Z</time>
      </trkpt>
      <trkpt lat="45.37895" lon="4.75539">
        <ele>142.51</ele>
        <time>2019-05-26T07:57:08.000Z</time>
      </trkpt>
      <trkpt lat="45.37912" lon="4.75547">
        <ele>143.45</ele>
        <time>2019-05-26T07:57:13.000Z</time>
      </trkpt>
      <trkpt lat="45.37928" lon="4.75549">
        <ele>144.41</ele>
        <time>2019-05-26T07:57:18.000Z</time>
      </trkpt>
      <trkpt lat="45.37938" lon="4.75559">
        <ele>145.45</ele>
        <time>2019-05-26T07:57:23.000Z</time>
      </trkpt>
      <trkpt lat="45.37954" lon="4.75571">
        <ele>145.47</ele>
        <time>2019-05-26T07:57:28.000Z</time>
      </trkpt>
      <trkpt lat="45.37975" lon="4.75574">
        <ele>144.72</ele>
        <time>2019-05-26T07:57:33.000Z</time>
      </trkpt>
      <trkpt lat="45.37995" lon="4.75576">
        <ele>144.46</ele>
        <time>2019-05-26T07:57:38.000Z</time>
      </trkpt>
      <trkpt lat="45.38013" lon="4.75568">
        <ele>144.48</ele>
        <time>2019-05-26T07:57:43.000Z</time>
      </trkpt>
      <trkpt lat="45.38017" lon="4.75544">
        <ele>145.45</ele>
        <time>2019-05-26T07:57:48.000Z</time>
      </trkpt>
      <trkpt lat="45.38027" lon="4.75544">
        <ele>145.47</ele>
        <time>2019-05-26T07:57:54.000Z</time>
      </trkpt>
      <trkpt lat="45.38034" lon="4.75567">
        <ele>145.46</ele>
        <time>2019-05-26T07:57:59.000Z</time>
      </trkpt>
      <trkpt lat="45.38052" lon="4.75569">
        <ele>145.46</ele>
        <time>2019-05-26T07:58:04.000Z</time>
      </trkpt>
      <trkpt lat="45.38068" lon="4.75567">
        <ele>145.41</ele>
        <time>2019-05-26T07:58:09.000Z</time>
      </trkpt>
      <trkpt lat="45.3811" lon="4.75553">
        <ele>146.42</ele>
        <time>2019-05-26T07:58:28.891Z</time>
      </trkpt>
      <trkpt lat="45.38121" lon="4.75545">
        <ele>144.63</ele>
        <time>2019-05-26T07:58:33.000Z</time>
      </trkpt>
      <trkpt lat="45.38128" lon="4.75576">
        <ele>144.47</ele>
        <time>2019-05-26T07:58:38.000Z</time>
      </trkpt>
      <trkpt lat="45.3813" lon="4.75607">
        <ele>143.48</ele>
        <time>2019-05-26T07:58:43.000Z</time>
      </trkpt>
      <trkpt lat="45.38131" lon="4.75621">
        <ele>145.41</ele>
        <time>2019-05-26T07:58:48.000Z</time>
      </trkpt>
      <trkpt lat="45.38123" lon="4.75629">
        <ele>148.47</ele>
        <time>2019-05-26T07:59:10.000Z</time>
      </trkpt>
      <trkpt lat="45.38115" lon="4.75605">
        <ele>147.49</ele>
        <time>2019-05-26T07:59:15.000Z</time>
      </trkpt>
      <trkpt lat="45.38111" lon="4.75584">
        <ele>148.47</ele>
        <time>2019-05-26T07:59:20.000Z</time>
      </trkpt>
      <trkpt lat="45.38101" lon="4.75601">
        <ele>149.47</ele>
        <time>2019-05-26T07:59:25.000Z</time>
      </trkpt>
      <trkpt lat="45.38095" lon="4.75623">
        <ele>151.41</ele>
        <time>2019-05-26T07:59:30.000Z</time>
      </trkpt>
      <trkpt lat="45.38089" lon="4.75642">
        <ele>151.47</ele>
        <time>2019-05-26T07:59:35.000Z</time>
      </trkpt>
      <trkpt lat="45.38085" lon="4.75658">
        <ele>150.47</ele>
        <time>2019-05-26T07:59:40.000Z</time>
      </trkpt>
      <trkpt lat="45.38079" lon="4.75682">
        <ele>149.68</ele>
        <time>2019-05-26T07:59:45.000Z</time>
      </trkpt>
      <trkpt lat="45.3807" lon="4.75745">
        <ele>147.46</ele>
        <time>2019-05-26T07:59:56.516Z</time>
      </trkpt>
      <trkpt lat="45.38066" lon="4.75767">
        <ele>149.49</ele>
        <time>2019-05-26T08:00:01.000Z</time>
      </trkpt>
      <trkpt lat="45.3806" lon="4.75796">
        <ele>150.23</ele>
        <time>2019-05-26T08:00:06.000Z</time>
      </trkpt>
      <trkpt lat="45.38055" lon="4.75825">
        <ele>148.55</ele>
        <time>2019-05-26T08:00:11.000Z</time>
      </trkpt>
      <trkpt lat="45.38048" lon="4.75857">
        <ele>148.72</ele>
        <time>2019-05-26T08:00:16.000Z</time>
      </trkpt>
      <trkpt lat="45.38041" lon="4.75892">
        <ele>148.48</ele>
        <time>2019-05-26T08:00:21.000Z</time>
      </trkpt>
      <trkpt lat="45.38038" lon="4.75927">
        <ele>146.74</ele>
        <time>2019-05-26T08:00:26.000Z</time>
      </trkpt>
      <trkpt lat="45.38028" lon="4.75969">
        <ele>145.49</ele>
        <time>2019-05-26T08:00:31.000Z</time>
      </trkpt>
      <trkpt lat="45.38006" lon="4.76002">
        <ele>145.48</ele>
        <time>2019-05-26T08:00:36.000Z</time>
      </trkpt>
      <trkpt lat="45.37983" lon="4.7602">
        <ele>145.29</ele>
        <time>2019-05-26T08:00:41.000Z</time>
      </trkpt>
      <trkpt lat="45.37951" lon="4.76038">
        <ele>142.79</ele>
        <time>2019-05-26T08:00:46.000Z</time>
      </trkpt>
      <trkpt lat="45.37911" lon="4.76062">
        <ele>141.5</ele>
        <time>2019-05-26T08:00:51.000Z</time>
      </trkpt>
      <trkpt lat="45.37876" lon="4.76081">
        <ele>142.48</ele>
        <time>2019-05-26T08:00:56.000Z</time>
      </trkpt>
      <trkpt lat="45.37851" lon="4.76094">
        <ele>139.73</ele>
        <time>2019-05-26T08:01:01.000Z</time>
      </trkpt>
      <trkpt lat="45.37828" lon="4.76109">
        <ele>139.68</ele>
        <time>2019-05-26T08:01:06.000Z</time>
      </trkpt>
      <trkpt lat="45.37782" lon="4.76126">
        <ele>140.98</ele>
        <time>2019-05-26T08:01:14.508Z</time>
      </trkpt>
      <trkpt lat="45.3776" lon="4.76147">
        <ele>144.51</ele>
        <time>2019-05-26T08:01:19.000Z</time>
      </trkpt>
      <trkpt lat="45.37727" lon="4.76164">
        <ele>139.79</ele>
        <time>2019-05-26T08:01:25.197Z</time>
      </trkpt>
      <trkpt lat="45.37699" lon="4.76182">
        <ele>142.2</ele>
        <time>2019-05-26T08:01:30.000Z</time>
      </trkpt>
      <trkpt lat="45.37669" lon="4.76199">
        <ele>143.73</ele>
        <time>2019-05-26T08:01:35.000Z</time>
      </trkpt>
      <trkpt lat="45.3764" lon="4.76218">
        <ele>141.54</ele>
        <time>2019-05-26T08:01:40.000Z</time>
      </trkpt>
      <trkpt lat="45.37612" lon="4.76236">
        <ele>140.54</ele>
        <time>2019-05-26T08:01:45.000Z</time>
      </trkpt>
      <trkpt lat="45.37583" lon="4.76254">
        <ele>140.52</ele>
        <time>2019-05-26T08:01:50.000Z</time>
      </trkpt>
      <trkpt lat="45.37555" lon="4.76277">
        <ele>141.46</ele>
        <time>2019-05-26T08:01:55.000Z</time>
      </trkpt>
      <trkpt lat="45.37274" lon="4.76485">
        <ele>139</ele>
        <time>2019-05-26T08:24:31.877Z</time>
      </trkpt>
      <trkpt lat="45.3703" lon="4.76704">
        <ele>138</ele>
        <time>2019-05-26T08:28:01.000Z</time>
      </trkpt>
      <trkpt lat="45.3667" lon="4.77037">
        <ele>138</ele>
        <time>2019-05-26T08:30:22.000Z</time>
      </trkpt>
      <trkpt lat="45.36363" lon="4.77309">
        <ele>138</ele>
        <time>2019-05-26T08:40:33.000Z</time>
      </trkpt>
      <trkpt lat="45.36003" lon="4.77647">
        <ele>138</ele>
        <time>2019-05-26T08:41:50.000Z</time>
      </trkpt>
      <trkpt lat="45.35574" lon="4.78017">
        <ele>138</ele>
        <time>2019-05-26T08:41:55.000Z</time>
      </trkpt>
      <trkpt lat="45.35326" lon="4.78147">
        <ele>136</ele>
        <time>2019-05-26T08:42:00.000Z</time>
      </trkpt>
      <trkpt lat="45.35283" lon="4.78222">
        <ele>139</ele>
        <time>2019-05-26T08:42:05.000Z</time>
      </trkpt>
      <trkpt lat="45.35229" lon="4.78191">
        <ele>140</ele>
        <time>2019-05-26T08:42:10.000Z</time>
      </trkpt>
      <trkpt lat="45.35178" lon="4.78184">
        <ele>140</ele>
        <time>2019-05-26T08:42:15.000Z</time>
      </trkpt>
      <trkpt lat="45.34068" lon="4.78379">
        <ele>144</ele>
        <time>2019-05-26T08:42:20.000Z</time>
      </trkpt>
      <trkpt lat="45.34026" lon="4.78455">
        <ele>141</ele>
        <time>2019-05-26T08:42:25.000Z</time>
      </trkpt>
      <trkpt lat="45.33992" lon="4.78455">
        <ele>139</ele>
        <time>2019-05-26T08:42:32.000Z</time>
      </trkpt>
      <trkpt lat="45.33965" lon="4.78375">
        <ele>141</ele>
        <time>2019-05-26T08:42:37.000Z</time>
      </trkpt>
      <trkpt lat="45.33737" lon="4.784">
        <ele>138</ele>
        <time>2019-05-26T08:42:42.000Z</time>
      </trkpt>
      <trkpt lat="45.32973" lon="4.78529">
        <ele>138</ele>
        <time>2019-05-26T08:42:47.000Z</time>
      </trkpt>
      <trkpt lat="45.32877" lon="4.78365">
        <ele>138</ele>
        <time>2019-05-26T08:42:52.000Z</time>
      </trkpt>
      <trkpt lat="45.32823" lon="4.78152">
        <ele>137</ele>
        <time>2019-05-26T08:42:57.000Z</time>
      </trkpt>
      <trkpt lat="45.32801" lon="4.77978">
        <ele>137</ele>
        <time>2019-05-26T08:43:02.000Z</time>
      </trkpt>
      <trkpt lat="45.32809" lon="4.77807">
        <ele>138</ele>
        <time>2019-05-26T08:43:07.000Z</time>
      </trkpt>
      <trkpt lat="45.32833" lon="4.77608">
        <ele>136.3</ele>
        <time>2019-05-26T08:43:12.000Z</time>
      </trkpt>
      <trkpt lat="45.32858" lon="4.77434">
        <ele>138</ele>
        <time>2019-05-26T08:43:17.000Z</time>
      </trkpt>
      <trkpt lat="45.32862" lon="4.77323">
        <ele>136</ele>
        <time>2019-05-26T08:43:22.000Z</time>
      </trkpt>
      <trkpt lat="45.32826" lon="4.77159">
        <ele>136</ele>
        <time>2019-05-26T08:43:27.000Z</time>
      </trkpt>
      <trkpt lat="45.32953" lon="4.77162">
        <ele>137</ele>
        <time>2019-05-26T08:43:32.000Z</time>
      </trkpt>
      <trkpt lat="45.32987" lon="4.77065">
        <ele>137</ele>
        <time>2019-05-26T08:43:37.000Z</time>
      </trkpt>
      <trkpt lat="45.32997" lon="4.76977">
        <ele>137</ele>
        <time>2019-05-26T08:43:42.000Z</time>
      </trkpt>
      <trkpt lat="45.3288" lon="4.76855">
        <ele>137</ele>
        <time>2019-05-26T08:43:47.000Z</time>
      </trkpt>
      <trkpt lat="45.32769" lon="4.768">
        <ele>138</ele>
        <time>2019-05-26T08:43:52.000Z</time>
      </trkpt>
      <trkpt lat="45.32715" lon="4.7673">
        <ele>139</ele>
        <time>2019-05-26T08:43:57.000Z</time>
      </trkpt>
      <trkpt lat="45.32595" lon="4.76782">
        <ele>137</ele>
        <time>2019-05-26T08:44:02.000Z</time>
      </trkpt>
      <trkpt lat="45.32434" lon="4.76817">
        <ele>137</ele>
        <time>2019-05-26T08:44:07.000Z</time>
      </trkpt>
      <trkpt lat="45.3223" lon="4.76772">
        <ele>137</ele>
        <time>2019-05-26T08:44:12.000Z</time>
      </trkpt>
      <trkpt lat="45.32041" lon="4.76751">
        <ele>137</ele>
        <time>2019-05-26T08:44:17.000Z</time>
      </trkpt>
      <trkpt lat="45.31951" lon="4.76821">
        <ele>136</ele>
        <time>2019-05-26T08:44:22.000Z</time>
      </trkpt>
      <trkpt lat="45.31902" lon="4.76831">
        <ele>137</ele>
        <time>2019-05-26T08:44:27.000Z</time>
      </trkpt>
      <trkpt lat="45.31773" lon="4.76574">
        <ele>189.4</ele>
        <time>2019-05-26T08:44:32.000Z</time>
      </trkpt>
      <trkpt lat="45.31772" lon="4.76562">
        <ele>137.4</ele>
        <time>2019-05-26T08:44:37.000Z</time>
      </trkpt>
      <trkpt lat="45.31882" lon="4.76842">
        <ele>139</ele>
        <time>2019-05-26T08:44:42.000Z</time>
      </trkpt>
      <trkpt lat="45.31844" lon="4.76888">
        <ele>129.76</ele>
        <time>2019-05-26T08:44:47.000Z</time>
      </trkpt>
      <trkpt lat="45.31763" lon="4.77027">
        <ele>136</ele>
        <time>2019-05-26T08:44:52.000Z</time>
      </trkpt>
      <trkpt lat="45.31689" lon="4.77152">
        <ele>136</ele>
        <time>2019-05-26T08:44:57.000Z</time>
      </trkpt>
      <trkpt lat="45.31656" lon="4.7723">
        <ele>137</ele>
        <time>2019-05-26T08:45:02.000Z</time>
      </trkpt>
      <trkpt lat="45.31584" lon="4.77348">
        <ele>137</ele>
        <time>2019-05-26T08:45:07.000Z</time>
      </trkpt>
      <trkpt lat="45.31474" lon="4.77544">
        <ele>137</ele>
        <time>2019-05-26T08:45:12.000Z</time>
      </trkpt>
      <trkpt lat="45.31417" lon="4.77643">
        <ele>137</ele>
        <time>2019-05-26T08:45:17.000Z</time>
      </trkpt>
      <trkpt lat="45.31374" lon="4.77785">
        <ele>137</ele>
        <time>2019-05-26T08:45:22.000Z</time>
      </trkpt>
      <trkpt lat="45.31345" lon="4.77836">
        <ele>137</ele>
        <time>2019-05-26T08:45:27.000Z</time>
      </trkpt>
      <trkpt lat="45.31292" lon="4.7788">
        <ele>137</ele>
        <time>2019-05-26T08:45:32.000Z</time>
      </trkpt>
      <trkpt lat="45.313" lon="4.77914">
        <ele>137</ele>
        <time>2019-05-26T08:45:37.000Z</time>
      </trkpt>
      <trkpt lat="45.31277" lon="4.77963">
        <ele>137</ele>
        <time>2019-05-26T08:45:42.000Z</time>
      </trkpt>
      <trkpt lat="45.31214" lon="4.78047">
        <ele>139</ele>
        <time>2019-05-26T08:45:47.000Z</time>
      </trkpt>
      <trkpt lat="45.31162" lon="4.78198">
        <ele>137</ele>
        <time>2019-05-26T08:45:52.000Z</time>
      </trkpt>
      <trkpt lat="45.31105" lon="4.78375">
        <ele>135</ele>
        <time>2019-05-26T08:45:57.000Z</time>
      </trkpt>
      <trkpt lat="45.31103" lon="4.78446">
        <ele>135</ele>
        <time>2019-05-26T08:46:02.000Z</time>
      </trkpt>
      <trkpt lat="45.31102" lon="4.78489">
        <ele>135</ele>
        <time>2019-05-26T08:46:07.000Z</time>
      </trkpt>
      <trkpt lat="45.31045" lon="4.78557">
        <ele>136</ele>
        <time>2019-05-26T08:46:12.000Z</time>
      </trkpt>
      <trkpt lat="45.31034" lon="4.78611">
        <ele>137</ele>
        <time>2019-05-26T08:46:17.000Z</time>
      </trkpt>
      <trkpt lat="45.31005" lon="4.78602">
        <ele>139</ele>
        <time>2019-05-26T08:46:22.000Z</time>
      </trkpt>
      <trkpt lat="45.3089" lon="4.78783">
        <ele>134</ele>
        <time>2019-05-26T08:46:27.000Z</time>
      </trkpt>
      <trkpt lat="45.30847" lon="4.78878">
        <ele>135</ele>
        <time>2019-05-26T08:46:32.000Z</time>
      </trkpt>
      <trkpt lat="45.3078" lon="4.78968">
        <ele>137</ele>
        <time>2019-05-26T08:46:37.000Z</time>
      </trkpt>
      <trkpt lat="45.30741" lon="4.79147">
        <ele>138</ele>
        <time>2019-05-26T08:47:58.000Z</time>
      </trkpt>
      <trkpt lat="45.3073" lon="4.79201">
        <ele>138</ele>
        <time>2019-05-26T08:48:03.000Z</time>
      </trkpt>
      <trkpt lat="45.30738" lon="4.79287">
        <ele>137</ele>
        <time>2019-05-26T08:48:08.000Z</time>
      </trkpt>
      <trkpt lat="45.30746" lon="4.79427">
        <ele>139</ele>
        <time>2019-05-26T08:48:13.000Z</time>
      </trkpt>
      <trkpt lat="45.30647" lon="4.79502">
        <ele>142</ele>
        <time>2019-05-26T08:48:18.000Z</time>
      </trkpt>
      <trkpt lat="45.30618" lon="4.79578">
        <ele>141</ele>
        <time>2019-05-26T08:48:23.000Z</time>
      </trkpt>
      <trkpt lat="45.30629" lon="4.7964">
        <ele>137</ele>
        <time>2019-05-26T08:48:28.000Z</time>
      </trkpt>
      <trkpt lat="45.30757" lon="4.79972">
        <ele>138.45</ele>
        <time>2019-05-26T08:48:33.000Z</time>
      </trkpt>
      <trkpt lat="45.30754" lon="4.79986">
        <ele>143.53</ele>
        <time>2019-05-26T08:48:38.000Z</time>
      </trkpt>
      <trkpt lat="45.30762" lon="4.79998">
        <ele>144.46</ele>
        <time>2019-05-26T08:48:43.000Z</time>
      </trkpt>
      <trkpt lat="45.30772" lon="4.80027">
        <ele>144.47</ele>
        <time>2019-05-26T08:48:48.000Z</time>
      </trkpt>
      <trkpt lat="45.3078" lon="4.80061">
        <ele>142.53</ele>
        <time>2019-05-26T08:48:53.000Z</time>
      </trkpt>
      <trkpt lat="45.30786" lon="4.80102">
        <ele>140.53</ele>
        <time>2019-05-26T08:48:58.000Z</time>
      </trkpt>
      <trkpt lat="45.30792" lon="4.80143">
        <ele>139.48</ele>
        <time>2019-05-26T08:49:03.000Z</time>
      </trkpt>
      <trkpt lat="45.30789" lon="4.80168">
        <ele>138.48</ele>
        <time>2019-05-26T08:49:08.000Z</time>
      </trkpt>
      <trkpt lat="45.30776" lon="4.80175">
        <ele>138.47</ele>
        <time>2019-05-26T08:49:13.000Z</time>
      </trkpt>
      <trkpt lat="45.30767" lon="4.80173">
        <ele>138.47</ele>
        <time>2019-05-26T08:49:18.000Z</time>
      </trkpt>
      <trkpt lat="45.30766" lon="4.80153">
        <ele>138.47</ele>
        <time>2019-05-26T08:49:23.000Z</time>
      </trkpt>
      <trkpt lat="45.30757" lon="4.80142">
        <ele>138.47</ele>
        <time>2019-05-26T08:49:28.000Z</time>
      </trkpt>
      <trkpt lat="45.30738" lon="4.80156">
        <ele>139.41</ele>
        <time>2019-05-26T08:49:33.000Z</time>
      </trkpt>
      <trkpt lat="45.30719" lon="4.80174">
        <ele>138.47</ele>
        <time>2019-05-26T08:49:38.000Z</time>
      </trkpt>
      <trkpt lat="45.30697" lon="4.80189">
        <ele>138.47</ele>
        <time>2019-05-26T08:49:43.000Z</time>
      </trkpt>
      <trkpt lat="45.30675" lon="4.80205">
        <ele>139.4</ele>
        <time>2019-05-26T08:49:48.000Z</time>
      </trkpt>
      <trkpt lat="45.30651" lon="4.80224">
        <ele>140.22</ele>
        <time>2019-05-26T08:49:53.000Z</time>
      </trkpt>
      <trkpt lat="45.30628" lon="4.80242">
        <ele>139.53</ele>
        <time>2019-05-26T08:49:58.000Z</time>
      </trkpt>
      <trkpt lat="45.30604" lon="4.80259">
        <ele>138.48</ele>
        <time>2019-05-26T08:50:03.000Z</time>
      </trkpt>
      <trkpt lat="45.3058" lon="4.80276">
        <ele>140.4</ele>
        <time>2019-05-26T08:50:08.000Z</time>
      </trkpt>
      <trkpt lat="45.30555" lon="4.80294">
        <ele>141.45</ele>
        <time>2019-05-26T08:50:13.000Z</time>
      </trkpt>
      <trkpt lat="45.30529" lon="4.80312">
        <ele>140.47</ele>
        <time>2019-05-26T08:50:18.000Z</time>
      </trkpt>
      <trkpt lat="45.30505" lon="4.80332">
        <ele>140.4</ele>
        <time>2019-05-26T08:50:23.000Z</time>
      </trkpt>
      <trkpt lat="45.30481" lon="4.80351">
        <ele>139.47</ele>
        <time>2019-05-26T08:50:28.000Z</time>
      </trkpt>
      <trkpt lat="45.30457" lon="4.80368">
        <ele>140.46</ele>
        <time>2019-05-26T08:50:33.000Z</time>
      </trkpt>
      <trkpt lat="45.30433" lon="4.80383">
        <ele>138.54</ele>
        <time>2019-05-26T08:50:38.000Z</time>
      </trkpt>
      <trkpt lat="45.30408" lon="4.80394">
        <ele>137.28</ele>
        <time>2019-05-26T08:50:43.000Z</time>
      </trkpt>
      <trkpt lat="45.30382" lon="4.80397">
        <ele>137.51</ele>
        <time>2019-05-26T08:50:48.000Z</time>
      </trkpt>
      <trkpt lat="45.30357" lon="4.80386">
        <ele>138.45</ele>
        <time>2019-05-26T08:50:53.000Z</time>
      </trkpt>
      <trkpt lat="45.30335" lon="4.80366">
        <ele>138.46</ele>
        <time>2019-05-26T08:50:58.000Z</time>
      </trkpt>
      <trkpt lat="45.30315" lon="4.80348">
        <ele>139.26</ele>
        <time>2019-05-26T08:51:03.000Z</time>
      </trkpt>
      <trkpt lat="45.30293" lon="4.8033">
        <ele>139.42</ele>
        <time>2019-05-26T08:51:08.000Z</time>
      </trkpt>
      <trkpt lat="45.3027" lon="4.80317">
        <ele>139.46</ele>
        <time>2019-05-26T08:51:13.000Z</time>
      </trkpt>
      <trkpt lat="45.30246" lon="4.80308">
        <ele>139.65</ele>
        <time>2019-05-26T08:51:18.000Z</time>
      </trkpt>
      <trkpt lat="45.30222" lon="4.80301">
        <ele>139.41</ele>
        <time>2019-05-26T08:51:23.000Z</time>
      </trkpt>
      <trkpt lat="45.30197" lon="4.80302">
        <ele>138.46</ele>
        <time>2019-05-26T08:51:28.000Z</time>
      </trkpt>
      <trkpt lat="45.30172" lon="4.80312">
        <ele>139.21</ele>
        <time>2019-05-26T08:51:33.000Z</time>
      </trkpt>
      <trkpt lat="45.30148" lon="4.80334">
        <ele>141.38</ele>
        <time>2019-05-26T08:51:38.000Z</time>
      </trkpt>
      <trkpt lat="45.30123" lon="4.8036">
        <ele>142.46</ele>
        <time>2019-05-26T08:51:43.000Z</time>
      </trkpt>
      <trkpt lat="45.30093" lon="4.80384">
        <ele>139.78</ele>
        <time>2019-05-26T08:51:48.000Z</time>
      </trkpt>
      <trkpt lat="45.30066" lon="4.8041">
        <ele>139.27</ele>
        <time>2019-05-26T08:51:53.000Z</time>
      </trkpt>
      <trkpt lat="45.30041" lon="4.80441">
        <ele>136.54</ele>
        <time>2019-05-26T08:51:58.000Z</time>
      </trkpt>
      <trkpt lat="45.30017" lon="4.8047">
        <ele>135.77</ele>
        <time>2019-05-26T08:52:03.000Z</time>
      </trkpt>
      <trkpt lat="45.29993" lon="4.80494">
        <ele>135.65</ele>
        <time>2019-05-26T08:52:08.000Z</time>
      </trkpt>
      <trkpt lat="45.29971" lon="4.80518">
        <ele>134.71</ele>
        <time>2019-05-26T08:52:13.000Z</time>
      </trkpt>
      <trkpt lat="45.29947" lon="4.80541">
        <ele>136.24</ele>
        <time>2019-05-26T08:52:18.000Z</time>
      </trkpt>
      <trkpt lat="45.2992" lon="4.80566">
        <ele>137.45</ele>
        <time>2019-05-26T08:52:23.000Z</time>
      </trkpt>
      <trkpt lat="45.29899" lon="4.80591">
        <ele>135.54</ele>
        <time>2019-05-26T08:52:28.000Z</time>
      </trkpt>
      <trkpt lat="45.29875" lon="4.80617">
        <ele>135.42</ele>
        <time>2019-05-26T08:52:33.000Z</time>
      </trkpt>
      <trkpt lat="45.29851" lon="4.80646">
        <ele>135.51</ele>
        <time>2019-05-26T08:52:38.000Z</time>
      </trkpt>
      <trkpt lat="45.29829" lon="4.80671">
        <ele>136.21</ele>
        <time>2019-05-26T08:52:43.000Z</time>
      </trkpt>
      <trkpt lat="45.29808" lon="4.80693">
        <ele>137.45</ele>
        <time>2019-05-26T08:52:48.000Z</time>
      </trkpt>
      <trkpt lat="45.29784" lon="4.80716">
        <ele>136.47</ele>
        <time>2019-05-26T08:52:53.000Z</time>
      </trkpt>
      <trkpt lat="45.29761" lon="4.80739">
        <ele>135.53</ele>
        <time>2019-05-26T08:52:58.000Z</time>
      </trkpt>
      <trkpt lat="45.29738" lon="4.80763">
        <ele>136.21</ele>
        <time>2019-05-26T08:53:03.000Z</time>
      </trkpt>
      <trkpt lat="45.29716" lon="4.80786">
        <ele>135.46</ele>
        <time>2019-05-26T08:53:08.000Z</time>
      </trkpt>
      <trkpt lat="45.29691" lon="4.80806">
        <ele>139.42</ele>
        <time>2019-05-26T08:53:13.000Z</time>
      </trkpt>
      <trkpt lat="45.29672" lon="4.8083">
        <ele>139.45</ele>
        <time>2019-05-26T08:53:18.000Z</time>
      </trkpt>
      <trkpt lat="45.29676" lon="4.80843">
        <ele>138.71</ele>
        <time>2019-05-26T08:53:23.000Z</time>
      </trkpt>
      <trkpt lat="45.29666" lon="4.80837">
        <ele>136.42</ele>
        <time>2019-05-26T08:53:28.000Z</time>
      </trkpt>
      <trkpt lat="45.29653" lon="4.80839">
        <ele>136.46</ele>
        <time>2019-05-26T08:53:33.000Z</time>
      </trkpt>
      <trkpt lat="45.29635" lon="4.80855">
        <ele>136.46</ele>
        <time>2019-05-26T08:53:38.000Z</time>
      </trkpt>
      <trkpt lat="45.29616" lon="4.80875">
        <ele>136.7</ele>
        <time>2019-05-26T08:53:43.000Z</time>
      </trkpt>
      <trkpt lat="45.29592" lon="4.80887">
        <ele>136.21</ele>
        <time>2019-05-26T08:53:48.000Z</time>
      </trkpt>
      <trkpt lat="45.29569" lon="4.80904">
        <ele>138.45</ele>
        <time>2019-05-26T08:53:53.000Z</time>
      </trkpt>
      <trkpt lat="45.29543" lon="4.80918">
        <ele>136.48</ele>
        <time>2019-05-26T08:53:58.000Z</time>
      </trkpt>
      <trkpt lat="45.29518" lon="4.80933">
        <ele>136.52</ele>
        <time>2019-05-26T08:54:03.000Z</time>
      </trkpt>
      <trkpt lat="45.29491" lon="4.8095">
        <ele>135.66</ele>
        <time>2019-05-26T08:54:08.000Z</time>
      </trkpt>
      <trkpt lat="45.29463" lon="4.80967">
        <ele>135.29</ele>
        <time>2019-05-26T08:54:13.000Z</time>
      </trkpt>
      <trkpt lat="45.29435" lon="4.8098">
        <ele>135.42</ele>
        <time>2019-05-26T08:54:18.000Z</time>
      </trkpt>
      <trkpt lat="45.29409" lon="4.80994">
        <ele>134.71</ele>
        <time>2019-05-26T08:54:23.000Z</time>
      </trkpt>
      <trkpt lat="45.2938" lon="4.81002">
        <ele>136.44</ele>
        <time>2019-05-26T08:54:28.000Z</time>
      </trkpt>
      <trkpt lat="45.29353" lon="4.81014">
        <ele>136.45</ele>
        <time>2019-05-26T08:54:33.000Z</time>
      </trkpt>
      <trkpt lat="45.29333" lon="4.81027">
        <ele>138.46</ele>
        <time>2019-05-26T08:54:38.000Z</time>
      </trkpt>
      <trkpt lat="45.29318" lon="4.81038">
        <ele>138.46</ele>
        <time>2019-05-26T08:54:43.000Z</time>
      </trkpt>
      <trkpt lat="45.29301" lon="4.81046">
        <ele>137.47</ele>
        <time>2019-05-26T08:54:48.000Z</time>
      </trkpt>
      <trkpt lat="45.29282" lon="4.81054">
        <ele>136.52</ele>
        <time>2019-05-26T08:54:53.000Z</time>
      </trkpt>
      <trkpt lat="45.2926" lon="4.81061">
        <ele>136.48</ele>
        <time>2019-05-26T08:54:58.000Z</time>
      </trkpt>
      <trkpt lat="45.29235" lon="4.81068">
        <ele>137.46</ele>
        <time>2019-05-26T08:55:03.000Z</time>
      </trkpt>
      <trkpt lat="45.29209" lon="4.8108">
        <ele>138.21</ele>
        <time>2019-05-26T08:55:08.000Z</time>
      </trkpt>
      <trkpt lat="45.29181" lon="4.81087">
        <ele>138.45</ele>
        <time>2019-05-26T08:55:13.000Z</time>
      </trkpt>
      <trkpt lat="45.29152" lon="4.81092">
        <ele>138.46</ele>
        <time>2019-05-26T08:55:18.000Z</time>
      </trkpt>
      <trkpt lat="45.29123" lon="4.81095">
        <ele>138.65</ele>
        <time>2019-05-26T08:55:23.000Z</time>
      </trkpt>
      <trkpt lat="45.29094" lon="4.811">
        <ele>146.21</ele>
        <time>2019-05-26T08:55:28.000Z</time>
      </trkpt>
      <trkpt lat="45.29065" lon="4.81103">
        <ele>140.79</ele>
        <time>2019-05-26T08:55:33.000Z</time>
      </trkpt>
      <trkpt lat="45.29035" lon="4.81107">
        <ele>140.46</ele>
        <time>2019-05-26T08:55:38.000Z</time>
      </trkpt>
      <trkpt lat="45.29004" lon="4.81111">
        <ele>140.46</ele>
        <time>2019-05-26T08:55:43.000Z</time>
      </trkpt>
      <trkpt lat="45.28972" lon="4.81112">
        <ele>140.46</ele>
        <time>2019-05-26T08:55:48.000Z</time>
      </trkpt>
      <trkpt lat="45.28941" lon="4.81115">
        <ele>140.46</ele>
        <time>2019-05-26T08:55:53.000Z</time>
      </trkpt>
      <trkpt lat="45.28908" lon="4.81116">
        <ele>139.52</ele>
        <time>2019-05-26T08:55:58.000Z</time>
      </trkpt>
      <trkpt lat="45.28877" lon="4.81118">
        <ele>140.46</ele>
        <time>2019-05-26T08:56:03.000Z</time>
      </trkpt>
      <trkpt lat="45.28845" lon="4.81119">
        <ele>140.46</ele>
        <time>2019-05-26T08:56:08.000Z</time>
      </trkpt>
      <trkpt lat="45.28814" lon="4.81119">
        <ele>140.46</ele>
        <time>2019-05-26T08:56:13.000Z</time>
      </trkpt>
      <trkpt lat="45.28783" lon="4.81117">
        <ele>138.52</ele>
        <time>2019-05-26T08:56:18.000Z</time>
      </trkpt>
      <trkpt lat="45.28753" lon="4.81115">
        <ele>137.47</ele>
        <time>2019-05-26T08:56:23.000Z</time>
      </trkpt>
      <trkpt lat="45.2872" lon="4.81118">
        <ele>136.46</ele>
        <time>2019-05-26T08:56:28.000Z</time>
      </trkpt>
      <trkpt lat="45.28687" lon="4.81118">
        <ele>135.69</ele>
        <time>2019-05-26T08:56:33.000Z</time>
      </trkpt>
      <trkpt lat="45.28654" lon="4.8112">
        <ele>136.22</ele>
        <time>2019-05-26T08:56:38.000Z</time>
      </trkpt>
      <trkpt lat="45.28622" lon="4.81122">
        <ele>136.45</ele>
        <time>2019-05-26T08:56:43.000Z</time>
      </trkpt>
      <trkpt lat="45.2859" lon="4.81115">
        <ele>136.45</ele>
        <time>2019-05-26T08:56:48.000Z</time>
      </trkpt>
      <trkpt lat="45.28559" lon="4.8111">
        <ele>135.46</ele>
        <time>2019-05-26T08:56:53.000Z</time>
      </trkpt>
      <trkpt lat="45.28526" lon="4.81109">
        <ele>135.45</ele>
        <time>2019-05-26T08:56:58.000Z</time>
      </trkpt>
      <trkpt lat="45.28492" lon="4.81107">
        <ele>134.51</ele>
        <time>2019-05-26T08:57:03.000Z</time>
      </trkpt>
      <trkpt lat="45.28455" lon="4.81102">
        <ele>132.7</ele>
        <time>2019-05-26T08:57:08.000Z</time>
      </trkpt>
      <trkpt lat="45.28415" lon="4.81102">
        <ele>132.45</ele>
        <time>2019-05-26T08:57:13.000Z</time>
      </trkpt>
      <trkpt lat="45.28379" lon="4.8111">
        <ele>132.68</ele>
        <time>2019-05-26T08:57:18.000Z</time>
      </trkpt>
      <trkpt lat="45.28344" lon="4.81112">
        <ele>132.45</ele>
        <time>2019-05-26T08:57:23.000Z</time>
      </trkpt>
      <trkpt lat="45.2831" lon="4.81116">
        <ele>132.2</ele>
        <time>2019-05-26T08:57:28.000Z</time>
      </trkpt>
      <trkpt lat="45.28277" lon="4.81119">
        <ele>132.64</ele>
        <time>2019-05-26T08:57:33.000Z</time>
      </trkpt>
      <trkpt lat="45.28243" lon="4.81125">
        <ele>133.43</ele>
        <time>2019-05-26T08:57:38.000Z</time>
      </trkpt>
      <trkpt lat="45.2821" lon="4.81131">
        <ele>133.45</ele>
        <time>2019-05-26T08:57:43.000Z</time>
      </trkpt>
      <trkpt lat="45.28176" lon="4.81132">
        <ele>134.19</ele>
        <time>2019-05-26T08:57:48.000Z</time>
      </trkpt>
      <trkpt lat="45.28144" lon="4.8114">
        <ele>134.58</ele>
        <time>2019-05-26T08:57:53.000Z</time>
      </trkpt>
      <trkpt lat="45.28113" lon="4.81145">
        <ele>134.46</ele>
        <time>2019-05-26T08:57:58.000Z</time>
      </trkpt>
      <trkpt lat="45.28083" lon="4.81148">
        <ele>135.2</ele>
        <time>2019-05-26T08:58:03.000Z</time>
      </trkpt>
      <trkpt lat="45.28049" lon="4.81156">
        <ele>133.74</ele>
        <time>2019-05-26T08:58:08.000Z</time>
      </trkpt>
      <trkpt lat="45.28018" lon="4.81164">
        <ele>136.57</ele>
        <time>2019-05-26T08:58:13.000Z</time>
      </trkpt>
      <trkpt lat="45.27989" lon="4.81168">
        <ele>135.14</ele>
        <time>2019-05-26T08:58:18.000Z</time>
      </trkpt>
      <trkpt lat="45.2796" lon="4.81174">
        <ele>135.46</ele>
        <time>2019-05-26T08:58:23.000Z</time>
      </trkpt>
      <trkpt lat="45.27933" lon="4.81183">
        <ele>137.19</ele>
        <time>2019-05-26T08:58:28.000Z</time>
      </trkpt>
      <trkpt lat="45.27906" lon="4.81182">
        <ele>135.51</ele>
        <time>2019-05-26T08:58:33.000Z</time>
      </trkpt>
      <trkpt lat="45.27874" lon="4.81179">
        <ele>134.44</ele>
        <time>2019-05-26T08:58:38.000Z</time>
      </trkpt>
      <trkpt lat="45.2784" lon="4.81177">
        <ele>133.51</ele>
        <time>2019-05-26T08:58:43.000Z</time>
      </trkpt>
      <trkpt lat="45.27808" lon="4.81178">
        <ele>132.69</ele>
        <time>2019-05-26T08:58:48.000Z</time>
      </trkpt>
      <trkpt lat="45.27778" lon="4.81176">
        <ele>134.43</ele>
        <time>2019-05-26T08:58:53.000Z</time>
      </trkpt>
      <trkpt lat="45.27745" lon="4.81174">
        <ele>134.44</ele>
        <time>2019-05-26T08:58:58.000Z</time>
      </trkpt>
      <trkpt lat="45.27714" lon="4.81178">
        <ele>131.77</ele>
        <time>2019-05-26T08:59:03.000Z</time>
      </trkpt>
      <trkpt lat="45.27684" lon="4.81174">
        <ele>132.69</ele>
        <time>2019-05-26T08:59:08.000Z</time>
      </trkpt>
      <trkpt lat="45.27653" lon="4.81176">
        <ele>133.45</ele>
        <time>2019-05-26T08:59:13.000Z</time>
      </trkpt>
      <trkpt lat="45.27619" lon="4.81174">
        <ele>132.5</ele>
        <time>2019-05-26T08:59:18.000Z</time>
      </trkpt>
      <trkpt lat="45.27586" lon="4.81174">
        <ele>132.39</ele>
        <time>2019-05-26T08:59:23.000Z</time>
      </trkpt>
      <trkpt lat="45.27555" lon="4.81173">
        <ele>134.17</ele>
        <time>2019-05-26T08:59:28.000Z</time>
      </trkpt>
      <trkpt lat="45.27522" lon="4.81169">
        <ele>135.42</ele>
        <time>2019-05-26T08:59:33.000Z</time>
      </trkpt>
      <trkpt lat="45.27489" lon="4.8117">
        <ele>132.69</ele>
        <time>2019-05-26T08:59:38.000Z</time>
      </trkpt>
      <trkpt lat="45.27461" lon="4.81172">
        <ele>133.42</ele>
        <time>2019-05-26T08:59:43.000Z</time>
      </trkpt>
      <trkpt lat="45.2743" lon="4.81172">
        <ele>133.45</ele>
        <time>2019-05-26T08:59:48.000Z</time>
      </trkpt>
      <trkpt lat="45.27398" lon="4.81169">
        <ele>131.63</ele>
        <time>2019-05-26T08:59:53.000Z</time>
      </trkpt>
      <trkpt lat="45.27369" lon="4.8117">
        <ele>130.58</ele>
        <time>2019-05-26T08:59:58.000Z</time>
      </trkpt>
      <trkpt lat="45.27343" lon="4.81172">
        <ele>132.42</ele>
        <time>2019-05-26T09:00:03.000Z</time>
      </trkpt>
      <trkpt lat="45.27319" lon="4.81175">
        <ele>133.47</ele>
        <time>2019-05-26T09:00:08.000Z</time>
      </trkpt>
      <trkpt lat="45.27296" lon="4.81177">
        <ele>136.17</ele>
        <time>2019-05-26T09:00:13.000Z</time>
      </trkpt>
      <trkpt lat="45.27274" lon="4.8118">
        <ele>137.42</ele>
        <time>2019-05-26T09:00:18.000Z</time>
      </trkpt>
      <trkpt lat="45.27253" lon="4.81183">
        <ele>139.42</ele>
        <time>2019-05-26T09:00:23.000Z</time>
      </trkpt>
      <trkpt lat="45.27232" lon="4.81184">
        <ele>140.43</ele>
        <time>2019-05-26T09:00:28.000Z</time>
      </trkpt>
      <trkpt lat="45.27213" lon="4.81186">
        <ele>140.43</ele>
        <time>2019-05-26T09:00:33.000Z</time>
      </trkpt>
      <trkpt lat="45.27194" lon="4.81187">
        <ele>140.48</ele>
        <time>2019-05-26T09:00:38.000Z</time>
      </trkpt>
      <trkpt lat="45.27175" lon="4.81188">
        <ele>140.43</ele>
        <time>2019-05-26T09:00:43.000Z</time>
      </trkpt>
      <trkpt lat="45.27148" lon="4.81187">
        <ele>139.45</ele>
        <time>2019-05-26T09:00:48.000Z</time>
      </trkpt>
      <trkpt lat="45.27114" lon="4.81188">
        <ele>137.68</ele>
        <time>2019-05-26T09:00:53.000Z</time>
      </trkpt>
      <trkpt lat="45.27077" lon="4.81194">
        <ele>136.45</ele>
        <time>2019-05-26T09:02:01.000Z</time>
      </trkpt>
      <trkpt lat="45.27041" lon="4.81199">
        <ele>134.45</ele>
        <time>2019-05-26T09:02:06.000Z</time>
      </trkpt>
      <trkpt lat="45.27006" lon="4.81194">
        <ele>134.43</ele>
        <time>2019-05-26T09:02:11.000Z</time>
      </trkpt>
      <trkpt lat="45.2697" lon="4.81195">
        <ele>133.62</ele>
        <time>2019-05-26T09:02:16.000Z</time>
      </trkpt>
      <trkpt lat="45.26935" lon="4.81193">
        <ele>133.43</ele>
        <time>2019-05-26T09:02:21.000Z</time>
      </trkpt>
      <trkpt lat="45.26901" lon="4.81195">
        <ele>134.18</ele>
        <time>2019-05-26T09:02:26.000Z</time>
      </trkpt>
      <trkpt lat="45.26867" lon="4.81202">
        <ele>133.68</ele>
        <time>2019-05-26T09:02:31.000Z</time>
      </trkpt>
      <trkpt lat="45.26832" lon="4.81208">
        <ele>133.43</ele>
        <time>2019-05-26T09:02:36.000Z</time>
      </trkpt>
      <trkpt lat="45.26796" lon="4.81214">
        <ele>133.43</ele>
        <time>2019-05-26T09:02:41.000Z</time>
      </trkpt>
      <trkpt lat="45.26761" lon="4.8122">
        <ele>132.48</ele>
        <time>2019-05-26T09:02:46.000Z</time>
      </trkpt>
      <trkpt lat="45.26728" lon="4.81229">
        <ele>132.43</ele>
        <time>2019-05-26T09:02:51.000Z</time>
      </trkpt>
      <trkpt lat="45.26699" lon="4.81242">
        <ele>131.68</ele>
        <time>2019-05-26T09:02:56.000Z</time>
      </trkpt>
      <trkpt lat="45.26667" lon="4.81257">
        <ele>131.43</ele>
        <time>2019-05-26T09:03:01.000Z</time>
      </trkpt>
      <trkpt lat="45.26637" lon="4.81272">
        <ele>129.49</ele>
        <time>2019-05-26T09:03:06.000Z</time>
      </trkpt>
      <trkpt lat="45.26606" lon="4.8127">
        <ele>130.36</ele>
        <time>2019-05-26T09:03:11.000Z</time>
      </trkpt>
      <trkpt lat="45.26577" lon="4.81258">
        <ele>131.37</ele>
        <time>2019-05-26T09:03:16.000Z</time>
      </trkpt>
      <trkpt lat="45.26549" lon="4.81242">
        <ele>130.68</ele>
        <time>2019-05-26T09:03:21.000Z</time>
      </trkpt>
      <trkpt lat="45.26518" lon="4.81233">
        <ele>130.43</ele>
        <time>2019-05-26T09:03:26.000Z</time>
      </trkpt>
      <trkpt lat="45.26488" lon="4.81232">
        <ele>131.44</ele>
        <time>2019-05-26T09:03:31.000Z</time>
      </trkpt>
      <trkpt lat="45.26456" lon="4.81225">
        <ele>132.38</ele>
        <time>2019-05-26T09:03:36.000Z</time>
      </trkpt>
      <trkpt lat="45.26423" lon="4.81221">
        <ele>131.42</ele>
        <time>2019-05-26T09:03:41.000Z</time>
      </trkpt>
      <trkpt lat="45.26393" lon="4.81219">
        <ele>132.42</ele>
        <time>2019-05-26T09:03:46.000Z</time>
      </trkpt>
      <trkpt lat="45.26364" lon="4.81225">
        <ele>131.48</ele>
        <time>2019-05-26T09:03:51.000Z</time>
      </trkpt>
      <trkpt lat="45.26334" lon="4.81225">
        <ele>132.22</ele>
        <time>2019-05-26T09:03:56.000Z</time>
      </trkpt>
      <trkpt lat="45.263" lon="4.8122">
        <ele>130.73</ele>
        <time>2019-05-26T09:04:01.000Z</time>
      </trkpt>
      <trkpt lat="45.2627" lon="4.81213">
        <ele>130.42</ele>
        <time>2019-05-26T09:04:06.000Z</time>
      </trkpt>
      <trkpt lat="45.26238" lon="4.81208">
        <ele>130.65</ele>
        <time>2019-05-26T09:04:11.000Z</time>
      </trkpt>
      <trkpt lat="45.26209" lon="4.81206">
        <ele>131.22</ele>
        <time>2019-05-26T09:04:16.000Z</time>
      </trkpt>
      <trkpt lat="45.26181" lon="4.81194">
        <ele>130.42</ele>
        <time>2019-05-26T09:04:21.000Z</time>
      </trkpt>
      <trkpt lat="45.26153" lon="4.81186">
        <ele>131.4</ele>
        <time>2019-05-26T09:04:26.000Z</time>
      </trkpt>
      <trkpt lat="45.26123" lon="4.81176">
        <ele>133.4</ele>
        <time>2019-05-26T09:04:31.000Z</time>
      </trkpt>
      <trkpt lat="45.26094" lon="4.81168">
        <ele>133.42</ele>
        <time>2019-05-26T09:04:36.000Z</time>
      </trkpt>
      <trkpt lat="45.26067" lon="4.81159">
        <ele>134.42</ele>
        <time>2019-05-26T09:04:41.000Z</time>
      </trkpt>
      <trkpt lat="45.2604" lon="4.81151">
        <ele>132.68</ele>
        <time>2019-05-26T09:04:46.000Z</time>
      </trkpt>
      <trkpt lat="45.26016" lon="4.81141">
        <ele>133.21</ele>
        <time>2019-05-26T09:04:51.000Z</time>
      </trkpt>
      <trkpt lat="45.25988" lon="4.81125">
        <ele>133.43</ele>
        <time>2019-05-26T09:04:56.000Z</time>
      </trkpt>
      <trkpt lat="45.25961" lon="4.81107">
        <ele>133.66</ele>
        <time>2019-05-26T09:05:01.000Z</time>
      </trkpt>
      <trkpt lat="45.25935" lon="4.81096">
        <ele>131.36</ele>
        <time>2019-05-26T09:05:06.000Z</time>
      </trkpt>
      <trkpt lat="45.25908" lon="4.81085">
        <ele>129.68</ele>
        <time>2019-05-26T09:05:11.000Z</time>
      </trkpt>
      <trkpt lat="45.2588" lon="4.81071">
        <ele>128.24</ele>
        <time>2019-05-26T09:05:16.000Z</time>
      </trkpt>
      <trkpt lat="45.25846" lon="4.8106">
        <ele>130.41</ele>
        <time>2019-05-26T09:05:21.000Z</time>
      </trkpt>
      <trkpt lat="45.25817" lon="4.81044">
        <ele>132.16</ele>
        <time>2019-05-26T09:05:26.000Z</time>
      </trkpt>
      <trkpt lat="45.25788" lon="4.81033">
        <ele>130.48</ele>
        <time>2019-05-26T09:05:31.000Z</time>
      </trkpt>
      <trkpt lat="45.25758" lon="4.81025">
        <ele>129.43</ele>
        <time>2019-05-26T09:05:36.000Z</time>
      </trkpt>
      <trkpt lat="45.2573" lon="4.81006">
        <ele>130.16</ele>
        <time>2019-05-26T09:05:41.000Z</time>
      </trkpt>
      <trkpt lat="45.25701" lon="4.80988">
        <ele>129.41</ele>
        <time>2019-05-26T09:05:46.000Z</time>
      </trkpt>
      <trkpt lat="45.2567" lon="4.80975">
        <ele>131.33</ele>
        <time>2019-05-26T09:05:51.000Z</time>
      </trkpt>
      <trkpt lat="45.25642" lon="4.80962">
        <ele>130.41</ele>
        <time>2019-05-26T09:05:56.000Z</time>
      </trkpt>
      <trkpt lat="45.25612" lon="4.80952">
        <ele>131.16</ele>
        <time>2019-05-26T09:06:01.000Z</time>
      </trkpt>
      <trkpt lat="45.25585" lon="4.80939">
        <ele>129.42</ele>
        <time>2019-05-26T09:06:06.000Z</time>
      </trkpt>
      <trkpt lat="45.2556" lon="4.80929">
        <ele>130.14</ele>
        <time>2019-05-26T09:06:11.000Z</time>
      </trkpt>
      <trkpt lat="45.25535" lon="4.8092">
        <ele>132.28</ele>
        <time>2019-05-26T09:06:16.000Z</time>
      </trkpt>
      <trkpt lat="45.25507" lon="4.80909">
        <ele>131.42</ele>
        <time>2019-05-26T09:06:21.000Z</time>
      </trkpt>
      <trkpt lat="45.25477" lon="4.80903">
        <ele>132.15</ele>
        <time>2019-05-26T09:06:26.000Z</time>
      </trkpt>
      <trkpt lat="45.2545" lon="4.80899">
        <ele>131.65</ele>
        <time>2019-05-26T09:06:31.000Z</time>
      </trkpt>
      <trkpt lat="45.25427" lon="4.80895">
        <ele>131.34</ele>
        <time>2019-05-26T09:06:36.000Z</time>
      </trkpt>
      <trkpt lat="45.25398" lon="4.80886">
        <ele>132.4</ele>
        <time>2019-05-26T09:06:41.000Z</time>
      </trkpt>
      <trkpt lat="45.25366" lon="4.80892">
        <ele>133.15</ele>
        <time>2019-05-26T09:06:46.000Z</time>
      </trkpt>
      <trkpt lat="45.25346" lon="4.8093">
        <ele>133.4</ele>
        <time>2019-05-26T09:06:51.000Z</time>
      </trkpt>
      <trkpt lat="45.25315" lon="4.80947">
        <ele>135.03</ele>
        <time>2019-05-26T09:06:56.000Z</time>
      </trkpt>
      <trkpt lat="45.25289" lon="4.80957">
        <ele>135.41</ele>
        <time>2019-05-26T09:07:01.000Z</time>
      </trkpt>
      <trkpt lat="45.25271" lon="4.80958">
        <ele>134.59</ele>
        <time>2019-05-26T09:07:06.000Z</time>
      </trkpt>
      <trkpt lat="45.25259" lon="4.80961">
        <ele>136.33</ele>
        <time>2019-05-26T09:07:51.000Z</time>
      </trkpt>
      <trkpt lat="45.25247" lon="4.80964">
        <ele>136.17</ele>
        <time>2019-05-26T09:07:57.000Z</time>
      </trkpt>
      <trkpt lat="45.25233" lon="4.80963">
        <ele>137.33</ele>
        <time>2019-05-26T09:08:02.000Z</time>
      </trkpt>
      <trkpt lat="45.25224" lon="4.80963">
        <ele>136.4</ele>
        <time>2019-05-26T09:08:07.000Z</time>
      </trkpt>
      <trkpt lat="45.25214" lon="4.80971">
        <ele>139.09</ele>
        <time>2019-05-26T09:08:12.000Z</time>
      </trkpt>
      <trkpt lat="45.2521" lon="4.80992">
        <ele>138.65</ele>
        <time>2019-05-26T09:08:17.000Z</time>
      </trkpt>
      <trkpt lat="45.25212" lon="4.81019">
        <ele>138.4</ele>
        <time>2019-05-26T09:08:22.000Z</time>
      </trkpt>
      <trkpt lat="45.25209" lon="4.81045">
        <ele>139.39</ele>
        <time>2019-05-26T09:08:27.000Z</time>
      </trkpt>
      <trkpt lat="45.25198" lon="4.81065">
        <ele>136.73</ele>
        <time>2019-05-26T09:08:32.000Z</time>
      </trkpt>
      <trkpt lat="45.25186" lon="4.81076">
        <ele>135.41</ele>
        <time>2019-05-26T09:08:37.000Z</time>
      </trkpt>
      <trkpt lat="45.25172" lon="4.81087">
        <ele>134.41</ele>
        <time>2019-05-26T09:08:42.000Z</time>
      </trkpt>
      <trkpt lat="45.2516" lon="4.81097">
        <ele>134.4</ele>
        <time>2019-05-26T09:08:47.000Z</time>
      </trkpt>
      <trkpt lat="45.25152" lon="4.81107">
        <ele>135.39</ele>
        <time>2019-05-26T09:08:52.000Z</time>
      </trkpt>
      <trkpt lat="45.25136" lon="4.81097">
        <ele>134.65</ele>
        <time>2019-05-26T09:08:57.000Z</time>
      </trkpt>
      <trkpt lat="45.25116" lon="4.81075">
        <ele>135.39</ele>
        <time>2019-05-26T09:09:02.000Z</time>
      </trkpt>
      <trkpt lat="45.25093" lon="4.81057">
        <ele>136.4</ele>
        <time>2019-05-26T09:09:07.000Z</time>
      </trkpt>
      <trkpt lat="45.25069" lon="4.8104">
        <ele>136.46</ele>
        <time>2019-05-26T09:09:12.000Z</time>
      </trkpt>
      <trkpt lat="45.25045" lon="4.81022">
        <ele>136.4</ele>
        <time>2019-05-26T09:09:17.000Z</time>
      </trkpt>
      <trkpt lat="45.25023" lon="4.81007">
        <ele>137.38</ele>
        <time>2019-05-26T09:09:25.000Z</time>
      </trkpt>
      <trkpt lat="45.25002" lon="4.80989">
        <ele>137.63</ele>
        <time>2019-05-26T09:09:30.000Z</time>
      </trkpt>
      <trkpt lat="45.24983" lon="4.80972">
        <ele>139.14</ele>
        <time>2019-05-26T09:09:55.000Z</time>
      </trkpt>
      <trkpt lat="45.24965" lon="4.80955">
        <ele>138.41</ele>
        <time>2019-05-26T09:10:00.000Z</time>
      </trkpt>
      <trkpt lat="45.24943" lon="4.80938">
        <ele>138.44</ele>
        <time>2019-05-26T09:10:05.000Z</time>
      </trkpt>
      <trkpt lat="45.24918" lon="4.80923">
        <ele>138.44</ele>
        <time>2019-05-26T09:10:11.000Z</time>
      </trkpt>
      <trkpt lat="45.24893" lon="4.80904">
        <ele>138.16</ele>
        <time>2019-05-26T09:10:16.000Z</time>
      </trkpt>
      <trkpt lat="45.24867" lon="4.80887">
        <ele>138.39</ele>
        <time>2019-05-26T09:10:21.000Z</time>
      </trkpt>
      <trkpt lat="45.24842" lon="4.80869">
        <ele>137.41</ele>
        <time>2019-05-26T09:10:26.000Z</time>
      </trkpt>
      <trkpt lat="45.24816" lon="4.8085">
        <ele>137.39</ele>
        <time>2019-05-26T09:10:31.000Z</time>
      </trkpt>
      <trkpt lat="45.24792" lon="4.80833">
        <ele>137.39</ele>
        <time>2019-05-26T09:10:36.000Z</time>
      </trkpt>
      <trkpt lat="45.24767" lon="4.80817">
        <ele>136.41</ele>
        <time>2019-05-26T09:10:41.000Z</time>
      </trkpt>
      <trkpt lat="45.24744" lon="4.80801">
        <ele>136.33</ele>
        <time>2019-05-26T09:10:46.000Z</time>
      </trkpt>
      <trkpt lat="45.24722" lon="4.80786">
        <ele>137.39</ele>
        <time>2019-05-26T09:10:51.000Z</time>
      </trkpt>
      <trkpt lat="45.247" lon="4.80768">
        <ele>137.39</ele>
        <time>2019-05-26T09:10:56.000Z</time>
      </trkpt>
      <trkpt lat="45.24677" lon="4.80749">
        <ele>138.38</ele>
        <time>2019-05-26T09:11:01.000Z</time>
      </trkpt>
      <trkpt lat="45.24654" lon="4.80732">
        <ele>139.14</ele>
        <time>2019-05-26T09:11:06.000Z</time>
      </trkpt>
      <trkpt lat="45.24632" lon="4.80715">
        <ele>139.34</ele>
        <time>2019-05-26T09:11:11.000Z</time>
      </trkpt>
      <trkpt lat="45.24609" lon="4.80698">
        <ele>140.2</ele>
        <time>2019-05-26T09:11:16.000Z</time>
      </trkpt>
      <trkpt lat="45.24586" lon="4.80682">
        <ele>140.33</ele>
        <time>2019-05-26T09:11:21.000Z</time>
      </trkpt>
      <trkpt lat="45.24564" lon="4.80665">
        <ele>140.39</ele>
        <time>2019-05-26T09:11:26.000Z</time>
      </trkpt>
      <trkpt lat="45.24539" lon="4.80655">
        <ele>138.45</ele>
        <time>2019-05-26T09:11:31.000Z</time>
      </trkpt>
      <trkpt lat="45.24513" lon="4.80647">
        <ele>139.38</ele>
        <time>2019-05-26T09:11:36.000Z</time>
      </trkpt>
      <trkpt lat="45.24493" lon="4.80641">
        <ele>138.68</ele>
        <time>2019-05-26T09:11:41.000Z</time>
      </trkpt>
      <trkpt lat="45.2448" lon="4.80637">
        <ele>137.43</ele>
        <time>2019-05-26T09:11:46.000Z</time>
      </trkpt>
      <trkpt lat="45.24468" lon="4.80633">
        <ele>138.38</ele>
        <time>2019-05-26T09:11:51.000Z</time>
      </trkpt>
      <trkpt lat="45.24456" lon="4.80629">
        <ele>137.6</ele>
        <time>2019-05-26T09:11:56.000Z</time>
      </trkpt>
      <trkpt lat="45.24447" lon="4.80627">
        <ele>138.38</ele>
        <time>2019-05-26T09:12:01.000Z</time>
      </trkpt>
      <trkpt lat="45.24436" lon="4.80624">
        <ele>139.38</ele>
        <time>2019-05-26T09:12:06.000Z</time>
      </trkpt>
      <trkpt lat="45.24427" lon="4.8062">
        <ele>139.2</ele>
        <time>2019-05-26T09:12:11.000Z</time>
      </trkpt>
      <trkpt lat="45.2441" lon="4.80615">
        <ele>139.38</ele>
        <time>2019-05-26T09:12:16.000Z</time>
      </trkpt>
      <trkpt lat="45.24387" lon="4.8061">
        <ele>140.38</ele>
        <time>2019-05-26T09:12:21.000Z</time>
      </trkpt>
      <trkpt lat="45.24361" lon="4.806">
        <ele>139.4</ele>
        <time>2019-05-26T09:12:26.000Z</time>
      </trkpt>
      <trkpt lat="45.24334" lon="4.80591">
        <ele>137.45</ele>
        <time>2019-05-26T09:12:31.000Z</time>
      </trkpt>
      <trkpt lat="45.24308" lon="4.80583">
        <ele>137.38</ele>
        <time>2019-05-26T09:12:36.000Z</time>
      </trkpt>
      <trkpt lat="45.24281" lon="4.80573">
        <ele>135.46</ele>
        <time>2019-05-26T09:12:41.000Z</time>
      </trkpt>
      <trkpt lat="45.24251" lon="4.80562">
        <ele>135.58</ele>
        <time>2019-05-26T09:12:46.000Z</time>
      </trkpt>
      <trkpt lat="45.24223" lon="4.80555">
        <ele>137.36</ele>
        <time>2019-05-26T09:12:51.000Z</time>
      </trkpt>
      <trkpt lat="45.24205" lon="4.80556">
        <ele>138.43</ele>
        <time>2019-05-26T09:12:56.000Z</time>
      </trkpt>
      <trkpt lat="45.2418" lon="4.80553">
        <ele>138.13</ele>
        <time>2019-05-26T09:13:01.000Z</time>
      </trkpt>
      <trkpt lat="45.24164" lon="4.80549">
        <ele>137.33</ele>
        <time>2019-05-26T09:13:06.000Z</time>
      </trkpt>
      <trkpt lat="45.24151" lon="4.80547">
        <ele>138.07</ele>
        <time>2019-05-26T09:13:11.000Z</time>
      </trkpt>
      <trkpt lat="45.2413" lon="4.80549">
        <ele>138.62</ele>
        <time>2019-05-26T09:13:16.000Z</time>
      </trkpt>
      <trkpt lat="45.24109" lon="4.80547">
        <ele>141.05</ele>
        <time>2019-05-26T09:13:21.000Z</time>
      </trkpt>
      <trkpt lat="45.24091" lon="4.80546">
        <ele>142.12</ele>
        <time>2019-05-26T09:13:26.000Z</time>
      </trkpt>
      <trkpt lat="45.24085" lon="4.80531">
        <ele>141.57</ele>
        <time>2019-05-26T09:13:31.000Z</time>
      </trkpt>
      <trkpt lat="45.24087" lon="4.80512">
        <ele>141.42</ele>
        <time>2019-05-26T09:13:36.000Z</time>
      </trkpt>
      <trkpt lat="45.24094" lon="4.805">
        <ele>140.13</ele>
        <time>2019-05-26T09:13:41.000Z</time>
      </trkpt>
      <trkpt lat="45.24102" lon="4.80507">
        <ele>141.3</ele>
        <time>2019-05-26T09:13:46.000Z</time>
      </trkpt>
      <trkpt lat="45.24111" lon="4.80512">
        <ele>140.38</ele>
        <time>2019-05-26T09:13:51.000Z</time>
      </trkpt>
      <trkpt lat="45.24114" lon="4.80535">
        <ele>139.44</ele>
        <time>2019-05-26T09:13:56.000Z</time>
      </trkpt>
      <trkpt lat="45.24116" lon="4.80552">
        <ele>139.57</ele>
        <time>2019-05-26T09:14:01.000Z</time>
      </trkpt>
      <trkpt lat="45.24137" lon="4.80551">
        <ele>140.38</ele>
        <time>2019-05-26T09:14:06.000Z</time>
      </trkpt>
      <trkpt lat="45.24159" lon="4.80554">
        <ele>141.56</ele>
        <time>2019-05-26T09:14:11.000Z</time>
      </trkpt>
      <trkpt lat="45.24181" lon="4.80554">
        <ele>142.32</ele>
        <time>2019-05-26T09:14:16.000Z</time>
      </trkpt>
      <trkpt lat="45.24202" lon="4.80556">
        <ele>145.22</ele>
        <time>2019-05-26T09:14:21.000Z</time>
      </trkpt>
      <trkpt lat="45.24224" lon="4.80559">
        <ele>143.38</ele>
        <time>2019-05-26T09:14:26.000Z</time>
      </trkpt>
      <trkpt lat="45.24245" lon="4.80567">
        <ele>140.39</ele>
        <time>2019-05-26T09:14:31.000Z</time>
      </trkpt>
      <trkpt lat="45.24269" lon="4.80575">
        <ele>141.08</ele>
        <time>2019-05-26T09:14:36.000Z</time>
      </trkpt>
      <trkpt lat="45.24292" lon="4.80582">
        <ele>139.63</ele>
        <time>2019-05-26T09:14:41.000Z</time>
      </trkpt>
      <trkpt lat="45.24314" lon="4.80592">
        <ele>140.38</ele>
        <time>2019-05-26T09:14:46.000Z</time>
      </trkpt>
      <trkpt lat="45.24334" lon="4.80598">
        <ele>139.63</ele>
        <time>2019-05-26T09:14:51.000Z</time>
      </trkpt>
      <trkpt lat="45.24355" lon="4.80603">
        <ele>139.38</ele>
        <time>2019-05-26T09:14:56.000Z</time>
      </trkpt>
      <trkpt lat="45.24374" lon="4.80609">
        <ele>140.37</ele>
        <time>2019-05-26T09:15:01.000Z</time>
      </trkpt>
      <trkpt lat="45.24393" lon="4.80614">
        <ele>141.38</ele>
        <time>2019-05-26T09:15:06.000Z</time>
      </trkpt>
      <trkpt lat="45.24408" lon="4.80621">
        <ele>144.07</ele>
        <time>2019-05-26T09:15:11.000Z</time>
      </trkpt>
      <trkpt lat="45.24416" lon="4.80626">
        <ele>146.38</ele>
        <time>2019-05-26T09:15:16.000Z</time>
      </trkpt>
      <trkpt lat="45.24428" lon="4.80633">
        <ele>145.38</ele>
        <time>2019-05-26T09:15:21.000Z</time>
      </trkpt>
      <trkpt lat="45.24437" lon="4.80633">
        <ele>140.4</ele>
        <time>2019-05-26T09:15:26.000Z</time>
      </trkpt>
      <trkpt lat="45.24448" lon="4.80632">
        <ele>142.12</ele>
        <time>2019-05-26T09:15:31.000Z</time>
      </trkpt>
      <trkpt lat="45.24459" lon="4.80636">
        <ele>141.14</ele>
        <time>2019-05-26T09:15:36.000Z</time>
      </trkpt>
      <trkpt lat="45.24458" lon="4.80618">
        <ele>140.44</ele>
        <time>2019-05-26T09:15:41.000Z</time>
      </trkpt>
      <trkpt lat="45.24457" lon="4.80578">
        <ele>139.4</ele>
        <time>2019-05-26T09:15:46.000Z</time>
      </trkpt>
      <trkpt lat="45.24461" lon="4.80543">
        <ele>139.38</ele>
        <time>2019-05-26T09:15:51.000Z</time>
      </trkpt>
      <trkpt lat="45.24464" lon="4.80511">
        <ele>138.63</ele>
        <time>2019-05-26T09:15:56.000Z</time>
      </trkpt>
      <trkpt lat="45.24467" lon="4.80471">
        <ele>137.65</ele>
        <time>2019-05-26T09:16:01.000Z</time>
      </trkpt>
      <trkpt lat="45.24471" lon="4.80423">
        <ele>136.44</ele>
        <time>2019-05-26T09:16:06.000Z</time>
      </trkpt>
      <trkpt lat="45.24474" lon="4.80372">
        <ele>135.44</ele>
        <time>2019-05-26T09:16:11.000Z</time>
      </trkpt>
      <trkpt lat="45.24476" lon="4.80325">
        <ele>135.38</ele>
        <time>2019-05-26T09:16:16.000Z</time>
      </trkpt>
      <trkpt lat="45.24462" lon="4.80313">
        <ele>134.39</ele>
        <time>2019-05-26T09:16:21.000Z</time>
      </trkpt>
      <trkpt lat="45.24434" lon="4.80311">
        <ele>135.31</ele>
        <time>2019-05-26T09:16:26.000Z</time>
      </trkpt>
      <trkpt lat="45.24403" lon="4.8031">
        <ele>135.44</ele>
        <time>2019-05-26T09:16:31.000Z</time>
      </trkpt>
      <trkpt lat="45.24373" lon="4.80311">
        <ele>133.68</ele>
        <time>2019-05-26T09:16:36.000Z</time>
      </trkpt>
      <trkpt lat="45.24341" lon="4.80311">
        <ele>133.56</ele>
        <time>2019-05-26T09:16:41.000Z</time>
      </trkpt>
      <trkpt lat="45.24308" lon="4.80303">
        <ele>132.39</ele>
        <time>2019-05-26T09:16:46.000Z</time>
      </trkpt>
      <trkpt lat="45.24281" lon="4.80283">
        <ele>129.45</ele>
        <time>2019-05-26T09:16:51.000Z</time>
      </trkpt>
      <trkpt lat="45.24251" lon="4.80271">
        <ele>129.37</ele>
        <time>2019-05-26T09:16:56.000Z</time>
      </trkpt>
      <trkpt lat="45.24223" lon="4.80261">
        <ele>128.38</ele>
        <time>2019-05-26T09:17:01.000Z</time>
      </trkpt>
      <trkpt lat="45.24194" lon="4.80264">
        <ele>127.38</ele>
        <time>2019-05-26T09:17:06.000Z</time>
      </trkpt>
      <trkpt lat="45.24165" lon="4.80273">
        <ele>128.12</ele>
        <time>2019-05-26T09:17:11.000Z</time>
      </trkpt>
      <trkpt lat="45.24136" lon="4.80283">
        <ele>129.13</ele>
        <time>2019-05-26T09:17:16.000Z</time>
      </trkpt>
      <trkpt lat="45.24107" lon="4.80293">
        <ele>129.37</ele>
        <time>2019-05-26T09:17:21.000Z</time>
      </trkpt>
      <trkpt lat="45.2408" lon="4.80297">
        <ele>129.33</ele>
        <time>2019-05-26T09:17:26.000Z</time>
      </trkpt>
      <trkpt lat="45.24051" lon="4.80302">
        <ele>129.37</ele>
        <time>2019-05-26T09:17:31.000Z</time>
      </trkpt>
      <trkpt lat="45.24023" lon="4.80303">
        <ele>129.37</ele>
        <time>2019-05-26T09:17:36.000Z</time>
      </trkpt>
      <trkpt lat="45.23993" lon="4.80306">
        <ele>128.62</ele>
        <time>2019-05-26T09:17:41.000Z</time>
      </trkpt>
      <trkpt lat="45.23966" lon="4.80307">
        <ele>129.36</ele>
        <time>2019-05-26T09:17:46.000Z</time>
      </trkpt>
      <trkpt lat="45.23938" lon="4.80315">
        <ele>131.12</ele>
        <time>2019-05-26T09:17:51.000Z</time>
      </trkpt>
      <trkpt lat="45.2391" lon="4.80324">
        <ele>131.37</ele>
        <time>2019-05-26T09:17:56.000Z</time>
      </trkpt>
      <trkpt lat="45.23882" lon="4.80332">
        <ele>132.37</ele>
        <time>2019-05-26T09:18:01.000Z</time>
      </trkpt>
      <trkpt lat="45.23856" lon="4.80338">
        <ele>132.37</ele>
        <time>2019-05-26T09:18:06.000Z</time>
      </trkpt>
      <trkpt lat="45.23828" lon="4.80343">
        <ele>132.37</ele>
        <time>2019-05-26T09:18:11.000Z</time>
      </trkpt>
      <trkpt lat="45.238" lon="4.8035">
        <ele>132.37</ele>
        <time>2019-05-26T09:18:16.000Z</time>
      </trkpt>
      <trkpt lat="45.2377" lon="4.80357">
        <ele>133.35</ele>
        <time>2019-05-26T09:18:21.000Z</time>
      </trkpt>
      <trkpt lat="45.23742" lon="4.80366">
        <ele>131.44</ele>
        <time>2019-05-26T09:18:26.000Z</time>
      </trkpt>
      <trkpt lat="45.23713" lon="4.80369">
        <ele>131.43</ele>
        <time>2019-05-26T09:18:31.000Z</time>
      </trkpt>
      <trkpt lat="45.23698" lon="4.80395">
        <ele>132.18</ele>
        <time>2019-05-26T09:18:36.000Z</time>
      </trkpt>
      <trkpt lat="45.23716" lon="4.80421">
        <ele>131.43</ele>
        <time>2019-05-26T09:18:41.000Z</time>
      </trkpt>
      <trkpt lat="45.23741" lon="4.80441">
        <ele>129.63</ele>
        <time>2019-05-26T09:18:46.000Z</time>
      </trkpt>
      <trkpt lat="45.23763" lon="4.80464">
        <ele>131.36</ele>
        <time>2019-05-26T09:18:51.000Z</time>
      </trkpt>
      <trkpt lat="45.23785" lon="4.80487">
        <ele>131.38</ele>
        <time>2019-05-26T09:18:56.000Z</time>
      </trkpt>
      <trkpt lat="45.23807" lon="4.80511">
        <ele>133.11</ele>
        <time>2019-05-26T09:19:01.000Z</time>
      </trkpt>
      <trkpt lat="45.23831" lon="4.80536">
        <ele>132.43</ele>
        <time>2019-05-26T09:19:06.000Z</time>
      </trkpt>
      <trkpt lat="45.23853" lon="4.8056">
        <ele>132.38</ele>
        <time>2019-05-26T09:19:11.000Z</time>
      </trkpt>
      <trkpt lat="45.23874" lon="4.80584">
        <ele>132.38</ele>
        <time>2019-05-26T09:19:16.000Z</time>
      </trkpt>
      <trkpt lat="45.23893" lon="4.80608">
        <ele>132.37</ele>
        <time>2019-05-26T09:19:21.000Z</time>
      </trkpt>
      <trkpt lat="45.23909" lon="4.80626">
        <ele>131.57</ele>
        <time>2019-05-26T09:19:26.000Z</time>
      </trkpt>
      <trkpt lat="45.23902" lon="4.80639">
        <ele>129.39</ele>
        <time>2019-05-26T09:19:31.000Z</time>
      </trkpt>
      <trkpt lat="45.23883" lon="4.8065">
        <ele>130.36</ele>
        <time>2019-05-26T09:19:36.000Z</time>
      </trkpt>
      <trkpt lat="45.23863" lon="4.80657">
        <ele>129.21</ele>
        <time>2019-05-26T09:19:41.000Z</time>
      </trkpt>
      <trkpt lat="45.23844" lon="4.80653">
        <ele>130.17</ele>
        <time>2019-05-26T09:19:46.000Z</time>
      </trkpt>
      <trkpt lat="45.23829" lon="4.80626">
        <ele>130.13</ele>
        <time>2019-05-26T09:19:51.000Z</time>
      </trkpt>
      <trkpt lat="45.23809" lon="4.80607">
        <ele>130.36</ele>
        <time>2019-05-26T09:19:56.000Z</time>
      </trkpt>
      <trkpt lat="45.23788" lon="4.80585">
        <ele>129.5</ele>
        <time>2019-05-26T09:20:01.000Z</time>
      </trkpt>
      <trkpt lat="45.23764" lon="4.80566">
        <ele>130.37</ele>
        <time>2019-05-26T09:20:06.000Z</time>
      </trkpt>
      <trkpt lat="45.23738" lon="4.80544">
        <ele>129.64</ele>
        <time>2019-05-26T09:20:11.000Z</time>
      </trkpt>
      <trkpt lat="45.23713" lon="4.80524">
        <ele>131.11</ele>
        <time>2019-05-26T09:20:16.000Z</time>
      </trkpt>
      <trkpt lat="45.23683" lon="4.80508">
        <ele>131.37</ele>
        <time>2019-05-26T09:20:21.000Z</time>
      </trkpt>
      <trkpt lat="45.23653" lon="4.805">
        <ele>132.37</ele>
        <time>2019-05-26T09:20:26.000Z</time>
      </trkpt>
      <trkpt lat="45.23625" lon="4.80494">
        <ele>131.43</ele>
        <time>2019-05-26T09:20:31.000Z</time>
      </trkpt>
      <trkpt lat="45.23599" lon="4.80488">
        <ele>129.4</ele>
        <time>2019-05-26T09:20:36.000Z</time>
      </trkpt>
      <trkpt lat="45.23574" lon="4.80483">
        <ele>129.37</ele>
        <time>2019-05-26T09:20:41.000Z</time>
      </trkpt>
      <trkpt lat="45.23549" lon="4.80479">
        <ele>129.56</ele>
        <time>2019-05-26T09:20:46.000Z</time>
      </trkpt>
      <trkpt lat="45.23523" lon="4.80473">
        <ele>128.62</ele>
        <time>2019-05-26T09:20:51.000Z</time>
      </trkpt>
      <trkpt lat="45.23495" lon="4.80465">
        <ele>127.37</ele>
        <time>2019-05-26T09:20:56.000Z</time>
      </trkpt>
      <trkpt lat="45.23466" lon="4.80459">
        <ele>129.16</ele>
        <time>2019-05-26T09:21:01.000Z</time>
      </trkpt>
      <trkpt lat="45.23436" lon="4.80452">
        <ele>130.37</ele>
        <time>2019-05-26T09:21:06.000Z</time>
      </trkpt>
      <trkpt lat="45.23405" lon="4.80442">
        <ele>130.38</ele>
        <time>2019-05-26T09:21:11.000Z</time>
      </trkpt>
      <trkpt lat="45.23376" lon="4.80433">
        <ele>130.13</ele>
        <time>2019-05-26T09:21:16.000Z</time>
      </trkpt>
      <trkpt lat="45.23343" lon="4.80424">
        <ele>129.37</ele>
        <time>2019-05-26T09:21:21.000Z</time>
      </trkpt>
      <trkpt lat="45.2331" lon="4.80424">
        <ele>128.37</ele>
        <time>2019-05-26T09:21:26.000Z</time>
      </trkpt>
      <trkpt lat="45.23277" lon="4.80428">
        <ele>127.37</ele>
        <time>2019-05-26T09:21:31.000Z</time>
      </trkpt>
      <trkpt lat="45.23248" lon="4.80441">
        <ele>128.38</ele>
        <time>2019-05-26T09:21:52.000Z</time>
      </trkpt>
      <trkpt lat="45.23219" lon="4.80442">
        <ele>130.3</ele>
        <time>2019-05-26T09:21:59.000Z</time>
      </trkpt>
      <trkpt lat="45.23187" lon="4.80438">
        <ele>131.36</ele>
        <time>2019-05-26T09:22:04.000Z</time>
      </trkpt>
      <trkpt lat="45.23157" lon="4.80434">
        <ele>130.32</ele>
        <time>2019-05-26T09:22:09.000Z</time>
      </trkpt>
      <trkpt lat="45.23127" lon="4.8043">
        <ele>131.36</ele>
        <time>2019-05-26T09:22:14.000Z</time>
      </trkpt>
      <trkpt lat="45.23095" lon="4.80425">
        <ele>131.36</ele>
        <time>2019-05-26T09:22:19.000Z</time>
      </trkpt>
      <trkpt lat="45.23068" lon="4.80423">
        <ele>129.43</ele>
        <time>2019-05-26T09:22:24.000Z</time>
      </trkpt>
      <trkpt lat="45.23052" lon="4.80422">
        <ele>130.36</ele>
        <time>2019-05-26T09:22:29.000Z</time>
      </trkpt>
      <trkpt lat="45.23036" lon="4.80416">
        <ele>131.3</ele>
        <time>2019-05-26T09:22:34.000Z</time>
      </trkpt>
      <trkpt lat="45.23018" lon="4.80408">
        <ele>131.37</ele>
        <time>2019-05-26T09:22:39.000Z</time>
      </trkpt>
      <trkpt lat="45.22994" lon="4.80408">
        <ele>131.13</ele>
        <time>2019-05-26T09:22:44.000Z</time>
      </trkpt>
      <trkpt lat="45.22969" lon="4.80408">
        <ele>131.36</ele>
        <time>2019-05-26T09:22:49.000Z</time>
      </trkpt>
      <trkpt lat="45.22944" lon="4.80407">
        <ele>132.11</ele>
        <time>2019-05-26T09:22:54.000Z</time>
      </trkpt>
      <trkpt lat="45.22918" lon="4.80408">
        <ele>131.42</ele>
        <time>2019-05-26T09:22:59.000Z</time>
      </trkpt>
      <trkpt lat="45.22892" lon="4.80408">
        <ele>131.36</ele>
        <time>2019-05-26T09:23:04.000Z</time>
      </trkpt>
      <trkpt lat="45.22866" lon="4.8041">
        <ele>130.36</ele>
        <time>2019-05-26T09:23:09.000Z</time>
      </trkpt>
      <trkpt lat="45.22841" lon="4.80413">
        <ele>131.54</ele>
        <time>2019-05-26T09:23:14.000Z</time>
      </trkpt>
      <trkpt lat="45.22815" lon="4.80419">
        <ele>131.36</ele>
        <time>2019-05-26T09:23:19.000Z</time>
      </trkpt>
      <trkpt lat="45.22788" lon="4.80427">
        <ele>132.31</ele>
        <time>2019-05-26T09:23:24.000Z</time>
      </trkpt>
      <trkpt lat="45.2276" lon="4.80437">
        <ele>132.36</ele>
        <time>2019-05-26T09:23:29.000Z</time>
      </trkpt>
      <trkpt lat="45.22731" lon="4.80447">
        <ele>131.36</ele>
        <time>2019-05-26T09:23:34.000Z</time>
      </trkpt>
      <trkpt lat="45.22703" lon="4.80457">
        <ele>132.36</ele>
        <time>2019-05-26T09:23:39.000Z</time>
      </trkpt>
      <trkpt lat="45.22676" lon="4.80467">
        <ele>132.36</ele>
        <time>2019-05-26T09:23:44.000Z</time>
      </trkpt>
      <trkpt lat="45.22648" lon="4.80478">
        <ele>131.61</ele>
        <time>2019-05-26T09:23:49.000Z</time>
      </trkpt>
      <trkpt lat="45.2262" lon="4.8049">
        <ele>131.36</ele>
        <time>2019-05-26T09:23:54.000Z</time>
      </trkpt>
      <trkpt lat="45.2259" lon="4.80505">
        <ele>131.16</ele>
        <time>2019-05-26T09:23:59.000Z</time>
      </trkpt>
      <trkpt lat="45.22563" lon="4.80523">
        <ele>132.11</ele>
        <time>2019-05-26T09:24:04.000Z</time>
      </trkpt>
      <trkpt lat="45.22534" lon="4.80536">
        <ele>131.36</ele>
        <time>2019-05-26T09:24:09.000Z</time>
      </trkpt>
      <trkpt lat="45.22504" lon="4.80551">
        <ele>131.59</ele>
        <time>2019-05-26T09:24:14.000Z</time>
      </trkpt>
      <trkpt lat="45.22474" lon="4.8057">
        <ele>132.36</ele>
        <time>2019-05-26T09:24:19.000Z</time>
      </trkpt>
      <trkpt lat="45.22444" lon="4.80586">
        <ele>133.3</ele>
        <time>2019-05-26T09:24:24.000Z</time>
      </trkpt>
      <trkpt lat="45.22413" lon="4.80602">
        <ele>132.36</ele>
        <time>2019-05-26T09:24:29.000Z</time>
      </trkpt>
      <trkpt lat="45.22383" lon="4.80619">
        <ele>132.34</ele>
        <time>2019-05-26T09:24:34.000Z</time>
      </trkpt>
      <trkpt lat="45.22352" lon="4.80635">
        <ele>132.36</ele>
        <time>2019-05-26T09:24:39.000Z</time>
      </trkpt>
      <trkpt lat="45.22319" lon="4.80652">
        <ele>131.36</ele>
        <time>2019-05-26T09:24:44.000Z</time>
      </trkpt>
      <trkpt lat="45.22288" lon="4.80669">
        <ele>131.36</ele>
        <time>2019-05-26T09:24:49.000Z</time>
      </trkpt>
      <trkpt lat="45.22257" lon="4.80684">
        <ele>131.31</ele>
        <time>2019-05-26T09:24:54.000Z</time>
      </trkpt>
      <trkpt lat="45.22228" lon="4.80697">
        <ele>129.62</ele>
        <time>2019-05-26T09:24:59.000Z</time>
      </trkpt>
      <trkpt lat="45.22198" lon="4.80709">
        <ele>129.42</ele>
        <time>2019-05-26T09:25:04.000Z</time>
      </trkpt>
      <trkpt lat="45.22166" lon="4.80723">
        <ele>129.3</ele>
        <time>2019-05-26T09:25:09.000Z</time>
      </trkpt>
      <trkpt lat="45.22136" lon="4.80734">
        <ele>126.58</ele>
        <time>2019-05-26T09:25:14.000Z</time>
      </trkpt>
      <trkpt lat="45.22105" lon="4.80751">
        <ele>128.91</ele>
        <time>2019-05-26T09:25:19.000Z</time>
      </trkpt>
      <trkpt lat="45.22077" lon="4.80764">
        <ele>129.42</ele>
        <time>2019-05-26T09:25:24.000Z</time>
      </trkpt>
      <trkpt lat="45.22052" lon="4.80779">
        <ele>128.61</ele>
        <time>2019-05-26T09:25:29.000Z</time>
      </trkpt>
      <trkpt lat="45.22029" lon="4.80786">
        <ele>129.31</ele>
        <time>2019-05-26T09:25:34.000Z</time>
      </trkpt>
      <trkpt lat="45.22" lon="4.80794">
        <ele>128.37</ele>
        <time>2019-05-26T09:25:39.000Z</time>
      </trkpt>
      <trkpt lat="45.21972" lon="4.80805">
        <ele>127.36</ele>
        <time>2019-05-26T09:25:44.000Z</time>
      </trkpt>
      <trkpt lat="45.21946" lon="4.80813">
        <ele>128.36</ele>
        <time>2019-05-26T09:25:49.000Z</time>
      </trkpt>
      <trkpt lat="45.2192" lon="4.80823">
        <ele>129.17</ele>
        <time>2019-05-26T09:25:54.000Z</time>
      </trkpt>
      <trkpt lat="45.21898" lon="4.80843">
        <ele>128.36</ele>
        <time>2019-05-26T09:25:59.000Z</time>
      </trkpt>
      <trkpt lat="45.21872" lon="4.80844">
        <ele>129.35</ele>
        <time>2019-05-26T09:26:04.000Z</time>
      </trkpt>
      <trkpt lat="45.21848" lon="4.80845">
        <ele>130.34</ele>
        <time>2019-05-26T09:26:09.000Z</time>
      </trkpt>
      <trkpt lat="45.2183" lon="4.80851">
        <ele>132.35</ele>
        <time>2019-05-26T09:26:14.000Z</time>
      </trkpt>
      <trkpt lat="45.2181" lon="4.80858">
        <ele>134.28</ele>
        <time>2019-05-26T09:26:19.000Z</time>
      </trkpt>
      <trkpt lat="45.21786" lon="4.8086">
        <ele>131.38</ele>
        <time>2019-05-26T09:26:24.000Z</time>
      </trkpt>
      <trkpt lat="45.21765" lon="4.80865">
        <ele>133.09</ele>
        <time>2019-05-26T09:26:29.000Z</time>
      </trkpt>
      <trkpt lat="45.21748" lon="4.8087">
        <ele>131.61</ele>
        <time>2019-05-26T09:26:34.000Z</time>
      </trkpt>
      <trkpt lat="45.21728" lon="4.80876">
        <ele>130.62</ele>
        <time>2019-05-26T09:26:39.000Z</time>
      </trkpt>
      <trkpt lat="45.21706" lon="4.80879">
        <ele>130.11</ele>
        <time>2019-05-26T09:26:44.000Z</time>
      </trkpt>
      <trkpt lat="45.21681" lon="4.80885">
        <ele>132.28</ele>
        <time>2019-05-26T09:26:49.000Z</time>
      </trkpt>
      <trkpt lat="45.21655" lon="4.80893">
        <ele>133.09</ele>
        <time>2019-05-26T09:26:54.000Z</time>
      </trkpt>
      <trkpt lat="45.21629" lon="4.80901">
        <ele>135.1</ele>
        <time>2019-05-26T09:26:59.000Z</time>
      </trkpt>
      <trkpt lat="45.21601" lon="4.80906">
        <ele>137.29</ele>
        <time>2019-05-26T09:27:04.000Z</time>
      </trkpt>
      <trkpt lat="45.21576" lon="4.80911">
        <ele>138.1</ele>
        <time>2019-05-26T09:27:09.000Z</time>
      </trkpt>
      <trkpt lat="45.21554" lon="4.80915">
        <ele>139.37</ele>
        <time>2019-05-26T09:27:14.000Z</time>
      </trkpt>
      <trkpt lat="45.21535" lon="4.80922">
        <ele>137.6</ele>
        <time>2019-05-26T09:27:19.000Z</time>
      </trkpt>
      <trkpt lat="45.21526" lon="4.80921">
        <ele>134.16</ele>
        <time>2019-05-26T09:27:24.000Z</time>
      </trkpt>
      <trkpt lat="45.21517" lon="4.80922">
        <ele>133.35</ele>
        <time>2019-05-26T09:27:29.000Z</time>
      </trkpt>
      <trkpt lat="45.21501" lon="4.80925">
        <ele>132.35</ele>
        <time>2019-05-26T09:27:34.000Z</time>
      </trkpt>
      <trkpt lat="45.2148" lon="4.80933">
        <ele>132.17</ele>
        <time>2019-05-26T09:27:39.000Z</time>
      </trkpt>
      <trkpt lat="45.21458" lon="4.8094">
        <ele>132.15</ele>
        <time>2019-05-26T09:27:44.000Z</time>
      </trkpt>
      <trkpt lat="45.21434" lon="4.80947">
        <ele>131.6</ele>
        <time>2019-05-26T09:27:49.000Z</time>
      </trkpt>
      <trkpt lat="45.21408" lon="4.80955">
        <ele>130.42</ele>
        <time>2019-05-26T09:27:54.000Z</time>
      </trkpt>
      <trkpt lat="45.21383" lon="4.80961">
        <ele>131.1</ele>
        <time>2019-05-26T09:27:59.000Z</time>
      </trkpt>
      <trkpt lat="45.21363" lon="4.80966">
        <ele>133.04</ele>
        <time>2019-05-26T09:28:04.000Z</time>
      </trkpt>
      <trkpt lat="45.21344" lon="4.80969">
        <ele>133.35</ele>
        <time>2019-05-26T09:28:09.000Z</time>
      </trkpt>
      <trkpt lat="45.2132" lon="4.80977">
        <ele>131.42</ele>
        <time>2019-05-26T09:28:14.000Z</time>
      </trkpt>
      <trkpt lat="45.21296" lon="4.80982">
        <ele>131.3</ele>
        <time>2019-05-26T09:28:19.000Z</time>
      </trkpt>
      <trkpt lat="45.21272" lon="4.80985">
        <ele>131.35</ele>
        <time>2019-05-26T09:28:24.000Z</time>
      </trkpt>
      <trkpt lat="45.21247" lon="4.80993">
        <ele>132.35</ele>
        <time>2019-05-26T09:28:29.000Z</time>
      </trkpt>
      <trkpt lat="45.21223" lon="4.81002">
        <ele>133.3</ele>
        <time>2019-05-26T09:28:34.000Z</time>
      </trkpt>
      <trkpt lat="45.21198" lon="4.81012">
        <ele>133.35</ele>
        <time>2019-05-26T09:28:39.000Z</time>
      </trkpt>
      <trkpt lat="45.21171" lon="4.81024">
        <ele>133.35</ele>
        <time>2019-05-26T09:28:44.000Z</time>
      </trkpt>
      <trkpt lat="45.21145" lon="4.81034">
        <ele>134.35</ele>
        <time>2019-05-26T09:28:49.000Z</time>
      </trkpt>
      <trkpt lat="45.21119" lon="4.81049">
        <ele>134.41</ele>
        <time>2019-05-26T09:28:54.000Z</time>
      </trkpt>
      <trkpt lat="45.21093" lon="4.81063">
        <ele>134.35</ele>
        <time>2019-05-26T09:28:59.000Z</time>
      </trkpt>
      <trkpt lat="45.21066" lon="4.81075">
        <ele>134.16</ele>
        <time>2019-05-26T09:29:04.000Z</time>
      </trkpt>
      <trkpt lat="45.21038" lon="4.81089">
        <ele>136.08</ele>
        <time>2019-05-26T09:29:09.000Z</time>
      </trkpt>
      <trkpt lat="45.21008" lon="4.81104">
        <ele>135.18</ele>
        <time>2019-05-26T09:29:14.000Z</time>
      </trkpt>
      <trkpt lat="45.20979" lon="4.81119">
        <ele>134.37</ele>
        <time>2019-05-26T09:29:19.000Z</time>
      </trkpt>
      <trkpt lat="45.20951" lon="4.81136">
        <ele>133.36</ele>
        <time>2019-05-26T09:29:24.000Z</time>
      </trkpt>
      <trkpt lat="45.20921" lon="4.81151">
        <ele>131.42</ele>
        <time>2019-05-26T09:29:29.000Z</time>
      </trkpt>
      <trkpt lat="45.20892" lon="4.81169">
        <ele>131.35</ele>
        <time>2019-05-26T09:29:34.000Z</time>
      </trkpt>
      <trkpt lat="45.20869" lon="4.81197">
        <ele>131.35</ele>
        <time>2019-05-26T09:29:39.000Z</time>
      </trkpt>
      <trkpt lat="45.20843" lon="4.81224">
        <ele>131.41</ele>
        <time>2019-05-26T09:29:44.000Z</time>
      </trkpt>
      <trkpt lat="45.20811" lon="4.8124">
        <ele>131.35</ele>
        <time>2019-05-26T09:29:49.000Z</time>
      </trkpt>
      <trkpt lat="45.20782" lon="4.81259">
        <ele>131.54</ele>
        <time>2019-05-26T09:29:54.000Z</time>
      </trkpt>
      <trkpt lat="45.20757" lon="4.81267">
        <ele>131.54</ele>
        <time>2019-05-26T09:29:59.000Z</time>
      </trkpt>
      <trkpt lat="45.2073" lon="4.8128">
        <ele>132.35</ele>
        <time>2019-05-26T09:30:04.000Z</time>
      </trkpt>
      <trkpt lat="45.20704" lon="4.81292">
        <ele>132.35</ele>
        <time>2019-05-26T09:30:09.000Z</time>
      </trkpt>
      <trkpt lat="45.20677" lon="4.81304">
        <ele>131.35</ele>
        <time>2019-05-26T09:30:14.000Z</time>
      </trkpt>
      <trkpt lat="45.20651" lon="4.81319">
        <ele>132.35</ele>
        <time>2019-05-26T09:30:19.000Z</time>
      </trkpt>
      <trkpt lat="45.20625" lon="4.8134">
        <ele>131.35</ele>
        <time>2019-05-26T09:30:24.000Z</time>
      </trkpt>
      <trkpt lat="45.20595" lon="4.81356">
        <ele>131.35</ele>
        <time>2019-05-26T09:30:29.000Z</time>
      </trkpt>
      <trkpt lat="45.20565" lon="4.81369">
        <ele>131.35</ele>
        <time>2019-05-26T09:30:34.000Z</time>
      </trkpt>
      <trkpt lat="45.20546" lon="4.81389">
        <ele>130.6</ele>
        <time>2019-05-26T09:30:39.000Z</time>
      </trkpt>
      <trkpt lat="45.20517" lon="4.81391">
        <ele>130.54</ele>
        <time>2019-05-26T09:30:44.000Z</time>
      </trkpt>
      <trkpt lat="45.20489" lon="4.81392">
        <ele>130.34</ele>
        <time>2019-05-26T09:30:49.000Z</time>
      </trkpt>
      <trkpt lat="45.20461" lon="4.81391">
        <ele>131.1</ele>
        <time>2019-05-26T09:30:54.000Z</time>
      </trkpt>
      <trkpt lat="45.20433" lon="4.81389">
        <ele>131.35</ele>
        <time>2019-05-26T09:30:59.000Z</time>
      </trkpt>
      <trkpt lat="45.20405" lon="4.8139">
        <ele>130.35</ele>
        <time>2019-05-26T09:31:04.000Z</time>
      </trkpt>
      <trkpt lat="45.20379" lon="4.81391">
        <ele>130.35</ele>
        <time>2019-05-26T09:31:09.000Z</time>
      </trkpt>
      <trkpt lat="45.20351" lon="4.81391">
        <ele>130.3</ele>
        <time>2019-05-26T09:31:14.000Z</time>
      </trkpt>
      <trkpt lat="45.20324" lon="4.81389">
        <ele>130.29</ele>
        <time>2019-05-26T09:31:19.000Z</time>
      </trkpt>
      <trkpt lat="45.20304" lon="4.81385">
        <ele>130.35</ele>
        <time>2019-05-26T09:31:24.000Z</time>
      </trkpt>
      <trkpt lat="45.20285" lon="4.81372">
        <ele>130.35</ele>
        <time>2019-05-26T09:31:29.000Z</time>
      </trkpt>
      <trkpt lat="45.20265" lon="4.81358">
        <ele>130.34</ele>
        <time>2019-05-26T09:31:34.000Z</time>
      </trkpt>
      <trkpt lat="45.20243" lon="4.81344">
        <ele>130.16</ele>
        <time>2019-05-26T09:31:39.000Z</time>
      </trkpt>
      <trkpt lat="45.2022" lon="4.8133">
        <ele>130.39</ele>
        <time>2019-05-26T09:31:44.000Z</time>
      </trkpt>
      <trkpt lat="45.20199" lon="4.81312">
        <ele>129.35</ele>
        <time>2019-05-26T09:31:49.000Z</time>
      </trkpt>
      <trkpt lat="45.20179" lon="4.81291">
        <ele>128.41</ele>
        <time>2019-05-26T09:32:28.000Z</time>
      </trkpt>
      <trkpt lat="45.20161" lon="4.81269">
        <ele>130.28</ele>
        <time>2019-05-26T09:32:56.000Z</time>
      </trkpt>
      <trkpt lat="45.20145" lon="4.81247">
        <ele>130.1</ele>
        <time>2019-05-26T09:33:01.000Z</time>
      </trkpt>
      <trkpt lat="45.2013" lon="4.81226">
        <ele>129.4</ele>
        <time>2019-05-26T09:33:06.000Z</time>
      </trkpt>
      <trkpt lat="45.20113" lon="4.81203">
        <ele>131.26</ele>
        <time>2019-05-26T09:33:11.000Z</time>
      </trkpt>
      <trkpt lat="45.20096" lon="4.81177">
        <ele>130.53</ele>
        <time>2019-05-26T09:35:36.000Z</time>
      </trkpt>
      <trkpt lat="45.20082" lon="4.81145">
        <ele>131.34</ele>
        <time>2019-05-26T09:35:41.000Z</time>
      </trkpt>
      <trkpt lat="45.20066" lon="4.81112">
        <ele>131.4</ele>
        <time>2019-05-26T09:35:46.000Z</time>
      </trkpt>
      <trkpt lat="45.20049" lon="4.8108">
        <ele>131.28</ele>
        <time>2019-05-26T09:35:51.000Z</time>
      </trkpt>
      <trkpt lat="45.20033" lon="4.81046">
        <ele>129.4</ele>
        <time>2019-05-26T09:35:56.000Z</time>
      </trkpt>
      <trkpt lat="45.20016" lon="4.81015">
        <ele>130.58</ele>
        <time>2019-05-26T09:36:01.000Z</time>
      </trkpt>
      <trkpt lat="45.19998" lon="4.8098">
        <ele>130.32</ele>
        <time>2019-05-26T09:36:06.000Z</time>
      </trkpt>
      <trkpt lat="45.19977" lon="4.80945">
        <ele>130.27</ele>
        <time>2019-05-26T09:36:11.000Z</time>
      </trkpt>
      <trkpt lat="45.19951" lon="4.80913">
        <ele>128.4</ele>
        <time>2019-05-26T09:36:16.000Z</time>
      </trkpt>
      <trkpt lat="45.19926" lon="4.80882">
        <ele>129.33</ele>
        <time>2019-05-26T09:36:21.000Z</time>
      </trkpt>
      <trkpt lat="45.19899" lon="4.80854">
        <ele>130.33</ele>
        <time>2019-05-26T09:36:26.000Z</time>
      </trkpt>
      <trkpt lat="45.19877" lon="4.80824">
        <ele>128.16</ele>
        <time>2019-05-26T09:36:31.000Z</time>
      </trkpt>
      <trkpt lat="45.19854" lon="4.808">
        <ele>128.52</ele>
        <time>2019-05-26T09:36:36.000Z</time>
      </trkpt>
      <trkpt lat="45.19827" lon="4.80789">
        <ele>130.06</ele>
        <time>2019-05-26T09:36:41.000Z</time>
      </trkpt>
      <trkpt lat="45.19801" lon="4.80785">
        <ele>131.26</ele>
        <time>2019-05-26T09:36:46.000Z</time>
      </trkpt>
      <trkpt lat="45.19779" lon="4.80784">
        <ele>132.27</ele>
        <time>2019-05-26T09:36:51.000Z</time>
      </trkpt>
      <trkpt lat="45.19755" lon="4.80783">
        <ele>131.64</ele>
        <time>2019-05-26T09:36:56.000Z</time>
      </trkpt>
      <trkpt lat="45.19727" lon="4.80775">
        <ele>131.52</ele>
        <time>2019-05-26T09:37:01.000Z</time>
      </trkpt>
      <trkpt lat="45.19698" lon="4.8077">
        <ele>131.33</ele>
        <time>2019-05-26T09:37:07.000Z</time>
      </trkpt>
      <trkpt lat="45.19667" lon="4.80768">
        <ele>131.33</ele>
        <time>2019-05-26T09:37:12.000Z</time>
      </trkpt>
      <trkpt lat="45.19635" lon="4.80765">
        <ele>131.27</ele>
        <time>2019-05-26T09:37:17.000Z</time>
      </trkpt>
      <trkpt lat="45.19605" lon="4.80762">
        <ele>131.32</ele>
        <time>2019-05-26T09:37:22.000Z</time>
      </trkpt>
      <trkpt lat="45.19573" lon="4.80762">
        <ele>132.12</ele>
        <time>2019-05-26T09:37:27.000Z</time>
      </trkpt>
      <trkpt lat="45.1954" lon="4.80764">
        <ele>132.28</ele>
        <time>2019-05-26T09:37:32.000Z</time>
      </trkpt>
      <trkpt lat="45.19507" lon="4.80767">
        <ele>130.59</ele>
        <time>2019-05-26T09:37:37.000Z</time>
      </trkpt>
      <trkpt lat="45.19473" lon="4.80755">
        <ele>130.31</ele>
        <time>2019-05-26T09:37:42.000Z</time>
      </trkpt>
      <trkpt lat="45.1944" lon="4.80761">
        <ele>131.12</ele>
        <time>2019-05-26T09:39:07.000Z</time>
      </trkpt>
      <trkpt lat="45.19408" lon="4.8077">
        <ele>132.26</ele>
        <time>2019-05-26T09:39:12.000Z</time>
      </trkpt>
      <trkpt lat="45.19375" lon="4.80783">
        <ele>133.32</ele>
        <time>2019-05-26T09:39:39.000Z</time>
      </trkpt>
      <trkpt lat="45.19341" lon="4.80799">
        <ele>133.32</ele>
        <time>2019-05-26T09:39:44.000Z</time>
      </trkpt>
      <trkpt lat="45.1931" lon="4.80819">
        <ele>130.64</ele>
        <time>2019-05-26T09:39:49.000Z</time>
      </trkpt>
      <trkpt lat="45.19278" lon="4.8084">
        <ele>132.07</ele>
        <time>2019-05-26T09:39:54.000Z</time>
      </trkpt>
      <trkpt lat="45.19246" lon="4.80863">
        <ele>132.26</ele>
        <time>2019-05-26T09:39:59.000Z</time>
      </trkpt>
      <trkpt lat="45.19214" lon="4.80883">
        <ele>132.32</ele>
        <time>2019-05-26T09:40:04.000Z</time>
      </trkpt>
      <trkpt lat="45.19185" lon="4.80905">
        <ele>132.57</ele>
        <time>2019-05-26T09:40:09.000Z</time>
      </trkpt>
      <trkpt lat="45.19156" lon="4.80925">
        <ele>134.31</ele>
        <time>2019-05-26T09:40:14.000Z</time>
      </trkpt>
      <trkpt lat="45.19127" lon="4.80946">
        <ele>134.26</ele>
        <time>2019-05-26T09:40:19.000Z</time>
      </trkpt>
      <trkpt lat="45.19097" lon="4.80966">
        <ele>134.33</ele>
        <time>2019-05-26T09:40:24.000Z</time>
      </trkpt>
      <trkpt lat="45.19064" lon="4.80988">
        <ele>132.57</ele>
        <time>2019-05-26T09:40:29.000Z</time>
      </trkpt>
      <trkpt lat="45.1903" lon="4.8101">
        <ele>133.27</ele>
        <time>2019-05-26T09:40:34.000Z</time>
      </trkpt>
      <trkpt lat="45.18997" lon="4.81033">
        <ele>133.32</ele>
        <time>2019-05-26T09:40:39.000Z</time>
      </trkpt>
      <trkpt lat="45.18965" lon="4.81054">
        <ele>135.07</ele>
        <time>2019-05-26T09:40:44.000Z</time>
      </trkpt>
      <trkpt lat="45.18934" lon="4.81076">
        <ele>135.32</ele>
        <time>2019-05-26T09:40:49.000Z</time>
      </trkpt>
      <trkpt lat="45.18902" lon="4.81098">
        <ele>135.32</ele>
        <time>2019-05-26T09:40:54.000Z</time>
      </trkpt>
      <trkpt lat="45.18871" lon="4.81119">
        <ele>134.34</ele>
        <time>2019-05-26T09:40:59.000Z</time>
      </trkpt>
      <trkpt lat="45.1884" lon="4.81139">
        <ele>133.33</ele>
        <time>2019-05-26T09:41:04.000Z</time>
      </trkpt>
      <trkpt lat="45.18809" lon="4.81159">
        <ele>133.14</ele>
        <time>2019-05-26T09:41:09.000Z</time>
      </trkpt>
      <trkpt lat="45.18779" lon="4.81175">
        <ele>133.32</ele>
        <time>2019-05-26T09:41:14.000Z</time>
      </trkpt>
      <trkpt lat="45.18751" lon="4.81191">
        <ele>131.34</ele>
        <time>2019-05-26T09:41:19.000Z</time>
      </trkpt>
      <trkpt lat="45.18721" lon="4.81207">
        <ele>131.32</ele>
        <time>2019-05-26T09:41:24.000Z</time>
      </trkpt>
      <trkpt lat="45.18692" lon="4.81222">
        <ele>132.32</ele>
        <time>2019-05-26T09:41:29.000Z</time>
      </trkpt>
      <trkpt lat="45.18669" lon="4.81239">
        <ele>133.07</ele>
        <time>2019-05-26T09:41:34.000Z</time>
      </trkpt>
      <trkpt lat="45.18644" lon="4.81254">
        <ele>132.32</ele>
        <time>2019-05-26T09:41:39.000Z</time>
      </trkpt>
      <trkpt lat="45.18619" lon="4.81268">
        <ele>132.32</ele>
        <time>2019-05-26T09:41:44.000Z</time>
      </trkpt>
      <trkpt lat="45.18591" lon="4.8128">
        <ele>133.31</ele>
        <time>2019-05-26T09:41:49.000Z</time>
      </trkpt>
      <trkpt lat="45.18563" lon="4.81294">
        <ele>131.39</ele>
        <time>2019-05-26T09:41:54.000Z</time>
      </trkpt>
      <trkpt lat="45.18535" lon="4.8131">
        <ele>133.57</ele>
        <time>2019-05-26T09:41:59.000Z</time>
      </trkpt>
      <trkpt lat="45.18508" lon="4.81325">
        <ele>133.28</ele>
        <time>2019-05-26T09:42:04.000Z</time>
      </trkpt>
      <trkpt lat="45.18481" lon="4.81344">
        <ele>132.32</ele>
        <time>2019-05-26T09:42:09.000Z</time>
      </trkpt>
      <trkpt lat="45.18459" lon="4.81358">
        <ele>133.26</ele>
        <time>2019-05-26T09:42:14.000Z</time>
      </trkpt>
      <trkpt lat="45.18448" lon="4.81367">
        <ele>135.3</ele>
        <time>2019-05-26T09:42:19.000Z</time>
      </trkpt>
      <trkpt lat="45.18455" lon="4.81377">
        <ele>134.32</ele>
        <time>2019-05-26T09:42:24.000Z</time>
      </trkpt>
      <trkpt lat="45.18455" lon="4.8139">
        <ele>139.26</ele>
        <time>2019-05-26T09:42:29.000Z</time>
      </trkpt>
      <trkpt lat="45.18441" lon="4.81377">
        <ele>138.37</ele>
        <time>2019-05-26T09:42:34.000Z</time>
      </trkpt>
      <trkpt lat="45.1842" lon="4.81374">
        <ele>138.32</ele>
        <time>2019-05-26T09:42:39.000Z</time>
      </trkpt>
      <trkpt lat="45.18408" lon="4.81373">
        <ele>137.57</ele>
        <time>2019-05-26T09:42:44.000Z</time>
      </trkpt>
      <trkpt lat="45.18411" lon="4.81386">
        <ele>137.09</ele>
        <time>2019-05-26T09:42:49.000Z</time>
      </trkpt>
      <trkpt lat="45.18428" lon="4.81397">
        <ele>137.32</ele>
        <time>2019-05-26T09:42:54.000Z</time>
      </trkpt>
      <trkpt lat="45.18444" lon="4.81379">
        <ele>139.3</ele>
        <time>2019-05-26T09:42:59.000Z</time>
      </trkpt>
      <trkpt lat="45.18439" lon="4.81344">
        <ele>138.33</ele>
        <time>2019-05-26T09:43:04.000Z</time>
      </trkpt>
      <trkpt lat="45.18433" lon="4.81315">
        <ele>137.38</ele>
        <time>2019-05-26T09:43:09.000Z</time>
      </trkpt>
      <trkpt lat="45.18428" lon="4.81288">
        <ele>137.37</ele>
        <time>2019-05-26T09:43:14.000Z</time>
      </trkpt>
      <trkpt lat="45.18424" lon="4.81263">
        <ele>137.31</ele>
        <time>2019-05-26T09:43:19.000Z</time>
      </trkpt>
      <trkpt lat="45.18419" lon="4.81236">
        <ele>137.32</ele>
        <time>2019-05-26T09:43:24.000Z</time>
      </trkpt>
      <trkpt lat="45.18413" lon="4.81207">
        <ele>137.32</ele>
        <time>2019-05-26T09:43:29.000Z</time>
      </trkpt>
      <trkpt lat="45.18408" lon="4.81175">
        <ele>137.32</ele>
        <time>2019-05-26T09:43:34.000Z</time>
      </trkpt>
      <trkpt lat="45.18401" lon="4.81141">
        <ele>137.32</ele>
        <time>2019-05-26T09:43:39.000Z</time>
      </trkpt>
      <trkpt lat="45.18393" lon="4.81105">
        <ele>135.57</ele>
        <time>2019-05-26T09:43:44.000Z</time>
      </trkpt>
      <trkpt lat="45.18387" lon="4.81065">
        <ele>134.57</ele>
        <time>2019-05-26T09:43:49.000Z</time>
      </trkpt>
      <trkpt lat="45.18379" lon="4.81023">
        <ele>133.33</ele>
        <time>2019-05-26T09:43:54.000Z</time>
      </trkpt>
      <trkpt lat="45.18373" lon="4.80979">
        <ele>133.27</ele>
        <time>2019-05-26T09:43:59.000Z</time>
      </trkpt>
      <trkpt lat="45.18371" lon="4.80935">
        <ele>132.33</ele>
        <time>2019-05-26T09:44:04.000Z</time>
      </trkpt>
      <trkpt lat="45.18374" lon="4.8089">
        <ele>131.33</ele>
        <time>2019-05-26T09:44:09.000Z</time>
      </trkpt>
      <trkpt lat="45.18377" lon="4.80864">
        <ele>131.31</ele>
        <time>2019-05-26T09:44:14.000Z</time>
      </trkpt>
      <trkpt lat="45.18366" lon="4.80861">
        <ele>131.31</ele>
        <time>2019-05-26T09:44:19.000Z</time>
      </trkpt>
      <trkpt lat="45.18354" lon="4.80881">
        <ele>129.58</ele>
        <time>2019-05-26T09:44:24.000Z</time>
      </trkpt>
      <trkpt lat="45.1834" lon="4.8091">
        <ele>129.31</ele>
        <time>2019-05-26T09:44:29.000Z</time>
      </trkpt>
      <trkpt lat="45.1833" lon="4.80936">
        <ele>129.56</ele>
        <time>2019-05-26T09:44:34.000Z</time>
      </trkpt>
      <trkpt lat="45.18317" lon="4.8097">
        <ele>129.32</ele>
        <time>2019-05-26T09:44:39.000Z</time>
      </trkpt>
      <trkpt lat="45.18302" lon="4.81">
        <ele>127.58</ele>
        <time>2019-05-26T09:44:44.000Z</time>
      </trkpt>
      <trkpt lat="45.18299" lon="4.81038">
        <ele>126.38</ele>
        <time>2019-05-26T09:44:49.000Z</time>
      </trkpt>
      <trkpt lat="45.18298" lon="4.81069">
        <ele>126.32</ele>
        <time>2019-05-26T09:44:54.000Z</time>
      </trkpt>
      <trkpt lat="45.18299" lon="4.81084">
        <ele>128.38</ele>
        <time>2019-05-26T09:44:59.000Z</time>
      </trkpt>
      <trkpt lat="45.18302" lon="4.81101">
        <ele>128.32</ele>
        <time>2019-05-26T09:45:04.000Z</time>
      </trkpt>
      <trkpt lat="45.18302" lon="4.81115">
        <ele>130.32</ele>
        <time>2019-05-26T09:45:09.000Z</time>
      </trkpt>
      <trkpt lat="45.18294" lon="4.81123">
        <ele>129.14</ele>
        <time>2019-05-26T09:45:14.000Z</time>
      </trkpt>
      <trkpt lat="45.1827" lon="4.81121">
        <ele>129.08</ele>
        <time>2019-05-26T09:45:19.000Z</time>
      </trkpt>
      <trkpt lat="45.18244" lon="4.81121">
        <ele>129.32</ele>
        <time>2019-05-26T09:45:24.000Z</time>
      </trkpt>
      <trkpt lat="45.18217" lon="4.81121">
        <ele>129.32</ele>
        <time>2019-05-26T09:45:29.000Z</time>
      </trkpt>
      <trkpt lat="45.18187" lon="4.81119">
        <ele>131.06</ele>
        <time>2019-05-26T09:45:34.000Z</time>
      </trkpt>
      <trkpt lat="45.18157" lon="4.81116">
        <ele>130.38</ele>
        <time>2019-05-26T09:45:39.000Z</time>
      </trkpt>
      <trkpt lat="45.18127" lon="4.81109">
        <ele>131.3</ele>
        <time>2019-05-26T09:45:44.000Z</time>
      </trkpt>
      <trkpt lat="45.18097" lon="4.81102">
        <ele>129.38</ele>
        <time>2019-05-26T09:45:49.000Z</time>
      </trkpt>
      <trkpt lat="45.18066" lon="4.81093">
        <ele>131.06</ele>
        <time>2019-05-26T09:45:54.000Z</time>
      </trkpt>
      <trkpt lat="45.18035" lon="4.81082">
        <ele>130.32</ele>
        <time>2019-05-26T09:45:59.000Z</time>
      </trkpt>
      <trkpt lat="45.18004" lon="4.8107">
        <ele>130.31</ele>
        <time>2019-05-26T09:46:04.000Z</time>
      </trkpt>
      <trkpt lat="45.17973" lon="4.81057">
        <ele>130.37</ele>
        <time>2019-05-26T09:46:09.000Z</time>
      </trkpt>
      <trkpt lat="45.17943" lon="4.81043">
        <ele>130.33</ele>
        <time>2019-05-26T09:46:14.000Z</time>
      </trkpt>
      <trkpt lat="45.17912" lon="4.81028">
        <ele>130.31</ele>
        <time>2019-05-26T09:46:19.000Z</time>
      </trkpt>
      <trkpt lat="45.17882" lon="4.81011">
        <ele>130.5</ele>
        <time>2019-05-26T09:46:24.000Z</time>
      </trkpt>
      <trkpt lat="45.17852" lon="4.80995">
        <ele>130.26</ele>
        <time>2019-05-26T09:46:29.000Z</time>
      </trkpt>
      <trkpt lat="45.17823" lon="4.80978">
        <ele>129.56</ele>
        <time>2019-05-26T09:46:34.000Z</time>
      </trkpt>
      <trkpt lat="45.17795" lon="4.80964">
        <ele>130.29</ele>
        <time>2019-05-26T09:46:39.000Z</time>
      </trkpt>
      <trkpt lat="45.17767" lon="4.80948">
        <ele>130.31</ele>
        <time>2019-05-26T09:46:44.000Z</time>
      </trkpt>
      <trkpt lat="45.17738" lon="4.80932">
        <ele>130.31</ele>
        <time>2019-05-26T09:46:49.000Z</time>
      </trkpt>
      <trkpt lat="45.17709" lon="4.80916">
        <ele>130.49</ele>
        <time>2019-05-26T09:46:54.000Z</time>
      </trkpt>
      <trkpt lat="45.1768" lon="4.809">
        <ele>130.32</ele>
        <time>2019-05-26T09:46:59.000Z</time>
      </trkpt>
      <trkpt lat="45.1765" lon="4.80884">
        <ele>130.24</ele>
        <time>2019-05-26T09:47:04.000Z</time>
      </trkpt>
      <trkpt lat="45.1762" lon="4.80868">
        <ele>129.31</ele>
        <time>2019-05-26T09:47:09.000Z</time>
      </trkpt>
      <trkpt lat="45.17591" lon="4.80853">
        <ele>129.26</ele>
        <time>2019-05-26T09:47:14.000Z</time>
      </trkpt>
      <trkpt lat="45.17562" lon="4.80837">
        <ele>129.3</ele>
        <time>2019-05-26T09:47:19.000Z</time>
      </trkpt>
      <trkpt lat="45.17533" lon="4.80822">
        <ele>130.29</ele>
        <time>2019-05-26T09:47:24.000Z</time>
      </trkpt>
      <trkpt lat="45.17505" lon="4.80805">
        <ele>129.3</ele>
        <time>2019-05-26T09:47:29.000Z</time>
      </trkpt>
      <trkpt lat="45.17476" lon="4.80789">
        <ele>129.3</ele>
        <time>2019-05-26T09:47:34.000Z</time>
      </trkpt>
      <trkpt lat="45.17446" lon="4.80774">
        <ele>129.54</ele>
        <time>2019-05-26T09:47:39.000Z</time>
      </trkpt>
      <trkpt lat="45.17418" lon="4.80758">
        <ele>130.3</ele>
        <time>2019-05-26T09:47:44.000Z</time>
      </trkpt>
      <trkpt lat="45.17391" lon="4.80745">
        <ele>131.11</ele>
        <time>2019-05-26T09:47:49.000Z</time>
      </trkpt>
      <trkpt lat="45.1736" lon="4.80729">
        <ele>131.3</ele>
        <time>2019-05-26T09:47:54.000Z</time>
      </trkpt>
      <trkpt lat="45.1733" lon="4.80712">
        <ele>131.28</ele>
        <time>2019-05-26T09:47:59.000Z</time>
      </trkpt>
      <trkpt lat="45.17298" lon="4.80696">
        <ele>130.3</ele>
        <time>2019-05-26T09:48:04.000Z</time>
      </trkpt>
      <trkpt lat="45.17268" lon="4.80681">
        <ele>130.3</ele>
        <time>2019-05-26T09:48:09.000Z</time>
      </trkpt>
      <trkpt lat="45.17237" lon="4.80668">
        <ele>130.29</ele>
        <time>2019-05-26T09:48:14.000Z</time>
      </trkpt>
      <trkpt lat="45.17207" lon="4.80656">
        <ele>130.3</ele>
        <time>2019-05-26T09:48:19.000Z</time>
      </trkpt>
      <trkpt lat="45.17176" lon="4.80645">
        <ele>128.55</ele>
        <time>2019-05-26T09:48:24.000Z</time>
      </trkpt>
      <trkpt lat="45.17144" lon="4.80637">
        <ele>128.49</ele>
        <time>2019-05-26T09:48:29.000Z</time>
      </trkpt>
      <trkpt lat="45.17111" lon="4.8063">
        <ele>129.25</ele>
        <time>2019-05-26T09:48:34.000Z</time>
      </trkpt>
      <trkpt lat="45.17078" lon="4.80626">
        <ele>128.29</ele>
        <time>2019-05-26T09:48:39.000Z</time>
      </trkpt>
      <trkpt lat="45.17049" lon="4.80618">
        <ele>128.24</ele>
        <time>2019-05-26T09:48:44.000Z</time>
      </trkpt>
      <trkpt lat="45.17019" lon="4.80615">
        <ele>128.29</ele>
        <time>2019-05-26T09:48:49.000Z</time>
      </trkpt>
      <trkpt lat="45.1699" lon="4.80613">
        <ele>129.28</ele>
        <time>2019-05-26T09:48:54.000Z</time>
      </trkpt>
      <trkpt lat="45.16965" lon="4.8062">
        <ele>130.04</ele>
        <time>2019-05-26T09:48:59.000Z</time>
      </trkpt>
      <trkpt lat="45.16946" lon="4.80629">
        <ele>130.29</ele>
        <time>2019-05-26T09:49:04.000Z</time>
      </trkpt>
      <trkpt lat="45.16928" lon="4.80625">
        <ele>132.23</ele>
        <time>2019-05-26T09:49:09.000Z</time>
      </trkpt>
      <trkpt lat="45.16911" lon="4.80621">
        <ele>133.23</ele>
        <time>2019-05-26T09:49:14.000Z</time>
      </trkpt>
      <trkpt lat="45.16899" lon="4.80633">
        <ele>133.53</ele>
        <time>2019-05-26T09:49:19.000Z</time>
      </trkpt>
      <trkpt lat="45.16886" lon="4.80641">
        <ele>135.02</ele>
        <time>2019-05-26T09:49:24.000Z</time>
      </trkpt>
      <trkpt lat="45.16876" lon="4.80643">
        <ele>136.29</ele>
        <time>2019-05-26T09:49:29.000Z</time>
      </trkpt>
      <trkpt lat="45.16885" lon="4.8063">
        <ele>137.04</ele>
        <time>2019-05-26T09:49:34.000Z</time>
      </trkpt>
      <trkpt lat="45.16898" lon="4.8062">
        <ele>138.04</ele>
        <time>2019-05-26T09:49:39.000Z</time>
      </trkpt>
      <trkpt lat="45.16906" lon="4.80608">
        <ele>137.48</ele>
        <time>2019-05-26T09:49:44.000Z</time>
      </trkpt>
      <trkpt lat="45.16892" lon="4.80613">
        <ele>138.23</ele>
        <time>2019-05-26T09:49:49.000Z</time>
      </trkpt>
      <trkpt lat="45.16877" lon="4.80627">
        <ele>142.21</ele>
        <time>2019-05-26T09:49:54.000Z</time>
      </trkpt>
      <trkpt lat="45.16864" lon="4.80637">
        <ele>143.03</ele>
        <time>2019-05-26T09:49:59.000Z</time>
      </trkpt>
      <trkpt lat="45.1685" lon="4.80648">
        <ele>144.29</ele>
        <time>2019-05-26T09:50:04.000Z</time>
      </trkpt>
      <trkpt lat="45.16834" lon="4.80655">
        <ele>144.29</ele>
        <time>2019-05-26T09:50:09.000Z</time>
      </trkpt>
      <trkpt lat="45.16819" lon="4.80661">
        <ele>146.04</ele>
        <time>2019-05-26T09:50:14.000Z</time>
      </trkpt>
      <trkpt lat="45.16806" lon="4.80667">
        <ele>145.31</ele>
        <time>2019-05-26T09:50:19.000Z</time>
      </trkpt>
      <trkpt lat="45.16793" lon="4.80677">
        <ele>147.97</ele>
        <time>2019-05-26T09:50:24.000Z</time>
      </trkpt>
      <trkpt lat="45.16777" lon="4.80685">
        <ele>150.04</ele>
        <time>2019-05-26T09:50:29.000Z</time>
      </trkpt>
      <trkpt lat="45.1676" lon="4.80695">
        <ele>149.29</ele>
        <time>2019-05-26T09:50:34.000Z</time>
      </trkpt>
      <trkpt lat="45.1674" lon="4.80699">
        <ele>147.36</ele>
        <time>2019-05-26T09:50:39.000Z</time>
      </trkpt>
      <trkpt lat="45.16719" lon="4.80712">
        <ele>147.04</ele>
        <time>2019-05-26T09:50:44.000Z</time>
      </trkpt>
      <trkpt lat="45.16698" lon="4.80727">
        <ele>148.28</ele>
        <time>2019-05-26T09:50:49.000Z</time>
      </trkpt>
      <trkpt lat="45.16675" lon="4.80746">
        <ele>147.35</ele>
        <time>2019-05-26T09:50:54.000Z</time>
      </trkpt>
      <trkpt lat="45.16651" lon="4.80765">
        <ele>147.29</ele>
        <time>2019-05-26T09:50:59.000Z</time>
      </trkpt>
      <trkpt lat="45.1663" lon="4.80785">
        <ele>148.04</ele>
        <time>2019-05-26T09:51:04.000Z</time>
      </trkpt>
      <trkpt lat="45.16606" lon="4.80799">
        <ele>147.29</ele>
        <time>2019-05-26T09:51:09.000Z</time>
      </trkpt>
      <trkpt lat="45.16578" lon="4.80817">
        <ele>146.34</ele>
        <time>2019-05-26T09:51:14.000Z</time>
      </trkpt>
      <trkpt lat="45.16552" lon="4.80835">
        <ele>145.31</ele>
        <time>2019-05-26T09:51:19.000Z</time>
      </trkpt>
      <trkpt lat="45.16524" lon="4.80855">
        <ele>147.27</ele>
        <time>2019-05-26T09:51:24.000Z</time>
      </trkpt>
      <trkpt lat="45.16496" lon="4.80876">
        <ele>146.55</ele>
        <time>2019-05-26T09:51:29.000Z</time>
      </trkpt>
      <trkpt lat="45.16469" lon="4.80894">
        <ele>145.3</ele>
        <time>2019-05-26T09:51:34.000Z</time>
      </trkpt>
      <trkpt lat="45.16441" lon="4.80913">
        <ele>147.27</ele>
        <time>2019-05-26T09:51:39.000Z</time>
      </trkpt>
      <trkpt lat="45.16413" lon="4.80932">
        <ele>148.23</ele>
        <time>2019-05-26T09:51:44.000Z</time>
      </trkpt>
      <trkpt lat="45.16384" lon="4.80949">
        <ele>148.29</ele>
        <time>2019-05-26T09:51:49.000Z</time>
      </trkpt>
      <trkpt lat="45.16352" lon="4.80968">
        <ele>146.3</ele>
        <time>2019-05-26T09:51:54.000Z</time>
      </trkpt>
      <trkpt lat="45.1632" lon="4.80989">
        <ele>145.29</ele>
        <time>2019-05-26T09:51:59.000Z</time>
      </trkpt>
      <trkpt lat="45.1629" lon="4.81014">
        <ele>143.56</ele>
        <time>2019-05-26T09:52:04.000Z</time>
      </trkpt>
      <trkpt lat="45.16261" lon="4.8104">
        <ele>141.54</ele>
        <time>2019-05-26T09:52:09.000Z</time>
      </trkpt>
      <trkpt lat="45.16234" lon="4.81067">
        <ele>142.29</ele>
        <time>2019-05-26T09:52:14.000Z</time>
      </trkpt>
      <trkpt lat="45.1621" lon="4.81099">
        <ele>140.31</ele>
        <time>2019-05-26T09:52:19.000Z</time>
      </trkpt>
      <trkpt lat="45.16182" lon="4.81117">
        <ele>140.34</ele>
        <time>2019-05-26T09:52:24.000Z</time>
      </trkpt>
      <trkpt lat="45.16156" lon="4.81139">
        <ele>138.59</ele>
        <time>2019-05-26T09:52:29.000Z</time>
      </trkpt>
      <trkpt lat="45.16136" lon="4.8117">
        <ele>138.12</ele>
        <time>2019-05-26T09:52:34.000Z</time>
      </trkpt>
      <trkpt lat="45.16116" lon="4.812">
        <ele>136.25</ele>
        <time>2019-05-26T09:52:39.000Z</time>
      </trkpt>
      <trkpt lat="45.16096" lon="4.81232">
        <ele>136.28</ele>
        <time>2019-05-26T09:52:44.000Z</time>
      </trkpt>
      <trkpt lat="45.16078" lon="4.81265">
        <ele>137.29</ele>
        <time>2019-05-26T09:52:49.000Z</time>
      </trkpt>
      <trkpt lat="45.16061" lon="4.81296">
        <ele>138.52</ele>
        <time>2019-05-26T09:52:54.000Z</time>
      </trkpt>
      <trkpt lat="45.16044" lon="4.81329">
        <ele>139.04</ele>
        <time>2019-05-26T09:52:59.000Z</time>
      </trkpt>
      <trkpt lat="45.16037" lon="4.81372">
        <ele>137.31</ele>
        <time>2019-05-26T09:53:04.000Z</time>
      </trkpt>
      <trkpt lat="45.16028" lon="4.81416">
        <ele>135.3</ele>
        <time>2019-05-26T09:53:09.000Z</time>
      </trkpt>
      <trkpt lat="45.16012" lon="4.81454">
        <ele>134.3</ele>
        <time>2019-05-26T09:53:14.000Z</time>
      </trkpt>
      <trkpt lat="45.15994" lon="4.81497">
        <ele>133.36</ele>
        <time>2019-05-26T09:53:19.000Z</time>
      </trkpt>
      <trkpt lat="45.15973" lon="4.81551">
        <ele>129.57</ele>
        <time>2019-05-26T09:53:24.000Z</time>
      </trkpt>
      <trkpt lat="45.15951" lon="4.81608">
        <ele>129.3</ele>
        <time>2019-05-26T09:53:29.000Z</time>
      </trkpt>
      <trkpt lat="45.15932" lon="4.8166">
        <ele>128.53</ele>
        <time>2019-05-26T09:53:34.000Z</time>
      </trkpt>
      <trkpt lat="45.15922" lon="4.81711">
        <ele>127.3</ele>
        <time>2019-05-26T09:53:39.000Z</time>
      </trkpt>
      <trkpt lat="45.15932" lon="4.8176">
        <ele>125.31</ele>
        <time>2019-05-26T09:53:44.000Z</time>
      </trkpt>
      <trkpt lat="45.15932" lon="4.81808">
        <ele>125.55</ele>
        <time>2019-05-26T09:53:49.000Z</time>
      </trkpt>
      <trkpt lat="45.15921" lon="4.81859">
        <ele>126.24</ele>
        <time>2019-05-26T09:53:54.000Z</time>
      </trkpt>
      <trkpt lat="45.15915" lon="4.8191">
        <ele>126.3</ele>
        <time>2019-05-26T09:53:59.000Z</time>
      </trkpt>
      <trkpt lat="45.15909" lon="4.81957">
        <ele>125.55</ele>
        <time>2019-05-26T09:54:04.000Z</time>
      </trkpt>
      <trkpt lat="45.15903" lon="4.82002">
        <ele>125.31</ele>
        <time>2019-05-26T09:54:09.000Z</time>
      </trkpt>
      <trkpt lat="45.15896" lon="4.82045">
        <ele>123.37</ele>
        <time>2019-05-26T09:54:14.000Z</time>
      </trkpt>
      <trkpt lat="45.15888" lon="4.82087">
        <ele>124.3</ele>
        <time>2019-05-26T09:54:19.000Z</time>
      </trkpt>
      <trkpt lat="45.15879" lon="4.82129">
        <ele>125.05</ele>
        <time>2019-05-26T09:54:24.000Z</time>
      </trkpt>
      <trkpt lat="45.15869" lon="4.8217">
        <ele>125.3</ele>
        <time>2019-05-26T09:54:29.000Z</time>
      </trkpt>
      <trkpt lat="45.15858" lon="4.82209">
        <ele>125.3</ele>
        <time>2019-05-26T09:54:34.000Z</time>
      </trkpt>
      <trkpt lat="45.15845" lon="4.82249">
        <ele>127.24</ele>
        <time>2019-05-26T09:54:39.000Z</time>
      </trkpt>
      <trkpt lat="45.1583" lon="4.82287">
        <ele>126.31</ele>
        <time>2019-05-26T09:54:44.000Z</time>
      </trkpt>
      <trkpt lat="45.15815" lon="4.82325">
        <ele>126.31</ele>
        <time>2019-05-26T09:54:49.000Z</time>
      </trkpt>
      <trkpt lat="45.15798" lon="4.82361">
        <ele>126.31</ele>
        <time>2019-05-26T09:54:54.000Z</time>
      </trkpt>
      <trkpt lat="45.15778" lon="4.82393">
        <ele>126.24</ele>
        <time>2019-05-26T09:55:00.000Z</time>
      </trkpt>
      <trkpt lat="45.15755" lon="4.82419">
        <ele>126.31</ele>
        <time>2019-05-26T09:55:05.000Z</time>
      </trkpt>
      <trkpt lat="45.1573" lon="4.82444">
        <ele>127.26</ele>
        <time>2019-05-26T09:55:10.000Z</time>
      </trkpt>
      <trkpt lat="45.15705" lon="4.82465">
        <ele>128.24</ele>
        <time>2019-05-26T09:55:15.000Z</time>
      </trkpt>
      <trkpt lat="45.15679" lon="4.82482">
        <ele>129.31</ele>
        <time>2019-05-26T09:55:20.000Z</time>
      </trkpt>
      <trkpt lat="45.15651" lon="4.82494">
        <ele>129.54</ele>
        <time>2019-05-26T09:55:25.000Z</time>
      </trkpt>
      <trkpt lat="45.15623" lon="4.82502">
        <ele>128.31</ele>
        <time>2019-05-26T09:55:30.000Z</time>
      </trkpt>
      <trkpt lat="45.15592" lon="4.82507">
        <ele>128.55</ele>
        <time>2019-05-26T09:55:35.000Z</time>
      </trkpt>
      <trkpt lat="45.15562" lon="4.82509">
        <ele>128.35</ele>
        <time>2019-05-26T09:55:40.000Z</time>
      </trkpt>
      <trkpt lat="45.1553" lon="4.82509">
        <ele>126.32</ele>
        <time>2019-05-26T09:55:45.000Z</time>
      </trkpt>
      <trkpt lat="45.15497" lon="4.82505">
        <ele>125.12</ele>
        <time>2019-05-26T09:55:50.000Z</time>
      </trkpt>
      <trkpt lat="45.15466" lon="4.82501">
        <ele>126.29</ele>
        <time>2019-05-26T09:55:55.000Z</time>
      </trkpt>
      <trkpt lat="45.15434" lon="4.82492">
        <ele>126.37</ele>
        <time>2019-05-26T09:56:00.000Z</time>
      </trkpt>
      <trkpt lat="45.15405" lon="4.82481">
        <ele>128.23</ele>
        <time>2019-05-26T09:56:05.000Z</time>
      </trkpt>
      <trkpt lat="45.15374" lon="4.82466">
        <ele>127.61</ele>
        <time>2019-05-26T09:56:10.000Z</time>
      </trkpt>
      <trkpt lat="45.15343" lon="4.82445">
        <ele>128.24</ele>
        <time>2019-05-26T09:56:15.000Z</time>
      </trkpt>
      <trkpt lat="45.15314" lon="4.82423">
        <ele>127.32</ele>
        <time>2019-05-26T09:56:20.000Z</time>
      </trkpt>
      <trkpt lat="45.15284" lon="4.82399">
        <ele>125.32</ele>
        <time>2019-05-26T09:56:25.000Z</time>
      </trkpt>
      <trkpt lat="45.15256" lon="4.82376">
        <ele>125.55</ele>
        <time>2019-05-26T09:56:30.000Z</time>
      </trkpt>
      <trkpt lat="45.15227" lon="4.82354">
        <ele>124.49</ele>
        <time>2019-05-26T09:56:35.000Z</time>
      </trkpt>
      <trkpt lat="45.15199" lon="4.82332">
        <ele>127.03</ele>
        <time>2019-05-26T09:56:46.000Z</time>
      </trkpt>
      <trkpt lat="45.15172" lon="4.82309">
        <ele>128.29</ele>
        <time>2019-05-26T09:56:51.000Z</time>
      </trkpt>
      <trkpt lat="45.15146" lon="4.82285">
        <ele>127.3</ele>
        <time>2019-05-26T09:56:56.000Z</time>
      </trkpt>
      <trkpt lat="45.15119" lon="4.82265">
        <ele>124.61</ele>
        <time>2019-05-26T09:57:01.000Z</time>
      </trkpt>
      <trkpt lat="45.15093" lon="4.82242">
        <ele>123.53</ele>
        <time>2019-05-26T09:57:06.000Z</time>
      </trkpt>
      <trkpt lat="45.15066" lon="4.82222">
        <ele>125.28</ele>
        <time>2019-05-26T09:57:11.000Z</time>
      </trkpt>
      <trkpt lat="45.1504" lon="4.82201">
        <ele>125.29</ele>
        <time>2019-05-26T09:57:16.000Z</time>
      </trkpt>
      <trkpt lat="45.15014" lon="4.82177">
        <ele>125.28</ele>
        <time>2019-05-26T09:57:21.000Z</time>
      </trkpt>
      <trkpt lat="45.14987" lon="4.82153">
        <ele>124.31</ele>
        <time>2019-05-26T09:57:26.000Z</time>
      </trkpt>
      <trkpt lat="45.1496" lon="4.82129">
        <ele>124.29</ele>
        <time>2019-05-26T09:57:31.000Z</time>
      </trkpt>
      <trkpt lat="45.14935" lon="4.82106">
        <ele>125.04</ele>
        <time>2019-05-26T09:57:36.000Z</time>
      </trkpt>
      <trkpt lat="45.1491" lon="4.82084">
        <ele>125.49</ele>
        <time>2019-05-26T09:57:41.000Z</time>
      </trkpt>
      <trkpt lat="45.14885" lon="4.82061">
        <ele>124.35</ele>
        <time>2019-05-26T09:57:46.000Z</time>
      </trkpt>
      <trkpt lat="45.14861" lon="4.82037">
        <ele>126.27</ele>
        <time>2019-05-26T09:57:51.000Z</time>
      </trkpt>
      <trkpt lat="45.14838" lon="4.82014">
        <ele>126.03</ele>
        <time>2019-05-26T09:57:56.000Z</time>
      </trkpt>
      <trkpt lat="45.14815" lon="4.81993">
        <ele>125.35</ele>
        <time>2019-05-26T09:58:01.000Z</time>
      </trkpt>
      <trkpt lat="45.14791" lon="4.81969">
        <ele>128.22</ele>
        <time>2019-05-26T09:58:06.000Z</time>
      </trkpt>
      <trkpt lat="45.14766" lon="4.81947">
        <ele>129.27</ele>
        <time>2019-05-26T09:58:11.000Z</time>
      </trkpt>
      <trkpt lat="45.14739" lon="4.81919">
        <ele>127.54</ele>
        <time>2019-05-26T09:58:16.000Z</time>
      </trkpt>
      <trkpt lat="45.14712" lon="4.81888">
        <ele>128.04</ele>
        <time>2019-05-26T09:58:21.000Z</time>
      </trkpt>
      <trkpt lat="45.14686" lon="4.81859">
        <ele>129.23</ele>
        <time>2019-05-26T09:58:26.000Z</time>
      </trkpt>
      <trkpt lat="45.14658" lon="4.8183">
        <ele>127.35</ele>
        <time>2019-05-26T09:58:31.000Z</time>
      </trkpt>
      <trkpt lat="45.14629" lon="4.81801">
        <ele>127.63</ele>
        <time>2019-05-26T09:58:36.000Z</time>
      </trkpt>
      <trkpt lat="45.146" lon="4.81774">
        <ele>122.33</ele>
        <time>2019-05-26T09:58:41.000Z</time>
      </trkpt>
      <trkpt lat="45.14573" lon="4.81747">
        <ele>124.47</ele>
        <time>2019-05-26T09:58:46.000Z</time>
      </trkpt>
      <trkpt lat="45.14546" lon="4.81721">
        <ele>125.02</ele>
        <time>2019-05-26T09:58:51.000Z</time>
      </trkpt>
      <trkpt lat="45.1452" lon="4.81695">
        <ele>125.27</ele>
        <time>2019-05-26T09:58:56.000Z</time>
      </trkpt>
      <trkpt lat="45.14496" lon="4.81668">
        <ele>125.28</ele>
        <time>2019-05-26T09:59:01.000Z</time>
      </trkpt>
      <trkpt lat="45.14473" lon="4.81645">
        <ele>125.27</ele>
        <time>2019-05-26T09:59:06.000Z</time>
      </trkpt>
      <trkpt lat="45.1445" lon="4.81621">
        <ele>126.27</ele>
        <time>2019-05-26T09:59:11.000Z</time>
      </trkpt>
      <trkpt lat="45.14423" lon="4.81597">
        <ele>126.28</ele>
        <time>2019-05-26T09:59:16.000Z</time>
      </trkpt>
      <trkpt lat="45.14396" lon="4.8157">
        <ele>125.28</ele>
        <time>2019-05-26T09:59:21.000Z</time>
      </trkpt>
      <trkpt lat="45.14371" lon="4.81542">
        <ele>124.28</ele>
        <time>2019-05-26T09:59:26.000Z</time>
      </trkpt>
      <trkpt lat="45.14345" lon="4.81515">
        <ele>124.27</ele>
        <time>2019-05-26T09:59:31.000Z</time>
      </trkpt>
      <trkpt lat="45.14319" lon="4.81491">
        <ele>124.34</ele>
        <time>2019-05-26T09:59:36.000Z</time>
      </trkpt>
      <trkpt lat="45.14295" lon="4.81465">
        <ele>125.21</ele>
        <time>2019-05-26T09:59:41.000Z</time>
      </trkpt>
      <trkpt lat="45.14273" lon="4.81437">
        <ele>128.02</ele>
        <time>2019-05-26T09:59:46.000Z</time>
      </trkpt>
      <trkpt lat="45.14251" lon="4.81416">
        <ele>130.02</ele>
        <time>2019-05-26T09:59:51.000Z</time>
      </trkpt>
      <trkpt lat="45.14232" lon="4.81396">
        <ele>131.21</ele>
        <time>2019-05-26T09:59:56.000Z</time>
      </trkpt>
      <trkpt lat="45.14216" lon="4.81379">
        <ele>132.21</ele>
        <time>2019-05-26T10:00:01.000Z</time>
      </trkpt>
      <trkpt lat="45.142" lon="4.8136">
        <ele>131.27</ele>
        <time>2019-05-26T10:00:06.000Z</time>
      </trkpt>
      <trkpt lat="45.14186" lon="4.8133">
        <ele>129.3</ele>
        <time>2019-05-26T10:00:11.000Z</time>
      </trkpt>
      <trkpt lat="45.14161" lon="4.81297">
        <ele>127.34</ele>
        <time>2019-05-26T10:00:16.000Z</time>
      </trkpt>
      <trkpt lat="45.14142" lon="4.81275">
        <ele>126.33</ele>
        <time>2019-05-26T10:00:21.000Z</time>
      </trkpt>
      <trkpt lat="45.14134" lon="4.81255">
        <ele>125.28</ele>
        <time>2019-05-26T10:00:26.000Z</time>
      </trkpt>
      <trkpt lat="45.14124" lon="4.81257">
        <ele>124.03</ele>
        <time>2019-05-26T10:00:31.000Z</time>
      </trkpt>
      <trkpt lat="45.14115" lon="4.8125">
        <ele>129</ele>
        <time>2019-05-26T10:00:36.000Z</time>
      </trkpt>
      <trkpt lat="45.14108" lon="4.81238">
        <ele>133.19</ele>
        <time>2019-05-26T10:00:41.000Z</time>
      </trkpt>
      <trkpt lat="45.14099" lon="4.81225">
        <ele>131.29</ele>
        <time>2019-05-26T10:00:46.000Z</time>
      </trkpt>
      <trkpt lat="45.14088" lon="4.81214">
        <ele>132</ele>
        <time>2019-05-26T10:00:51.000Z</time>
      </trkpt>
      <trkpt lat="45.14076" lon="4.81198">
        <ele>132.32</ele>
        <time>2019-05-26T10:00:56.000Z</time>
      </trkpt>
      <trkpt lat="45.14062" lon="4.81179">
        <ele>132.21</ele>
        <time>2019-05-26T10:01:01.000Z</time>
      </trkpt>
      <trkpt lat="45.14046" lon="4.81157">
        <ele>130.52</ele>
        <time>2019-05-26T10:01:06.000Z</time>
      </trkpt>
      <trkpt lat="45.14028" lon="4.81136">
        <ele>130.26</ele>
        <time>2019-05-26T10:01:11.000Z</time>
      </trkpt>
      <trkpt lat="45.14009" lon="4.81112">
        <ele>131.07</ele>
        <time>2019-05-26T10:01:16.000Z</time>
      </trkpt>
      <trkpt lat="45.1399" lon="4.81085">
        <ele>131.2</ele>
        <time>2019-05-26T10:01:21.000Z</time>
      </trkpt>
      <trkpt lat="45.13973" lon="4.81059">
        <ele>131.08</ele>
        <time>2019-05-26T10:01:26.000Z</time>
      </trkpt>
      <trkpt lat="45.13953" lon="4.81031">
        <ele>131.45</ele>
        <time>2019-05-26T10:01:31.000Z</time>
      </trkpt>
      <trkpt lat="45.1393" lon="4.80999">
        <ele>130.31</ele>
        <time>2019-05-26T10:01:36.000Z</time>
      </trkpt>
      <trkpt lat="45.13912" lon="4.80966">
        <ele>130.95</ele>
        <time>2019-05-26T10:01:41.000Z</time>
      </trkpt>
      <trkpt lat="45.13891" lon="4.80935">
        <ele>129.33</ele>
        <time>2019-05-26T10:01:46.000Z</time>
      </trkpt>
      <trkpt lat="45.13873" lon="4.80904">
        <ele>130.2</ele>
        <time>2019-05-26T10:01:51.000Z</time>
      </trkpt>
      <trkpt lat="45.13864" lon="4.80876">
        <ele>129.51</ele>
        <time>2019-05-26T10:01:56.000Z</time>
      </trkpt>
      <trkpt lat="45.13853" lon="4.8085">
        <ele>128.51</ele>
        <time>2019-05-26T10:02:01.000Z</time>
      </trkpt>
      <trkpt lat="45.13843" lon="4.80824">
        <ele>127.26</ele>
        <time>2019-05-26T10:02:06.000Z</time>
      </trkpt>
      <trkpt lat="45.13838" lon="4.80807">
        <ele>127.2</ele>
        <time>2019-05-26T10:02:11.000Z</time>
      </trkpt>
      <trkpt lat="45.13836" lon="4.80793">
        <ele>129.25</ele>
        <time>2019-05-26T10:02:16.000Z</time>
      </trkpt>
      <trkpt lat="45.13833" lon="4.80772">
        <ele>127.51</ele>
        <time>2019-05-26T10:02:21.000Z</time>
      </trkpt>
      <trkpt lat="45.13829" lon="4.80748">
        <ele>127.01</ele>
        <time>2019-05-26T10:02:26.000Z</time>
      </trkpt>
      <trkpt lat="45.1382" lon="4.80722">
        <ele>127.27</ele>
        <time>2019-05-26T10:02:31.000Z</time>
      </trkpt>
      <trkpt lat="45.13806" lon="4.80699">
        <ele>127.07</ele>
        <time>2019-05-26T10:02:36.000Z</time>
      </trkpt>
      <trkpt lat="45.1379" lon="4.80673">
        <ele>128.25</ele>
        <time>2019-05-26T10:02:41.000Z</time>
      </trkpt>
      <trkpt lat="45.13774" lon="4.8065">
        <ele>129.19</ele>
        <time>2019-05-26T10:02:46.000Z</time>
      </trkpt>
      <trkpt lat="45.13754" lon="4.80631">
        <ele>128.32</ele>
        <time>2019-05-26T10:02:51.000Z</time>
      </trkpt>
      <trkpt lat="45.13737" lon="4.80599">
        <ele>126.46</ele>
        <time>2019-05-26T10:02:56.000Z</time>
      </trkpt>
      <trkpt lat="45.1372" lon="4.80565">
        <ele>126.5</ele>
        <time>2019-05-26T10:03:01.000Z</time>
      </trkpt>
      <trkpt lat="45.13701" lon="4.8053">
        <ele>125.32</ele>
        <time>2019-05-26T10:03:06.000Z</time>
      </trkpt>
      <trkpt lat="45.13683" lon="4.80499">
        <ele>125.3</ele>
        <time>2019-05-26T10:03:11.000Z</time>
      </trkpt>
      <trkpt lat="45.13662" lon="4.80473">
        <ele>126.25</ele>
        <time>2019-05-26T10:03:16.000Z</time>
      </trkpt>
      <trkpt lat="45.1364" lon="4.80449">
        <ele>126.02</ele>
        <time>2019-05-26T10:03:21.000Z</time>
      </trkpt>
      <trkpt lat="45.13616" lon="4.80425">
        <ele>125.49</ele>
        <time>2019-05-26T10:03:26.000Z</time>
      </trkpt>
      <trkpt lat="45.13589" lon="4.80405">
        <ele>125.25</ele>
        <time>2019-05-26T10:03:31.000Z</time>
      </trkpt>
      <trkpt lat="45.1356" lon="4.80387">
        <ele>126.99</ele>
        <time>2019-05-26T10:03:36.000Z</time>
      </trkpt>
      <trkpt lat="45.13534" lon="4.80366">
        <ele>126.5</ele>
        <time>2019-05-26T10:03:41.000Z</time>
      </trkpt>
      <trkpt lat="45.1351" lon="4.80337">
        <ele>125.26</ele>
        <time>2019-05-26T10:03:46.000Z</time>
      </trkpt>
      <trkpt lat="45.13488" lon="4.80306">
        <ele>123.56</ele>
        <time>2019-05-26T10:03:51.000Z</time>
      </trkpt>
      <trkpt lat="45.13455" lon="4.80293">
        <ele>121.26</ele>
        <time>2019-05-26T10:03:56.000Z</time>
      </trkpt>
      <trkpt lat="45.13427" lon="4.80295">
        <ele>123.19</ele>
        <time>2019-05-26T10:04:01.000Z</time>
      </trkpt>
      <trkpt lat="45.13404" lon="4.80281">
        <ele>125.17</ele>
        <time>2019-05-26T10:04:06.000Z</time>
      </trkpt>
      <trkpt lat="45.13382" lon="4.80268">
        <ele>126.93</ele>
        <time>2019-05-26T10:04:11.000Z</time>
      </trkpt>
      <trkpt lat="45.13355" lon="4.80264">
        <ele>127.2</ele>
        <time>2019-05-26T10:08:34.000Z</time>
      </trkpt>
      <trkpt lat="45.13328" lon="4.80267">
        <ele>126.3</ele>
        <time>2019-05-26T10:08:47.000Z</time>
      </trkpt>
      <trkpt lat="45.13299" lon="4.80259">
        <ele>125.26</ele>
        <time>2019-05-26T10:08:52.000Z</time>
      </trkpt>
      <trkpt lat="45.13269" lon="4.80254">
        <ele>125.29</ele>
        <time>2019-05-26T10:08:57.000Z</time>
      </trkpt>
      <trkpt lat="45.13239" lon="4.80257">
        <ele>125.24</ele>
        <time>2019-05-26T10:09:02.000Z</time>
      </trkpt>
      <trkpt lat="45.13211" lon="4.80248">
        <ele>125.99</ele>
        <time>2019-05-26T10:09:07.000Z</time>
      </trkpt>
      <trkpt lat="45.13181" lon="4.80244">
        <ele>126.28</ele>
        <time>2019-05-26T10:09:12.000Z</time>
      </trkpt>
      <trkpt lat="45.13149" lon="4.80247">
        <ele>127.24</ele>
        <time>2019-05-26T10:09:17.000Z</time>
      </trkpt>
      <trkpt lat="45.13117" lon="4.80244">
        <ele>127.24</ele>
        <time>2019-05-26T10:09:22.000Z</time>
      </trkpt>
      <trkpt lat="45.13085" lon="4.8024">
        <ele>128.18</ele>
        <time>2019-05-26T10:09:27.000Z</time>
      </trkpt>
      <trkpt lat="45.13053" lon="4.80233">
        <ele>127.49</ele>
        <time>2019-05-26T10:09:32.000Z</time>
      </trkpt>
      <trkpt lat="45.13021" lon="4.80226">
        <ele>126.25</ele>
        <time>2019-05-26T10:09:37.000Z</time>
      </trkpt>
      <trkpt lat="45.12989" lon="4.80222">
        <ele>126.24</ele>
        <time>2019-05-26T10:09:42.000Z</time>
      </trkpt>
      <trkpt lat="45.12956" lon="4.80216">
        <ele>127.03</ele>
        <time>2019-05-26T10:09:47.000Z</time>
      </trkpt>
      <trkpt lat="45.12926" lon="4.80211">
        <ele>126.3</ele>
        <time>2019-05-26T10:09:52.000Z</time>
      </trkpt>
      <trkpt lat="45.12896" lon="4.80204">
        <ele>127.47</ele>
        <time>2019-05-26T10:09:57.000Z</time>
      </trkpt>
      <trkpt lat="45.12866" lon="4.80198">
        <ele>127.99</ele>
        <time>2019-05-26T10:10:02.000Z</time>
      </trkpt>
      <trkpt lat="45.12837" lon="4.80186">
        <ele>128.22</ele>
        <time>2019-05-26T10:10:07.000Z</time>
      </trkpt>
      <trkpt lat="45.12804" lon="4.80176">
        <ele>127.25</ele>
        <time>2019-05-26T10:10:12.000Z</time>
      </trkpt>
      <trkpt lat="45.12774" lon="4.80172">
        <ele>126.25</ele>
        <time>2019-05-26T10:10:17.000Z</time>
      </trkpt>
      <trkpt lat="45.12742" lon="4.80167">
        <ele>124.3</ele>
        <time>2019-05-26T10:10:22.000Z</time>
      </trkpt>
      <trkpt lat="45.12712" lon="4.80169">
        <ele>126.16</ele>
        <time>2019-05-26T10:10:27.000Z</time>
      </trkpt>
      <trkpt lat="45.12686" lon="4.80164">
        <ele>125.25</ele>
        <time>2019-05-26T10:10:32.000Z</time>
      </trkpt>
      <trkpt lat="45.12655" lon="4.80159">
        <ele>125.28</ele>
        <time>2019-05-26T10:10:37.000Z</time>
      </trkpt>
      <trkpt lat="45.12626" lon="4.80152">
        <ele>126.23</ele>
        <time>2019-05-26T10:10:42.000Z</time>
      </trkpt>
      <trkpt lat="45.12596" lon="4.80146">
        <ele>126.51</ele>
        <time>2019-05-26T10:10:47.000Z</time>
      </trkpt>
      <trkpt lat="45.12564" lon="4.80141">
        <ele>127.2</ele>
        <time>2019-05-26T10:10:52.000Z</time>
      </trkpt>
      <trkpt lat="45.12533" lon="4.80136">
        <ele>125.5</ele>
        <time>2019-05-26T10:10:57.000Z</time>
      </trkpt>
      <trkpt lat="45.12501" lon="4.8013">
        <ele>125.98</ele>
        <time>2019-05-26T10:11:02.000Z</time>
      </trkpt>
      <trkpt lat="45.12469" lon="4.80119">
        <ele>125.97</ele>
        <time>2019-05-26T10:11:07.000Z</time>
      </trkpt>
      <trkpt lat="45.12438" lon="4.80112">
        <ele>125.98</ele>
        <time>2019-05-26T10:11:12.000Z</time>
      </trkpt>
      <trkpt lat="45.12406" lon="4.80101">
        <ele>125.24</ele>
        <time>2019-05-26T10:11:17.000Z</time>
      </trkpt>
      <trkpt lat="45.12375" lon="4.80102">
        <ele>125</ele>
        <time>2019-05-26T10:11:22.000Z</time>
      </trkpt>
      <trkpt lat="45.12354" lon="4.80098">
        <ele>127.21</ele>
        <time>2019-05-26T10:11:27.000Z</time>
      </trkpt>
      <trkpt lat="45.12332" lon="4.80094">
        <ele>128.21</ele>
        <time>2019-05-26T10:11:32.000Z</time>
      </trkpt>
      <trkpt lat="45.12309" lon="4.80094">
        <ele>129.18</ele>
        <time>2019-05-26T10:11:37.000Z</time>
      </trkpt>
      <trkpt lat="45.12286" lon="4.80095">
        <ele>128.24</ele>
        <time>2019-05-26T10:11:42.000Z</time>
      </trkpt>
      <trkpt lat="45.1226" lon="4.80099">
        <ele>128.22</ele>
        <time>2019-05-26T10:11:47.000Z</time>
      </trkpt>
      <trkpt lat="45.12234" lon="4.80103">
        <ele>127.99</ele>
        <time>2019-05-26T10:11:52.000Z</time>
      </trkpt>
      <trkpt lat="45.12209" lon="4.80113">
        <ele>128.23</ele>
        <time>2019-05-26T10:11:57.000Z</time>
      </trkpt>
      <trkpt lat="45.12182" lon="4.80127">
        <ele>128.22</ele>
        <time>2019-05-26T10:12:02.000Z</time>
      </trkpt>
      <trkpt lat="45.12152" lon="4.80148">
        <ele>128.23</ele>
        <time>2019-05-26T10:12:07.000Z</time>
      </trkpt>
      <trkpt lat="45.12119" lon="4.80159">
        <ele>127.23</ele>
        <time>2019-05-26T10:12:12.000Z</time>
      </trkpt>
      <trkpt lat="45.12091" lon="4.80175">
        <ele>127.98</ele>
        <time>2019-05-26T10:12:17.000Z</time>
      </trkpt>
      <trkpt lat="45.12073" lon="4.80198">
        <ele>128.23</ele>
        <time>2019-05-26T10:12:22.000Z</time>
      </trkpt>
      <trkpt lat="45.12065" lon="4.80241">
        <ele>125.54</ele>
        <time>2019-05-26T10:12:27.000Z</time>
      </trkpt>
      <trkpt lat="45.12056" lon="4.80289">
        <ele>124.24</ele>
        <time>2019-05-26T10:12:32.000Z</time>
      </trkpt>
      <trkpt lat="45.1205" lon="4.80339">
        <ele>122.51</ele>
        <time>2019-05-26T10:12:37.000Z</time>
      </trkpt>
      <trkpt lat="45.12035" lon="4.80383">
        <ele>121.24</ele>
        <time>2019-05-26T10:12:42.000Z</time>
      </trkpt>
      <trkpt lat="45.1201" lon="4.80413">
        <ele>122.17</ele>
        <time>2019-05-26T10:12:47.000Z</time>
      </trkpt>
      <trkpt lat="45.11992" lon="4.80449">
        <ele>122.24</ele>
        <time>2019-05-26T10:12:52.000Z</time>
      </trkpt>
      <trkpt lat="45.11968" lon="4.80481">
        <ele>122.22</ele>
        <time>2019-05-26T10:12:57.000Z</time>
      </trkpt>
      <trkpt lat="45.11944" lon="4.80509">
        <ele>123.98</ele>
        <time>2019-05-26T10:13:02.000Z</time>
      </trkpt>
      <trkpt lat="45.1192" lon="4.80538">
        <ele>126.67</ele>
        <time>2019-05-26T10:13:07.000Z</time>
      </trkpt>
      <trkpt lat="45.11895" lon="4.80559">
        <ele>124.97</ele>
        <time>2019-05-26T10:13:12.000Z</time>
      </trkpt>
      <trkpt lat="45.1187" lon="4.80584">
        <ele>126.15</ele>
        <time>2019-05-26T10:13:17.000Z</time>
      </trkpt>
      <trkpt lat="45.11847" lon="4.80609">
        <ele>126.29</ele>
        <time>2019-05-26T10:13:22.000Z</time>
      </trkpt>
      <trkpt lat="45.11822" lon="4.80631">
        <ele>125.29</ele>
        <time>2019-05-26T10:13:27.000Z</time>
      </trkpt>
      <trkpt lat="45.11797" lon="4.8065">
        <ele>123.23</ele>
        <time>2019-05-26T10:13:32.000Z</time>
      </trkpt>
      <trkpt lat="45.11771" lon="4.80666">
        <ele>123.23</ele>
        <time>2019-05-26T10:13:37.000Z</time>
      </trkpt>
      <trkpt lat="45.11745" lon="4.80682">
        <ele>122</ele>
        <time>2019-05-26T10:13:42.000Z</time>
      </trkpt>
      <trkpt lat="45.11719" lon="4.80701">
        <ele>122.98</ele>
        <time>2019-05-26T10:13:47.000Z</time>
      </trkpt>
      <trkpt lat="45.11694" lon="4.80722">
        <ele>123.17</ele>
        <time>2019-05-26T10:13:52.000Z</time>
      </trkpt>
      <trkpt lat="45.11669" lon="4.80747">
        <ele>123.05</ele>
        <time>2019-05-26T10:13:57.000Z</time>
      </trkpt>
      <trkpt lat="45.11642" lon="4.80765">
        <ele>124.23</ele>
        <time>2019-05-26T10:14:02.000Z</time>
      </trkpt>
      <trkpt lat="45.1162" lon="4.80779">
        <ele>124.17</ele>
        <time>2019-05-26T10:14:07.000Z</time>
      </trkpt>
      <trkpt lat="45.1161" lon="4.8078">
        <ele>128.98</ele>
        <time>2019-05-26T10:14:12.000Z</time>
      </trkpt>
      <trkpt lat="45.11601" lon="4.80787">
        <ele>128.24</ele>
        <time>2019-05-26T10:14:17.000Z</time>
      </trkpt>
      <trkpt lat="45.11594" lon="4.80796">
        <ele>129.17</ele>
        <time>2019-05-26T10:14:22.000Z</time>
      </trkpt>
      <trkpt lat="45.11579" lon="4.8081">
        <ele>128.48</ele>
        <time>2019-05-26T10:14:27.000Z</time>
      </trkpt>
      <trkpt lat="45.11562" lon="4.80829">
        <ele>129.21</ele>
        <time>2019-05-26T10:14:32.000Z</time>
      </trkpt>
      <trkpt lat="45.11543" lon="4.80847">
        <ele>131.21</ele>
        <time>2019-05-26T10:14:37.000Z</time>
      </trkpt>
      <trkpt lat="45.11522" lon="4.80863">
        <ele>129.23</ele>
        <time>2019-05-26T10:14:42.000Z</time>
      </trkpt>
      <trkpt lat="45.115" lon="4.8088">
        <ele>129.97</ele>
        <time>2019-05-26T10:14:47.000Z</time>
      </trkpt>
      <trkpt lat="45.11479" lon="4.80901">
        <ele>128.24</ele>
        <time>2019-05-26T10:14:52.000Z</time>
      </trkpt>
      <trkpt lat="45.11457" lon="4.80922">
        <ele>128.28</ele>
        <time>2019-05-26T10:14:57.000Z</time>
      </trkpt>
      <trkpt lat="45.11435" lon="4.80941">
        <ele>128.28</ele>
        <time>2019-05-26T10:15:02.000Z</time>
      </trkpt>
      <trkpt lat="45.11411" lon="4.8096">
        <ele>129.17</ele>
        <time>2019-05-26T10:15:07.000Z</time>
      </trkpt>
      <trkpt lat="45.11389" lon="4.80981">
        <ele>129.23</ele>
        <time>2019-05-26T10:15:12.000Z</time>
      </trkpt>
      <trkpt lat="45.11368" lon="4.81003">
        <ele>130.21</ele>
        <time>2019-05-26T10:15:17.000Z</time>
      </trkpt>
      <trkpt lat="45.11349" lon="4.8103">
        <ele>129.25</ele>
        <time>2019-05-26T10:15:22.000Z</time>
      </trkpt>
      <trkpt lat="45.11325" lon="4.81048">
        <ele>129.48</ele>
        <time>2019-05-26T10:15:27.000Z</time>
      </trkpt>
      <trkpt lat="45.11301" lon="4.8106">
        <ele>128.48</ele>
        <time>2019-05-26T10:15:32.000Z</time>
      </trkpt>
      <trkpt lat="45.11278" lon="4.81073">
        <ele>128.46</ele>
        <time>2019-05-26T10:15:37.000Z</time>
      </trkpt>
      <trkpt lat="45.11254" lon="4.81087">
        <ele>126.97</ele>
        <time>2019-05-26T10:15:42.000Z</time>
      </trkpt>
      <trkpt lat="45.11232" lon="4.81105">
        <ele>126.17</ele>
        <time>2019-05-26T10:15:47.000Z</time>
      </trkpt>
      <trkpt lat="45.1121" lon="4.81127">
        <ele>126.98</ele>
        <time>2019-05-26T10:15:52.000Z</time>
      </trkpt>
      <trkpt lat="45.11193" lon="4.81154">
        <ele>127.98</ele>
        <time>2019-05-26T10:15:57.000Z</time>
      </trkpt>
      <trkpt lat="45.11179" lon="4.81186">
        <ele>127.06</ele>
        <time>2019-05-26T10:16:02.000Z</time>
      </trkpt>
      <trkpt lat="45.11164" lon="4.81217">
        <ele>126.48</ele>
        <time>2019-05-26T10:16:07.000Z</time>
      </trkpt>
      <trkpt lat="45.11138" lon="4.8123">
        <ele>126.24</ele>
        <time>2019-05-26T10:16:12.000Z</time>
      </trkpt>
      <trkpt lat="45.11112" lon="4.81234">
        <ele>125.23</ele>
        <time>2019-05-26T10:16:17.000Z</time>
      </trkpt>
      <trkpt lat="45.11085" lon="4.8124">
        <ele>124.25</ele>
        <time>2019-05-26T10:16:22.000Z</time>
      </trkpt>
      <trkpt lat="45.11058" lon="4.81244">
        <ele>123.48</ele>
        <time>2019-05-26T10:16:27.000Z</time>
      </trkpt>
      <trkpt lat="45.1103" lon="4.81254">
        <ele>122.48</ele>
        <time>2019-05-26T10:16:32.000Z</time>
      </trkpt>
      <trkpt lat="45.11003" lon="4.81274">
        <ele>122.43</ele>
        <time>2019-05-26T10:16:37.000Z</time>
      </trkpt>
      <trkpt lat="45.10976" lon="4.81298">
        <ele>122.24</ele>
        <time>2019-05-26T10:16:42.000Z</time>
      </trkpt>
      <trkpt lat="45.10952" lon="4.81325">
        <ele>123.21</ele>
        <time>2019-05-26T10:16:47.000Z</time>
      </trkpt>
      <trkpt lat="45.10933" lon="4.81357">
        <ele>123.19</ele>
        <time>2019-05-26T10:16:52.000Z</time>
      </trkpt>
      <trkpt lat="45.10917" lon="4.81394">
        <ele>125.17</ele>
        <time>2019-05-26T10:16:57.000Z</time>
      </trkpt>
      <trkpt lat="45.109" lon="4.8143">
        <ele>125.42</ele>
        <time>2019-05-26T10:17:02.000Z</time>
      </trkpt>
      <trkpt lat="45.10881" lon="4.81467">
        <ele>125.23</ele>
        <time>2019-05-26T10:17:07.000Z</time>
      </trkpt>
      <trkpt lat="45.10862" lon="4.81503">
        <ele>122.36</ele>
        <time>2019-05-26T10:17:12.000Z</time>
      </trkpt>
      <trkpt lat="45.10843" lon="4.81538">
        <ele>123.23</ele>
        <time>2019-05-26T10:17:17.000Z</time>
      </trkpt>
      <trkpt lat="45.10826" lon="4.81575">
        <ele>122.48</ele>
        <time>2019-05-26T10:17:22.000Z</time>
      </trkpt>
      <trkpt lat="45.10807" lon="4.8161">
        <ele>123.23</ele>
        <time>2019-05-26T10:17:27.000Z</time>
      </trkpt>
      <trkpt lat="45.10788" lon="4.81643">
        <ele>124.48</ele>
        <time>2019-05-26T10:17:32.000Z</time>
      </trkpt>
      <trkpt lat="45.10768" lon="4.81677">
        <ele>125.23</ele>
        <time>2019-05-26T10:17:37.000Z</time>
      </trkpt>
      <trkpt lat="45.10745" lon="4.81705">
        <ele>126.17</ele>
        <time>2019-05-26T10:17:42.000Z</time>
      </trkpt>
      <trkpt lat="45.1072" lon="4.8173">
        <ele>125.05</ele>
        <time>2019-05-26T10:17:47.000Z</time>
      </trkpt>
      <trkpt lat="45.10696" lon="4.81756">
        <ele>124.47</ele>
        <time>2019-05-26T10:17:52.000Z</time>
      </trkpt>
      <trkpt lat="45.1067" lon="4.8178">
        <ele>124.48</ele>
        <time>2019-05-26T10:17:57.000Z</time>
      </trkpt>
      <trkpt lat="45.10645" lon="4.81803">
        <ele>126.17</ele>
        <time>2019-05-26T10:18:02.000Z</time>
      </trkpt>
      <trkpt lat="45.10618" lon="4.81827">
        <ele>125.24</ele>
        <time>2019-05-26T10:18:07.000Z</time>
      </trkpt>
      <trkpt lat="45.10595" lon="4.8185">
        <ele>123.49</ele>
        <time>2019-05-26T10:18:12.000Z</time>
      </trkpt>
      <trkpt lat="45.10573" lon="4.8188">
        <ele>125.03</ele>
        <time>2019-05-26T10:18:17.000Z</time>
      </trkpt>
      <trkpt lat="45.10552" lon="4.81908">
        <ele>124.29</ele>
        <time>2019-05-26T10:18:22.000Z</time>
      </trkpt>
      <trkpt lat="45.10528" lon="4.81932">
        <ele>122.48</ele>
        <time>2019-05-26T10:18:27.000Z</time>
      </trkpt>
      <trkpt lat="45.10506" lon="4.81953">
        <ele>121.23</ele>
        <time>2019-05-26T10:18:32.000Z</time>
      </trkpt>
      <trkpt lat="45.10483" lon="4.81975">
        <ele>120.3</ele>
        <time>2019-05-26T10:18:37.000Z</time>
      </trkpt>
      <trkpt lat="45.10457" lon="4.81995">
        <ele>120.22</ele>
        <time>2019-05-26T10:18:42.000Z</time>
      </trkpt>
      <trkpt lat="45.10433" lon="4.82016">
        <ele>118.3</ele>
        <time>2019-05-26T10:18:47.000Z</time>
      </trkpt>
      <trkpt lat="45.10411" lon="4.8204">
        <ele>118.49</ele>
        <time>2019-05-26T10:18:52.000Z</time>
      </trkpt>
      <trkpt lat="45.1039" lon="4.82069">
        <ele>118.98</ele>
        <time>2019-05-26T10:18:57.000Z</time>
      </trkpt>
      <trkpt lat="45.10365" lon="4.82093">
        <ele>120.23</ele>
        <time>2019-05-26T10:19:02.000Z</time>
      </trkpt>
      <trkpt lat="45.10351" lon="4.82126">
        <ele>120.23</ele>
        <time>2019-05-26T10:19:07.000Z</time>
      </trkpt>
      <trkpt lat="45.10336" lon="4.82156">
        <ele>123.17</ele>
        <time>2019-05-26T10:19:12.000Z</time>
      </trkpt>
      <trkpt lat="45.10313" lon="4.82184">
        <ele>126.22</ele>
        <time>2019-05-26T10:19:17.000Z</time>
      </trkpt>
      <trkpt lat="45.10291" lon="4.82205">
        <ele>126.23</ele>
        <time>2019-05-26T10:19:22.000Z</time>
      </trkpt>
      <trkpt lat="45.10271" lon="4.82229">
        <ele>127.17</ele>
        <time>2019-05-26T10:19:27.000Z</time>
      </trkpt>
      <trkpt lat="45.10255" lon="4.82261">
        <ele>126.25</ele>
        <time>2019-05-26T10:19:32.000Z</time>
      </trkpt>
      <trkpt lat="45.10247" lon="4.8229">
        <ele>126.19</ele>
        <time>2019-05-26T10:19:37.000Z</time>
      </trkpt>
      <trkpt lat="45.10227" lon="4.823">
        <ele>126.25</ele>
        <time>2019-05-26T10:19:42.000Z</time>
      </trkpt>
      <trkpt lat="45.10203" lon="4.8231">
        <ele>124.05</ele>
        <time>2019-05-26T10:19:47.000Z</time>
      </trkpt>
      <trkpt lat="45.10177" lon="4.82322">
        <ele>123.99</ele>
        <time>2019-05-26T10:19:52.000Z</time>
      </trkpt>
      <trkpt lat="45.10151" lon="4.82334">
        <ele>122.36</ele>
        <time>2019-05-26T10:19:57.000Z</time>
      </trkpt>
      <trkpt lat="45.10125" lon="4.82349">
        <ele>124.16</ele>
        <time>2019-05-26T10:20:02.000Z</time>
      </trkpt>
      <trkpt lat="45.10104" lon="4.82372">
        <ele>125.27</ele>
        <time>2019-05-26T10:20:07.000Z</time>
      </trkpt>
      <trkpt lat="45.10082" lon="4.82386">
        <ele>123.53</ele>
        <time>2019-05-26T10:20:12.000Z</time>
      </trkpt>
      <trkpt lat="45.10058" lon="4.82402">
        <ele>124.23</ele>
        <time>2019-05-26T10:20:17.000Z</time>
      </trkpt>
      <trkpt lat="45.10035" lon="4.82414">
        <ele>125.17</ele>
        <time>2019-05-26T10:20:22.000Z</time>
      </trkpt>
      <trkpt lat="45.10012" lon="4.82421">
        <ele>126.74</ele>
        <time>2019-05-26T10:20:27.000Z</time>
      </trkpt>
      <trkpt lat="45.09987" lon="4.82432">
        <ele>126.47</ele>
        <time>2019-05-26T10:20:32.000Z</time>
      </trkpt>
      <trkpt lat="45.0996" lon="4.82443">
        <ele>125.25</ele>
        <time>2019-05-26T10:20:37.000Z</time>
      </trkpt>
      <trkpt lat="45.09932" lon="4.82454">
        <ele>125.94</ele>
        <time>2019-05-26T10:20:42.000Z</time>
      </trkpt>
      <trkpt lat="45.09907" lon="4.82463">
        <ele>123.5</ele>
        <time>2019-05-26T10:20:47.000Z</time>
      </trkpt>
      <trkpt lat="45.09881" lon="4.82472">
        <ele>122.5</ele>
        <time>2019-05-26T10:20:52.000Z</time>
      </trkpt>
      <trkpt lat="45.09857" lon="4.82483">
        <ele>125.02</ele>
        <time>2019-05-26T10:20:57.000Z</time>
      </trkpt>
      <trkpt lat="45.09831" lon="4.82493">
        <ele>126.29</ele>
        <time>2019-05-26T10:21:02.000Z</time>
      </trkpt>
      <trkpt lat="45.09801" lon="4.82507">
        <ele>127.18</ele>
        <time>2019-05-26T10:21:07.000Z</time>
      </trkpt>
      <trkpt lat="45.09773" lon="4.82521">
        <ele>125.3</ele>
        <time>2019-05-26T10:21:12.000Z</time>
      </trkpt>
      <trkpt lat="45.09744" lon="4.82539">
        <ele>126.92</ele>
        <time>2019-05-26T10:21:17.000Z</time>
      </trkpt>
      <trkpt lat="45.09716" lon="4.82551">
        <ele>128.29</ele>
        <time>2019-05-26T10:21:22.000Z</time>
      </trkpt>
      <trkpt lat="45.09693" lon="4.8257">
        <ele>127.23</ele>
        <time>2019-05-26T10:21:27.000Z</time>
      </trkpt>
      <trkpt lat="45.09682" lon="4.82602">
        <ele>124.39</ele>
        <time>2019-05-26T10:21:32.000Z</time>
      </trkpt>
      <trkpt lat="45.09664" lon="4.82611">
        <ele>127.96</ele>
        <time>2019-05-26T10:21:37.000Z</time>
      </trkpt>
      <trkpt lat="45.09642" lon="4.8261">
        <ele>128.46</ele>
        <time>2019-05-26T10:21:42.000Z</time>
      </trkpt>
      <trkpt lat="45.09631" lon="4.82639">
        <ele>128.04</ele>
        <time>2019-05-26T10:21:47.000Z</time>
      </trkpt>
      <trkpt lat="45.09619" lon="4.82668">
        <ele>125.48</ele>
        <time>2019-05-26T10:21:52.000Z</time>
      </trkpt>
      <trkpt lat="45.09606" lon="4.82696">
        <ele>127.24</ele>
        <time>2019-05-26T10:21:57.000Z</time>
      </trkpt>
      <trkpt lat="45.09589" lon="4.82727">
        <ele>126.29</ele>
        <time>2019-05-26T10:22:02.000Z</time>
      </trkpt>
      <trkpt lat="45.09565" lon="4.82755">
        <ele>126.29</ele>
        <time>2019-05-26T10:22:07.000Z</time>
      </trkpt>
      <trkpt lat="45.0954" lon="4.82777">
        <ele>126.29</ele>
        <time>2019-05-26T10:22:12.000Z</time>
      </trkpt>
      <trkpt lat="45.09514" lon="4.82802">
        <ele>125.19</ele>
        <time>2019-05-26T10:22:17.000Z</time>
      </trkpt>
      <trkpt lat="45.0949" lon="4.82827">
        <ele>125.29</ele>
        <time>2019-05-26T10:22:22.000Z</time>
      </trkpt>
      <trkpt lat="45.09464" lon="4.82847">
        <ele>125.04</ele>
        <time>2019-05-26T10:22:27.000Z</time>
      </trkpt>
      <trkpt lat="45.09433" lon="4.82853">
        <ele>123.25</ele>
        <time>2019-05-26T10:22:32.000Z</time>
      </trkpt>
      <trkpt lat="45.09401" lon="4.82859">
        <ele>122.48</ele>
        <time>2019-05-26T10:22:37.000Z</time>
      </trkpt>
      <trkpt lat="45.0937" lon="4.82867">
        <ele>122.18</ele>
        <time>2019-05-26T10:22:42.000Z</time>
      </trkpt>
      <trkpt lat="45.09339" lon="4.82878">
        <ele>124.98</ele>
        <time>2019-05-26T10:22:47.000Z</time>
      </trkpt>
      <trkpt lat="45.09309" lon="4.82887">
        <ele>124.48</ele>
        <time>2019-05-26T10:22:52.000Z</time>
      </trkpt>
      <trkpt lat="45.09278" lon="4.82899">
        <ele>123.42</ele>
        <time>2019-05-26T10:22:57.000Z</time>
      </trkpt>
      <trkpt lat="45.09247" lon="4.82912">
        <ele>121.25</ele>
        <time>2019-05-26T10:23:02.000Z</time>
      </trkpt>
      <trkpt lat="45.09218" lon="4.82924">
        <ele>119.24</ele>
        <time>2019-05-26T10:23:07.000Z</time>
      </trkpt>
      <trkpt lat="45.09189" lon="4.82945">
        <ele>121.96</ele>
        <time>2019-05-26T10:23:12.000Z</time>
      </trkpt>
      <trkpt lat="45.09159" lon="4.82964">
        <ele>123.47</ele>
        <time>2019-05-26T10:23:17.000Z</time>
      </trkpt>
      <trkpt lat="45.09127" lon="4.82974">
        <ele>122.48</ele>
        <time>2019-05-26T10:23:29.000Z</time>
      </trkpt>
      <trkpt lat="45.09094" lon="4.82984">
        <ele>123.22</ele>
        <time>2019-05-26T10:23:34.000Z</time>
      </trkpt>
      <trkpt lat="45.09061" lon="4.82992">
        <ele>122.47</ele>
        <time>2019-05-26T10:23:39.000Z</time>
      </trkpt>
      <trkpt lat="45.0903" lon="4.83004">
        <ele>121.48</ele>
        <time>2019-05-26T10:23:44.000Z</time>
      </trkpt>
      <trkpt lat="45.08999" lon="4.83018">
        <ele>121.04</ele>
        <time>2019-05-26T10:23:49.000Z</time>
      </trkpt>
      <trkpt lat="45.08967" lon="4.83032">
        <ele>122.22</ele>
        <time>2019-05-26T10:23:54.000Z</time>
      </trkpt>
      <trkpt lat="45.08935" lon="4.83034">
        <ele>121.24</ele>
        <time>2019-05-26T10:23:59.000Z</time>
      </trkpt>
      <trkpt lat="45.08902" lon="4.83036">
        <ele>120.24</ele>
        <time>2019-05-26T10:24:04.000Z</time>
      </trkpt>
      <trkpt lat="45.08872" lon="4.8304">
        <ele>119</ele>
        <time>2019-05-26T10:24:09.000Z</time>
      </trkpt>
      <trkpt lat="45.08839" lon="4.83046">
        <ele>117.73</ele>
        <time>2019-05-26T10:24:14.000Z</time>
      </trkpt>
      <trkpt lat="45.08808" lon="4.83047">
        <ele>118.23</ele>
        <time>2019-05-26T10:24:19.000Z</time>
      </trkpt>
      <trkpt lat="45.0878" lon="4.83043">
        <ele>117.98</ele>
        <time>2019-05-26T10:24:24.000Z</time>
      </trkpt>
      <trkpt lat="45.08747" lon="4.83038">
        <ele>119.22</ele>
        <time>2019-05-26T10:24:29.000Z</time>
      </trkpt>
      <trkpt lat="45.08717" lon="4.83034">
        <ele>118.98</ele>
        <time>2019-05-26T10:24:34.000Z</time>
      </trkpt>
      <trkpt lat="45.0869" lon="4.83024">
        <ele>121.16</ele>
        <time>2019-05-26T10:24:39.000Z</time>
      </trkpt>
      <trkpt lat="45.08658" lon="4.83013">
        <ele>122.21</ele>
        <time>2019-05-26T10:24:44.000Z</time>
      </trkpt>
      <trkpt lat="45.08631" lon="4.83001">
        <ele>122.96</ele>
        <time>2019-05-26T10:24:49.000Z</time>
      </trkpt>
      <trkpt lat="45.08605" lon="4.8299">
        <ele>124.14</ele>
        <time>2019-05-26T10:24:54.000Z</time>
      </trkpt>
      <trkpt lat="45.08576" lon="4.82977">
        <ele>122.48</ele>
        <time>2019-05-26T10:24:59.000Z</time>
      </trkpt>
      <trkpt lat="45.08547" lon="4.82962">
        <ele>119.32</ele>
        <time>2019-05-26T10:25:04.000Z</time>
      </trkpt>
      <trkpt lat="45.08518" lon="4.82945">
        <ele>119.47</ele>
        <time>2019-05-26T10:25:12.000Z</time>
      </trkpt>
      <trkpt lat="45.08494" lon="4.82924">
        <ele>120.22</ele>
        <time>2019-05-26T10:25:17.000Z</time>
      </trkpt>
      <trkpt lat="45.0847" lon="4.82903">
        <ele>121.39</ele>
        <time>2019-05-26T10:25:22.000Z</time>
      </trkpt>
      <trkpt lat="45.08447" lon="4.82883">
        <ele>122.2</ele>
        <time>2019-05-26T10:25:27.000Z</time>
      </trkpt>
      <trkpt lat="45.08424" lon="4.82862">
        <ele>121.23</ele>
        <time>2019-05-26T10:25:32.000Z</time>
      </trkpt>
      <trkpt lat="45.08399" lon="4.82849">
        <ele>122.2</ele>
        <time>2019-05-26T10:25:37.000Z</time>
      </trkpt>
      <trkpt lat="45.08372" lon="4.82833">
        <ele>122.22</ele>
        <time>2019-05-26T10:25:42.000Z</time>
      </trkpt>
      <trkpt lat="45.08347" lon="4.82816">
        <ele>124.15</ele>
        <time>2019-05-26T10:25:47.000Z</time>
      </trkpt>
      <trkpt lat="45.0832" lon="4.82799">
        <ele>124.22</ele>
        <time>2019-05-26T10:25:52.000Z</time>
      </trkpt>
      <trkpt lat="45.08293" lon="4.82783">
        <ele>124.22</ele>
        <time>2019-05-26T10:25:57.000Z</time>
      </trkpt>
      <trkpt lat="45.08266" lon="4.82768">
        <ele>122.22</ele>
        <time>2019-05-26T10:26:02.000Z</time>
      </trkpt>
      <trkpt lat="45.08239" lon="4.82753">
        <ele>122.21</ele>
        <time>2019-05-26T10:26:07.000Z</time>
      </trkpt>
      <trkpt lat="45.08213" lon="4.82735">
        <ele>121.42</ele>
        <time>2019-05-26T10:26:12.000Z</time>
      </trkpt>
      <trkpt lat="45.08186" lon="4.82717">
        <ele>120.42</ele>
        <time>2019-05-26T10:26:17.000Z</time>
      </trkpt>
      <trkpt lat="45.08161" lon="4.82698">
        <ele>121.21</ele>
        <time>2019-05-26T10:26:22.000Z</time>
      </trkpt>
      <trkpt lat="45.08134" lon="4.82687">
        <ele>120.26</ele>
        <time>2019-05-26T10:26:27.000Z</time>
      </trkpt>
      <trkpt lat="45.08105" lon="4.82679">
        <ele>119.23</ele>
        <time>2019-05-26T10:26:32.000Z</time>
      </trkpt>
      <trkpt lat="45.08082" lon="4.82666">
        <ele>120.21</ele>
        <time>2019-05-26T10:26:37.000Z</time>
      </trkpt>
      <trkpt lat="45.08059" lon="4.82648">
        <ele>119.21</ele>
        <time>2019-05-26T10:26:42.000Z</time>
      </trkpt>
      <trkpt lat="45.08038" lon="4.82625">
        <ele>118.27</ele>
        <time>2019-05-26T10:26:47.000Z</time>
      </trkpt>
      <trkpt lat="45.08013" lon="4.82619">
        <ele>119.21</ele>
        <time>2019-05-26T10:26:52.000Z</time>
      </trkpt>
      <trkpt lat="45.07988" lon="4.82625">
        <ele>118.46</ele>
        <time>2019-05-26T10:26:57.000Z</time>
      </trkpt>
      <trkpt lat="45.07959" lon="4.82621">
        <ele>119.21</ele>
        <time>2019-05-26T10:27:02.000Z</time>
      </trkpt>
      <trkpt lat="45.07929" lon="4.82621">
        <ele>117.23</ele>
        <time>2019-05-26T10:27:07.000Z</time>
      </trkpt>
      <trkpt lat="45.07898" lon="4.82617">
        <ele>115.46</ele>
        <time>2019-05-26T10:27:12.000Z</time>
      </trkpt>
      <trkpt lat="45.07869" lon="4.82614">
        <ele>117.94</ele>
        <time>2019-05-26T10:27:17.000Z</time>
      </trkpt>
      <trkpt lat="45.07841" lon="4.82611">
        <ele>118.21</ele>
        <time>2019-05-26T10:27:22.000Z</time>
      </trkpt>
      <trkpt lat="45.07811" lon="4.82608">
        <ele>117.28</ele>
        <time>2019-05-26T10:27:27.000Z</time>
      </trkpt>
      <trkpt lat="45.07782" lon="4.82607">
        <ele>117.02</ele>
        <time>2019-05-26T10:27:32.000Z</time>
      </trkpt>
      <trkpt lat="45.07756" lon="4.826">
        <ele>117.2</ele>
        <time>2019-05-26T10:27:37.000Z</time>
      </trkpt>
      <trkpt lat="45.07732" lon="4.82586">
        <ele>119.42</ele>
        <time>2019-05-26T10:27:42.000Z</time>
      </trkpt>
      <trkpt lat="45.07711" lon="4.82568">
        <ele>119.22</ele>
        <time>2019-05-26T10:27:47.000Z</time>
      </trkpt>
      <trkpt lat="45.0769" lon="4.8255">
        <ele>119.97</ele>
        <time>2019-05-26T10:27:52.000Z</time>
      </trkpt>
      <trkpt lat="45.07671" lon="4.82533">
        <ele>117.28</ele>
        <time>2019-05-26T10:27:57.000Z</time>
      </trkpt>
      <trkpt lat="45.07649" lon="4.82519">
        <ele>116.28</ele>
        <time>2019-05-26T10:28:02.000Z</time>
      </trkpt>
      <trkpt lat="45.07624" lon="4.82499">
        <ele>117.88</ele>
        <time>2019-05-26T10:28:07.000Z</time>
      </trkpt>
      <trkpt lat="45.07601" lon="4.82481">
        <ele>118.45</ele>
        <time>2019-05-26T10:28:12.000Z</time>
      </trkpt>
      <trkpt lat="45.07583" lon="4.82456">
        <ele>120.43</ele>
        <time>2019-05-26T10:28:17.000Z</time>
      </trkpt>
      <trkpt lat="45.07591" lon="4.82427">
        <ele>121.19</ele>
        <time>2019-05-26T10:28:22.000Z</time>
      </trkpt>
      <trkpt lat="45.07606" lon="4.82402">
        <ele>123.44</ele>
        <time>2019-05-26T10:28:27.000Z</time>
      </trkpt>
      <trkpt lat="45.0762" lon="4.82369">
        <ele>122</ele>
        <time>2019-05-26T10:28:32.000Z</time>
      </trkpt>
      <trkpt lat="45.07632" lon="4.82332">
        <ele>121.39</ele>
        <time>2019-05-26T10:28:37.000Z</time>
      </trkpt>
      <trkpt lat="45.07643" lon="4.82299">
        <ele>121.45</ele>
        <time>2019-05-26T10:28:42.000Z</time>
      </trkpt>
      <trkpt lat="45.07659" lon="4.82273">
        <ele>122.95</ele>
        <time>2019-05-26T10:28:47.000Z</time>
      </trkpt>
      <trkpt lat="45.07676" lon="4.82253">
        <ele>124.18</ele>
        <time>2019-05-26T10:28:52.000Z</time>
      </trkpt>
      <trkpt lat="45.07687" lon="4.82238">
        <ele>125.25</ele>
        <time>2019-05-26T10:28:57.000Z</time>
      </trkpt>
      <trkpt lat="45.07684" lon="4.82225">
        <ele>128.2</ele>
        <time>2019-05-26T10:29:02.000Z</time>
      </trkpt>
      <trkpt lat="45.07677" lon="4.82205">
        <ele>127.2</ele>
        <time>2019-05-26T10:29:07.000Z</time>
      </trkpt>
      <trkpt lat="45.07671" lon="4.82178">
        <ele>127.19</ele>
        <time>2019-05-26T10:29:12.000Z</time>
      </trkpt>
      <trkpt lat="45.07664" lon="4.82151">
        <ele>127.2</ele>
        <time>2019-05-26T10:29:17.000Z</time>
      </trkpt>
      <trkpt lat="45.07656" lon="4.8212">
        <ele>126.4</ele>
        <time>2019-05-26T10:29:22.000Z</time>
      </trkpt>
      <trkpt lat="45.07648" lon="4.82087">
        <ele>128.18</ele>
        <time>2019-05-26T10:29:27.000Z</time>
      </trkpt>
      <trkpt lat="45.0764" lon="4.82056">
        <ele>127.2</ele>
        <time>2019-05-26T10:29:32.000Z</time>
      </trkpt>
      <trkpt lat="45.07632" lon="4.82024">
        <ele>127.01</ele>
        <time>2019-05-26T10:29:37.000Z</time>
      </trkpt>
      <trkpt lat="45.07623" lon="4.8199">
        <ele>125.26</ele>
        <time>2019-05-26T10:29:42.000Z</time>
      </trkpt>
      <trkpt lat="45.07614" lon="4.81958">
        <ele>125.2</ele>
        <time>2019-05-26T10:29:47.000Z</time>
      </trkpt>
      <trkpt lat="45.07605" lon="4.81926">
        <ele>126.19</ele>
        <time>2019-05-26T10:29:52.000Z</time>
      </trkpt>
      <trkpt lat="45.07596" lon="4.81894">
        <ele>126.2</ele>
        <time>2019-05-26T10:29:57.000Z</time>
      </trkpt>
      <trkpt lat="45.07588" lon="4.81862">
        <ele>125.45</ele>
        <time>2019-05-26T10:30:02.000Z</time>
      </trkpt>
      <trkpt lat="45.0758" lon="4.81829">
        <ele>125.19</ele>
        <time>2019-05-26T10:30:07.000Z</time>
      </trkpt>
      <trkpt lat="45.07571" lon="4.81796">
        <ele>125.19</ele>
        <time>2019-05-26T10:30:12.000Z</time>
      </trkpt>
      <trkpt lat="45.07562" lon="4.81764">
        <ele>124.4</ele>
        <time>2019-05-26T10:30:17.000Z</time>
      </trkpt>
      <trkpt lat="45.07552" lon="4.81731">
        <ele>124.19</ele>
        <time>2019-05-26T10:30:22.000Z</time>
      </trkpt>
      <trkpt lat="45.07544" lon="4.81701">
        <ele>124.2</ele>
        <time>2019-05-26T10:30:27.000Z</time>
      </trkpt>
      <trkpt lat="45.07535" lon="4.81674">
        <ele>124.19</ele>
        <time>2019-05-26T10:30:32.000Z</time>
      </trkpt>
      <trkpt lat="45.07529" lon="4.81657">
        <ele>126.17</ele>
        <time>2019-05-26T10:30:37.000Z</time>
      </trkpt>
      <trkpt lat="45.0752" lon="4.81651">
        <ele>129.12</ele>
        <time>2019-05-26T10:30:42.000Z</time>
      </trkpt>
      <trkpt lat="45.07508" lon="4.81661">
        <ele>129.94</ele>
        <time>2019-05-26T10:30:47.000Z</time>
      </trkpt>
      <trkpt lat="45.07493" lon="4.81671">
        <ele>129.39</ele>
        <time>2019-05-26T10:30:52.000Z</time>
      </trkpt>
      <trkpt lat="45.07474" lon="4.81687">
        <ele>129.2</ele>
        <time>2019-05-26T10:30:57.000Z</time>
      </trkpt>
      <trkpt lat="45.07454" lon="4.81702">
        <ele>128.44</ele>
        <time>2019-05-26T10:31:02.000Z</time>
      </trkpt>
      <trkpt lat="45.07433" lon="4.81717">
        <ele>128.25</ele>
        <time>2019-05-26T10:31:07.000Z</time>
      </trkpt>
      <trkpt lat="45.07411" lon="4.81735">
        <ele>128.2</ele>
        <time>2019-05-26T10:32:00.000Z</time>
      </trkpt>
      <trkpt lat="45.0739" lon="4.81757">
        <ele>129.18</ele>
        <time>2019-05-26T10:32:05.000Z</time>
      </trkpt>
      <trkpt lat="45.07374" lon="4.81786">
        <ele>128.26</ele>
        <time>2019-05-26T10:32:10.000Z</time>
      </trkpt>
      <trkpt lat="45.07361" lon="4.81822">
        <ele>127.19</ele>
        <time>2019-05-26T10:32:15.000Z</time>
      </trkpt>
      <trkpt lat="45.0735" lon="4.81859">
        <ele>126.95</ele>
        <time>2019-05-26T10:32:20.000Z</time>
      </trkpt>
      <trkpt lat="45.07341" lon="4.81896">
        <ele>127.19</ele>
        <time>2019-05-26T10:32:25.000Z</time>
      </trkpt>
      <trkpt lat="45.07331" lon="4.81933">
        <ele>126.2</ele>
        <time>2019-05-26T10:32:30.000Z</time>
      </trkpt>
      <trkpt lat="45.07318" lon="4.81971">
        <ele>125.94</ele>
        <time>2019-05-26T10:32:35.000Z</time>
      </trkpt>
      <trkpt lat="45.07306" lon="4.82009">
        <ele>126.13</ele>
        <time>2019-05-26T10:32:40.000Z</time>
      </trkpt>
      <trkpt lat="45.07293" lon="4.82048">
        <ele>126.19</ele>
        <time>2019-05-26T10:32:45.000Z</time>
      </trkpt>
      <trkpt lat="45.07282" lon="4.82085">
        <ele>126.18</ele>
        <time>2019-05-26T10:32:50.000Z</time>
      </trkpt>
      <trkpt lat="45.07272" lon="4.82119">
        <ele>127</ele>
        <time>2019-05-26T10:32:55.000Z</time>
      </trkpt>
      <trkpt lat="45.07263" lon="4.82148">
        <ele>127.19</ele>
        <time>2019-05-26T10:33:34.000Z</time>
      </trkpt>
      <trkpt lat="45.07258" lon="4.82175">
        <ele>127.19</ele>
        <time>2019-05-26T10:33:39.000Z</time>
      </trkpt>
      <trkpt lat="45.07264" lon="4.82196">
        <ele>128.13</ele>
        <time>2019-05-26T10:33:44.000Z</time>
      </trkpt>
      <trkpt lat="45.07269" lon="4.8221">
        <ele>127.2</ele>
        <time>2019-05-26T10:33:49.000Z</time>
      </trkpt>
      <trkpt lat="45.07268" lon="4.82232">
        <ele>127.2</ele>
        <time>2019-05-26T10:33:54.000Z</time>
      </trkpt>
      <trkpt lat="45.07277" lon="4.82249">
        <ele>127.18</ele>
        <time>2019-05-26T10:33:59.000Z</time>
      </trkpt>
      <trkpt lat="45.07284" lon="4.82272">
        <ele>127.2</ele>
        <time>2019-05-26T10:34:10.000Z</time>
      </trkpt>
      <trkpt lat="45.07288" lon="4.82299">
        <ele>127.18</ele>
        <time>2019-05-26T10:34:15.000Z</time>
      </trkpt>
      <trkpt lat="45.07289" lon="4.82332">
        <ele>127.2</ele>
        <time>2019-05-26T10:34:21.000Z</time>
      </trkpt>
      <trkpt lat="45.07288" lon="4.82365">
        <ele>127.2</ele>
        <time>2019-05-26T10:34:26.000Z</time>
      </trkpt>
      <trkpt lat="45.07286" lon="4.82398">
        <ele>126.21</ele>
        <time>2019-05-26T10:34:31.000Z</time>
      </trkpt>
      <trkpt lat="45.07283" lon="4.82436">
        <ele>127.15</ele>
        <time>2019-05-26T10:34:37.000Z</time>
      </trkpt>
      <trkpt lat="45.07276" lon="4.82472">
        <ele>126.2</ele>
        <time>2019-05-26T10:34:42.000Z</time>
      </trkpt>
      <trkpt lat="45.07268" lon="4.82508">
        <ele>125.95</ele>
        <time>2019-05-26T10:34:47.000Z</time>
      </trkpt>
      <trkpt lat="45.07258" lon="4.82544">
        <ele>124.26</ele>
        <time>2019-05-26T10:34:52.000Z</time>
      </trkpt>
      <trkpt lat="45.07246" lon="4.82578">
        <ele>124.21</ele>
        <time>2019-05-26T10:34:57.000Z</time>
      </trkpt>
      <trkpt lat="45.07234" lon="4.82609">
        <ele>123.22</ele>
        <time>2019-05-26T10:35:02.000Z</time>
      </trkpt>
      <trkpt lat="45.07222" lon="4.82638">
        <ele>126.12</ele>
        <time>2019-05-26T10:35:07.000Z</time>
      </trkpt>
      <trkpt lat="45.0721" lon="4.82666">
        <ele>126.95</ele>
        <time>2019-05-26T10:35:12.000Z</time>
      </trkpt>
      <trkpt lat="45.07204" lon="4.82682">
        <ele>127.21</ele>
        <time>2019-05-26T10:35:17.000Z</time>
      </trkpt>
      <trkpt lat="45.07196" lon="4.82698">
        <ele>125.92</ele>
        <time>2019-05-26T10:35:22.000Z</time>
      </trkpt>
      <trkpt lat="45.07182" lon="4.8272">
        <ele>127.95</ele>
        <time>2019-05-26T10:35:27.000Z</time>
      </trkpt>
      <trkpt lat="45.07168" lon="4.82744">
        <ele>127.92</ele>
        <time>2019-05-26T10:35:32.000Z</time>
      </trkpt>
      <trkpt lat="45.07154" lon="4.82766">
        <ele>126.21</ele>
        <time>2019-05-26T10:35:37.000Z</time>
      </trkpt>
      <trkpt lat="45.07135" lon="4.82789">
        <ele>126.21</ele>
        <time>2019-05-26T10:35:42.000Z</time>
      </trkpt>
      <trkpt lat="45.07115" lon="4.82811">
        <ele>126.95</ele>
        <time>2019-05-26T10:35:47.000Z</time>
      </trkpt>
      <trkpt lat="45.07092" lon="4.82832">
        <ele>126.01</ele>
        <time>2019-05-26T10:35:52.000Z</time>
      </trkpt>
      <trkpt lat="45.07076" lon="4.82853">
        <ele>126.2</ele>
        <time>2019-05-26T10:35:57.000Z</time>
      </trkpt>
      <trkpt lat="45.07091" lon="4.82874">
        <ele>128.2</ele>
        <time>2019-05-26T10:36:02.000Z</time>
      </trkpt>
      <trkpt lat="45.07109" lon="4.82897">
        <ele>126.28</ele>
        <time>2019-05-26T10:36:07.000Z</time>
      </trkpt>
      <trkpt lat="45.07111" lon="4.82921">
        <ele>125.45</ele>
        <time>2019-05-26T10:36:56.000Z</time>
      </trkpt>
      <trkpt lat="45.07087" lon="4.82932">
        <ele>121.48</ele>
        <time>2019-05-26T10:37:01.000Z</time>
      </trkpt>
      <trkpt lat="45.0706" lon="4.8295">
        <ele>120.21</ele>
        <time>2019-05-26T10:37:06.000Z</time>
      </trkpt>
      <trkpt lat="45.07037" lon="4.82972">
        <ele>121.2</ele>
        <time>2019-05-26T10:37:24.000Z</time>
      </trkpt>
      <trkpt lat="45.07014" lon="4.82997">
        <ele>123.19</ele>
        <time>2019-05-26T10:37:29.000Z</time>
      </trkpt>
      <trkpt lat="45.06994" lon="4.83026">
        <ele>122.97</ele>
        <time>2019-05-26T10:37:34.000Z</time>
      </trkpt>
      <trkpt lat="45.06974" lon="4.83056">
        <ele>123.44</ele>
        <time>2019-05-26T10:37:39.000Z</time>
      </trkpt>
      <trkpt lat="45.06952" lon="4.83086">
        <ele>124</ele>
        <time>2019-05-26T10:37:44.000Z</time>
      </trkpt>
      <trkpt lat="45.06935" lon="4.83119">
        <ele>123.45</ele>
        <time>2019-05-26T10:37:49.000Z</time>
      </trkpt>
      <trkpt lat="45.06918" lon="4.83155">
        <ele>123.26</ele>
        <time>2019-05-26T10:37:54.000Z</time>
      </trkpt>
      <trkpt lat="45.06904" lon="4.83188">
        <ele>123.95</ele>
        <time>2019-05-26T10:37:59.000Z</time>
      </trkpt>
      <trkpt lat="45.06891" lon="4.83211">
        <ele>124.02</ele>
        <time>2019-05-26T10:38:04.000Z</time>
      </trkpt>
      <trkpt lat="45.06882" lon="4.8323">
        <ele>124.39</ele>
        <time>2019-05-26T10:38:09.000Z</time>
      </trkpt>
      <trkpt lat="45.06876" lon="4.83252">
        <ele>122.28</ele>
        <time>2019-05-26T10:38:14.000Z</time>
      </trkpt>
      <trkpt lat="45.06868" lon="4.83281">
        <ele>122.21</ele>
        <time>2019-05-26T10:38:19.000Z</time>
      </trkpt>
      <trkpt lat="45.06859" lon="4.83306">
        <ele>123.16</ele>
        <time>2019-05-26T10:38:24.000Z</time>
      </trkpt>
      <trkpt lat="45.06847" lon="4.83332">
        <ele>123.16</ele>
        <time>2019-05-26T10:38:29.000Z</time>
      </trkpt>
      <trkpt lat="45.06832" lon="4.8336">
        <ele>124.2</ele>
        <time>2019-05-26T10:38:34.000Z</time>
      </trkpt>
      <trkpt lat="45.06816" lon="4.83388">
        <ele>123.22</ele>
        <time>2019-05-26T10:38:39.000Z</time>
      </trkpt>
      <trkpt lat="45.06802" lon="4.83414">
        <ele>122.45</ele>
        <time>2019-05-26T10:38:44.000Z</time>
      </trkpt>
      <trkpt lat="45.06789" lon="4.83438">
        <ele>124.2</ele>
        <time>2019-05-26T10:39:00.000Z</time>
      </trkpt>
      <trkpt lat="45.06785" lon="4.83457">
        <ele>125.89</ele>
        <time>2019-05-26T10:39:05.000Z</time>
      </trkpt>
      <trkpt lat="45.06793" lon="4.8347">
        <ele>126.2</ele>
        <time>2019-05-26T10:39:10.000Z</time>
      </trkpt>
      <trkpt lat="45.06806" lon="4.83479">
        <ele>126.2</ele>
        <time>2019-05-26T10:39:15.000Z</time>
      </trkpt>
      <trkpt lat="45.06816" lon="4.83485">
        <ele>125.95</ele>
        <time>2019-05-26T10:39:23.000Z</time>
      </trkpt>
      <trkpt lat="45.06827" lon="4.83491">
        <ele>126.16</ele>
        <time>2019-05-26T10:39:32.000Z</time>
      </trkpt>
      <trkpt lat="45.06836" lon="4.83499">
        <ele>127.19</ele>
        <time>2019-05-26T10:39:47.000Z</time>
      </trkpt>
      <trkpt lat="45.06846" lon="4.83506">
        <ele>127.15</ele>
        <time>2019-05-26T10:40:19.000Z</time>
      </trkpt>
      <trkpt lat="45.06857" lon="4.83514">
        <ele>126.44</ele>
        <time>2019-05-26T10:40:26.000Z</time>
      </trkpt>
      <trkpt lat="45.06868" lon="4.8352">
        <ele>126.21</ele>
        <time>2019-05-26T10:40:37.000Z</time>
      </trkpt>
      <trkpt lat="45.0688" lon="4.8353">
        <ele>127.19</ele>
        <time>2019-05-26T10:40:42.000Z</time>
      </trkpt>
      <trkpt lat="45.06894" lon="4.83539">
        <ele>126.45</ele>
        <time>2019-05-26T10:40:47.000Z</time>
      </trkpt>
      <trkpt lat="45.06908" lon="4.83549">
        <ele>126.22</ele>
        <time>2019-05-26T10:40:52.000Z</time>
      </trkpt>
      <trkpt lat="45.06923" lon="4.83558">
        <ele>125.22</ele>
        <time>2019-05-26T10:40:57.000Z</time>
      </trkpt>
      <trkpt lat="45.06938" lon="4.83566">
        <ele>124.22</ele>
        <time>2019-05-26T10:41:02.000Z</time>
      </trkpt>
      <trkpt lat="45.06947" lon="4.83575">
        <ele>125.15</ele>
        <time>2019-05-26T10:41:07.000Z</time>
      </trkpt>
      <trkpt lat="45.06957" lon="4.83579">
        <ele>125.21</ele>
        <time>2019-05-26T10:41:12.000Z</time>
      </trkpt>
      <trkpt lat="45.06971" lon="4.83587">
        <ele>126.2</ele>
        <time>2019-05-26T10:41:17.000Z</time>
      </trkpt>
      <trkpt lat="45.06989" lon="4.83597">
        <ele>127.13</ele>
        <time>2019-05-26T10:41:22.000Z</time>
      </trkpt>
      <trkpt lat="45.07007" lon="4.83618">
        <ele>127.15</ele>
        <time>2019-05-26T10:41:27.000Z</time>
      </trkpt>
      <trkpt lat="45.07028" lon="4.83628">
        <ele>123.47</ele>
        <time>2019-05-26T10:41:32.000Z</time>
      </trkpt>
      <trkpt lat="45.07042" lon="4.83635">
        <ele>122.22</ele>
        <time>2019-05-26T10:41:37.000Z</time>
      </trkpt>
      <trkpt lat="45.07049" lon="4.83644">
        <ele>125.23</ele>
        <time>2019-05-26T10:41:42.000Z</time>
      </trkpt>
      <trkpt lat="45.0706" lon="4.83654">
        <ele>124.2</ele>
        <time>2019-05-26T10:41:47.000Z</time>
      </trkpt>
      <trkpt lat="45.07069" lon="4.83661">
        <ele>125.15</ele>
        <time>2019-05-26T10:41:52.000Z</time>
      </trkpt>
      <trkpt lat="45.0708" lon="4.83662">
        <ele>124.96</ele>
        <time>2019-05-26T10:42:27.000Z</time>
      </trkpt>
      <trkpt lat="45.07084" lon="4.83675">
        <ele>125.96</ele>
        <time>2019-05-26T10:42:32.000Z</time>
      </trkpt>
      <trkpt lat="45.07092" lon="4.83684">
        <ele>124.46</ele>
        <time>2019-05-26T10:42:38.000Z</time>
      </trkpt>
      <trkpt lat="45.07101" lon="4.8369">
        <ele>125.2</ele>
        <time>2019-05-26T10:42:43.000Z</time>
      </trkpt>
      <trkpt lat="45.07102" lon="4.8371">
        <ele>123.52</ele>
        <time>2019-05-26T10:42:48.000Z</time>
      </trkpt>
      <trkpt lat="45.07096" lon="4.83733">
        <ele>124.2</ele>
        <time>2019-05-26T10:42:53.000Z</time>
      </trkpt>
      <trkpt lat="45.07098" lon="4.83751">
        <ele>125.02</ele>
        <time>2019-05-26T10:42:58.000Z</time>
      </trkpt>
      <trkpt lat="45.07111" lon="4.83755">
        <ele>125.21</ele>
        <time>2019-05-26T10:43:03.000Z</time>
      </trkpt>
      <trkpt lat="45.07125" lon="4.83761">
        <ele>124.66</ele>
        <time>2019-05-26T10:44:48.000Z</time>
      </trkpt>
      <trkpt lat="45.07134" lon="4.83773">
        <ele>121.53</ele>
        <time>2019-05-26T10:44:57.000Z</time>
      </trkpt>
      <trkpt lat="45.07129" lon="4.83804">
        <ele>120.97</ele>
        <time>2019-05-26T10:45:02.000Z</time>
      </trkpt>
      <trkpt lat="45.07125" lon="4.83837">
        <ele>120.27</ele>
        <time>2019-05-26T10:45:07.000Z</time>
      </trkpt>
      <trkpt lat="45.07121" lon="4.83869">
        <ele>120.98</ele>
        <time>2019-05-26T10:45:13.000Z</time>
      </trkpt>
      <trkpt lat="45.07118" lon="4.839">
        <ele>121.21</ele>
        <time>2019-05-26T11:12:46.000Z</time>
      </trkpt>
      <trkpt lat="45.07114" lon="4.83925">
        <ele>122.96</ele>
        <time>2019-05-26T11:13:10.000Z</time>
      </trkpt>
      <trkpt lat="45.07107" lon="4.83933">
        <ele>127.89</ele>
        <time>2019-05-26T11:13:37.000Z</time>
      </trkpt>
      <trkpt lat="45.07088" lon="4.8393">
        <ele>127.71</ele>
        <time>2019-05-26T11:15:26.000Z</time>
      </trkpt>
      <trkpt lat="45.07066" lon="4.83922">
        <ele>125.53</ele>
        <time>2019-05-26T11:15:31.000Z</time>
      </trkpt>
      <trkpt lat="45.07042" lon="4.83916">
        <ele>124.46</ele>
        <time>2019-05-26T11:15:36.000Z</time>
      </trkpt>
      <trkpt lat="45.07018" lon="4.83907">
        <ele>126.15</ele>
        <time>2019-05-26T11:15:41.000Z</time>
      </trkpt>
      <trkpt lat="45.07001" lon="4.83904">
        <ele>126.96</ele>
        <time>2019-05-26T11:15:46.000Z</time>
      </trkpt>
      <trkpt lat="45.06992" lon="4.83899">
        <ele>124.23</ele>
        <time>2019-05-26T11:15:51.000Z</time>
      </trkpt>
      <trkpt lat="45.0698" lon="4.83912">
        <ele>121.48</ele>
        <time>2019-05-26T11:15:56.000Z</time>
      </trkpt>
      <trkpt lat="45.06978" lon="4.83927">
        <ele>122.21</ele>
        <time>2019-05-26T11:16:01.000Z</time>
      </trkpt>
      <trkpt lat="45.06979" lon="4.83943">
        <ele>122.88</ele>
        <time>2019-05-26T11:16:06.000Z</time>
      </trkpt>
      <trkpt lat="45.06969" lon="4.83977">
        <ele>122.46</ele>
        <time>2019-05-26T11:16:11.000Z</time>
      </trkpt>
      <trkpt lat="45.0696" lon="4.84012">
        <ele>122.23</ele>
        <time>2019-05-26T11:16:16.000Z</time>
      </trkpt>
      <trkpt lat="45.06951" lon="4.84044">
        <ele>122.21</ele>
        <time>2019-05-26T11:16:21.000Z</time>
      </trkpt>
      <trkpt lat="45.06942" lon="4.84079">
        <ele>121.46</ele>
        <time>2019-05-26T11:16:26.000Z</time>
      </trkpt>
      <trkpt lat="45.06932" lon="4.84114">
        <ele>122.15</ele>
        <time>2019-05-26T11:16:31.000Z</time>
      </trkpt>
      <trkpt lat="45.06923" lon="4.84147">
        <ele>122.21</ele>
        <time>2019-05-26T11:16:36.000Z</time>
      </trkpt>
      <trkpt lat="45.06913" lon="4.84179">
        <ele>121.23</ele>
        <time>2019-05-26T11:16:41.000Z</time>
      </trkpt>
      <trkpt lat="45.06903" lon="4.84215">
        <ele>122.15</ele>
        <time>2019-05-26T11:16:46.000Z</time>
      </trkpt>
      <trkpt lat="45.06892" lon="4.84252">
        <ele>122.97</ele>
        <time>2019-05-26T11:16:51.000Z</time>
      </trkpt>
      <trkpt lat="45.06882" lon="4.84292">
        <ele>121.29</ele>
        <time>2019-05-26T11:16:56.000Z</time>
      </trkpt>
      <trkpt lat="45.06873" lon="4.84326">
        <ele>119.47</ele>
        <time>2019-05-26T11:17:13.000Z</time>
      </trkpt>
      <trkpt lat="45.06868" lon="4.8435">
        <ele>123.84</ele>
        <time>2019-05-26T11:17:18.000Z</time>
      </trkpt>
      <trkpt lat="45.06858" lon="4.84381">
        <ele>124.28</ele>
        <time>2019-05-26T11:17:42.000Z</time>
      </trkpt>
      <trkpt lat="45.06848" lon="4.84415">
        <ele>123.28</ele>
        <time>2019-05-26T11:17:47.000Z</time>
      </trkpt>
      <trkpt lat="45.06838" lon="4.84449">
        <ele>122.22</ele>
        <time>2019-05-26T11:17:52.000Z</time>
      </trkpt>
      <trkpt lat="45.06833" lon="4.84468">
        <ele>121.22</ele>
        <time>2019-05-26T11:17:57.000Z</time>
      </trkpt>
      <trkpt lat="45.06836" lon="4.84456">
        <ele>122.22</ele>
        <time>2019-05-26T11:18:02.000Z</time>
      </trkpt>
      <trkpt lat="45.06841" lon="4.84442">
        <ele>122.96</ele>
        <time>2019-05-26T11:18:07.000Z</time>
      </trkpt>
      <trkpt lat="45.06845" lon="4.84429">
        <ele>122.41</ele>
        <time>2019-05-26T11:18:12.000Z</time>
      </trkpt>
      <trkpt lat="45.06849" lon="4.84417">
        <ele>123.21</ele>
        <time>2019-05-26T11:18:17.000Z</time>
      </trkpt>
      <trkpt lat="45.06852" lon="4.84404">
        <ele>123.21</ele>
        <time>2019-05-26T11:18:22.000Z</time>
      </trkpt>
      <trkpt lat="45.06854" lon="4.84391">
        <ele>121.28</ele>
        <time>2019-05-26T11:18:27.000Z</time>
      </trkpt>
      <trkpt lat="45.06854" lon="4.84377">
        <ele>117.93</ele>
        <time>2019-05-26T11:18:32.000Z</time>
      </trkpt>
      <trkpt lat="45.06855" lon="4.84363">
        <ele>122.21</ele>
        <time>2019-05-26T11:18:37.000Z</time>
      </trkpt>
      <trkpt lat="45.06861" lon="4.84352">
        <ele>124.19</ele>
        <time>2019-05-26T11:18:42.000Z</time>
      </trkpt>
      <trkpt lat="45.06871" lon="4.84355">
        <ele>125.28</ele>
        <time>2019-05-26T11:18:47.000Z</time>
      </trkpt>
      <trkpt lat="45.06886" lon="4.84355">
        <ele>126.21</ele>
        <time>2019-05-26T11:18:52.000Z</time>
      </trkpt>
      <trkpt lat="45.06905" lon="4.84354">
        <ele>125.17</ele>
        <time>2019-05-26T11:19:12.000Z</time>
      </trkpt>
      <trkpt lat="45.06925" lon="4.84352">
        <ele>125.22</ele>
        <time>2019-05-26T11:19:21.000Z</time>
      </trkpt>
      <trkpt lat="45.06947" lon="4.84349">
        <ele>125.26</ele>
        <time>2019-05-26T11:19:26.000Z</time>
      </trkpt>
      <trkpt lat="45.06971" lon="4.84347">
        <ele>125.97</ele>
        <time>2019-05-26T11:19:31.000Z</time>
      </trkpt>
      <trkpt lat="45.06994" lon="4.84346">
        <ele>126.21</ele>
        <time>2019-05-26T11:19:36.000Z</time>
      </trkpt>
      <trkpt lat="45.07015" lon="4.84344">
        <ele>126.2</ele>
        <time>2019-05-26T11:19:41.000Z</time>
      </trkpt>
      <trkpt lat="45.07033" lon="4.84352">
        <ele>122.49</ele>
        <time>2019-05-26T11:19:46.000Z</time>
      </trkpt>
      <trkpt lat="45.07034" lon="4.84384">
        <ele>121.24</ele>
        <time>2019-05-26T11:19:51.000Z</time>
      </trkpt>
      <trkpt lat="45.0703" lon="4.84413">
        <ele>120.04</ele>
        <time>2019-05-26T11:19:56.000Z</time>
      </trkpt>
      <trkpt lat="45.07013" lon="4.8442">
        <ele>121.97</ele>
        <time>2019-05-26T11:20:01.000Z</time>
      </trkpt>
      <trkpt lat="45.06988" lon="4.84422">
        <ele>119.3</ele>
        <time>2019-05-26T11:20:06.000Z</time>
      </trkpt>
      <trkpt lat="45.06965" lon="4.84419">
        <ele>120.16</ele>
        <time>2019-05-26T11:20:11.000Z</time>
      </trkpt>
      <trkpt lat="45.06943" lon="4.84422">
        <ele>119.55</ele>
        <time>2019-05-26T11:20:16.000Z</time>
      </trkpt>
      <trkpt lat="45.06934" lon="4.84433">
        <ele>120.16</ele>
        <time>2019-05-26T11:20:21.000Z</time>
      </trkpt>
      <trkpt lat="45.06936" lon="4.84448">
        <ele>119.97</ele>
        <time>2019-05-26T11:20:26.000Z</time>
      </trkpt>
      <trkpt lat="45.06936" lon="4.84463">
        <ele>123.89</ele>
        <time>2019-05-26T11:20:31.000Z</time>
      </trkpt>
      <trkpt lat="45.06928" lon="4.84472">
        <ele>123.28</ele>
        <time>2019-05-26T11:20:36.000Z</time>
      </trkpt>
      <trkpt lat="45.06913" lon="4.84469">
        <ele>123.22</ele>
        <time>2019-05-26T11:20:41.000Z</time>
      </trkpt>
      <trkpt lat="45.06898" lon="4.84469">
        <ele>123.22</ele>
        <time>2019-05-26T11:20:46.000Z</time>
      </trkpt>
      <trkpt lat="45.06887" lon="4.84477">
        <ele>122.28</ele>
        <time>2019-05-26T11:20:51.000Z</time>
      </trkpt>
      <trkpt lat="45.06874" lon="4.8448">
        <ele>121.42</ele>
        <time>2019-05-26T11:20:56.000Z</time>
      </trkpt>
      <trkpt lat="45.06864" lon="4.84474">
        <ele>122.91</ele>
        <time>2019-05-26T11:21:01.000Z</time>
      </trkpt>
      <trkpt lat="45.06867" lon="4.84487">
        <ele>130.16</ele>
        <time>2019-05-26T11:21:06.000Z</time>
      </trkpt>
      <trkpt lat="45.06866" lon="4.84501">
        <ele>125.71</ele>
        <time>2019-05-26T11:21:11.000Z</time>
      </trkpt>
      <trkpt lat="45.06857" lon="4.84503">
        <ele>125.23</ele>
        <time>2019-05-26T11:21:16.000Z</time>
      </trkpt>
      <trkpt lat="45.06847" lon="4.84504">
        <ele>124.89</ele>
        <time>2019-05-26T11:21:21.000Z</time>
      </trkpt>
      <trkpt lat="45.06838" lon="4.84504">
        <ele>126.28</ele>
        <time>2019-05-26T11:21:26.000Z</time>
      </trkpt>
      <trkpt lat="45.07085" lon="4.83635">
        <ele>121.12</ele>
        <time>2019-05-26T11:21:31.000Z</time>
      </trkpt>
      <trkpt lat="45.07088" lon="4.83648">
        <ele>127.13</ele>
        <time>2019-05-26T11:21:36.000Z</time>
      </trkpt>
      <trkpt lat="45.07085" lon="4.8366">
        <ele>133.88</ele>
        <time>2019-05-26T11:21:41.000Z</time>
      </trkpt>
      <trkpt lat="45.07077" lon="4.8367">
        <ele>126.22</ele>
        <time>2019-05-26T11:21:46.000Z</time>
      </trkpt>
      <trkpt lat="45.07071" lon="4.83682">
        <ele>126.21</ele>
        <time>2019-05-26T11:21:51.000Z</time>
      </trkpt>
      <trkpt lat="45.07053" lon="4.83674">
        <ele>125.7</ele>
        <time>2019-05-26T11:21:56.000Z</time>
      </trkpt>
      <trkpt lat="45.07042" lon="4.83668">
        <ele>126.44</ele>
        <time>2019-05-26T11:22:01.000Z</time>
      </trkpt>
      <trkpt lat="45.07035" lon="4.83688">
        <ele>123.78</ele>
        <time>2019-05-26T11:22:06.000Z</time>
      </trkpt>
      <trkpt lat="45.07031" lon="4.83722">
        <ele>123.97</ele>
        <time>2019-05-26T11:22:11.000Z</time>
      </trkpt>
      <trkpt lat="45.07026" lon="4.8376">
        <ele>124.26</ele>
        <time>2019-05-26T11:22:16.000Z</time>
      </trkpt>
      <trkpt lat="45.07021" lon="4.83798">
        <ele>124.21</ele>
        <time>2019-05-26T11:22:21.000Z</time>
      </trkpt>
      <trkpt lat="45.07012" lon="4.83834">
        <ele>123.21</ele>
        <time>2019-05-26T11:22:26.000Z</time>
      </trkpt>
      <trkpt lat="45.07003" lon="4.83871">
        <ele>122.23</ele>
        <time>2019-05-26T11:22:31.000Z</time>
      </trkpt>
      <trkpt lat="45.06992" lon="4.83908">
        <ele>122.21</ele>
        <time>2019-05-26T11:22:36.000Z</time>
      </trkpt>
      <trkpt lat="45.0698" lon="4.83945">
        <ele>121.46</ele>
        <time>2019-05-26T11:22:41.000Z</time>
      </trkpt>
      <trkpt lat="45.06968" lon="4.83985">
        <ele>121.16</ele>
        <time>2019-05-26T11:22:46.000Z</time>
      </trkpt>
      <trkpt lat="45.06956" lon="4.84022">
        <ele>120.46</ele>
        <time>2019-05-26T11:22:51.000Z</time>
      </trkpt>
      <trkpt lat="45.06947" lon="4.84061">
        <ele>120.2</ele>
        <time>2019-05-26T11:22:56.000Z</time>
      </trkpt>
      <trkpt lat="45.06938" lon="4.84103">
        <ele>121.2</ele>
        <time>2019-05-26T11:23:01.000Z</time>
      </trkpt>
      <trkpt lat="45.0693" lon="4.84137">
        <ele>120.28</ele>
        <time>2019-05-26T11:23:06.000Z</time>
      </trkpt>
      <trkpt lat="45.06921" lon="4.84159">
        <ele>120.46</ele>
        <time>2019-05-26T11:23:11.000Z</time>
      </trkpt>
      <trkpt lat="45.06914" lon="4.84172">
        <ele>122.14</ele>
        <time>2019-05-26T11:23:16.000Z</time>
      </trkpt>
      <trkpt lat="45.06908" lon="4.84184">
        <ele>123.22</ele>
        <time>2019-05-26T11:23:21.000Z</time>
      </trkpt>
      <trkpt lat="45.06905" lon="4.84197">
        <ele>123.16</ele>
        <time>2019-05-26T11:23:26.000Z</time>
      </trkpt>
      <trkpt lat="45.06903" lon="4.84212">
        <ele>123.27</ele>
        <time>2019-05-26T11:23:31.000Z</time>
      </trkpt>
      <trkpt lat="45.06893" lon="4.84248">
        <ele>123.22</ele>
        <time>2019-05-26T11:23:36.000Z</time>
      </trkpt>
      <trkpt lat="45.06882" lon="4.84287">
        <ele>122.22</ele>
        <time>2019-05-26T11:23:41.000Z</time>
      </trkpt>
      <trkpt lat="45.06871" lon="4.84328">
        <ele>121.28</ele>
        <time>2019-05-26T11:23:46.000Z</time>
      </trkpt>
      <trkpt lat="45.06859" lon="4.84371">
        <ele>120.47</ele>
        <time>2019-05-26T11:23:51.000Z</time>
      </trkpt>
      <trkpt lat="45.06846" lon="4.84414">
        <ele>119.47</ele>
        <time>2019-05-26T11:23:56.000Z</time>
      </trkpt>
      <trkpt lat="45.06835" lon="4.8446">
        <ele>119.23</ele>
        <time>2019-05-26T11:24:01.000Z</time>
      </trkpt>
      <trkpt lat="45.06823" lon="4.84507">
        <ele>120.16</ele>
        <time>2019-05-26T11:24:06.000Z</time>
      </trkpt>
      <trkpt lat="45.0681" lon="4.84552">
        <ele>120.22</ele>
        <time>2019-05-26T11:24:11.000Z</time>
      </trkpt>
      <trkpt lat="45.06798" lon="4.84599">
        <ele>120.22</ele>
        <time>2019-05-26T11:24:16.000Z</time>
      </trkpt>
      <trkpt lat="45.06788" lon="4.84638">
        <ele>119.28</ele>
        <time>2019-05-26T11:24:21.000Z</time>
      </trkpt>
      <trkpt lat="45.06776" lon="4.84674">
        <ele>119.22</ele>
        <time>2019-05-26T11:24:26.000Z</time>
      </trkpt>
      <trkpt lat="45.06768" lon="4.84705">
        <ele>118.03</ele>
        <time>2019-05-26T11:24:31.000Z</time>
      </trkpt>
      <trkpt lat="45.06759" lon="4.84734">
        <ele>117.22</ele>
        <time>2019-05-26T11:24:36.000Z</time>
      </trkpt>
      <trkpt lat="45.06753" lon="4.84756">
        <ele>117.17</ele>
        <time>2019-05-26T11:24:41.000Z</time>
      </trkpt>
      <trkpt lat="45.0675" lon="4.84769">
        <ele>118.96</ele>
        <time>2019-05-26T11:24:46.000Z</time>
      </trkpt>
      <trkpt lat="45.06755" lon="4.84753">
        <ele>122.16</ele>
        <time>2019-05-26T11:24:51.000Z</time>
      </trkpt>
      <trkpt lat="45.06761" lon="4.84726">
        <ele>121.22</ele>
        <time>2019-05-26T11:24:56.000Z</time>
      </trkpt>
      <trkpt lat="45.06769" lon="4.84699">
        <ele>121.16</ele>
        <time>2019-05-26T11:25:01.000Z</time>
      </trkpt>
      <trkpt lat="45.06777" lon="4.84671">
        <ele>121.47</ele>
        <time>2019-05-26T11:25:06.000Z</time>
      </trkpt>
      <trkpt lat="45.06784" lon="4.84646">
        <ele>121.22</ele>
        <time>2019-05-26T11:25:11.000Z</time>
      </trkpt>
      <trkpt lat="45.0678" lon="4.84625">
        <ele>122.89</ele>
        <time>2019-05-26T11:25:16.000Z</time>
      </trkpt>
      <trkpt lat="45.06787" lon="4.84601">
        <ele>122.22</ele>
        <time>2019-05-26T11:25:21.000Z</time>
      </trkpt>
      <trkpt lat="45.06795" lon="4.84577">
        <ele>122.21</ele>
        <time>2019-05-26T11:25:26.000Z</time>
      </trkpt>
      <trkpt lat="45.06791" lon="4.84558">
        <ele>122.23</ele>
        <time>2019-05-26T11:25:31.000Z</time>
      </trkpt>
      <trkpt lat="45.0677" lon="4.84548">
        <ele>123.16</ele>
        <time>2019-05-26T11:25:36.000Z</time>
      </trkpt>
      <trkpt lat="45.0675" lon="4.84539">
        <ele>122.23</ele>
        <time>2019-05-26T11:25:41.000Z</time>
      </trkpt>
      <trkpt lat="45.06735" lon="4.8452">
        <ele>123.22</ele>
        <time>2019-05-26T11:25:46.000Z</time>
      </trkpt>
      <trkpt lat="45.06716" lon="4.84515">
        <ele>122.47</ele>
        <time>2019-05-26T11:25:51.000Z</time>
      </trkpt>
      <trkpt lat="45.06706" lon="4.84533">
        <ele>123.22</ele>
        <time>2019-05-26T11:25:56.000Z</time>
      </trkpt>
      <trkpt lat="45.06701" lon="4.84561">
        <ele>123.17</ele>
        <time>2019-05-26T11:26:01.000Z</time>
      </trkpt>
      <trkpt lat="45.06698" lon="4.8459">
        <ele>123.2</ele>
        <time>2019-05-26T11:26:06.000Z</time>
      </trkpt>
      <trkpt lat="45.06695" lon="4.84622">
        <ele>123.22</ele>
        <time>2019-05-26T11:26:11.000Z</time>
      </trkpt>
      <trkpt lat="45.0669" lon="4.84657">
        <ele>123.97</ele>
        <time>2019-05-26T11:26:16.000Z</time>
      </trkpt>
      <trkpt lat="45.06685" lon="4.84692">
        <ele>123.23</ele>
        <time>2019-05-26T11:26:21.000Z</time>
      </trkpt>
      <trkpt lat="45.0668" lon="4.8473">
        <ele>121.22</ele>
        <time>2019-05-26T11:26:26.000Z</time>
      </trkpt>
      <trkpt lat="45.06675" lon="4.8477">
        <ele>121.22</ele>
        <time>2019-05-26T11:26:31.000Z</time>
      </trkpt>
      <trkpt lat="45.0667" lon="4.84811">
        <ele>120.47</ele>
        <time>2019-05-26T11:26:36.000Z</time>
      </trkpt>
      <trkpt lat="45.06665" lon="4.84849">
        <ele>120.41</ele>
        <time>2019-05-26T11:26:41.000Z</time>
      </trkpt>
      <trkpt lat="45.06661" lon="4.84891">
        <ele>120.22</ele>
        <time>2019-05-26T11:26:46.000Z</time>
      </trkpt>
      <trkpt lat="45.06656" lon="4.8493">
        <ele>121.21</ele>
        <time>2019-05-26T11:26:51.000Z</time>
      </trkpt>
      <trkpt lat="45.06651" lon="4.84969">
        <ele>120.27</ele>
        <time>2019-05-26T11:26:56.000Z</time>
      </trkpt>
      <trkpt lat="45.06645" lon="4.85009">
        <ele>120.27</ele>
        <time>2019-05-26T11:27:01.000Z</time>
      </trkpt>
      <trkpt lat="45.06638" lon="4.85047">
        <ele>119.23</ele>
        <time>2019-05-26T11:27:06.000Z</time>
      </trkpt>
      <trkpt lat="45.0663" lon="4.85085">
        <ele>119.22</ele>
        <time>2019-05-26T11:27:11.000Z</time>
      </trkpt>
      <trkpt lat="45.06622" lon="4.8512">
        <ele>118.98</ele>
        <time>2019-05-26T11:27:16.000Z</time>
      </trkpt>
      <trkpt lat="45.06612" lon="4.85156">
        <ele>118.22</ele>
        <time>2019-05-26T11:27:21.000Z</time>
      </trkpt>
      <trkpt lat="45.06601" lon="4.85193">
        <ele>118.22</ele>
        <time>2019-05-26T11:27:26.000Z</time>
      </trkpt>
      <trkpt lat="45.0659" lon="4.85231">
        <ele>119.16</ele>
        <time>2019-05-26T11:27:31.000Z</time>
      </trkpt>
      <trkpt lat="45.06578" lon="4.85269">
        <ele>118.47</ele>
        <time>2019-05-26T11:27:36.000Z</time>
      </trkpt>
      <trkpt lat="45.06566" lon="4.85307">
        <ele>119.22</ele>
        <time>2019-05-26T11:27:41.000Z</time>
      </trkpt>
      <trkpt lat="45.06554" lon="4.85344">
        <ele>119.97</ele>
        <time>2019-05-26T11:27:46.000Z</time>
      </trkpt>
      <trkpt lat="45.06541" lon="4.85381">
        <ele>119.23</ele>
        <time>2019-05-26T11:27:51.000Z</time>
      </trkpt>
      <trkpt lat="45.06528" lon="4.85416">
        <ele>116.54</ele>
        <time>2019-05-26T11:27:56.000Z</time>
      </trkpt>
      <trkpt lat="45.06513" lon="4.85452">
        <ele>117.96</ele>
        <time>2019-05-26T11:28:01.000Z</time>
      </trkpt>
      <trkpt lat="45.06498" lon="4.85486">
        <ele>118.23</ele>
        <time>2019-05-26T11:28:06.000Z</time>
      </trkpt>
      <trkpt lat="45.06483" lon="4.85521">
        <ele>118.23</ele>
        <time>2019-05-26T11:28:11.000Z</time>
      </trkpt>
      <trkpt lat="45.06468" lon="4.85554">
        <ele>119.23</ele>
        <time>2019-05-26T11:28:16.000Z</time>
      </trkpt>
      <trkpt lat="45.06454" lon="4.85589">
        <ele>119.23</ele>
        <time>2019-05-26T11:28:21.000Z</time>
      </trkpt>
      <trkpt lat="45.06436" lon="4.85622">
        <ele>120.16</ele>
        <time>2019-05-26T11:28:26.000Z</time>
      </trkpt>
      <trkpt lat="45.06417" lon="4.85658">
        <ele>118.23</ele>
        <time>2019-05-26T11:28:31.000Z</time>
      </trkpt>
      <trkpt lat="45.06399" lon="4.85692">
        <ele>117.29</ele>
        <time>2019-05-26T11:28:36.000Z</time>
      </trkpt>
      <trkpt lat="45.06382" lon="4.85724">
        <ele>117.23</ele>
        <time>2019-05-26T11:28:41.000Z</time>
      </trkpt>
      <trkpt lat="45.06365" lon="4.85757">
        <ele>118.23</ele>
        <time>2019-05-26T12:17:03.000Z</time>
      </trkpt>
      <trkpt lat="45.06342" lon="4.85785">
        <ele>118.23</ele>
        <time>2019-05-26T12:28:29.000Z</time>
      </trkpt>
      <trkpt lat="45.0632" lon="4.85813">
        <ele>117.29</ele>
        <time>2019-05-26T12:28:34.000Z</time>
      </trkpt>
      <trkpt lat="45.06296" lon="4.85841">
        <ele>117.98</ele>
        <time>2019-05-26T12:28:39.000Z</time>
      </trkpt>
      <trkpt lat="45.06277" lon="4.85864">
        <ele>120.21</ele>
        <time>2019-05-26T12:28:44.000Z</time>
      </trkpt>
      <trkpt lat="45.06257" lon="4.85884">
        <ele>119.3</ele>
        <time>2019-05-26T12:28:49.000Z</time>
      </trkpt>
      <trkpt lat="45.06233" lon="4.85903">
        <ele>118.24</ele>
        <time>2019-05-26T12:28:54.000Z</time>
      </trkpt>
      <trkpt lat="45.06208" lon="4.85925">
        <ele>117.29</ele>
        <time>2019-05-26T12:28:59.000Z</time>
      </trkpt>
      <trkpt lat="45.06182" lon="4.85947">
        <ele>118.23</ele>
        <time>2019-05-26T12:29:04.000Z</time>
      </trkpt>
      <trkpt lat="45.06154" lon="4.85968">
        <ele>118.23</ele>
        <time>2019-05-26T12:29:09.000Z</time>
      </trkpt>
      <trkpt lat="45.06127" lon="4.85989">
        <ele>118.97</ele>
        <time>2019-05-26T12:29:14.000Z</time>
      </trkpt>
      <trkpt lat="45.061" lon="4.8601">
        <ele>119.17</ele>
        <time>2019-05-26T12:29:19.000Z</time>
      </trkpt>
      <trkpt lat="45.06071" lon="4.86029">
        <ele>118.24</ele>
        <time>2019-05-26T12:29:24.000Z</time>
      </trkpt>
      <trkpt lat="45.06041" lon="4.86045">
        <ele>118.23</ele>
        <time>2019-05-26T12:29:29.000Z</time>
      </trkpt>
      <trkpt lat="45.06012" lon="4.86063">
        <ele>118.98</ele>
        <time>2019-05-26T12:29:34.000Z</time>
      </trkpt>
      <trkpt lat="45.05986" lon="4.86079">
        <ele>119.23</ele>
        <time>2019-05-26T12:29:39.000Z</time>
      </trkpt>
      <trkpt lat="45.05955" lon="4.86083">
        <ele>119.41</ele>
        <time>2019-05-26T12:29:44.000Z</time>
      </trkpt>
      <trkpt lat="45.05925" lon="4.86097">
        <ele>119.23</ele>
        <time>2019-05-26T12:29:49.000Z</time>
      </trkpt>
      <trkpt lat="45.05896" lon="4.86113">
        <ele>120.22</ele>
        <time>2019-05-26T12:29:54.000Z</time>
      </trkpt>
      <trkpt lat="45.05865" lon="4.86128">
        <ele>120.23</ele>
        <time>2019-05-26T12:29:59.000Z</time>
      </trkpt>
      <trkpt lat="45.05833" lon="4.86143">
        <ele>120.22</ele>
        <time>2019-05-26T12:30:04.000Z</time>
      </trkpt>
      <trkpt lat="45.05801" lon="4.86158">
        <ele>119.23</ele>
        <time>2019-05-26T12:30:09.000Z</time>
      </trkpt>
      <trkpt lat="45.05767" lon="4.86173">
        <ele>120.21</ele>
        <time>2019-05-26T12:30:14.000Z</time>
      </trkpt>
      <trkpt lat="45.05732" lon="4.86187">
        <ele>121.22</ele>
        <time>2019-05-26T12:30:19.000Z</time>
      </trkpt>
      <trkpt lat="45.05696" lon="4.86197">
        <ele>120.22</ele>
        <time>2019-05-26T12:30:24.000Z</time>
      </trkpt>
      <trkpt lat="45.05659" lon="4.86208">
        <ele>120.18</ele>
        <time>2019-05-26T12:30:29.000Z</time>
      </trkpt>
      <trkpt lat="45.05623" lon="4.86213">
        <ele>121.22</ele>
        <time>2019-05-26T12:30:34.000Z</time>
      </trkpt>
      <trkpt lat="45.05587" lon="4.86217">
        <ele>120.98</ele>
        <time>2019-05-26T12:30:39.000Z</time>
      </trkpt>
      <trkpt lat="45.05549" lon="4.86217">
        <ele>120.23</ele>
        <time>2019-05-26T12:30:44.000Z</time>
      </trkpt>
      <trkpt lat="45.05512" lon="4.86217">
        <ele>120.22</ele>
        <time>2019-05-26T12:30:49.000Z</time>
      </trkpt>
      <trkpt lat="45.05477" lon="4.86214">
        <ele>120.22</ele>
        <time>2019-05-26T12:30:54.000Z</time>
      </trkpt>
      <trkpt lat="45.05442" lon="4.86209">
        <ele>118.48</ele>
        <time>2019-05-26T12:30:59.000Z</time>
      </trkpt>
      <trkpt lat="45.05407" lon="4.862">
        <ele>118.47</ele>
        <time>2019-05-26T12:31:04.000Z</time>
      </trkpt>
      <trkpt lat="45.05373" lon="4.8619">
        <ele>118.45</ele>
        <time>2019-05-26T12:32:03.000Z</time>
      </trkpt>
      <trkpt lat="45.05339" lon="4.86177">
        <ele>118.46</ele>
        <time>2019-05-26T12:32:08.000Z</time>
      </trkpt>
      <trkpt lat="45.05308" lon="4.86163">
        <ele>120.15</ele>
        <time>2019-05-26T12:32:13.000Z</time>
      </trkpt>
      <trkpt lat="45.05277" lon="4.86147">
        <ele>120.22</ele>
        <time>2019-05-26T12:32:18.000Z</time>
      </trkpt>
      <trkpt lat="45.05247" lon="4.86127">
        <ele>120.26</ele>
        <time>2019-05-26T12:32:23.000Z</time>
      </trkpt>
      <trkpt lat="45.05215" lon="4.86109">
        <ele>119.28</ele>
        <time>2019-05-26T12:32:28.000Z</time>
      </trkpt>
      <trkpt lat="45.05184" lon="4.86089">
        <ele>119.23</ele>
        <time>2019-05-26T12:32:33.000Z</time>
      </trkpt>
      <trkpt lat="45.05153" lon="4.8607">
        <ele>119.21</ele>
        <time>2019-05-26T12:32:38.000Z</time>
      </trkpt>
      <trkpt lat="45.05125" lon="4.8605">
        <ele>118.28</ele>
        <time>2019-05-26T12:32:43.000Z</time>
      </trkpt>
      <trkpt lat="45.05097" lon="4.8603">
        <ele>120.15</ele>
        <time>2019-05-26T12:32:48.000Z</time>
      </trkpt>
      <trkpt lat="45.05069" lon="4.86008">
        <ele>120.21</ele>
        <time>2019-05-26T12:32:53.000Z</time>
      </trkpt>
      <trkpt lat="45.0504" lon="4.85986">
        <ele>120.21</ele>
        <time>2019-05-26T12:32:58.000Z</time>
      </trkpt>
      <trkpt lat="45.05013" lon="4.85965">
        <ele>119.21</ele>
        <time>2019-05-26T12:33:03.000Z</time>
      </trkpt>
      <trkpt lat="45.04986" lon="4.85945">
        <ele>119.97</ele>
        <time>2019-05-26T12:33:08.000Z</time>
      </trkpt>
      <trkpt lat="45.04959" lon="4.85924">
        <ele>119.23</ele>
        <time>2019-05-26T12:33:13.000Z</time>
      </trkpt>
      <trkpt lat="45.04934" lon="4.85903">
        <ele>119.21</ele>
        <time>2019-05-26T12:33:18.000Z</time>
      </trkpt>
      <trkpt lat="45.04906" lon="4.85882">
        <ele>120.15</ele>
        <time>2019-05-26T12:33:23.000Z</time>
      </trkpt>
      <trkpt lat="45.0488" lon="4.85859">
        <ele>119.27</ele>
        <time>2019-05-26T12:33:28.000Z</time>
      </trkpt>
      <trkpt lat="45.04855" lon="4.85838">
        <ele>118.4</ele>
        <time>2019-05-26T12:33:33.000Z</time>
      </trkpt>
      <trkpt lat="45.04829" lon="4.85817">
        <ele>118.21</ele>
        <time>2019-05-26T12:33:38.000Z</time>
      </trkpt>
      <trkpt lat="45.04804" lon="4.85794">
        <ele>119.16</ele>
        <time>2019-05-26T12:33:43.000Z</time>
      </trkpt>
      <trkpt lat="45.04779" lon="4.8577">
        <ele>119.21</ele>
        <time>2019-05-26T12:33:48.000Z</time>
      </trkpt>
      <trkpt lat="45.04755" lon="4.85746">
        <ele>119.2</ele>
        <time>2019-05-26T12:33:53.000Z</time>
      </trkpt>
      <trkpt lat="45.04729" lon="4.85723">
        <ele>119.39</ele>
        <time>2019-05-26T12:33:58.000Z</time>
      </trkpt>
      <trkpt lat="45.04706" lon="4.85697">
        <ele>119.97</ele>
        <time>2019-05-26T12:34:03.000Z</time>
      </trkpt>
      <trkpt lat="45.04683" lon="4.85672">
        <ele>119.45</ele>
        <time>2019-05-26T12:34:08.000Z</time>
      </trkpt>
      <trkpt lat="45.0466" lon="4.85647">
        <ele>118.46</ele>
        <time>2019-05-26T12:34:13.000Z</time>
      </trkpt>
      <trkpt lat="45.04638" lon="4.85621">
        <ele>118.2</ele>
        <time>2019-05-26T12:34:18.000Z</time>
      </trkpt>
      <trkpt lat="45.04616" lon="4.85593">
        <ele>117.22</ele>
        <time>2019-05-26T12:34:23.000Z</time>
      </trkpt>
      <trkpt lat="45.04594" lon="4.85564">
        <ele>117.2</ele>
        <time>2019-05-26T12:34:28.000Z</time>
      </trkpt>
      <trkpt lat="45.04573" lon="4.85533">
        <ele>117.2</ele>
        <time>2019-05-26T12:34:33.000Z</time>
      </trkpt>
      <trkpt lat="45.04552" lon="4.85504">
        <ele>118.2</ele>
        <time>2019-05-26T12:34:38.000Z</time>
      </trkpt>
      <trkpt lat="45.04533" lon="4.85477">
        <ele>118.2</ele>
        <time>2019-05-26T12:34:43.000Z</time>
      </trkpt>
      <trkpt lat="45.04542" lon="4.85469">
        <ele>107.45</ele>
        <time>2019-05-26T12:34:48.000Z</time>
      </trkpt>
      <trkpt lat="45.04532" lon="4.85468">
        <ele>113.21</ele>
        <time>2019-05-26T12:34:53.000Z</time>
      </trkpt>
      <trkpt lat="45.04523" lon="4.85455">
        <ele>113.2</ele>
        <time>2019-05-26T12:34:58.000Z</time>
      </trkpt>
      <trkpt lat="45.0451" lon="4.85434">
        <ele>114.38</ele>
        <time>2019-05-26T12:35:03.000Z</time>
      </trkpt>
      <trkpt lat="45.04495" lon="4.85413">
        <ele>114.2</ele>
        <time>2019-05-26T12:35:08.000Z</time>
      </trkpt>
      <trkpt lat="45.04482" lon="4.85391">
        <ele>114.2</ele>
        <time>2019-05-26T12:35:13.000Z</time>
      </trkpt>
      <trkpt lat="45.04466" lon="4.85364">
        <ele>114.38</ele>
        <time>2019-05-26T12:35:18.000Z</time>
      </trkpt>
      <trkpt lat="45.04446" lon="4.85335">
        <ele>114.2</ele>
        <time>2019-05-26T12:35:23.000Z</time>
      </trkpt>
      <trkpt lat="45.04429" lon="4.85305">
        <ele>115.15</ele>
        <time>2019-05-26T12:35:28.000Z</time>
      </trkpt>
      <trkpt lat="45.04408" lon="4.85275">
        <ele>115.94</ele>
        <time>2019-05-26T12:35:33.000Z</time>
      </trkpt>
      <trkpt lat="45.04388" lon="4.85243">
        <ele>115.2</ele>
        <time>2019-05-26T12:35:38.000Z</time>
      </trkpt>
      <trkpt lat="45.04371" lon="4.85208">
        <ele>115.94</ele>
        <time>2019-05-26T12:35:43.000Z</time>
      </trkpt>
      <trkpt lat="45.04352" lon="4.85176">
        <ele>115.19</ele>
        <time>2019-05-26T12:35:48.000Z</time>
      </trkpt>
      <trkpt lat="45.04333" lon="4.85148">
        <ele>115.19</ele>
        <time>2019-05-26T12:35:53.000Z</time>
      </trkpt>
      <trkpt lat="45.04317" lon="4.85121">
        <ele>116.18</ele>
        <time>2019-05-26T12:35:58.000Z</time>
      </trkpt>
      <trkpt lat="45.04302" lon="4.85088">
        <ele>115.44</ele>
        <time>2019-05-26T12:36:03.000Z</time>
      </trkpt>
      <trkpt lat="45.04282" lon="4.85058">
        <ele>115.19</ele>
        <time>2019-05-26T12:36:08.000Z</time>
      </trkpt>
      <trkpt lat="45.04264" lon="4.85027">
        <ele>116.19</ele>
        <time>2019-05-26T12:36:13.000Z</time>
      </trkpt>
      <trkpt lat="45.04246" lon="4.84998">
        <ele>116.19</ele>
        <time>2019-05-26T12:36:18.000Z</time>
      </trkpt>
      <trkpt lat="45.04228" lon="4.84967">
        <ele>116.19</ele>
        <time>2019-05-26T12:36:23.000Z</time>
      </trkpt>
      <trkpt lat="45.04208" lon="4.84937">
        <ele>115.19</ele>
        <time>2019-05-26T12:36:28.000Z</time>
      </trkpt>
      <trkpt lat="45.04185" lon="4.84908">
        <ele>116.12</ele>
        <time>2019-05-26T12:36:33.000Z</time>
      </trkpt>
      <trkpt lat="45.04163" lon="4.8488">
        <ele>118.12</ele>
        <time>2019-05-26T12:36:38.000Z</time>
      </trkpt>
      <trkpt lat="45.04142" lon="4.8485">
        <ele>117.19</ele>
        <time>2019-05-26T12:36:43.000Z</time>
      </trkpt>
      <trkpt lat="45.04121" lon="4.84819">
        <ele>117.18</ele>
        <time>2019-05-26T12:36:48.000Z</time>
      </trkpt>
      <trkpt lat="45.041" lon="4.84789">
        <ele>116.94</ele>
        <time>2019-05-26T12:36:53.000Z</time>
      </trkpt>
      <trkpt lat="45.04079" lon="4.84761">
        <ele>117.18</ele>
        <time>2019-05-26T12:36:58.000Z</time>
      </trkpt>
      <trkpt lat="45.04057" lon="4.84733">
        <ele>116.25</ele>
        <time>2019-05-26T12:37:03.000Z</time>
      </trkpt>
      <trkpt lat="45.04033" lon="4.8471">
        <ele>114.45</ele>
        <time>2019-05-26T12:37:08.000Z</time>
      </trkpt>
      <trkpt lat="45.04013" lon="4.84685">
        <ele>114.18</ele>
        <time>2019-05-26T12:37:13.000Z</time>
      </trkpt>
      <trkpt lat="45.03991" lon="4.84666">
        <ele>114.17</ele>
        <time>2019-05-26T12:37:18.000Z</time>
      </trkpt>
      <trkpt lat="45.0397" lon="4.84648">
        <ele>114.18</ele>
        <time>2019-05-26T12:37:23.000Z</time>
      </trkpt>
      <trkpt lat="45.03957" lon="4.84634">
        <ele>114.17</ele>
        <time>2019-05-26T12:37:28.000Z</time>
      </trkpt>
      <trkpt lat="45.03946" lon="4.84624">
        <ele>117.18</ele>
        <time>2019-05-26T12:37:33.000Z</time>
      </trkpt>
      <trkpt lat="45.03925" lon="4.84605">
        <ele>116.18</ele>
        <time>2019-05-26T12:37:38.000Z</time>
      </trkpt>
      <trkpt lat="45.03904" lon="4.84585">
        <ele>116.18</ele>
        <time>2019-05-26T12:37:43.000Z</time>
      </trkpt>
      <trkpt lat="45.0388" lon="4.84565">
        <ele>116.18</ele>
        <time>2019-05-26T12:37:48.000Z</time>
      </trkpt>
      <trkpt lat="45.03857" lon="4.84546">
        <ele>116.18</ele>
        <time>2019-05-26T12:37:53.000Z</time>
      </trkpt>
      <trkpt lat="45.03834" lon="4.84526">
        <ele>115.24</ele>
        <time>2019-05-26T12:37:58.000Z</time>
      </trkpt>
      <trkpt lat="45.03814" lon="4.84505">
        <ele>114.24</ele>
        <time>2019-05-26T12:38:03.000Z</time>
      </trkpt>
      <trkpt lat="45.03793" lon="4.84486">
        <ele>115.13</ele>
        <time>2019-05-26T12:38:08.000Z</time>
      </trkpt>
      <trkpt lat="45.03769" lon="4.84467">
        <ele>115.91</ele>
        <time>2019-05-26T12:38:13.000Z</time>
      </trkpt>
      <trkpt lat="45.03745" lon="4.84446">
        <ele>115.38</ele>
        <time>2019-05-26T12:38:18.000Z</time>
      </trkpt>
      <trkpt lat="45.03721" lon="4.84424">
        <ele>114.43</ele>
        <time>2019-05-26T12:38:23.000Z</time>
      </trkpt>
      <trkpt lat="45.03699" lon="4.84403">
        <ele>114.17</ele>
        <time>2019-05-26T12:38:28.000Z</time>
      </trkpt>
      <trkpt lat="45.03673" lon="4.84384">
        <ele>113.19</ele>
        <time>2019-05-26T12:38:33.000Z</time>
      </trkpt>
      <trkpt lat="45.03647" lon="4.84364">
        <ele>113.17</ele>
        <time>2019-05-26T12:38:38.000Z</time>
      </trkpt>
      <trkpt lat="45.03622" lon="4.84346">
        <ele>114.11</ele>
        <time>2019-05-26T12:38:43.000Z</time>
      </trkpt>
      <trkpt lat="45.03594" lon="4.84329">
        <ele>114.17</ele>
        <time>2019-05-26T12:38:48.000Z</time>
      </trkpt>
      <trkpt lat="45.03567" lon="4.84313">
        <ele>113.98</ele>
        <time>2019-05-26T12:38:53.000Z</time>
      </trkpt>
      <trkpt lat="45.03539" lon="4.84296">
        <ele>113.92</ele>
        <time>2019-05-26T12:38:58.000Z</time>
      </trkpt>
      <trkpt lat="45.03511" lon="4.84282">
        <ele>114.18</ele>
        <time>2019-05-26T12:39:03.000Z</time>
      </trkpt>
      <trkpt lat="45.03481" lon="4.84269">
        <ele>114.92</ele>
        <time>2019-05-26T12:39:08.000Z</time>
      </trkpt>
      <trkpt lat="45.03451" lon="4.84256">
        <ele>116.15</ele>
        <time>2019-05-26T12:39:13.000Z</time>
      </trkpt>
      <trkpt lat="45.03422" lon="4.84243">
        <ele>115.92</ele>
        <time>2019-05-26T12:39:18.000Z</time>
      </trkpt>
      <trkpt lat="45.03393" lon="4.84232">
        <ele>117.15</ele>
        <time>2019-05-26T12:39:23.000Z</time>
      </trkpt>
      <trkpt lat="45.03363" lon="4.84223">
        <ele>116.17</ele>
        <time>2019-05-26T12:39:28.000Z</time>
      </trkpt>
      <trkpt lat="45.03332" lon="4.84214">
        <ele>115.42</ele>
        <time>2019-05-26T12:39:33.000Z</time>
      </trkpt>
      <trkpt lat="45.03301" lon="4.84206">
        <ele>115.35</ele>
        <time>2019-05-26T12:39:38.000Z</time>
      </trkpt>
      <trkpt lat="45.03268" lon="4.84201">
        <ele>115.18</ele>
        <time>2019-05-26T12:39:43.000Z</time>
      </trkpt>
      <trkpt lat="45.03235" lon="4.84194">
        <ele>116.1</ele>
        <time>2019-05-26T12:39:48.000Z</time>
      </trkpt>
      <trkpt lat="45.03201" lon="4.8419">
        <ele>115.98</ele>
        <time>2019-05-26T12:39:53.000Z</time>
      </trkpt>
      <trkpt lat="45.03166" lon="4.84188">
        <ele>116.16</ele>
        <time>2019-05-26T12:39:58.000Z</time>
      </trkpt>
      <trkpt lat="45.0313" lon="4.84188">
        <ele>115.12</ele>
        <time>2019-05-26T12:40:03.000Z</time>
      </trkpt>
      <trkpt lat="45.03094" lon="4.8419">
        <ele>114.12</ele>
        <time>2019-05-26T12:40:08.000Z</time>
      </trkpt>
      <trkpt lat="45.03058" lon="4.84192">
        <ele>114.16</ele>
        <time>2019-05-26T12:40:13.000Z</time>
      </trkpt>
      <trkpt lat="45.03022" lon="4.84197">
        <ele>114.22</ele>
        <time>2019-05-26T12:40:18.000Z</time>
      </trkpt>
      <trkpt lat="45.02986" lon="4.84204">
        <ele>115.1</ele>
        <time>2019-05-26T12:40:23.000Z</time>
      </trkpt>
      <trkpt lat="45.0295" lon="4.8421">
        <ele>113.41</ele>
        <time>2019-05-26T12:40:28.000Z</time>
      </trkpt>
      <trkpt lat="45.02915" lon="4.84219">
        <ele>113.35</ele>
        <time>2019-05-26T12:40:33.000Z</time>
      </trkpt>
      <trkpt lat="45.02881" lon="4.8423">
        <ele>114.16</ele>
        <time>2019-05-26T12:40:38.000Z</time>
      </trkpt>
      <trkpt lat="45.02847" lon="4.84242">
        <ele>114.17</ele>
        <time>2019-05-26T12:40:43.000Z</time>
      </trkpt>
      <trkpt lat="45.02812" lon="4.84254">
        <ele>115.16</ele>
        <time>2019-05-26T12:40:48.000Z</time>
      </trkpt>
      <trkpt lat="45.02776" lon="4.8427">
        <ele>115.91</ele>
        <time>2019-05-26T12:40:53.000Z</time>
      </trkpt>
      <trkpt lat="45.02742" lon="4.84287">
        <ele>115.22</ele>
        <time>2019-05-26T12:40:58.000Z</time>
      </trkpt>
      <trkpt lat="45.02708" lon="4.84306">
        <ele>115.17</ele>
        <time>2019-05-26T12:41:03.000Z</time>
      </trkpt>
      <trkpt lat="45.02674" lon="4.84325">
        <ele>115.16</ele>
        <time>2019-05-26T12:41:08.000Z</time>
      </trkpt>
      <trkpt lat="45.0264" lon="4.84348">
        <ele>115.85</ele>
        <time>2019-05-26T12:41:13.000Z</time>
      </trkpt>
      <trkpt lat="45.02608" lon="4.84371">
        <ele>115.22</ele>
        <time>2019-05-26T12:41:18.000Z</time>
      </trkpt>
      <trkpt lat="45.02574" lon="4.84398">
        <ele>115.86</ele>
        <time>2019-05-26T12:41:23.000Z</time>
      </trkpt>
      <trkpt lat="45.02541" lon="4.84427">
        <ele>117.14</ele>
        <time>2019-05-26T12:41:28.000Z</time>
      </trkpt>
      <trkpt lat="45.0251" lon="4.84453">
        <ele>115.35</ele>
        <time>2019-05-26T12:41:33.000Z</time>
      </trkpt>
      <trkpt lat="45.0248" lon="4.84483">
        <ele>118.08</ele>
        <time>2019-05-26T12:41:38.000Z</time>
      </trkpt>
      <trkpt lat="45.02451" lon="4.84513">
        <ele>118.98</ele>
        <time>2019-05-26T12:41:43.000Z</time>
      </trkpt>
      <trkpt lat="45.02422" lon="4.84544">
        <ele>118.92</ele>
        <time>2019-05-26T12:41:48.000Z</time>
      </trkpt>
      <trkpt lat="45.02393" lon="4.84571">
        <ele>119.16</ele>
        <time>2019-05-26T12:41:53.000Z</time>
      </trkpt>
      <trkpt lat="45.02365" lon="4.84601">
        <ele>116.5</ele>
        <time>2019-05-26T12:41:58.000Z</time>
      </trkpt>
      <trkpt lat="45.02337" lon="4.84629">
        <ele>115.18</ele>
        <time>2019-05-26T12:42:03.000Z</time>
      </trkpt>
      <trkpt lat="45.0231" lon="4.84654">
        <ele>116.39</ele>
        <time>2019-05-26T12:42:08.000Z</time>
      </trkpt>
      <trkpt lat="45.02285" lon="4.8468">
        <ele>116.16</ele>
        <time>2019-05-26T12:42:13.000Z</time>
      </trkpt>
      <trkpt lat="45.0226" lon="4.84706">
        <ele>115.22</ele>
        <time>2019-05-26T12:42:18.000Z</time>
      </trkpt>
      <trkpt lat="45.02232" lon="4.84733">
        <ele>115.35</ele>
        <time>2019-05-26T12:42:23.000Z</time>
      </trkpt>
      <trkpt lat="45.02205" lon="4.8476">
        <ele>117.9</ele>
        <time>2019-05-26T12:42:28.000Z</time>
      </trkpt>
      <trkpt lat="45.02178" lon="4.84788">
        <ele>117.91</ele>
        <time>2019-05-26T12:42:33.000Z</time>
      </trkpt>
      <trkpt lat="45.0215" lon="4.84816">
        <ele>118.17</ele>
        <time>2019-05-26T12:42:38.000Z</time>
      </trkpt>
      <trkpt lat="45.02123" lon="4.84842">
        <ele>117.17</ele>
        <time>2019-05-26T12:42:43.000Z</time>
      </trkpt>
      <trkpt lat="45.02096" lon="4.84868">
        <ele>118.15</ele>
        <time>2019-05-26T12:42:48.000Z</time>
      </trkpt>
      <trkpt lat="45.0207" lon="4.84894">
        <ele>117.21</ele>
        <time>2019-05-26T12:42:53.000Z</time>
      </trkpt>
      <trkpt lat="45.02042" lon="4.84921">
        <ele>114.3</ele>
        <time>2019-05-26T12:42:58.000Z</time>
      </trkpt>
      <trkpt lat="45.02015" lon="4.84951">
        <ele>117.1</ele>
        <time>2019-05-26T12:43:03.000Z</time>
      </trkpt>
      <trkpt lat="45.01988" lon="4.84978">
        <ele>118.11</ele>
        <time>2019-05-26T12:43:08.000Z</time>
      </trkpt>
      <trkpt lat="45.01962" lon="4.85006">
        <ele>118.1</ele>
        <time>2019-05-26T12:43:13.000Z</time>
      </trkpt>
      <trkpt lat="45.01934" lon="4.85033">
        <ele>118.1</ele>
        <time>2019-05-26T12:43:18.000Z</time>
      </trkpt>
      <trkpt lat="45.01908" lon="4.85061">
        <ele>118.11</ele>
        <time>2019-05-26T12:43:23.000Z</time>
      </trkpt>
      <trkpt lat="45.01882" lon="4.85087">
        <ele>117.17</ele>
        <time>2019-05-26T12:43:28.000Z</time>
      </trkpt>
      <trkpt lat="45.01854" lon="4.85114">
        <ele>118.91</ele>
        <time>2019-05-26T12:43:33.000Z</time>
      </trkpt>
      <trkpt lat="45.01827" lon="4.85142">
        <ele>119.41</ele>
        <time>2019-05-26T12:43:38.000Z</time>
      </trkpt>
      <trkpt lat="45.018" lon="4.85167">
        <ele>119.16</ele>
        <time>2019-05-26T12:43:43.000Z</time>
      </trkpt>
      <trkpt lat="45.01774" lon="4.85192">
        <ele>119.16</ele>
        <time>2019-05-26T12:43:48.000Z</time>
      </trkpt>
      <trkpt lat="45.01747" lon="4.85218">
        <ele>118.22</ele>
        <time>2019-05-26T12:43:53.000Z</time>
      </trkpt>
      <trkpt lat="45.0172" lon="4.85245">
        <ele>118.09</ele>
        <time>2019-05-26T12:43:58.000Z</time>
      </trkpt>
      <trkpt lat="45.01695" lon="4.8527">
        <ele>118.16</ele>
        <time>2019-05-26T12:44:03.000Z</time>
      </trkpt>
      <trkpt lat="45.01671" lon="4.85296">
        <ele>117.17</ele>
        <time>2019-05-26T12:44:08.000Z</time>
      </trkpt>
      <trkpt lat="45.01646" lon="4.85319">
        <ele>117.16</ele>
        <time>2019-05-26T12:44:13.000Z</time>
      </trkpt>
      <trkpt lat="45.0162" lon="4.85343">
        <ele>116.1</ele>
        <time>2019-05-26T12:44:18.000Z</time>
      </trkpt>
      <trkpt lat="45.01596" lon="4.85363">
        <ele>115.41</ele>
        <time>2019-05-26T12:44:23.000Z</time>
      </trkpt>
      <trkpt lat="45.01574" lon="4.85383">
        <ele>116.9</ele>
        <time>2019-05-26T12:44:28.000Z</time>
      </trkpt>
      <trkpt lat="45.01554" lon="4.85401">
        <ele>117.91</ele>
        <time>2019-05-26T12:44:33.000Z</time>
      </trkpt>
      <trkpt lat="45.01531" lon="4.85419">
        <ele>117.16</ele>
        <time>2019-05-26T12:44:38.000Z</time>
      </trkpt>
      <trkpt lat="45.01508" lon="4.85439">
        <ele>115.36</ele>
        <time>2019-05-26T12:44:43.000Z</time>
      </trkpt>
      <trkpt lat="45.01488" lon="4.85452">
        <ele>114.22</ele>
        <time>2019-05-26T12:44:48.000Z</time>
      </trkpt>
      <trkpt lat="45.01474" lon="4.85465">
        <ele>114.16</ele>
        <time>2019-05-26T12:44:53.000Z</time>
      </trkpt>
      <trkpt lat="45.01454" lon="4.8548">
        <ele>115.17</ele>
        <time>2019-05-26T12:44:58.000Z</time>
      </trkpt>
      <trkpt lat="45.0143" lon="4.85497">
        <ele>116.15</ele>
        <time>2019-05-26T12:45:03.000Z</time>
      </trkpt>
      <trkpt lat="45.01402" lon="4.85516">
        <ele>116.2</ele>
        <time>2019-05-26T12:45:08.000Z</time>
      </trkpt>
      <trkpt lat="45.01372" lon="4.85536">
        <ele>118.9</ele>
        <time>2019-05-26T12:45:13.000Z</time>
      </trkpt>
      <trkpt lat="45.0134" lon="4.85557">
        <ele>118.16</ele>
        <time>2019-05-26T12:45:18.000Z</time>
      </trkpt>
      <trkpt lat="45.01306" lon="4.85579">
        <ele>118.15</ele>
        <time>2019-05-26T12:45:23.000Z</time>
      </trkpt>
      <trkpt lat="45.01271" lon="4.85599">
        <ele>116.22</ele>
        <time>2019-05-26T12:45:28.000Z</time>
      </trkpt>
      <trkpt lat="45.01236" lon="4.85617">
        <ele>116.15</ele>
        <time>2019-05-26T12:45:33.000Z</time>
      </trkpt>
      <trkpt lat="45.01199" lon="4.85639">
        <ele>116.15</ele>
        <time>2019-05-26T12:45:38.000Z</time>
      </trkpt>
      <trkpt lat="45.01162" lon="4.85659">
        <ele>116.15</ele>
        <time>2019-05-26T12:45:43.000Z</time>
      </trkpt>
      <trkpt lat="45.01126" lon="4.85681">
        <ele>116.16</ele>
        <time>2019-05-26T12:45:48.000Z</time>
      </trkpt>
      <trkpt lat="45.01088" lon="4.85703">
        <ele>116.15</ele>
        <time>2019-05-26T12:45:53.000Z</time>
      </trkpt>
      <trkpt lat="45.0105" lon="4.85724">
        <ele>115.4</ele>
        <time>2019-05-26T12:45:58.000Z</time>
      </trkpt>
      <trkpt lat="45.01013" lon="4.85745">
        <ele>116.15</ele>
        <time>2019-05-26T12:46:03.000Z</time>
      </trkpt>
      <trkpt lat="45.00973" lon="4.85769">
        <ele>117.15</ele>
        <time>2019-05-26T12:46:08.000Z</time>
      </trkpt>
      <trkpt lat="45.00933" lon="4.85791">
        <ele>115.91</ele>
        <time>2019-05-26T12:46:13.000Z</time>
      </trkpt>
      <trkpt lat="45.00894" lon="4.85814">
        <ele>114.92</ele>
        <time>2019-05-26T12:46:18.000Z</time>
      </trkpt>
      <trkpt lat="45.00854" lon="4.85835">
        <ele>113.96</ele>
        <time>2019-05-26T12:46:23.000Z</time>
      </trkpt>
      <trkpt lat="45.00817" lon="4.85857">
        <ele>115.1</ele>
        <time>2019-05-26T12:46:28.000Z</time>
      </trkpt>
      <trkpt lat="45.00776" lon="4.8588">
        <ele>115.15</ele>
        <time>2019-05-26T12:46:33.000Z</time>
      </trkpt>
      <trkpt lat="45.00734" lon="4.85905">
        <ele>117.83</ele>
        <time>2019-05-26T12:46:38.000Z</time>
      </trkpt>
      <trkpt lat="45.00691" lon="4.85928">
        <ele>118.34</ele>
        <time>2019-05-26T12:46:43.000Z</time>
      </trkpt>
      <trkpt lat="45.00647" lon="4.85952">
        <ele>119.1</ele>
        <time>2019-05-26T12:46:48.000Z</time>
      </trkpt>
      <trkpt lat="45.00603" lon="4.85977">
        <ele>118.15</ele>
        <time>2019-05-26T12:46:53.000Z</time>
      </trkpt>
      <trkpt lat="45.00559" lon="4.86002">
        <ele>118.21</ele>
        <time>2019-05-26T12:46:58.000Z</time>
      </trkpt>
      <trkpt lat="45.00517" lon="4.86025">
        <ele>118.15</ele>
        <time>2019-05-26T12:47:03.000Z</time>
      </trkpt>
      <trkpt lat="45.00474" lon="4.86048">
        <ele>118.15</ele>
        <time>2019-05-26T12:47:08.000Z</time>
      </trkpt>
      <trkpt lat="45.00432" lon="4.86073">
        <ele>118.15</ele>
        <time>2019-05-26T12:47:13.000Z</time>
      </trkpt>
      <trkpt lat="45.00392" lon="4.86096">
        <ele>117.9</ele>
        <time>2019-05-26T12:47:18.000Z</time>
      </trkpt>
      <trkpt lat="45.00352" lon="4.8612">
        <ele>117.38</ele>
        <time>2019-05-26T12:47:23.000Z</time>
      </trkpt>
      <trkpt lat="45.00312" lon="4.86143">
        <ele>115.41</ele>
        <time>2019-05-26T12:47:28.000Z</time>
      </trkpt>
      <trkpt lat="45.00271" lon="4.86166">
        <ele>116.85</ele>
        <time>2019-05-26T12:47:33.000Z</time>
      </trkpt>
      <trkpt lat="45.00232" lon="4.86188">
        <ele>117.33</ele>
        <time>2019-05-26T12:47:38.000Z</time>
      </trkpt>
      <trkpt lat="45.00193" lon="4.8621">
        <ele>116.39</ele>
        <time>2019-05-26T12:47:43.000Z</time>
      </trkpt>
      <trkpt lat="45.00153" lon="4.86231">
        <ele>117.14</ele>
        <time>2019-05-26T12:47:48.000Z</time>
      </trkpt>
      <trkpt lat="45.00114" lon="4.86253">
        <ele>117.88</ele>
        <time>2019-05-26T12:47:53.000Z</time>
      </trkpt>
      <trkpt lat="45.00073" lon="4.86276">
        <ele>118.14</ele>
        <time>2019-05-26T12:47:58.000Z</time>
      </trkpt>
      <trkpt lat="45.00032" lon="4.863">
        <ele>115.97</ele>
        <time>2019-05-26T12:48:03.000Z</time>
      </trkpt>
      <trkpt lat="44.99991" lon="4.86325">
        <ele>116.14</ele>
        <time>2019-05-26T12:48:08.000Z</time>
      </trkpt>
      <trkpt lat="44.9995" lon="4.86348">
        <ele>115.15</ele>
        <time>2019-05-26T12:48:13.000Z</time>
      </trkpt>
      <trkpt lat="44.9991" lon="4.8637">
        <ele>115.14</ele>
        <time>2019-05-26T12:48:18.000Z</time>
      </trkpt>
      <trkpt lat="44.9987" lon="4.86393">
        <ele>116.14</ele>
        <time>2019-05-26T12:48:23.000Z</time>
      </trkpt>
      <trkpt lat="44.9983" lon="4.86414">
        <ele>115.15</ele>
        <time>2019-05-26T12:48:28.000Z</time>
      </trkpt>
      <trkpt lat="44.99791" lon="4.86438">
        <ele>116.13</ele>
        <time>2019-05-26T12:48:33.000Z</time>
      </trkpt>
      <trkpt lat="44.99752" lon="4.8646">
        <ele>115.15</ele>
        <time>2019-05-26T12:48:38.000Z</time>
      </trkpt>
      <trkpt lat="44.99713" lon="4.86482">
        <ele>115.14</ele>
        <time>2019-05-26T12:48:43.000Z</time>
      </trkpt>
      <trkpt lat="44.99674" lon="4.86506">
        <ele>116.13</ele>
        <time>2019-05-26T12:48:48.000Z</time>
      </trkpt>
      <trkpt lat="44.99635" lon="4.86528">
        <ele>116.95</ele>
        <time>2019-05-26T12:48:53.000Z</time>
      </trkpt>
      <trkpt lat="44.99596" lon="4.86549">
        <ele>118.14</ele>
        <time>2019-05-26T12:48:58.000Z</time>
      </trkpt>
      <trkpt lat="44.99557" lon="4.8657">
        <ele>119.14</ele>
        <time>2019-05-26T12:49:03.000Z</time>
      </trkpt>
      <trkpt lat="44.9952" lon="4.86591">
        <ele>118.16</ele>
        <time>2019-05-26T12:49:08.000Z</time>
      </trkpt>
      <trkpt lat="44.99482" lon="4.86613">
        <ele>116.17</ele>
        <time>2019-05-26T12:49:13.000Z</time>
      </trkpt>
      <trkpt lat="44.99445" lon="4.86633">
        <ele>115.16</ele>
        <time>2019-05-26T12:49:18.000Z</time>
      </trkpt>
      <trkpt lat="44.99409" lon="4.86654">
        <ele>117.08</ele>
        <time>2019-05-26T12:49:23.000Z</time>
      </trkpt>
      <trkpt lat="44.99372" lon="4.86676">
        <ele>117.89</ele>
        <time>2019-05-26T12:49:28.000Z</time>
      </trkpt>
      <trkpt lat="44.99335" lon="4.86695">
        <ele>117.45</ele>
        <time>2019-05-26T12:49:33.000Z</time>
      </trkpt>
      <trkpt lat="44.993" lon="4.86713">
        <ele>116.15</ele>
        <time>2019-05-26T12:49:38.000Z</time>
      </trkpt>
      <trkpt lat="44.99286" lon="4.86743">
        <ele>117.14</ele>
        <time>2019-05-26T12:49:43.000Z</time>
      </trkpt>
      <trkpt lat="44.99314" lon="4.86757">
        <ele>117.89</ele>
        <time>2019-05-26T12:49:48.000Z</time>
      </trkpt>
      <trkpt lat="44.99343" lon="4.86772">
        <ele>118.14</ele>
        <time>2019-05-26T12:49:53.000Z</time>
      </trkpt>
      <trkpt lat="44.99372" lon="4.86788">
        <ele>119.14</ele>
        <time>2019-05-26T12:49:58.000Z</time>
      </trkpt>
      <trkpt lat="44.99402" lon="4.86804">
        <ele>118.16</ele>
        <time>2019-05-26T12:50:03.000Z</time>
      </trkpt>
      <trkpt lat="44.99431" lon="4.8682">
        <ele>118.08</ele>
        <time>2019-05-26T12:50:08.000Z</time>
      </trkpt>
      <trkpt lat="44.99456" lon="4.86839">
        <ele>117.16</ele>
        <time>2019-05-26T12:50:13.000Z</time>
      </trkpt>
      <trkpt lat="44.99482" lon="4.86859">
        <ele>115.4</ele>
        <time>2019-05-26T12:50:18.000Z</time>
      </trkpt>
      <trkpt lat="44.99507" lon="4.86878">
        <ele>115.1</ele>
        <time>2019-05-26T12:50:23.000Z</time>
      </trkpt>
      <trkpt lat="44.99524" lon="4.8689">
        <ele>116.13</ele>
        <time>2019-05-26T12:50:28.000Z</time>
      </trkpt>
      <trkpt lat="44.99514" lon="4.8691">
        <ele>117.13</ele>
        <time>2019-05-26T12:50:33.000Z</time>
      </trkpt>
      <trkpt lat="44.99502" lon="4.86933">
        <ele>119.84</ele>
        <time>2019-05-26T12:50:38.000Z</time>
      </trkpt>
      <trkpt lat="44.99488" lon="4.86963">
        <ele>121.14</ele>
        <time>2019-05-26T12:50:43.000Z</time>
      </trkpt>
      <trkpt lat="44.99472" lon="4.86994">
        <ele>121.21</ele>
        <time>2019-05-26T12:50:48.000Z</time>
      </trkpt>
      <trkpt lat="44.99455" lon="4.87029">
        <ele>121.96</ele>
        <time>2019-05-26T12:50:53.000Z</time>
      </trkpt>
      <trkpt lat="44.99438" lon="4.87064">
        <ele>122.15</ele>
        <time>2019-05-26T12:50:58.000Z</time>
      </trkpt>
      <trkpt lat="44.99421" lon="4.87097">
        <ele>122.15</ele>
        <time>2019-05-26T12:51:03.000Z</time>
      </trkpt>
      <trkpt lat="44.99402" lon="4.87106">
        <ele>120.23</ele>
        <time>2019-05-26T12:51:08.000Z</time>
      </trkpt>
      <trkpt lat="44.99374" lon="4.87086">
        <ele>118.4</ele>
        <time>2019-05-26T12:51:13.000Z</time>
      </trkpt>
      <trkpt lat="44.99342" lon="4.87071">
        <ele>118.15</ele>
        <time>2019-05-26T12:51:18.000Z</time>
      </trkpt>
      <trkpt lat="44.99308" lon="4.8706">
        <ele>117.16</ele>
        <time>2019-05-26T12:51:23.000Z</time>
      </trkpt>
      <trkpt lat="44.99274" lon="4.87052">
        <ele>116.38</ele>
        <time>2019-05-26T12:51:28.000Z</time>
      </trkpt>
      <trkpt lat="44.99239" lon="4.87041">
        <ele>116.39</ele>
        <time>2019-05-26T12:51:33.000Z</time>
      </trkpt>
      <trkpt lat="44.99204" lon="4.87029">
        <ele>115.21</ele>
        <time>2019-05-26T12:51:38.000Z</time>
      </trkpt>
      <trkpt lat="44.99171" lon="4.87014">
        <ele>116.1</ele>
        <time>2019-05-26T12:51:43.000Z</time>
      </trkpt>
      <trkpt lat="44.99137" lon="4.86998">
        <ele>116.89</ele>
        <time>2019-05-26T12:51:48.000Z</time>
      </trkpt>
      <trkpt lat="44.99104" lon="4.8698">
        <ele>116.16</ele>
        <time>2019-05-26T12:51:53.000Z</time>
      </trkpt>
      <trkpt lat="44.99073" lon="4.86964">
        <ele>115.15</ele>
        <time>2019-05-26T12:51:58.000Z</time>
      </trkpt>
      <trkpt lat="44.99043" lon="4.86942">
        <ele>114.92</ele>
        <time>2019-05-26T12:52:03.000Z</time>
      </trkpt>
      <trkpt lat="44.99017" lon="4.86916">
        <ele>115.39</ele>
        <time>2019-05-26T12:52:08.000Z</time>
      </trkpt>
      <trkpt lat="44.98994" lon="4.86888">
        <ele>115.14</ele>
        <time>2019-05-26T12:52:13.000Z</time>
      </trkpt>
      <trkpt lat="44.98969" lon="4.8686">
        <ele>115.38</ele>
        <time>2019-05-26T12:52:18.000Z</time>
      </trkpt>
      <trkpt lat="44.9894" lon="4.86838">
        <ele>116.14</ele>
        <time>2019-05-26T12:52:23.000Z</time>
      </trkpt>
      <trkpt lat="44.98909" lon="4.8682">
        <ele>115.9</ele>
        <time>2019-05-26T12:52:28.000Z</time>
      </trkpt>
      <trkpt lat="44.98876" lon="4.86802">
        <ele>116.08</ele>
        <time>2019-05-26T12:52:33.000Z</time>
      </trkpt>
      <trkpt lat="44.98843" lon="4.86784">
        <ele>115.39</ele>
        <time>2019-05-26T12:52:38.000Z</time>
      </trkpt>
      <trkpt lat="44.98811" lon="4.86766">
        <ele>116.32</ele>
        <time>2019-05-26T12:52:43.000Z</time>
      </trkpt>
      <trkpt lat="44.9878" lon="4.86748">
        <ele>118.14</ele>
        <time>2019-05-26T12:52:48.000Z</time>
      </trkpt>
      <trkpt lat="44.98748" lon="4.86728">
        <ele>116.91</ele>
        <time>2019-05-26T12:52:53.000Z</time>
      </trkpt>
      <trkpt lat="44.98716" lon="4.86706">
        <ele>116.9</ele>
        <time>2019-05-26T12:52:58.000Z</time>
      </trkpt>
      <trkpt lat="44.98685" lon="4.86682">
        <ele>116.89</ele>
        <time>2019-05-26T12:53:03.000Z</time>
      </trkpt>
      <trkpt lat="44.98656" lon="4.86658">
        <ele>117.34</ele>
        <time>2019-05-26T12:53:08.000Z</time>
      </trkpt>
      <trkpt lat="44.98629" lon="4.86633">
        <ele>117.08</ele>
        <time>2019-05-26T12:53:13.000Z</time>
      </trkpt>
      <trkpt lat="44.98602" lon="4.86606">
        <ele>116.2</ele>
        <time>2019-05-26T12:53:18.000Z</time>
      </trkpt>
      <trkpt lat="44.98576" lon="4.86576">
        <ele>116.14</ele>
        <time>2019-05-26T12:53:23.000Z</time>
      </trkpt>
      <trkpt lat="44.98554" lon="4.86545">
        <ele>116.14</ele>
        <time>2019-05-26T12:53:28.000Z</time>
      </trkpt>
      <trkpt lat="44.98532" lon="4.86513">
        <ele>116.14</ele>
        <time>2019-05-26T12:53:33.000Z</time>
      </trkpt>
      <trkpt lat="44.9851" lon="4.8648">
        <ele>116.2</ele>
        <time>2019-05-26T12:53:38.000Z</time>
      </trkpt>
      <trkpt lat="44.9849" lon="4.86446">
        <ele>115.14</ele>
        <time>2019-05-26T12:53:43.000Z</time>
      </trkpt>
      <trkpt lat="44.9847" lon="4.8641">
        <ele>115.09</ele>
        <time>2019-05-26T12:53:48.000Z</time>
      </trkpt>
      <trkpt lat="44.9845" lon="4.86374">
        <ele>114.9</ele>
        <time>2019-05-26T12:53:53.000Z</time>
      </trkpt>
      <trkpt lat="44.98432" lon="4.8634">
        <ele>116.86</ele>
        <time>2019-05-26T12:53:58.000Z</time>
      </trkpt>
      <trkpt lat="44.98414" lon="4.86305">
        <ele>117.14</ele>
        <time>2019-05-26T12:54:03.000Z</time>
      </trkpt>
      <trkpt lat="44.98396" lon="4.86267">
        <ele>116.95</ele>
        <time>2019-05-26T12:54:08.000Z</time>
      </trkpt>
      <trkpt lat="44.98381" lon="4.8623">
        <ele>116.89</ele>
        <time>2019-05-26T12:54:13.000Z</time>
      </trkpt>
      <trkpt lat="44.98366" lon="4.86192">
        <ele>115.2</ele>
        <time>2019-05-26T12:54:18.000Z</time>
      </trkpt>
      <trkpt lat="44.9835" lon="4.86156">
        <ele>116.13</ele>
        <time>2019-05-26T12:54:23.000Z</time>
      </trkpt>
      <trkpt lat="44.98333" lon="4.86121">
        <ele>115.13</ele>
        <time>2019-05-26T12:54:28.000Z</time>
      </trkpt>
      <trkpt lat="44.98316" lon="4.86087">
        <ele>116.37</ele>
        <time>2019-05-26T12:54:33.000Z</time>
      </trkpt>
      <trkpt lat="44.98298" lon="4.86056">
        <ele>116.13</ele>
        <time>2019-05-26T12:54:38.000Z</time>
      </trkpt>
      <trkpt lat="44.98277" lon="4.86023">
        <ele>115.38</ele>
        <time>2019-05-26T12:54:43.000Z</time>
      </trkpt>
      <trkpt lat="44.98256" lon="4.85993">
        <ele>116.13</ele>
        <time>2019-05-26T12:54:48.000Z</time>
      </trkpt>
      <trkpt lat="44.98232" lon="4.85968">
        <ele>117.11</ele>
        <time>2019-05-26T12:54:53.000Z</time>
      </trkpt>
      <trkpt lat="44.9821" lon="4.85944">
        <ele>117.13</ele>
        <time>2019-05-26T12:54:58.000Z</time>
      </trkpt>
      <trkpt lat="44.98185" lon="4.85922">
        <ele>117.88</ele>
        <time>2019-05-26T12:55:03.000Z</time>
      </trkpt>
      <trkpt lat="44.98158" lon="4.859">
        <ele>117.19</ele>
        <time>2019-05-26T12:55:08.000Z</time>
      </trkpt>
      <trkpt lat="44.9813" lon="4.85881">
        <ele>118.12</ele>
        <time>2019-05-26T12:55:13.000Z</time>
      </trkpt>
      <trkpt lat="44.98099" lon="4.85866">
        <ele>117.13</ele>
        <time>2019-05-26T12:55:18.000Z</time>
      </trkpt>
      <trkpt lat="44.98068" lon="4.85853">
        <ele>117.13</ele>
        <time>2019-05-26T12:55:23.000Z</time>
      </trkpt>
      <trkpt lat="44.98036" lon="4.85842">
        <ele>117.13</ele>
        <time>2019-05-26T12:55:28.000Z</time>
      </trkpt>
      <trkpt lat="44.98001" lon="4.85837">
        <ele>116.13</ele>
        <time>2019-05-26T12:55:33.000Z</time>
      </trkpt>
      <trkpt lat="44.97966" lon="4.85833">
        <ele>116.13</ele>
        <time>2019-05-26T12:55:38.000Z</time>
      </trkpt>
      <trkpt lat="44.97931" lon="4.85832">
        <ele>117.12</ele>
        <time>2019-05-26T12:55:43.000Z</time>
      </trkpt>
      <trkpt lat="44.97896" lon="4.85833">
        <ele>117.13</ele>
        <time>2019-05-26T12:55:48.000Z</time>
      </trkpt>
      <trkpt lat="44.97861" lon="4.85835">
        <ele>117.13</ele>
        <time>2019-05-26T12:55:53.000Z</time>
      </trkpt>
      <trkpt lat="44.97824" lon="4.85838">
        <ele>117.13</ele>
        <time>2019-05-26T12:55:58.000Z</time>
      </trkpt>
      <trkpt lat="44.97789" lon="4.85843">
        <ele>118.07</ele>
        <time>2019-05-26T12:56:03.000Z</time>
      </trkpt>
      <trkpt lat="44.97753" lon="4.85851">
        <ele>118.12</ele>
        <time>2019-05-26T12:56:08.000Z</time>
      </trkpt>
      <trkpt lat="44.97718" lon="4.85861">
        <ele>118.12</ele>
        <time>2019-05-26T12:56:13.000Z</time>
      </trkpt>
      <trkpt lat="44.97681" lon="4.85871">
        <ele>118.31</ele>
        <time>2019-05-26T12:56:18.000Z</time>
      </trkpt>
      <trkpt lat="44.97645" lon="4.85886">
        <ele>118.17</ele>
        <time>2019-05-26T12:56:23.000Z</time>
      </trkpt>
      <trkpt lat="44.97608" lon="4.85902">
        <ele>116.38</ele>
        <time>2019-05-26T12:56:28.000Z</time>
      </trkpt>
      <trkpt lat="44.97571" lon="4.85922">
        <ele>115.94</ele>
        <time>2019-05-26T12:56:33.000Z</time>
      </trkpt>
      <trkpt lat="44.97534" lon="4.85942">
        <ele>117.87</ele>
        <time>2019-05-26T12:56:38.000Z</time>
      </trkpt>
      <trkpt lat="44.97497" lon="4.85964">
        <ele>118.07</ele>
        <time>2019-05-26T12:56:43.000Z</time>
      </trkpt>
      <trkpt lat="44.9746" lon="4.85988">
        <ele>117.13</ele>
        <time>2019-05-26T12:56:48.000Z</time>
      </trkpt>
      <trkpt lat="44.97422" lon="4.8601">
        <ele>118.12</ele>
        <time>2019-05-26T12:56:53.000Z</time>
      </trkpt>
      <trkpt lat="44.97397" lon="4.86033">
        <ele>119.12</ele>
        <time>2019-05-26T12:56:58.000Z</time>
      </trkpt>
      <trkpt lat="44.97407" lon="4.86065">
        <ele>117.2</ele>
        <time>2019-05-26T12:57:03.000Z</time>
      </trkpt>
      <trkpt lat="44.97417" lon="4.86094">
        <ele>115.19</ele>
        <time>2019-05-26T12:57:08.000Z</time>
      </trkpt>
      <trkpt lat="44.97426" lon="4.86127">
        <ele>116.07</ele>
        <time>2019-05-26T12:57:13.000Z</time>
      </trkpt>
      <trkpt lat="44.97426" lon="4.86161">
        <ele>116.13</ele>
        <time>2019-05-26T12:57:18.000Z</time>
      </trkpt>
      <trkpt lat="44.97401" lon="4.86181">
        <ele>117.12</ele>
        <time>2019-05-26T12:57:23.000Z</time>
      </trkpt>
      <trkpt lat="44.97381" lon="4.86207">
        <ele>119.12</ele>
        <time>2019-05-26T12:57:28.000Z</time>
      </trkpt>
      <trkpt lat="44.97363" lon="4.8624">
        <ele>118.14</ele>
        <time>2019-05-26T12:57:33.000Z</time>
      </trkpt>
      <trkpt lat="44.9735" lon="4.86278">
        <ele>117.19</ele>
        <time>2019-05-26T12:57:38.000Z</time>
      </trkpt>
      <trkpt lat="44.9734" lon="4.86321">
        <ele>116.13</ele>
        <time>2019-05-26T12:57:43.000Z</time>
      </trkpt>
      <trkpt lat="44.97331" lon="4.86361">
        <ele>115.82</ele>
        <time>2019-05-26T12:57:48.000Z</time>
      </trkpt>
      <trkpt lat="44.97324" lon="4.86399">
        <ele>116.27</ele>
        <time>2019-05-26T12:57:53.000Z</time>
      </trkpt>
      <trkpt lat="44.97316" lon="4.86434">
        <ele>117.08</ele>
        <time>2019-05-26T12:57:58.000Z</time>
      </trkpt>
      <trkpt lat="44.9731" lon="4.8647">
        <ele>118.06</ele>
        <time>2019-05-26T12:58:03.000Z</time>
      </trkpt>
      <trkpt lat="44.97304" lon="4.86502">
        <ele>118.88</ele>
        <time>2019-05-26T12:58:08.000Z</time>
      </trkpt>
      <trkpt lat="44.97297" lon="4.86535">
        <ele>118.88</ele>
        <time>2019-05-26T12:58:13.000Z</time>
      </trkpt>
      <trkpt lat="44.97289" lon="4.86568">
        <ele>121.06</ele>
        <time>2019-05-26T12:58:18.000Z</time>
      </trkpt>
      <trkpt lat="44.97282" lon="4.86596">
        <ele>122.87</ele>
        <time>2019-05-26T12:58:23.000Z</time>
      </trkpt>
      <trkpt lat="44.97275" lon="4.86621">
        <ele>124.31</ele>
        <time>2019-05-26T12:58:28.000Z</time>
      </trkpt>
      <trkpt lat="44.97265" lon="4.86637">
        <ele>124.86</ele>
        <time>2019-05-26T12:58:33.000Z</time>
      </trkpt>
      <trkpt lat="44.97257" lon="4.86659">
        <ele>126.13</ele>
        <time>2019-05-26T12:58:38.000Z</time>
      </trkpt>
      <trkpt lat="44.97252" lon="4.86685">
        <ele>128.05</ele>
        <time>2019-05-26T12:58:43.000Z</time>
      </trkpt>
      <trkpt lat="44.97247" lon="4.86712">
        <ele>129.11</ele>
        <time>2019-05-26T12:58:48.000Z</time>
      </trkpt>
      <trkpt lat="44.97242" lon="4.86741">
        <ele>128.88</ele>
        <time>2019-05-26T12:58:53.000Z</time>
      </trkpt>
      <trkpt lat="44.97236" lon="4.86774">
        <ele>128.15</ele>
        <time>2019-05-26T12:58:58.000Z</time>
      </trkpt>
      <trkpt lat="44.97229" lon="4.86808">
        <ele>128.93</ele>
        <time>2019-05-26T12:59:03.000Z</time>
      </trkpt>
      <trkpt lat="44.97221" lon="4.86843">
        <ele>129.13</ele>
        <time>2019-05-26T12:59:08.000Z</time>
      </trkpt>
      <trkpt lat="44.97213" lon="4.86878">
        <ele>128.15</ele>
        <time>2019-05-26T12:59:13.000Z</time>
      </trkpt>
      <trkpt lat="44.97204" lon="4.86916">
        <ele>128.13</ele>
        <time>2019-05-26T12:59:18.000Z</time>
      </trkpt>
      <trkpt lat="44.97192" lon="4.86955">
        <ele>128.19</ele>
        <time>2019-05-26T12:59:23.000Z</time>
      </trkpt>
      <trkpt lat="44.97179" lon="4.86994">
        <ele>128.13</ele>
        <time>2019-05-26T12:59:28.000Z</time>
      </trkpt>
      <trkpt lat="44.97167" lon="4.87034">
        <ele>128.36</ele>
        <time>2019-05-26T12:59:33.000Z</time>
      </trkpt>
      <trkpt lat="44.97156" lon="4.87074">
        <ele>127.88</ele>
        <time>2019-05-26T12:59:38.000Z</time>
      </trkpt>
      <trkpt lat="44.97143" lon="4.87112">
        <ele>128.13</ele>
        <time>2019-05-26T12:59:43.000Z</time>
      </trkpt>
      <trkpt lat="44.9713" lon="4.8715">
        <ele>127.15</ele>
        <time>2019-05-26T12:59:48.000Z</time>
      </trkpt>
      <trkpt lat="44.97118" lon="4.87185">
        <ele>126.88</ele>
        <time>2019-05-26T12:59:53.000Z</time>
      </trkpt>
      <trkpt lat="44.97105" lon="4.87222">
        <ele>127.88</ele>
        <time>2019-05-26T12:59:58.000Z</time>
      </trkpt>
      <trkpt lat="44.9709" lon="4.87258">
        <ele>128.94</ele>
        <time>2019-05-26T13:00:03.000Z</time>
      </trkpt>
      <trkpt lat="44.97079" lon="4.87295">
        <ele>128.15</ele>
        <time>2019-05-26T13:00:08.000Z</time>
      </trkpt>
      <trkpt lat="44.97065" lon="4.87331">
        <ele>130.1</ele>
        <time>2019-05-26T13:00:13.000Z</time>
      </trkpt>
      <trkpt lat="44.97054" lon="4.87368">
        <ele>129.15</ele>
        <time>2019-05-26T13:00:18.000Z</time>
      </trkpt>
      <trkpt lat="44.97042" lon="4.87396">
        <ele>129.18</ele>
        <time>2019-05-26T13:00:23.000Z</time>
      </trkpt>
      <trkpt lat="44.97032" lon="4.87429">
        <ele>130.13</ele>
        <time>2019-05-26T13:00:28.000Z</time>
      </trkpt>
      <trkpt lat="44.97016" lon="4.87463">
        <ele>129.38</ele>
        <time>2019-05-26T13:00:33.000Z</time>
      </trkpt>
      <trkpt lat="44.96991" lon="4.87484">
        <ele>128.15</ele>
        <time>2019-05-26T13:00:38.000Z</time>
      </trkpt>
      <trkpt lat="44.96958" lon="4.87479">
        <ele>128.15</ele>
        <time>2019-05-26T13:00:43.000Z</time>
      </trkpt>
      <trkpt lat="44.96923" lon="4.87476">
        <ele>128.13</ele>
        <time>2019-05-26T13:00:48.000Z</time>
      </trkpt>
      <trkpt lat="44.96886" lon="4.87471">
        <ele>127.2</ele>
        <time>2019-05-26T13:00:53.000Z</time>
      </trkpt>
      <trkpt lat="44.96846" lon="4.87468">
        <ele>125.38</ele>
        <time>2019-05-26T13:00:58.000Z</time>
      </trkpt>
      <trkpt lat="44.96804" lon="4.87467">
        <ele>124.2</ele>
        <time>2019-05-26T13:01:03.000Z</time>
      </trkpt>
      <trkpt lat="44.96758" lon="4.87459">
        <ele>123.2</ele>
        <time>2019-05-26T13:01:08.000Z</time>
      </trkpt>
      <trkpt lat="44.96715" lon="4.87433">
        <ele>119.22</ele>
        <time>2019-05-26T13:01:13.000Z</time>
      </trkpt>
      <trkpt lat="44.96685" lon="4.87384">
        <ele>118.19</ele>
        <time>2019-05-26T13:01:18.000Z</time>
      </trkpt>
      <trkpt lat="44.96652" lon="4.87349">
        <ele>118.41</ele>
        <time>2019-05-26T13:01:23.000Z</time>
      </trkpt>
      <trkpt lat="44.9662" lon="4.87316">
        <ele>117.13</ele>
        <time>2019-05-26T13:01:28.000Z</time>
      </trkpt>
      <trkpt lat="44.96593" lon="4.87286">
        <ele>117.13</ele>
        <time>2019-05-26T13:01:33.000Z</time>
      </trkpt>
      <trkpt lat="44.96559" lon="4.87285">
        <ele>117.13</ele>
        <time>2019-05-26T13:01:38.000Z</time>
      </trkpt>
      <trkpt lat="44.96526" lon="4.87267">
        <ele>116.38</ele>
        <time>2019-05-26T13:01:43.000Z</time>
      </trkpt>
      <trkpt lat="44.96507" lon="4.87233">
        <ele>116.13</ele>
        <time>2019-05-26T13:01:48.000Z</time>
      </trkpt>
      <trkpt lat="44.965" lon="4.87194">
        <ele>117.88</ele>
        <time>2019-05-26T13:01:53.000Z</time>
      </trkpt>
      <trkpt lat="44.96482" lon="4.87163">
        <ele>119.07</ele>
        <time>2019-05-26T13:01:58.000Z</time>
      </trkpt>
      <trkpt lat="44.96455" lon="4.87137">
        <ele>118.19</ele>
        <time>2019-05-26T13:02:03.000Z</time>
      </trkpt>
      <trkpt lat="44.96428" lon="4.87151">
        <ele>117.13</ele>
        <time>2019-05-26T13:02:08.000Z</time>
      </trkpt>
      <trkpt lat="44.96406" lon="4.87185">
        <ele>116.88</ele>
        <time>2019-05-26T13:02:13.000Z</time>
      </trkpt>
      <trkpt lat="44.96375" lon="4.8721">
        <ele>116.13</ele>
        <time>2019-05-26T13:02:18.000Z</time>
      </trkpt>
      <trkpt lat="44.96347" lon="4.87235">
        <ele>115.88</ele>
        <time>2019-05-26T13:02:23.000Z</time>
      </trkpt>
      <trkpt lat="44.9632" lon="4.87262">
        <ele>115.13</ele>
        <time>2019-05-26T13:02:28.000Z</time>
      </trkpt>
      <trkpt lat="44.96293" lon="4.87296">
        <ele>115.69</ele>
        <time>2019-05-26T13:02:33.000Z</time>
      </trkpt>
      <trkpt lat="44.96282" lon="4.87342">
        <ele>117.86</ele>
        <time>2019-05-26T13:02:38.000Z</time>
      </trkpt>
      <trkpt lat="44.96283" lon="4.87384">
        <ele>117.14</ele>
        <time>2019-05-26T13:02:50.000Z</time>
      </trkpt>
      <trkpt lat="44.96294" lon="4.87425">
        <ele>116.94</ele>
        <time>2019-05-26T13:02:55.000Z</time>
      </trkpt>
      <trkpt lat="44.96304" lon="4.87462">
        <ele>118.07</ele>
        <time>2019-05-26T13:03:31.000Z</time>
      </trkpt>
      <trkpt lat="44.96283" lon="4.87487">
        <ele>117.14</ele>
        <time>2019-05-26T13:03:36.000Z</time>
      </trkpt>
      <trkpt lat="44.96263" lon="4.87517">
        <ele>115.9</ele>
        <time>2019-05-26T13:03:41.000Z</time>
      </trkpt>
      <trkpt lat="44.96252" lon="4.87532">
        <ele>114.18</ele>
        <time>2019-05-26T13:03:46.000Z</time>
      </trkpt>
      <trkpt lat="44.96234" lon="4.8753">
        <ele>114.13</ele>
        <time>2019-05-26T13:03:51.000Z</time>
      </trkpt>
      <trkpt lat="44.96207" lon="4.87527">
        <ele>115.07</ele>
        <time>2019-05-26T13:03:56.000Z</time>
      </trkpt>
      <trkpt lat="44.96178" lon="4.87521">
        <ele>114.13</ele>
        <time>2019-05-26T13:04:01.000Z</time>
      </trkpt>
      <trkpt lat="44.96158" lon="4.8754">
        <ele>114.38</ele>
        <time>2019-05-26T13:04:06.000Z</time>
      </trkpt>
      <trkpt lat="44.96139" lon="4.87568">
        <ele>114.08</ele>
        <time>2019-05-26T13:04:11.000Z</time>
      </trkpt>
      <trkpt lat="44.96118" lon="4.87598">
        <ele>114.88</ele>
        <time>2019-05-26T13:04:16.000Z</time>
      </trkpt>
      <trkpt lat="44.96098" lon="4.87627">
        <ele>114.13</ele>
        <time>2019-05-26T13:04:21.000Z</time>
      </trkpt>
      <trkpt lat="44.96079" lon="4.87653">
        <ele>115.13</ele>
        <time>2019-05-26T13:04:26.000Z</time>
      </trkpt>
      <trkpt lat="44.96058" lon="4.87679">
        <ele>115.13</ele>
        <time>2019-05-26T13:04:31.000Z</time>
      </trkpt>
      <trkpt lat="44.96037" lon="4.87704">
        <ele>115.13</ele>
        <time>2019-05-26T13:04:36.000Z</time>
      </trkpt>
      <trkpt lat="44.96014" lon="4.87729">
        <ele>116.32</ele>
        <time>2019-05-26T13:04:41.000Z</time>
      </trkpt>
      <trkpt lat="44.95987" lon="4.8775">
        <ele>115.38</ele>
        <time>2019-05-26T13:04:46.000Z</time>
      </trkpt>
      <trkpt lat="44.95956" lon="4.87777">
        <ele>114.33</ele>
        <time>2019-05-26T13:04:51.000Z</time>
      </trkpt>
      <trkpt lat="44.9592" lon="4.87799">
        <ele>113.13</ele>
        <time>2019-05-26T13:04:56.000Z</time>
      </trkpt>
      <trkpt lat="44.95887" lon="4.87826">
        <ele>112.13</ele>
        <time>2019-05-26T13:05:01.000Z</time>
      </trkpt>
      <trkpt lat="44.95855" lon="4.87853">
        <ele>111.13</ele>
        <time>2019-05-26T13:05:06.000Z</time>
      </trkpt>
      <trkpt lat="44.95822" lon="4.87876">
        <ele>110.38</ele>
        <time>2019-05-26T13:05:11.000Z</time>
      </trkpt>
      <trkpt lat="44.95785" lon="4.879">
        <ele>110.13</ele>
        <time>2019-05-26T13:05:16.000Z</time>
      </trkpt>
      <trkpt lat="44.9575" lon="4.87922">
        <ele>110.13</ele>
        <time>2019-05-26T13:05:21.000Z</time>
      </trkpt>
      <trkpt lat="44.95714" lon="4.87942">
        <ele>109.13</ele>
        <time>2019-05-26T13:05:26.000Z</time>
      </trkpt>
      <trkpt lat="44.95678" lon="4.8796">
        <ele>110.86</ele>
        <time>2019-05-26T13:05:31.000Z</time>
      </trkpt>
      <trkpt lat="44.95642" lon="4.87976">
        <ele>110.14</ele>
        <time>2019-05-26T13:05:36.000Z</time>
      </trkpt>
      <trkpt lat="44.95604" lon="4.87992">
        <ele>109.93</ele>
        <time>2019-05-26T13:05:41.000Z</time>
      </trkpt>
      <trkpt lat="44.95566" lon="4.88005">
        <ele>110.88</ele>
        <time>2019-05-26T13:05:46.000Z</time>
      </trkpt>
      <trkpt lat="44.95527" lon="4.88019">
        <ele>109.9</ele>
        <time>2019-05-26T13:05:51.000Z</time>
      </trkpt>
      <trkpt lat="44.95489" lon="4.88033">
        <ele>110.13</ele>
        <time>2019-05-26T13:05:56.000Z</time>
      </trkpt>
      <trkpt lat="44.9545" lon="4.88051">
        <ele>110.36</ele>
        <time>2019-05-26T13:06:01.000Z</time>
      </trkpt>
      <trkpt lat="44.95413" lon="4.88068">
        <ele>110.19</ele>
        <time>2019-05-26T13:06:06.000Z</time>
      </trkpt>
      <trkpt lat="44.95376" lon="4.88084">
        <ele>110.13</ele>
        <time>2019-05-26T13:06:11.000Z</time>
      </trkpt>
      <trkpt lat="44.95338" lon="4.881">
        <ele>110.07</ele>
        <time>2019-05-26T13:06:16.000Z</time>
      </trkpt>
      <trkpt lat="44.95301" lon="4.88115">
        <ele>112.11</ele>
        <time>2019-05-26T13:06:21.000Z</time>
      </trkpt>
      <trkpt lat="44.95265" lon="4.8813">
        <ele>111.13</ele>
        <time>2019-05-26T13:06:26.000Z</time>
      </trkpt>
      <trkpt lat="44.95229" lon="4.88147">
        <ele>111.19</ele>
        <time>2019-05-26T13:06:31.000Z</time>
      </trkpt>
      <trkpt lat="44.95193" lon="4.88166">
        <ele>112.13</ele>
        <time>2019-05-26T13:06:36.000Z</time>
      </trkpt>
      <trkpt lat="44.95157" lon="4.8818">
        <ele>112.12</ele>
        <time>2019-05-26T13:06:41.000Z</time>
      </trkpt>
      <trkpt lat="44.9512" lon="4.88197">
        <ele>112.36</ele>
        <time>2019-05-26T13:06:46.000Z</time>
      </trkpt>
      <trkpt lat="44.95083" lon="4.88211">
        <ele>112.13</ele>
        <time>2019-05-26T13:06:51.000Z</time>
      </trkpt>
      <trkpt lat="44.95048" lon="4.88227">
        <ele>113.31</ele>
        <time>2019-05-26T13:06:56.000Z</time>
      </trkpt>
      <trkpt lat="44.95013" lon="4.88241">
        <ele>114.11</ele>
        <time>2019-05-26T13:07:01.000Z</time>
      </trkpt>
      <trkpt lat="44.94978" lon="4.88258">
        <ele>114.88</ele>
        <time>2019-05-26T13:07:06.000Z</time>
      </trkpt>
      <trkpt lat="44.94944" lon="4.88272">
        <ele>114.13</ele>
        <time>2019-05-26T13:07:11.000Z</time>
      </trkpt>
      <trkpt lat="44.9491" lon="4.88288">
        <ele>113.94</ele>
        <time>2019-05-26T13:07:16.000Z</time>
      </trkpt>
      <trkpt lat="44.94875" lon="4.88302">
        <ele>114.13</ele>
        <time>2019-05-26T13:07:21.000Z</time>
      </trkpt>
      <trkpt lat="44.9484" lon="4.88318">
        <ele>114.14</ele>
        <time>2019-05-26T13:07:26.000Z</time>
      </trkpt>
      <trkpt lat="44.94806" lon="4.88333">
        <ele>114.13</ele>
        <time>2019-05-26T13:07:31.000Z</time>
      </trkpt>
      <trkpt lat="44.94773" lon="4.88351">
        <ele>113.36</ele>
        <time>2019-05-26T13:07:36.000Z</time>
      </trkpt>
      <trkpt lat="44.94738" lon="4.88365">
        <ele>113.13</ele>
        <time>2019-05-26T13:07:41.000Z</time>
      </trkpt>
      <trkpt lat="44.94703" lon="4.88381">
        <ele>111.38</ele>
        <time>2019-05-26T13:07:47.000Z</time>
      </trkpt>
      <trkpt lat="44.94669" lon="4.88395">
        <ele>112.11</ele>
        <time>2019-05-26T13:07:52.000Z</time>
      </trkpt>
      <trkpt lat="44.94635" lon="4.8841">
        <ele>112.88</ele>
        <time>2019-05-26T13:07:57.000Z</time>
      </trkpt>
      <trkpt lat="44.94601" lon="4.88427">
        <ele>113.06</ele>
        <time>2019-05-26T13:08:02.000Z</time>
      </trkpt>
      <trkpt lat="44.94567" lon="4.88441">
        <ele>112.89</ele>
        <time>2019-05-26T13:08:07.000Z</time>
      </trkpt>
      <trkpt lat="44.94539" lon="4.88455">
        <ele>111.19</ele>
        <time>2019-05-26T13:08:29.000Z</time>
      </trkpt>
      <trkpt lat="44.94529" lon="4.8848">
        <ele>112.11</ele>
        <time>2019-05-26T13:08:34.000Z</time>
      </trkpt>
      <trkpt lat="44.9452" lon="4.8851">
        <ele>112.37</ele>
        <time>2019-05-26T13:08:39.000Z</time>
      </trkpt>
      <trkpt lat="44.94512" lon="4.88539">
        <ele>113.12</ele>
        <time>2019-05-26T13:08:44.000Z</time>
      </trkpt>
      <trkpt lat="44.94505" lon="4.88569">
        <ele>113.06</ele>
        <time>2019-05-26T13:08:49.000Z</time>
      </trkpt>
      <trkpt lat="44.94489" lon="4.88594">
        <ele>114.12</ele>
        <time>2019-05-26T13:08:54.000Z</time>
      </trkpt>
      <trkpt lat="44.94474" lon="4.8861">
        <ele>114.19</ele>
        <time>2019-05-26T13:08:59.000Z</time>
      </trkpt>
      <trkpt lat="44.94461" lon="4.88599">
        <ele>113.13</ele>
        <time>2019-05-26T13:09:04.000Z</time>
      </trkpt>
      <trkpt lat="44.94467" lon="4.88613">
        <ele>116.06</ele>
        <time>2019-05-26T13:09:09.000Z</time>
      </trkpt>
      <trkpt lat="44.94478" lon="4.88631">
        <ele>116.31</ele>
        <time>2019-05-26T13:09:14.000Z</time>
      </trkpt>
      <trkpt lat="44.94485" lon="4.88643">
        <ele>117.13</ele>
        <time>2019-05-26T13:09:19.000Z</time>
      </trkpt>
      <trkpt lat="44.94489" lon="4.88662">
        <ele>118.11</ele>
        <time>2019-05-26T13:09:24.000Z</time>
      </trkpt>
      <trkpt lat="44.94485" lon="4.8868">
        <ele>117.14</ele>
        <time>2019-05-26T13:09:29.000Z</time>
      </trkpt>
      <trkpt lat="44.94471" lon="4.887">
        <ele>116.14</ele>
        <time>2019-05-26T13:09:34.000Z</time>
      </trkpt>
      <trkpt lat="44.94453" lon="4.88723">
        <ele>116.12</ele>
        <time>2019-05-26T13:09:39.000Z</time>
      </trkpt>
      <trkpt lat="44.94436" lon="4.88745">
        <ele>114.14</ele>
        <time>2019-05-26T13:09:44.000Z</time>
      </trkpt>
      <trkpt lat="44.94424" lon="4.8876">
        <ele>113.89</ele>
        <time>2019-05-26T13:09:49.000Z</time>
      </trkpt>
      <trkpt lat="44.9441" lon="4.88782">
        <ele>114.13</ele>
        <time>2019-05-26T13:09:54.000Z</time>
      </trkpt>
      <trkpt lat="44.94393" lon="4.88804">
        <ele>114.12</ele>
        <time>2019-05-26T13:09:59.000Z</time>
      </trkpt>
      <trkpt lat="44.9437" lon="4.88811">
        <ele>113.19</ele>
        <time>2019-05-26T13:10:04.000Z</time>
      </trkpt>
      <trkpt lat="44.9435" lon="4.88803">
        <ele>113.13</ele>
        <time>2019-05-26T13:10:09.000Z</time>
      </trkpt>
      <trkpt lat="44.94343" lon="4.8881">
        <ele>113.13</ele>
        <time>2019-05-26T13:10:14.000Z</time>
      </trkpt>
      <trkpt lat="44.94346" lon="4.88839">
        <ele>113.13</ele>
        <time>2019-05-26T13:10:19.000Z</time>
      </trkpt>
      <trkpt lat="44.94336" lon="4.88868">
        <ele>113.13</ele>
        <time>2019-05-26T13:10:24.000Z</time>
      </trkpt>
      <trkpt lat="44.94312" lon="4.88881">
        <ele>113.19</ele>
        <time>2019-05-26T13:10:29.000Z</time>
      </trkpt>
      <trkpt lat="44.94286" lon="4.88894">
        <ele>111.39</ele>
        <time>2019-05-26T13:10:34.000Z</time>
      </trkpt>
      <trkpt lat="44.94257" lon="4.889">
        <ele>110.14</ele>
        <time>2019-05-26T13:10:39.000Z</time>
      </trkpt>
      <trkpt lat="44.94228" lon="4.889">
        <ele>110.13</ele>
        <time>2019-05-26T13:10:44.000Z</time>
      </trkpt>
      <trkpt lat="44.94196" lon="4.88899">
        <ele>110.16</ele>
        <time>2019-05-26T13:10:49.000Z</time>
      </trkpt>
      <trkpt lat="44.94166" lon="4.88896">
        <ele>111.06</ele>
        <time>2019-05-26T13:10:54.000Z</time>
      </trkpt>
      <trkpt lat="44.94135" lon="4.88893">
        <ele>112.87</ele>
        <time>2019-05-26T13:10:59.000Z</time>
      </trkpt>
      <trkpt lat="44.94105" lon="4.88896">
        <ele>112.38</ele>
        <time>2019-05-26T13:11:04.000Z</time>
      </trkpt>
      <trkpt lat="44.94074" lon="4.88892">
        <ele>113.31</ele>
        <time>2019-05-26T13:11:09.000Z</time>
      </trkpt>
      <trkpt lat="44.94042" lon="4.88887">
        <ele>112.19</ele>
        <time>2019-05-26T13:11:14.000Z</time>
      </trkpt>
      <trkpt lat="44.94011" lon="4.8888">
        <ele>111.14</ele>
        <time>2019-05-26T13:11:19.000Z</time>
      </trkpt>
      <trkpt lat="44.94002" lon="4.88841">
        <ele>110.36</ele>
        <time>2019-05-26T13:11:24.000Z</time>
      </trkpt>
      <trkpt lat="44.94002" lon="4.888">
        <ele>109.13</ele>
        <time>2019-05-26T13:11:29.000Z</time>
      </trkpt>
      <trkpt lat="44.93985" lon="4.88766">
        <ele>109.87</ele>
        <time>2019-05-26T13:11:34.000Z</time>
      </trkpt>
      <trkpt lat="44.93957" lon="4.88767">
        <ele>109.87</ele>
        <time>2019-05-26T13:11:39.000Z</time>
      </trkpt>
      <trkpt lat="44.93929" lon="4.88783">
        <ele>109.19</ele>
        <time>2019-05-26T13:11:44.000Z</time>
      </trkpt>
      <trkpt lat="44.93902" lon="4.88795">
        <ele>110.12</ele>
        <time>2019-05-26T13:11:49.000Z</time>
      </trkpt>
      <trkpt lat="44.93873" lon="4.8881">
        <ele>110.12</ele>
        <time>2019-05-26T13:12:02.000Z</time>
      </trkpt>
      <trkpt lat="44.93847" lon="4.88823">
        <ele>112.06</ele>
        <time>2019-05-26T13:12:12.000Z</time>
      </trkpt>
      <trkpt lat="44.93819" lon="4.88836">
        <ele>113.87</ele>
        <time>2019-05-26T13:12:17.000Z</time>
      </trkpt>
      <trkpt lat="44.9379" lon="4.88846">
        <ele>113.14</ele>
        <time>2019-05-26T13:12:22.000Z</time>
      </trkpt>
      <trkpt lat="44.93759" lon="4.88848">
        <ele>112.14</ele>
        <time>2019-05-26T13:12:27.000Z</time>
      </trkpt>
      <trkpt lat="44.93729" lon="4.88852">
        <ele>112.12</ele>
        <time>2019-05-26T13:12:32.000Z</time>
      </trkpt>
      <trkpt lat="44.93701" lon="4.88866">
        <ele>109.39</ele>
        <time>2019-05-26T13:12:37.000Z</time>
      </trkpt>
      <trkpt lat="44.93687" lon="4.88866">
        <ele>109.12</ele>
        <time>2019-05-26T13:12:42.000Z</time>
      </trkpt>
      <trkpt lat="44.93671" lon="4.88858">
        <ele>110.13</ele>
        <time>2019-05-26T13:12:47.000Z</time>
      </trkpt>
      <trkpt lat="44.93649" lon="4.8885">
        <ele>109.18</ele>
        <time>2019-05-26T13:12:52.000Z</time>
      </trkpt>
      <trkpt lat="44.93633" lon="4.88845">
        <ele>110.12</ele>
        <time>2019-05-26T13:12:57.000Z</time>
      </trkpt>
      <trkpt lat="44.93625" lon="4.88833">
        <ele>109.36</ele>
        <time>2019-05-26T13:13:02.000Z</time>
      </trkpt>
      <trkpt lat="44.93631" lon="4.8882">
        <ele>109.37</ele>
        <time>2019-05-26T13:13:07.000Z</time>
      </trkpt>
      <trkpt lat="44.93641" lon="4.88819">
        <ele>110.87</ele>
        <time>2019-05-26T13:13:12.000Z</time>
      </trkpt>
      <trkpt lat="44.93639" lon="4.88836">
        <ele>111.12</ele>
        <time>2019-05-26T13:13:17.000Z</time>
      </trkpt>
      <trkpt lat="44.93633" lon="4.88847">
        <ele>109.94</ele>
        <time>2019-05-26T13:13:22.000Z</time>
      </trkpt>
      <trkpt lat="44.93648" lon="4.88854">
        <ele>110.13</ele>
        <time>2019-05-26T13:13:27.000Z</time>
      </trkpt>
      <trkpt lat="44.93665" lon="4.88858">
        <ele>109.37</ele>
        <time>2019-05-26T13:13:32.000Z</time>
      </trkpt>
      <trkpt lat="44.93684" lon="4.88863">
        <ele>109.14</ele>
        <time>2019-05-26T13:13:37.000Z</time>
      </trkpt>
      <trkpt lat="44.93694" lon="4.88874">
        <ele>110.38</ele>
        <time>2019-05-26T13:13:42.000Z</time>
      </trkpt>
      <trkpt lat="44.93704" lon="4.88872">
        <ele>109.42</ele>
        <time>2019-05-26T13:13:47.000Z</time>
      </trkpt>
      <trkpt lat="44.9372" lon="4.88863">
        <ele>107.22</ele>
        <time>2019-05-26T13:13:52.000Z</time>
      </trkpt>
      <trkpt lat="44.93731" lon="4.88857">
        <ele>109.87</ele>
        <time>2019-05-26T13:13:57.000Z</time>
      </trkpt>
      <trkpt lat="44.9374" lon="4.88852">
        <ele>109.12</ele>
        <time>2019-05-26T13:14:02.000Z</time>
      </trkpt>
      <trkpt lat="44.93752" lon="4.8885">
        <ele>109.93</ele>
        <time>2019-05-26T13:14:07.000Z</time>
      </trkpt>
      <trkpt lat="44.93763" lon="4.8885">
        <ele>111.13</ele>
        <time>2019-05-26T13:14:12.000Z</time>
      </trkpt>
      <trkpt lat="44.93783" lon="4.88846">
        <ele>110.89</ele>
        <time>2019-05-26T13:14:17.000Z</time>
      </trkpt>
      <trkpt lat="44.93804" lon="4.88844">
        <ele>109.2</ele>
        <time>2019-05-26T13:14:22.000Z</time>
      </trkpt>
      <trkpt lat="44.93828" lon="4.88836">
        <ele>110.12</ele>
        <time>2019-05-26T13:14:27.000Z</time>
      </trkpt>
      <trkpt lat="44.9385" lon="4.88823">
        <ele>111.86</ele>
        <time>2019-05-26T13:14:32.000Z</time>
      </trkpt>
      <trkpt lat="44.93876" lon="4.88813">
        <ele>113.11</ele>
        <time>2019-05-26T13:14:37.000Z</time>
      </trkpt>
      <trkpt lat="44.93901" lon="4.888">
        <ele>114.3</ele>
        <time>2019-05-26T13:14:42.000Z</time>
      </trkpt>
      <trkpt lat="44.93926" lon="4.88788">
        <ele>114.17</ele>
        <time>2019-05-26T13:14:47.000Z</time>
      </trkpt>
      <trkpt lat="44.93948" lon="4.88777">
        <ele>112.37</ele>
        <time>2019-05-26T13:14:52.000Z</time>
      </trkpt>
      <trkpt lat="44.93972" lon="4.88764">
        <ele>114.06</ele>
        <time>2019-05-26T13:14:57.000Z</time>
      </trkpt>
      <trkpt lat="44.93991" lon="4.8878">
        <ele>113.14</ele>
        <time>2019-05-26T13:15:02.000Z</time>
      </trkpt>
      <trkpt lat="44.94001" lon="4.88808">
        <ele>112.12</ele>
        <time>2019-05-26T13:15:07.000Z</time>
      </trkpt>
      <trkpt lat="44.94002" lon="4.88839">
        <ele>112.88</ele>
        <time>2019-05-26T13:15:12.000Z</time>
      </trkpt>
      <trkpt lat="44.94003" lon="4.88869">
        <ele>112.19</ele>
        <time>2019-05-26T13:15:17.000Z</time>
      </trkpt>
      <trkpt lat="44.94018" lon="4.88887">
        <ele>111.14</ele>
        <time>2019-05-26T13:15:22.000Z</time>
      </trkpt>
      <trkpt lat="44.9404" lon="4.88891">
        <ele>110.37</ele>
        <time>2019-05-26T13:15:27.000Z</time>
      </trkpt>
      <trkpt lat="44.94063" lon="4.88893">
        <ele>112.06</ele>
        <time>2019-05-26T13:15:32.000Z</time>
      </trkpt>
      <trkpt lat="44.94086" lon="4.88895">
        <ele>111.89</ele>
        <time>2019-05-26T13:15:37.000Z</time>
      </trkpt>
      <trkpt lat="44.94108" lon="4.88898">
        <ele>111.13</ele>
        <time>2019-05-26T13:15:42.000Z</time>
      </trkpt>
      <trkpt lat="44.94129" lon="4.88896">
        <ele>110.19</ele>
        <time>2019-05-26T13:15:47.000Z</time>
      </trkpt>
      <trkpt lat="44.9415" lon="4.88897">
        <ele>112.11</ele>
        <time>2019-05-26T13:15:52.000Z</time>
      </trkpt>
      <trkpt lat="44.94168" lon="4.88898">
        <ele>114.06</ele>
        <time>2019-05-26T13:15:57.000Z</time>
      </trkpt>
      <trkpt lat="44.94187" lon="4.88899">
        <ele>114.17</ele>
        <time>2019-05-26T13:16:02.000Z</time>
      </trkpt>
      <trkpt lat="44.94208" lon="4.88901">
        <ele>113.38</ele>
        <time>2019-05-26T13:16:07.000Z</time>
      </trkpt>
      <trkpt lat="44.94231" lon="4.88904">
        <ele>112.38</ele>
        <time>2019-05-26T13:16:12.000Z</time>
      </trkpt>
      <trkpt lat="44.94253" lon="4.88903">
        <ele>112.13</ele>
        <time>2019-05-26T13:16:17.000Z</time>
      </trkpt>
      <trkpt lat="44.94275" lon="4.88902">
        <ele>111.13</ele>
        <time>2019-05-26T13:16:22.000Z</time>
      </trkpt>
      <trkpt lat="44.94295" lon="4.88897">
        <ele>110.14</ele>
        <time>2019-05-26T13:16:27.000Z</time>
      </trkpt>
      <trkpt lat="44.94315" lon="4.88887">
        <ele>109.89</ele>
        <time>2019-05-26T13:16:32.000Z</time>
      </trkpt>
      <trkpt lat="44.94336" lon="4.88875">
        <ele>110.88</ele>
        <time>2019-05-26T13:16:37.000Z</time>
      </trkpt>
      <trkpt lat="44.94349" lon="4.88853">
        <ele>112.11</ele>
        <time>2019-05-26T13:16:42.000Z</time>
      </trkpt>
      <trkpt lat="44.94348" lon="4.88821">
        <ele>112.13</ele>
        <time>2019-05-26T13:16:47.000Z</time>
      </trkpt>
      <trkpt lat="44.94366" lon="4.88815">
        <ele>111.14</ele>
        <time>2019-05-26T13:16:52.000Z</time>
      </trkpt>
      <trkpt lat="44.94386" lon="4.88812">
        <ele>112.11</ele>
        <time>2019-05-26T13:16:57.000Z</time>
      </trkpt>
      <trkpt lat="44.94403" lon="4.88799">
        <ele>113.06</ele>
        <time>2019-05-26T13:17:02.000Z</time>
      </trkpt>
      <trkpt lat="44.94417" lon="4.88779">
        <ele>112.14</ele>
        <time>2019-05-26T13:17:07.000Z</time>
      </trkpt>
      <trkpt lat="44.94432" lon="4.88757">
        <ele>111.38</ele>
        <time>2019-05-26T13:17:12.000Z</time>
      </trkpt>
      <trkpt lat="44.94447" lon="4.88735">
        <ele>111.94</ele>
        <time>2019-05-26T13:17:17.000Z</time>
      </trkpt>
      <trkpt lat="44.94462" lon="4.88713">
        <ele>112.33</ele>
        <time>2019-05-26T13:17:22.000Z</time>
      </trkpt>
      <trkpt lat="44.94476" lon="4.88689">
        <ele>113.06</ele>
        <time>2019-05-26T13:17:27.000Z</time>
      </trkpt>
      <trkpt lat="44.94487" lon="4.88674">
        <ele>114.12</ele>
        <time>2019-05-26T13:17:32.000Z</time>
      </trkpt>
      <trkpt lat="44.94491" lon="4.88685">
        <ele>117.13</ele>
        <time>2019-05-26T13:17:37.000Z</time>
      </trkpt>
      <trkpt lat="44.94498" lon="4.88699">
        <ele>118.36</ele>
        <time>2019-05-26T13:17:42.000Z</time>
      </trkpt>
      <trkpt lat="44.94517" lon="4.88706">
        <ele>117.19</ele>
        <time>2019-05-26T13:17:47.000Z</time>
      </trkpt>
      <trkpt lat="44.94535" lon="4.88712">
        <ele>118.06</ele>
        <time>2019-05-26T13:17:52.000Z</time>
      </trkpt>
      <trkpt lat="44.94538" lon="4.88731">
        <ele>118.13</ele>
        <time>2019-05-26T13:17:57.000Z</time>
      </trkpt>
      <trkpt lat="44.94527" lon="4.88753">
        <ele>117.33</ele>
        <time>2019-05-26T13:18:02.000Z</time>
      </trkpt>
      <trkpt lat="44.94516" lon="4.88783">
        <ele>117.13</ele>
        <time>2019-05-26T13:18:07.000Z</time>
      </trkpt>
      <trkpt lat="44.94504" lon="4.88812">
        <ele>115.39</ele>
        <time>2019-05-26T13:18:12.000Z</time>
      </trkpt>
      <trkpt lat="44.94492" lon="4.88845">
        <ele>115.93</ele>
        <time>2019-05-26T13:18:17.000Z</time>
      </trkpt>
      <trkpt lat="44.94475" lon="4.88877">
        <ele>114.94</ele>
        <time>2019-05-26T13:18:22.000Z</time>
      </trkpt>
      <trkpt lat="44.94453" lon="4.88907">
        <ele>113.19</ele>
        <time>2019-05-26T13:18:27.000Z</time>
      </trkpt>
      <trkpt lat="44.94434" lon="4.88946">
        <ele>114.19</ele>
        <time>2019-05-26T13:18:32.000Z</time>
      </trkpt>
      <trkpt lat="44.94427" lon="4.88984">
        <ele>114.13</ele>
        <time>2019-05-26T13:18:37.000Z</time>
      </trkpt>
      <trkpt lat="44.94416" lon="4.89015">
        <ele>115.82</ele>
        <time>2019-05-26T13:18:42.000Z</time>
      </trkpt>
      <trkpt lat="44.94404" lon="4.89044">
        <ele>116.08</ele>
        <time>2019-05-26T13:18:47.000Z</time>
      </trkpt>
      <trkpt lat="44.9439" lon="4.89071">
        <ele>115.39</ele>
        <time>2019-05-26T13:18:52.000Z</time>
      </trkpt>
      <trkpt lat="44.94373" lon="4.89101">
        <ele>116.88</ele>
        <time>2019-05-26T13:18:57.000Z</time>
      </trkpt>
      <trkpt lat="44.94373" lon="4.89136">
        <ele>116.13</ele>
        <time>2019-05-26T13:19:02.000Z</time>
      </trkpt>
      <trkpt lat="44.94373" lon="4.89173">
        <ele>115.15</ele>
        <time>2019-05-26T13:19:07.000Z</time>
      </trkpt>
      <trkpt lat="44.9437" lon="4.89211">
        <ele>116.11</ele>
        <time>2019-05-26T13:19:12.000Z</time>
      </trkpt>
      <trkpt lat="44.94351" lon="4.89241">
        <ele>119.04</ele>
        <time>2019-05-26T13:19:17.000Z</time>
      </trkpt>
      <trkpt lat="44.94324" lon="4.89256">
        <ele>119.13</ele>
        <time>2019-05-26T13:24:18.000Z</time>
      </trkpt>
      <trkpt lat="44.94294" lon="4.89273">
        <ele>119.13</ele>
        <time>2019-05-26T13:24:23.000Z</time>
      </trkpt>
      <trkpt lat="44.94261" lon="4.89289">
        <ele>117.15</ele>
        <time>2019-05-26T13:24:28.000Z</time>
      </trkpt>
      <trkpt lat="44.94229" lon="4.89306">
        <ele>117.13</ele>
        <time>2019-05-26T13:24:33.000Z</time>
      </trkpt>
      <trkpt lat="44.94195" lon="4.89324">
        <ele>116.19</ele>
        <time>2019-05-26T13:24:38.000Z</time>
      </trkpt>
      <trkpt lat="44.94164" lon="4.89338">
        <ele>117.13</ele>
        <time>2019-05-26T13:24:43.000Z</time>
      </trkpt>
      <trkpt lat="44.94138" lon="4.8935">
        <ele>117.13</ele>
        <time>2019-05-26T13:25:25.000Z</time>
      </trkpt>
      <trkpt lat="44.94114" lon="4.89347">
        <ele>115.15</ele>
        <time>2019-05-26T13:25:30.000Z</time>
      </trkpt>
      <trkpt lat="44.94093" lon="4.89337">
        <ele>115.13</ele>
        <time>2019-05-26T13:25:36.000Z</time>
      </trkpt>
      <trkpt lat="44.94077" lon="4.8936">
        <ele>114.18</ele>
        <time>2019-05-26T13:25:43.000Z</time>
      </trkpt>
      <trkpt lat="44.94054" lon="4.89366">
        <ele>112.38</ele>
        <time>2019-05-26T13:26:20.000Z</time>
      </trkpt>
      <trkpt lat="44.94028" lon="4.89358">
        <ele>114.86</ele>
        <time>2019-05-26T13:26:48.000Z</time>
      </trkpt>
      <trkpt lat="44.93998" lon="4.89348">
        <ele>113.33</ele>
        <time>2019-05-26T13:27:00.000Z</time>
      </trkpt>
      <trkpt lat="44.93967" lon="4.8934">
        <ele>114.13</ele>
        <time>2019-05-26T13:27:14.000Z</time>
      </trkpt>
      <trkpt lat="44.93937" lon="4.89331">
        <ele>112.38</ele>
        <time>2019-05-26T13:48:00.000Z</time>
      </trkpt>
      <trkpt lat="44.93905" lon="4.89321">
        <ele>112.94</ele>
        <time>2019-05-26T13:48:14.000Z</time>
      </trkpt>
      <trkpt lat="44.93875" lon="4.89313">
        <ele>114.05</ele>
        <time>2019-05-26T13:48:27.000Z</time>
      </trkpt>
      <trkpt lat="44.93845" lon="4.89303">
        <ele>114.38</ele>
        <time>2019-05-26T13:48:32.000Z</time>
      </trkpt>
      <trkpt lat="44.93819" lon="4.89296">
        <ele>114.92</ele>
        <time>2019-05-26T13:48:47.000Z</time>
      </trkpt>
      <trkpt lat="44.93794" lon="4.89303">
        <ele>116.87</ele>
        <time>2019-05-26T13:49:24.000Z</time>
      </trkpt>
      <trkpt lat="44.93769" lon="4.89316">
        <ele>116.27</ele>
        <time>2019-05-26T13:50:32.000Z</time>
      </trkpt>
      <trkpt lat="44.93744" lon="4.89326">
        <ele>115.07</ele>
        <time>2019-05-26T13:50:37.000Z</time>
      </trkpt>
      <trkpt lat="44.93723" lon="4.89333">
        <ele>116.93</ele>
        <time>2019-05-26T13:50:42.000Z</time>
      </trkpt>
      <trkpt lat="44.93705" lon="4.89335">
        <ele>117.14</ele>
        <time>2019-05-26T13:50:47.000Z</time>
      </trkpt>
      <trkpt lat="44.93688" lon="4.89332">
        <ele>117.14</ele>
        <time>2019-05-26T13:50:52.000Z</time>
      </trkpt>
      <trkpt lat="44.93675" lon="4.89325">
        <ele>117.13</ele>
        <time>2019-05-26T13:50:57.000Z</time>
      </trkpt>
      <trkpt lat="44.93664" lon="4.89309">
        <ele>117.37</ele>
        <time>2019-05-26T13:51:02.000Z</time>
      </trkpt>
      <trkpt lat="44.93652" lon="4.8929">
        <ele>118.11</ele>
        <time>2019-05-26T13:51:07.000Z</time>
      </trkpt>
      <trkpt lat="44.93641" lon="4.89273">
        <ele>119.01</ele>
        <time>2019-05-26T13:51:12.000Z</time>
      </trkpt>
      <trkpt lat="44.9363" lon="4.89257">
        <ele>120.12</ele>
        <time>2019-05-26T13:51:17.000Z</time>
      </trkpt>
      <trkpt lat="44.93621" lon="4.8924">
        <ele>120.12</ele>
        <time>2019-05-26T13:51:22.000Z</time>
      </trkpt>
      <trkpt lat="44.93614" lon="4.89226">
        <ele>123.08</ele>
        <time>2019-05-26T13:51:27.000Z</time>
      </trkpt>
      <trkpt lat="44.93603" lon="4.89214">
        <ele>122.19</ele>
        <time>2019-05-26T13:51:32.000Z</time>
      </trkpt>
      <trkpt lat="44.93589" lon="4.89223">
        <ele>123.06</ele>
        <time>2019-05-26T13:51:37.000Z</time>
      </trkpt>
      <trkpt lat="44.93579" lon="4.89242">
        <ele>121.38</ele>
        <time>2019-05-26T13:51:42.000Z</time>
      </trkpt>
      <trkpt lat="44.9357" lon="4.89262">
        <ele>122.05</ele>
        <time>2019-05-26T13:51:47.000Z</time>
      </trkpt>
      <trkpt lat="44.93564" lon="4.89281">
        <ele>123.06</ele>
        <time>2019-05-26T13:51:52.000Z</time>
      </trkpt>
      <trkpt lat="44.93557" lon="4.89298">
        <ele>126.56</ele>
        <time>2019-05-26T13:51:57.000Z</time>
      </trkpt>
      <trkpt lat="44.93547" lon="4.89313">
        <ele>128.87</ele>
        <time>2019-05-26T13:52:02.000Z</time>
      </trkpt>
      <trkpt lat="44.9354" lon="4.89332">
        <ele>131.1</ele>
        <time>2019-05-26T13:52:07.000Z</time>
      </trkpt>
      <trkpt lat="44.93538" lon="4.89359">
        <ele>129.18</ele>
        <time>2019-05-26T13:52:12.000Z</time>
      </trkpt>
      <trkpt lat="44.93529" lon="4.89385">
        <ele>129.18</ele>
        <time>2019-05-26T13:52:17.000Z</time>
      </trkpt>
      <trkpt lat="44.93521" lon="4.89413">
        <ele>130.11</ele>
        <time>2019-05-26T13:52:22.000Z</time>
      </trkpt>
      <trkpt lat="44.93515" lon="4.89438">
        <ele>130.14</ele>
        <time>2019-05-26T13:52:27.000Z</time>
      </trkpt>
      <trkpt lat="44.93508" lon="4.89464">
        <ele>131.81</ele>
        <time>2019-05-26T13:52:32.000Z</time>
      </trkpt>
      <trkpt lat="44.93498" lon="4.8949">
        <ele>131.37</ele>
        <time>2019-05-26T13:52:37.000Z</time>
      </trkpt>
      <trkpt lat="44.93487" lon="4.89513">
        <ele>133.92</ele>
        <time>2019-05-26T13:52:42.000Z</time>
      </trkpt>
      <trkpt lat="44.93463" lon="4.8953">
        <ele>130.4</ele>
        <time>2019-05-26T13:52:57.000Z</time>
      </trkpt>
      <trkpt lat="44.93439" lon="4.89548">
        <ele>132.86</ele>
        <time>2019-05-26T13:53:30.000Z</time>
      </trkpt>
      <trkpt lat="44.93416" lon="4.89562">
        <ele>133.12</ele>
        <time>2019-05-26T13:53:35.000Z</time>
      </trkpt>
      <trkpt lat="44.93397" lon="4.89574">
        <ele>129.52</ele>
        <time>2019-05-26T13:53:40.000Z</time>
      </trkpt>
      <trkpt lat="44.9338" lon="4.89594">
        <ele>134.55</ele>
        <time>2019-05-26T13:54:02.000Z</time>
      </trkpt>
      <trkpt lat="44.93369" lon="4.89622">
        <ele>135.37</ele>
        <time>2019-05-26T13:54:23.000Z</time>
      </trkpt>
      <trkpt lat="44.93349" lon="4.89628">
        <ele>133.41</ele>
        <time>2019-05-26T13:54:28.000Z</time>
      </trkpt>
      <trkpt lat="44.9333" lon="4.89612">
        <ele>131.33</ele>
        <time>2019-05-26T13:54:33.000Z</time>
      </trkpt>
      <trkpt lat="44.9331" lon="4.89593">
        <ele>131.12</ele>
        <time>2019-05-26T13:54:38.000Z</time>
      </trkpt>
      <trkpt lat="44.93287" lon="4.89573">
        <ele>130.07</ele>
        <time>2019-05-26T13:54:43.000Z</time>
      </trkpt>
      <trkpt lat="44.93263" lon="4.89555">
        <ele>130.36</ele>
        <time>2019-05-26T13:54:48.000Z</time>
      </trkpt>
      <trkpt lat="44.93238" lon="4.89544">
        <ele>129.09</ele>
        <time>2019-05-26T13:54:53.000Z</time>
      </trkpt>
      <trkpt lat="44.93218" lon="4.89529">
        <ele>129.92</ele>
        <time>2019-05-26T13:54:58.000Z</time>
      </trkpt>
      <trkpt lat="44.93198" lon="4.89515">
        <ele>129.12</ele>
        <time>2019-05-26T13:55:03.000Z</time>
      </trkpt>
      <trkpt lat="44.93179" lon="4.89501">
        <ele>128.89</ele>
        <time>2019-05-26T13:55:10.000Z</time>
      </trkpt>
      <trkpt lat="44.93157" lon="4.8949">
        <ele>128.14</ele>
        <time>2019-05-26T13:55:16.000Z</time>
      </trkpt>
      <trkpt lat="44.9314" lon="4.89481">
        <ele>128.13</ele>
        <time>2019-05-26T13:55:21.000Z</time>
      </trkpt>
      <trkpt lat="44.93135" lon="4.8947">
        <ele>129.13</ele>
        <time>2019-05-26T13:55:26.000Z</time>
      </trkpt>
      <trkpt lat="44.93129" lon="4.8946">
        <ele>129.06</ele>
        <time>2019-05-26T13:55:31.000Z</time>
      </trkpt>
      <trkpt lat="44.93119" lon="4.89459">
        <ele>128</ele>
        <time>2019-05-26T13:55:52.000Z</time>
      </trkpt>
      <trkpt lat="44.93107" lon="4.89457">
        <ele>128.87</ele>
        <time>2019-05-26T13:55:57.000Z</time>
      </trkpt>
      <trkpt lat="44.93093" lon="4.89453">
        <ele>131.12</ele>
        <time>2019-05-26T13:56:02.000Z</time>
      </trkpt>
      <trkpt lat="44.93082" lon="4.89449">
        <ele>130.37</ele>
        <time>2019-05-26T13:56:07.000Z</time>
      </trkpt>
      <trkpt lat="44.93071" lon="4.89446">
        <ele>131.06</ele>
        <time>2019-05-26T13:56:12.000Z</time>
      </trkpt>
      <trkpt lat="44.93061" lon="4.8944">
        <ele>130.13</ele>
        <time>2019-05-26T13:56:17.000Z</time>
      </trkpt>
      <trkpt lat="44.93059" lon="4.89428">
        <ele>131.12</ele>
        <time>2019-05-26T13:56:22.000Z</time>
      </trkpt>
      <trkpt lat="44.93067" lon="4.8942">
        <ele>131.12</ele>
        <time>2019-05-26T13:56:27.000Z</time>
      </trkpt>
      <trkpt lat="44.93071" lon="4.89407">
        <ele>131.12</ele>
        <time>2019-05-26T13:56:32.000Z</time>
      </trkpt>
      <trkpt lat="44.9307" lon="4.89392">
        <ele>131.12</ele>
        <time>2019-05-26T13:56:37.000Z</time>
      </trkpt>
      <trkpt lat="44.9306" lon="4.89394">
        <ele>132.74</ele>
        <time>2019-05-26T13:56:42.000Z</time>
      </trkpt>
      <trkpt lat="44.93052" lon="4.89399">
        <ele>141.83</ele>
        <time>2019-05-26T13:56:47.000Z</time>
      </trkpt>
      <trkpt lat="44.93061" lon="4.89406">
        <ele>131.09</ele>
        <time>2019-05-26T13:56:52.000Z</time>
      </trkpt>
      <trkpt lat="44.9307" lon="4.89399">
        <ele>126.52</ele>
        <time>2019-05-26T13:56:57.000Z</time>
      </trkpt>
      <trkpt lat="44.93057" lon="4.89409">
        <ele>147.04</ele>
        <time>2019-05-26T13:57:02.000Z</time>
      </trkpt>
      <trkpt lat="44.93047" lon="4.8941">
        <ele>148.86</ele>
        <time>2019-05-26T13:57:27.000Z</time>
      </trkpt>
      <trkpt lat="44.93056" lon="4.89406">
        <ele>139.97</ele>
        <time>2019-05-26T14:00:35.000Z</time>
      </trkpt>
      <trkpt lat="44.93066" lon="4.89402">
        <ele>135.73</ele>
        <time>2019-05-26T14:02:13.000Z</time>
      </trkpt>
      <trkpt lat="44.93075" lon="4.89397">
        <ele>127.37</ele>
        <time>2019-05-26T14:02:18.000Z</time>
      </trkpt>
      <trkpt lat="44.9307" lon="4.89385">
        <ele>124.08</ele>
        <time>2019-05-26T14:02:23.000Z</time>
      </trkpt>
      <trkpt lat="44.93063" lon="4.89376">
        <ele>126.75</ele>
        <time>2019-05-26T14:02:28.000Z</time>
      </trkpt>
      <trkpt lat="44.93054" lon="4.89366">
        <ele>128.35</ele>
        <time>2019-05-26T14:02:33.000Z</time>
      </trkpt>
      <trkpt lat="44.93045" lon="4.89351">
        <ele>128.12</ele>
        <time>2019-05-26T14:02:38.000Z</time>
      </trkpt>
      <trkpt lat="44.9305" lon="4.89329">
        <ele>129.87</ele>
        <time>2019-05-26T14:02:43.000Z</time>
      </trkpt>
      <trkpt lat="44.93051" lon="4.89306">
        <ele>129.32</ele>
        <time>2019-05-26T14:03:35.000Z</time>
      </trkpt>
      <trkpt lat="44.93052" lon="4.89282">
        <ele>129.13</ele>
        <time>2019-05-26T14:03:40.000Z</time>
      </trkpt>
      <trkpt lat="44.93051" lon="4.89257">
        <ele>129.12</ele>
        <time>2019-05-26T14:03:45.000Z</time>
      </trkpt>
      <trkpt lat="44.93052" lon="4.89227">
        <ele>127.14</ele>
        <time>2019-05-26T14:03:50.000Z</time>
      </trkpt>
      <trkpt lat="44.9305" lon="4.89198">
        <ele>127.17</ele>
        <time>2019-05-26T14:03:55.000Z</time>
      </trkpt>
      <trkpt lat="44.93052" lon="4.89173">
        <ele>127.37</ele>
        <time>2019-05-26T14:04:04.000Z</time>
      </trkpt>
      <trkpt lat="44.93053" lon="4.89151">
        <ele>128.29</ele>
        <time>2019-05-26T14:04:09.000Z</time>
      </trkpt>
      <trkpt lat="44.93054" lon="4.89132">
        <ele>129.12</ele>
        <time>2019-05-26T14:04:14.000Z</time>
      </trkpt>
      <trkpt lat="44.93055" lon="4.89109">
        <ele>128.18</ele>
        <time>2019-05-26T14:04:19.000Z</time>
      </trkpt>
      <trkpt lat="44.93055" lon="4.89083">
        <ele>126.13</ele>
        <time>2019-05-26T14:04:24.000Z</time>
      </trkpt>
      <trkpt lat="44.93056" lon="4.89058">
        <ele>123.4</ele>
        <time>2019-05-26T14:04:29.000Z</time>
      </trkpt>
      <trkpt lat="44.93057" lon="4.89033">
        <ele>123.12</ele>
        <time>2019-05-26T14:04:34.000Z</time>
      </trkpt>
      <trkpt lat="44.93059" lon="4.89011">
        <ele>123.12</ele>
        <time>2019-05-26T14:04:39.000Z</time>
      </trkpt>
      <trkpt lat="44.93061" lon="4.88985">
        <ele>124.12</ele>
        <time>2019-05-26T14:04:44.000Z</time>
      </trkpt>
      <trkpt lat="44.93062" lon="4.88959">
        <ele>122.2</ele>
        <time>2019-05-26T14:04:49.000Z</time>
      </trkpt>
      <trkpt lat="44.93062" lon="4.88929">
        <ele>120.18</ele>
        <time>2019-05-26T14:04:54.000Z</time>
      </trkpt>
      <trkpt lat="44.93063" lon="4.88896">
        <ele>118.2</ele>
        <time>2019-05-26T14:04:59.000Z</time>
      </trkpt>
      <trkpt lat="44.9307" lon="4.88861">
        <ele>117.26</ele>
        <time>2019-05-26T14:05:04.000Z</time>
      </trkpt>
      <trkpt lat="44.93077" lon="4.88821">
        <ele>115.14</ele>
        <time>2019-05-26T14:05:09.000Z</time>
      </trkpt>
      <trkpt lat="44.93087" lon="4.88778">
        <ele>113.37</ele>
        <time>2019-05-26T14:05:14.000Z</time>
      </trkpt>
      <trkpt lat="44.93098" lon="4.88739">
        <ele>112.11</ele>
        <time>2019-05-26T14:05:37.000Z</time>
      </trkpt>
      <trkpt lat="44.93106" lon="4.88707">
        <ele>110.14</ele>
        <time>2019-05-26T14:05:42.000Z</time>
      </trkpt>
      <trkpt lat="44.93104" lon="4.88685">
        <ele>111.16</ele>
        <time>2019-05-26T14:06:29.000Z</time>
      </trkpt>
      <trkpt lat="44.93103" lon="4.88671">
        <ele>109.12</ele>
        <time>2019-05-26T14:06:34.000Z</time>
      </trkpt>
      <trkpt lat="44.93107" lon="4.88658">
        <ele>110.12</ele>
        <time>2019-05-26T14:06:39.000Z</time>
      </trkpt>
      <trkpt lat="44.93111" lon="4.88644">
        <ele>110.91</ele>
        <time>2019-05-26T14:06:44.000Z</time>
      </trkpt>
      <trkpt lat="44.93114" lon="4.88632">
        <ele>111.12</ele>
        <time>2019-05-26T14:06:49.000Z</time>
      </trkpt>
      <trkpt lat="44.93113" lon="4.8862">
        <ele>112.12</ele>
        <time>2019-05-26T14:06:54.000Z</time>
      </trkpt>
      <trkpt lat="44.93102" lon="4.88626">
        <ele>109.65</ele>
        <time>2019-05-26T14:06:59.000Z</time>
      </trkpt>
      <trkpt lat="44.9309" lon="4.88648">
        <ele>109.86</ele>
        <time>2019-05-26T14:07:04.000Z</time>
      </trkpt>
      <trkpt lat="44.93088" lon="4.88671">
        <ele>110.12</ele>
        <time>2019-05-26T14:07:09.000Z</time>
      </trkpt>
      <trkpt lat="44.93083" lon="4.88697">
        <ele>110.16</ele>
        <time>2019-05-26T14:07:14.000Z</time>
      </trkpt>
      <trkpt lat="44.93076" lon="4.88723">
        <ele>110.1</ele>
        <time>2019-05-26T14:07:19.000Z</time>
      </trkpt>
      <trkpt lat="44.9307" lon="4.88749">
        <ele>112.1</ele>
        <time>2019-05-26T14:07:24.000Z</time>
      </trkpt>
      <trkpt lat="44.93065" lon="4.88772">
        <ele>114.1</ele>
        <time>2019-05-26T14:07:29.000Z</time>
      </trkpt>
      <trkpt lat="44.93061" lon="4.88791">
        <ele>114.12</ele>
        <time>2019-05-26T14:07:34.000Z</time>
      </trkpt>
      <trkpt lat="44.93057" lon="4.88808">
        <ele>116.33</ele>
        <time>2019-05-26T14:07:39.000Z</time>
      </trkpt>
      <trkpt lat="44.93056" lon="4.88822">
        <ele>117.1</ele>
        <time>2019-05-26T14:07:44.000Z</time>
      </trkpt>
      <trkpt lat="44.93052" lon="4.88833">
        <ele>118.8</ele>
        <time>2019-05-26T14:07:49.000Z</time>
      </trkpt>
      <trkpt lat="44.93042" lon="4.88839">
        <ele>119.13</ele>
        <time>2019-05-26T14:07:54.000Z</time>
      </trkpt>
      <trkpt lat="44.93027" lon="4.8883">
        <ele>118.13</ele>
        <time>2019-05-26T14:07:59.000Z</time>
      </trkpt>
      <trkpt lat="44.93013" lon="4.88825">
        <ele>119.05</ele>
        <time>2019-05-26T14:08:04.000Z</time>
      </trkpt>
      <trkpt lat="44.93021" lon="4.88831">
        <ele>119.88</ele>
        <time>2019-05-26T14:08:09.000Z</time>
      </trkpt>
      <trkpt lat="44.93037" lon="4.8884">
        <ele>117.49</ele>
        <time>2019-05-26T14:08:14.000Z</time>
      </trkpt>
      <trkpt lat="44.9305" lon="4.88864">
        <ele>117.12</ele>
        <time>2019-05-26T14:08:19.000Z</time>
      </trkpt>
      <trkpt lat="44.9305" lon="4.88894">
        <ele>118.1</ele>
        <time>2019-05-26T14:08:24.000Z</time>
      </trkpt>
      <trkpt lat="44.93046" lon="4.88923">
        <ele>118.12</ele>
        <time>2019-05-26T14:08:29.000Z</time>
      </trkpt>
      <trkpt lat="44.93044" lon="4.8895">
        <ele>117.18</ele>
        <time>2019-05-26T14:08:34.000Z</time>
      </trkpt>
      <trkpt lat="44.93044" lon="4.88975">
        <ele>117.87</ele>
        <time>2019-05-26T14:08:39.000Z</time>
      </trkpt>
      <trkpt lat="44.93035" lon="4.8899">
        <ele>118.63</ele>
        <time>2019-05-26T14:08:44.000Z</time>
      </trkpt>
      <trkpt lat="44.93015" lon="4.88984">
        <ele>118.12</ele>
        <time>2019-05-26T14:08:49.000Z</time>
      </trkpt>
      <trkpt lat="44.92998" lon="4.88972">
        <ele>119.86</ele>
        <time>2019-05-26T14:08:54.000Z</time>
      </trkpt>
      <trkpt lat="44.92979" lon="4.8896">
        <ele>122.55</ele>
        <time>2019-05-26T14:08:59.000Z</time>
      </trkpt>
      <trkpt lat="44.9296" lon="4.88948">
        <ele>121.88</ele>
        <time>2019-05-26T14:09:04.000Z</time>
      </trkpt>
      <trkpt lat="44.92941" lon="4.88937">
        <ele>122.12</ele>
        <time>2019-05-26T14:09:09.000Z</time>
      </trkpt>
      <trkpt lat="44.92922" lon="4.88928">
        <ele>122.12</ele>
        <time>2019-05-26T14:09:14.000Z</time>
      </trkpt>
      <trkpt lat="44.92906" lon="4.88919">
        <ele>122.12</ele>
        <time>2019-05-26T14:09:19.000Z</time>
      </trkpt>
      <trkpt lat="44.92902" lon="4.88906">
        <ele>122.12</ele>
        <time>2019-05-26T14:09:24.000Z</time>
      </trkpt>
      <trkpt lat="44.92895" lon="4.88897">
        <ele>120.1</ele>
        <time>2019-05-26T14:09:29.000Z</time>
      </trkpt>
      <trkpt lat="44.929" lon="4.88883">
        <ele>120.85</ele>
        <time>2019-05-26T14:09:34.000Z</time>
      </trkpt>
      <trkpt lat="44.92907" lon="4.88864">
        <ele>120.12</ele>
        <time>2019-05-26T14:09:39.000Z</time>
      </trkpt>
      <trkpt lat="44.92916" lon="4.88843">
        <ele>121.62</ele>
        <time>2019-05-26T14:09:44.000Z</time>
      </trkpt>
      <trkpt lat="44.92925" lon="4.88824">
        <ele>120.12</ele>
        <time>2019-05-26T14:09:49.000Z</time>
      </trkpt>
      <trkpt lat="44.92933" lon="4.88809">
        <ele>121.6</ele>
        <time>2019-05-26T14:09:54.000Z</time>
      </trkpt>
      <trkpt lat="44.92936" lon="4.88792">
        <ele>120.37</ele>
        <time>2019-05-26T14:09:59.000Z</time>
      </trkpt>
      <trkpt lat="44.92941" lon="4.88779">
        <ele>120.37</ele>
        <time>2019-05-26T14:10:04.000Z</time>
      </trkpt>
      <trkpt lat="44.92935" lon="4.88793">
        <ele>123.37</ele>
        <time>2019-05-26T14:10:09.000Z</time>
      </trkpt>
      <trkpt lat="44.9292" lon="4.88786">
        <ele>122.13</ele>
        <time>2019-05-26T14:10:14.000Z</time>
      </trkpt>
      <trkpt lat="44.92909" lon="4.88776">
        <ele>119.19</ele>
        <time>2019-05-26T14:10:19.000Z</time>
      </trkpt>
      <trkpt lat="44.92918" lon="4.88777">
        <ele>119.36</ele>
        <time>2019-05-26T14:10:24.000Z</time>
      </trkpt>
      <trkpt lat="44.92932" lon="4.88784">
        <ele>119.12</ele>
        <time>2019-05-26T14:10:29.000Z</time>
      </trkpt>
      <trkpt lat="44.92933" lon="4.88769">
        <ele>120.1</ele>
        <time>2019-05-26T14:10:34.000Z</time>
      </trkpt>
      <trkpt lat="44.92912" lon="4.88751">
        <ele>118.37</ele>
        <time>2019-05-26T14:10:39.000Z</time>
      </trkpt>
      <trkpt lat="44.92886" lon="4.88733">
        <ele>116.14</ele>
        <time>2019-05-26T14:10:44.000Z</time>
      </trkpt>
      <trkpt lat="44.92853" lon="4.88709">
        <ele>113.43</ele>
        <time>2019-05-26T14:10:49.000Z</time>
      </trkpt>
      <trkpt lat="44.92818" lon="4.88673">
        <ele>110.18</ele>
        <time>2019-05-26T14:10:54.000Z</time>
      </trkpt>
      <trkpt lat="44.92795" lon="4.88623">
        <ele>107.37</ele>
        <time>2019-05-26T14:10:59.000Z</time>
      </trkpt>
      <trkpt lat="44.92809" lon="4.88571">
        <ele>107.12</ele>
        <time>2019-05-26T14:11:04.000Z</time>
      </trkpt>
      <trkpt lat="44.92833" lon="4.88535">
        <ele>108.05</ele>
        <time>2019-05-26T14:11:09.000Z</time>
      </trkpt>
      <trkpt lat="44.92853" lon="4.88505">
        <ele>106.12</ele>
        <time>2019-05-26T14:11:14.000Z</time>
      </trkpt>
      <trkpt lat="44.92872" lon="4.88476">
        <ele>105.3</ele>
        <time>2019-05-26T14:11:19.000Z</time>
      </trkpt>
      <trkpt lat="44.92883" lon="4.88443">
        <ele>105.13</ele>
        <time>2019-05-26T14:11:24.000Z</time>
      </trkpt>
      <trkpt lat="44.9289" lon="4.88405">
        <ele>105.11</ele>
        <time>2019-05-26T14:11:29.000Z</time>
      </trkpt>
      <trkpt lat="44.92895" lon="4.88368">
        <ele>106.19</ele>
        <time>2019-05-26T14:11:34.000Z</time>
      </trkpt>
      <trkpt lat="44.92902" lon="4.88335">
        <ele>107.11</ele>
        <time>2019-05-26T14:11:39.000Z</time>
      </trkpt>
      <trkpt lat="44.92906" lon="4.8832">
        <ele>108.1</ele>
        <time>2019-05-26T14:11:44.000Z</time>
      </trkpt>
      <trkpt lat="44.92909" lon="4.88306">
        <ele>110.16</ele>
        <time>2019-05-26T14:11:49.000Z</time>
      </trkpt>
      <trkpt lat="44.92911" lon="4.88287">
        <ele>108.18</ele>
        <time>2019-05-26T14:11:54.000Z</time>
      </trkpt>
      <trkpt lat="44.92903" lon="4.88292">
        <ele>109.11</ele>
        <time>2019-05-26T14:11:59.000Z</time>
      </trkpt>
      <trkpt lat="44.92885" lon="4.88287">
        <ele>109.11</ele>
        <time>2019-05-26T14:12:04.000Z</time>
      </trkpt>
      <trkpt lat="44.92863" lon="4.8828">
        <ele>111.36</ele>
        <time>2019-05-26T14:12:09.000Z</time>
      </trkpt>
      <trkpt lat="44.92838" lon="4.88273">
        <ele>109.42</ele>
        <time>2019-05-26T14:12:14.000Z</time>
      </trkpt>
      <trkpt lat="44.92808" lon="4.88271">
        <ele>108.11</ele>
        <time>2019-05-26T14:12:19.000Z</time>
      </trkpt>
      <trkpt lat="44.92778" lon="4.88269">
        <ele>108.38</ele>
        <time>2019-05-26T14:12:24.000Z</time>
      </trkpt>
      <trkpt lat="44.92749" lon="4.88259">
        <ele>108.11</ele>
        <time>2019-05-26T14:12:29.000Z</time>
      </trkpt>
      <trkpt lat="44.92719" lon="4.88249">
        <ele>107.11</ele>
        <time>2019-05-26T14:12:34.000Z</time>
      </trkpt>
      <trkpt lat="44.92689" lon="4.88239">
        <ele>106.11</ele>
        <time>2019-05-26T14:12:39.000Z</time>
      </trkpt>
      <trkpt lat="44.92659" lon="4.88228">
        <ele>105.11</ele>
        <time>2019-05-26T14:12:44.000Z</time>
      </trkpt>
      <trkpt lat="44.92628" lon="4.88215">
        <ele>105.11</ele>
        <time>2019-05-26T14:12:49.000Z</time>
      </trkpt>
      <trkpt lat="44.92597" lon="4.88193">
        <ele>106.05</ele>
        <time>2019-05-26T14:12:54.000Z</time>
      </trkpt>
      <trkpt lat="44.92576" lon="4.88161">
        <ele>106.11</ele>
        <time>2019-05-26T14:12:59.000Z</time>
      </trkpt>
      <trkpt lat="44.92557" lon="4.8813">
        <ele>105.36</ele>
        <time>2019-05-26T14:13:04.000Z</time>
      </trkpt>
      <trkpt lat="44.92529" lon="4.8811">
        <ele>105.11</ele>
        <time>2019-05-26T14:13:09.000Z</time>
      </trkpt>
      <trkpt lat="44.92503" lon="4.88094">
        <ele>104.17</ele>
        <time>2019-05-26T14:13:14.000Z</time>
      </trkpt>
      <trkpt lat="44.92479" lon="4.88074">
        <ele>104.11</ele>
        <time>2019-05-26T14:13:19.000Z</time>
      </trkpt>
      <trkpt lat="44.92457" lon="4.88054">
        <ele>105.05</ele>
        <time>2019-05-26T14:13:24.000Z</time>
      </trkpt>
      <trkpt lat="44.92443" lon="4.88036">
        <ele>106.86</ele>
        <time>2019-05-26T14:13:29.000Z</time>
      </trkpt>
      <trkpt lat="44.92432" lon="4.88019">
        <ele>107.05</ele>
        <time>2019-05-26T14:13:34.000Z</time>
      </trkpt>
      <trkpt lat="44.92424" lon="4.88">
        <ele>108.86</ele>
        <time>2019-05-26T14:13:39.000Z</time>
      </trkpt>
      <trkpt lat="44.92418" lon="4.87976">
        <ele>112.09</ele>
        <time>2019-05-26T14:13:44.000Z</time>
      </trkpt>
      <trkpt lat="44.92413" lon="4.87948">
        <ele>111.09</ele>
        <time>2019-05-26T14:13:49.000Z</time>
      </trkpt>
      <trkpt lat="44.92408" lon="4.87919">
        <ele>112.09</ele>
        <time>2019-05-26T14:13:54.000Z</time>
      </trkpt>
      <trkpt lat="44.92402" lon="4.87892">
        <ele>111.17</ele>
        <time>2019-05-26T14:13:59.000Z</time>
      </trkpt>
      <trkpt lat="44.92397" lon="4.87863">
        <ele>112.34</ele>
        <time>2019-05-26T14:14:04.000Z</time>
      </trkpt>
      <trkpt lat="44.92391" lon="4.87834">
        <ele>112.06</ele>
        <time>2019-05-26T14:14:09.000Z</time>
      </trkpt>
      <trkpt lat="44.92385" lon="4.87798">
        <ele>112.11</ele>
        <time>2019-05-26T14:14:14.000Z</time>
      </trkpt>
      <trkpt lat="44.92374" lon="4.87761">
        <ele>113.09</ele>
        <time>2019-05-26T14:14:19.000Z</time>
      </trkpt>
      <trkpt lat="44.9235" lon="4.87725">
        <ele>110.19</ele>
        <time>2019-05-26T14:14:24.000Z</time>
      </trkpt>
      <trkpt lat="44.92315" lon="4.87694">
        <ele>111.36</ele>
        <time>2019-05-26T14:14:29.000Z</time>
      </trkpt>
      <trkpt lat="44.92279" lon="4.87669">
        <ele>107.42</ele>
        <time>2019-05-26T14:14:34.000Z</time>
      </trkpt>
      <trkpt lat="44.9224" lon="4.87656">
        <ele>104.42</ele>
        <time>2019-05-26T14:14:39.000Z</time>
      </trkpt>
      <trkpt lat="44.92223" lon="4.8764">
        <ele>103.12</ele>
        <time>2019-05-26T14:14:44.000Z</time>
      </trkpt>
      <trkpt lat="44.92239" lon="4.87643">
        <ele>103.34</ele>
        <time>2019-05-26T14:14:49.000Z</time>
      </trkpt>
      <trkpt lat="44.92255" lon="4.87644">
        <ele>103.12</ele>
        <time>2019-05-26T14:14:54.000Z</time>
      </trkpt>
      <trkpt lat="44.92247" lon="4.87623">
        <ele>106.87</ele>
        <time>2019-05-26T14:14:59.000Z</time>
      </trkpt>
      <trkpt lat="44.92221" lon="4.87604">
        <ele>105.91</ele>
        <time>2019-05-26T14:15:04.000Z</time>
      </trkpt>
      <trkpt lat="44.92197" lon="4.87583">
        <ele>105.1</ele>
        <time>2019-05-26T14:15:09.000Z</time>
      </trkpt>
      <trkpt lat="44.92171" lon="4.87558">
        <ele>104.31</ele>
        <time>2019-05-26T14:15:14.000Z</time>
      </trkpt>
      <trkpt lat="44.92143" lon="4.87533">
        <ele>104.1</ele>
        <time>2019-05-26T14:15:19.000Z</time>
      </trkpt>
      <trkpt lat="44.92114" lon="4.87512">
        <ele>104.12</ele>
        <time>2019-05-26T14:15:24.000Z</time>
      </trkpt>
      <trkpt lat="44.92084" lon="4.87491">
        <ele>104.1</ele>
        <time>2019-05-26T14:15:29.000Z</time>
      </trkpt>
      <trkpt lat="44.92056" lon="4.87466">
        <ele>103.12</ele>
        <time>2019-05-26T14:15:34.000Z</time>
      </trkpt>
      <trkpt lat="44.92025" lon="4.87444">
        <ele>103.85</ele>
        <time>2019-05-26T14:15:39.000Z</time>
      </trkpt>
      <trkpt lat="44.91992" lon="4.87425">
        <ele>104.29</ele>
        <time>2019-05-26T14:15:44.000Z</time>
      </trkpt>
      <trkpt lat="44.91959" lon="4.87403">
        <ele>103.12</ele>
        <time>2019-05-26T14:15:49.000Z</time>
      </trkpt>
      <trkpt lat="44.91926" lon="4.87388">
        <ele>102.35</ele>
        <time>2019-05-26T14:15:54.000Z</time>
      </trkpt>
      <trkpt lat="44.91891" lon="4.87375">
        <ele>102.1</ele>
        <time>2019-05-26T14:15:59.000Z</time>
      </trkpt>
      <trkpt lat="44.91857" lon="4.8736">
        <ele>102.04</ele>
        <time>2019-05-26T14:16:04.000Z</time>
      </trkpt>
      <trkpt lat="44.91825" lon="4.87345">
        <ele>102.1</ele>
        <time>2019-05-26T14:16:09.000Z</time>
      </trkpt>
      <trkpt lat="44.91793" lon="4.87333">
        <ele>103.08</ele>
        <time>2019-05-26T14:16:14.000Z</time>
      </trkpt>
      <trkpt lat="44.9176" lon="4.87327">
        <ele>103.83</ele>
        <time>2019-05-26T14:16:19.000Z</time>
      </trkpt>
      <trkpt lat="44.91726" lon="4.87333">
        <ele>102.16</ele>
        <time>2019-05-26T14:16:24.000Z</time>
      </trkpt>
      <trkpt lat="44.91695" lon="4.87347">
        <ele>104.04</ele>
        <time>2019-05-26T14:16:29.000Z</time>
      </trkpt>
      <trkpt lat="44.91672" lon="4.87367">
        <ele>103.16</ele>
        <time>2019-05-26T14:16:34.000Z</time>
      </trkpt>
      <trkpt lat="44.91657" lon="4.8738">
        <ele>100.16</ele>
        <time>2019-05-26T14:16:39.000Z</time>
      </trkpt>
      <trkpt lat="44.91645" lon="4.87379">
        <ele>102.83</ele>
        <time>2019-05-26T14:16:44.000Z</time>
      </trkpt>
      <trkpt lat="44.91637" lon="4.87392">
        <ele>105.89</ele>
        <time>2019-05-26T14:16:49.000Z</time>
      </trkpt>
      <trkpt lat="44.91628" lon="4.8742">
        <ele>105.35</ele>
        <time>2019-05-26T14:16:54.000Z</time>
      </trkpt>
      <trkpt lat="44.91614" lon="4.87448">
        <ele>105.1</ele>
        <time>2019-05-26T14:16:59.000Z</time>
      </trkpt>
      <trkpt lat="44.91602" lon="4.87479">
        <ele>105.1</ele>
        <time>2019-05-26T14:17:04.000Z</time>
      </trkpt>
      <trkpt lat="44.91592" lon="4.87507">
        <ele>106.09</ele>
        <time>2019-05-26T14:17:09.000Z</time>
      </trkpt>
      <trkpt lat="44.91584" lon="4.87528">
        <ele>108.84</ele>
        <time>2019-05-26T14:17:14.000Z</time>
      </trkpt>
      <trkpt lat="44.91576" lon="4.87547">
        <ele>111.01</ele>
        <time>2019-05-26T14:17:19.000Z</time>
      </trkpt>
      <trkpt lat="44.91569" lon="4.8757">
        <ele>109.87</ele>
        <time>2019-05-26T14:17:24.000Z</time>
      </trkpt>
      <trkpt lat="44.91555" lon="4.87583">
        <ele>109.91</ele>
        <time>2019-05-26T14:17:29.000Z</time>
      </trkpt>
      <trkpt lat="44.91536" lon="4.87563">
        <ele>109.36</ele>
        <time>2019-05-26T14:17:34.000Z</time>
      </trkpt>
      <trkpt lat="44.91515" lon="4.87548">
        <ele>109.33</ele>
        <time>2019-05-26T14:17:39.000Z</time>
      </trkpt>
      <trkpt lat="44.91491" lon="4.87532">
        <ele>109.85</ele>
        <time>2019-05-26T14:17:44.000Z</time>
      </trkpt>
      <trkpt lat="44.91468" lon="4.87513">
        <ele>106.62</ele>
        <time>2019-05-26T14:17:49.000Z</time>
      </trkpt>
      <trkpt lat="44.91444" lon="4.87496">
        <ele>108.08</ele>
        <time>2019-05-26T14:17:54.000Z</time>
      </trkpt>
      <trkpt lat="44.91418" lon="4.87477">
        <ele>109.08</ele>
        <time>2019-05-26T14:17:59.000Z</time>
      </trkpt>
      <trkpt lat="44.91391" lon="4.87458">
        <ele>108.11</ele>
        <time>2019-05-26T14:18:04.000Z</time>
      </trkpt>
      <trkpt lat="44.91362" lon="4.8744">
        <ele>107.16</ele>
        <time>2019-05-26T14:18:09.000Z</time>
      </trkpt>
      <trkpt lat="44.91337" lon="4.87419">
        <ele>105.41</ele>
        <time>2019-05-26T14:18:14.000Z</time>
      </trkpt>
      <trkpt lat="44.91307" lon="4.87398">
        <ele>107.83</ele>
        <time>2019-05-26T14:18:19.000Z</time>
      </trkpt>
      <trkpt lat="44.9128" lon="4.87378">
        <ele>107.29</ele>
        <time>2019-05-26T14:18:24.000Z</time>
      </trkpt>
      <trkpt lat="44.91253" lon="4.87358">
        <ele>107.89</ele>
        <time>2019-05-26T14:18:29.000Z</time>
      </trkpt>
      <trkpt lat="44.91226" lon="4.8734">
        <ele>108.05</ele>
        <time>2019-05-26T14:18:34.000Z</time>
      </trkpt>
      <trkpt lat="44.91198" lon="4.87319">
        <ele>107.09</ele>
        <time>2019-05-26T14:18:39.000Z</time>
      </trkpt>
      <trkpt lat="44.91168" lon="4.873">
        <ele>107.14</ele>
        <time>2019-05-26T14:18:44.000Z</time>
      </trkpt>
      <trkpt lat="44.9114" lon="4.87279">
        <ele>107.1</ele>
        <time>2019-05-26T14:18:49.000Z</time>
      </trkpt>
      <trkpt lat="44.91108" lon="4.87256">
        <ele>107.09</ele>
        <time>2019-05-26T14:18:54.000Z</time>
      </trkpt>
      <trkpt lat="44.91077" lon="4.87235">
        <ele>107.09</ele>
        <time>2019-05-26T14:18:59.000Z</time>
      </trkpt>
      <trkpt lat="44.91045" lon="4.87215">
        <ele>107.09</ele>
        <time>2019-05-26T14:19:04.000Z</time>
      </trkpt>
      <trkpt lat="44.91015" lon="4.87191">
        <ele>106.09</ele>
        <time>2019-05-26T14:19:09.000Z</time>
      </trkpt>
      <trkpt lat="44.90987" lon="4.8717">
        <ele>106.09</ele>
        <time>2019-05-26T14:19:14.000Z</time>
      </trkpt>
      <trkpt lat="44.90956" lon="4.87148">
        <ele>107.08</ele>
        <time>2019-05-26T14:19:19.000Z</time>
      </trkpt>
      <trkpt lat="44.90927" lon="4.87125">
        <ele>106.15</ele>
        <time>2019-05-26T14:19:24.000Z</time>
      </trkpt>
      <trkpt lat="44.90899" lon="4.87102">
        <ele>106.09</ele>
        <time>2019-05-26T14:19:29.000Z</time>
      </trkpt>
      <trkpt lat="44.90872" lon="4.87078">
        <ele>106.09</ele>
        <time>2019-05-26T14:19:34.000Z</time>
      </trkpt>
      <trkpt lat="44.90844" lon="4.87053">
        <ele>106.09</ele>
        <time>2019-05-26T14:19:39.000Z</time>
      </trkpt>
      <trkpt lat="44.90815" lon="4.87026">
        <ele>106.09</ele>
        <time>2019-05-26T14:19:44.000Z</time>
      </trkpt>
      <trkpt lat="44.90788" lon="4.87002">
        <ele>106.09</ele>
        <time>2019-05-26T14:19:49.000Z</time>
      </trkpt>
      <trkpt lat="44.90762" lon="4.86975">
        <ele>106.09</ele>
        <time>2019-05-26T14:19:54.000Z</time>
      </trkpt>
      <trkpt lat="44.90734" lon="4.86955">
        <ele>106.04</ele>
        <time>2019-05-26T14:19:59.000Z</time>
      </trkpt>
      <trkpt lat="44.90708" lon="4.86962">
        <ele>105.32</ele>
        <time>2019-05-26T14:20:04.000Z</time>
      </trkpt>
      <trkpt lat="44.90685" lon="4.86992">
        <ele>105.85</ele>
        <time>2019-05-26T14:20:09.000Z</time>
      </trkpt>
      <trkpt lat="44.9067" lon="4.87029">
        <ele>106.78</ele>
        <time>2019-05-26T14:20:14.000Z</time>
      </trkpt>
      <trkpt lat="44.90656" lon="4.87066">
        <ele>107.28</ele>
        <time>2019-05-26T14:20:19.000Z</time>
      </trkpt>
      <trkpt lat="44.90643" lon="4.87101">
        <ele>106.15</ele>
        <time>2019-05-26T14:20:24.000Z</time>
      </trkpt>
      <trkpt lat="44.90627" lon="4.87122">
        <ele>106.14</ele>
        <time>2019-05-26T14:20:29.000Z</time>
      </trkpt>
      <trkpt lat="44.9062" lon="4.87159">
        <ele>106.09</ele>
        <time>2019-05-26T14:20:34.000Z</time>
      </trkpt>
      <trkpt lat="44.90616" lon="4.87198">
        <ele>105.03</ele>
        <time>2019-05-26T14:20:39.000Z</time>
      </trkpt>
      <trkpt lat="44.90612" lon="4.87236">
        <ele>105.84</ele>
        <time>2019-05-26T14:20:44.000Z</time>
      </trkpt>
      <trkpt lat="44.90601" lon="4.87248">
        <ele>105.84</ele>
        <time>2019-05-26T14:20:49.000Z</time>
      </trkpt>
      <trkpt lat="44.90581" lon="4.87231">
        <ele>105.04</ele>
        <time>2019-05-26T14:20:54.000Z</time>
      </trkpt>
      <trkpt lat="44.90557" lon="4.87211">
        <ele>105.09</ele>
        <time>2019-05-26T14:20:59.000Z</time>
      </trkpt>
      <trkpt lat="44.90533" lon="4.8719">
        <ele>106.03</ele>
        <time>2019-05-26T14:21:04.000Z</time>
      </trkpt>
      <trkpt lat="44.90522" lon="4.87172">
        <ele>106.09</ele>
        <time>2019-05-26T14:21:09.000Z</time>
      </trkpt>
      <trkpt lat="44.90534" lon="4.87153">
        <ele>107.03</ele>
        <time>2019-05-26T14:21:14.000Z</time>
      </trkpt>
      <trkpt lat="44.90547" lon="4.87134">
        <ele>107.28</ele>
        <time>2019-05-26T14:21:19.000Z</time>
      </trkpt>
      <trkpt lat="44.90559" lon="4.87115">
        <ele>109.03</ele>
        <time>2019-05-26T14:21:24.000Z</time>
      </trkpt>
      <trkpt lat="44.9057" lon="4.87097">
        <ele>109.09</ele>
        <time>2019-05-26T14:21:29.000Z</time>
      </trkpt>
      <trkpt lat="44.90579" lon="4.87082">
        <ele>109.09</ele>
        <time>2019-05-26T14:21:34.000Z</time>
      </trkpt>
      <trkpt lat="44.90586" lon="4.87071">
        <ele>110.09</ele>
        <time>2019-05-26T14:21:39.000Z</time>
      </trkpt>
      <trkpt lat="44.90596" lon="4.87057">
        <ele>111.13</ele>
        <time>2019-05-26T14:21:44.000Z</time>
      </trkpt>
      <trkpt lat="44.90606" lon="4.87041">
        <ele>111.84</ele>
        <time>2019-05-26T14:21:49.000Z</time>
      </trkpt>
      <trkpt lat="44.90615" lon="4.87026">
        <ele>112.84</ele>
        <time>2019-05-26T14:21:54.000Z</time>
      </trkpt>
      <trkpt lat="44.90625" lon="4.8701">
        <ele>113.84</ele>
        <time>2019-05-26T14:21:59.000Z</time>
      </trkpt>
      <trkpt lat="44.90636" lon="4.86995">
        <ele>113.09</ele>
        <time>2019-05-26T14:22:04.000Z</time>
      </trkpt>
      <trkpt lat="44.90646" lon="4.8698">
        <ele>114.04</ele>
        <time>2019-05-26T14:22:09.000Z</time>
      </trkpt>
      <trkpt lat="44.90654" lon="4.86965">
        <ele>115.03</ele>
        <time>2019-05-26T14:22:14.000Z</time>
      </trkpt>
      <trkpt lat="44.90663" lon="4.8695">
        <ele>115.1</ele>
        <time>2019-05-26T14:22:19.000Z</time>
      </trkpt>
      <trkpt lat="44.90672" lon="4.86936">
        <ele>117.02</ele>
        <time>2019-05-26T14:22:24.000Z</time>
      </trkpt>
      <trkpt lat="44.90681" lon="4.86921">
        <ele>118.82</ele>
        <time>2019-05-26T14:22:29.000Z</time>
      </trkpt>
      <trkpt lat="44.9069" lon="4.86907">
        <ele>119.84</ele>
        <time>2019-05-26T14:22:34.000Z</time>
      </trkpt>
      <trkpt lat="44.90699" lon="4.86891">
        <ele>120.09</ele>
        <time>2019-05-26T14:22:39.000Z</time>
      </trkpt>
      <trkpt lat="44.90708" lon="4.86877">
        <ele>121.03</ele>
        <time>2019-05-26T14:22:44.000Z</time>
      </trkpt>
      <trkpt lat="44.90717" lon="4.86862">
        <ele>120.15</ele>
        <time>2019-05-26T14:22:49.000Z</time>
      </trkpt>
      <trkpt lat="44.90727" lon="4.86846">
        <ele>121.09</ele>
        <time>2019-05-26T14:22:54.000Z</time>
      </trkpt>
      <trkpt lat="44.90736" lon="4.8683">
        <ele>121.03</ele>
        <time>2019-05-26T14:22:59.000Z</time>
      </trkpt>
      <trkpt lat="44.90746" lon="4.86813">
        <ele>120.34</ele>
        <time>2019-05-26T14:23:04.000Z</time>
      </trkpt>
      <trkpt lat="44.90756" lon="4.86795">
        <ele>122.02</ele>
        <time>2019-05-26T14:23:09.000Z</time>
      </trkpt>
      <trkpt lat="44.90767" lon="4.86777">
        <ele>123.03</ele>
        <time>2019-05-26T14:23:14.000Z</time>
      </trkpt>
      <trkpt lat="44.90777" lon="4.8676">
        <ele>123.84</ele>
        <time>2019-05-26T14:23:19.000Z</time>
      </trkpt>
      <trkpt lat="44.90789" lon="4.86742">
        <ele>124.03</ele>
        <time>2019-05-26T14:23:24.000Z</time>
      </trkpt>
      <trkpt lat="44.90803" lon="4.86722">
        <ele>125.07</ele>
        <time>2019-05-26T14:23:29.000Z</time>
      </trkpt>
      <trkpt lat="44.90816" lon="4.86701">
        <ele>124.14</ele>
        <time>2019-05-26T14:23:34.000Z</time>
      </trkpt>
      <trkpt lat="44.90829" lon="4.8668">
        <ele>124.09</ele>
        <time>2019-05-26T14:23:39.000Z</time>
      </trkpt>
      <trkpt lat="44.90842" lon="4.86658">
        <ele>124.15</ele>
        <time>2019-05-26T14:23:44.000Z</time>
      </trkpt>
      <trkpt lat="44.90857" lon="4.86635">
        <ele>124.09</ele>
        <time>2019-05-26T14:23:52.000Z</time>
      </trkpt>
      <trkpt lat="44.90872" lon="4.8661">
        <ele>124.09</ele>
        <time>2019-05-26T14:23:57.000Z</time>
      </trkpt>
      <trkpt lat="44.90888" lon="4.86585">
        <ele>123.1</ele>
        <time>2019-05-26T14:24:04.000Z</time>
      </trkpt>
      <trkpt lat="44.90905" lon="4.86557">
        <ele>123.04</ele>
        <time>2019-05-26T14:24:20.000Z</time>
      </trkpt>
      <trkpt lat="44.90924" lon="4.86529">
        <ele>121.15</ele>
        <time>2019-05-26T14:32:15.000Z</time>
      </trkpt>
      <trkpt lat="44.90944" lon="4.86499">
        <ele>120.09</ele>
        <time>2019-05-26T14:32:31.000Z</time>
      </trkpt>
      <trkpt lat="44.90965" lon="4.86465">
        <ele>119.14</ele>
        <time>2019-05-26T14:33:06.000Z</time>
      </trkpt>
      <trkpt lat="44.90989" lon="4.86432">
        <ele>117.34</ele>
        <time>2019-05-26T14:33:16.000Z</time>
      </trkpt>
      <trkpt lat="44.91017" lon="4.86396">
        <ele>116.29</ele>
        <time>2019-05-26T14:33:34.000Z</time>
      </trkpt>
      <trkpt lat="44.9105" lon="4.86358">
        <ele>112.35</ele>
        <time>2019-05-26T14:33:52.000Z</time>
      </trkpt>
      <trkpt lat="44.91085" lon="4.86333">
        <ele>111.09</ele>
        <time>2019-05-26T14:33:58.000Z</time>
      </trkpt>
      <trkpt lat="44.91118" lon="4.86313">
        <ele>109.15</ele>
        <time>2019-05-26T14:34:04.000Z</time>
      </trkpt>
      <trkpt lat="44.91151" lon="4.86297">
        <ele>108.09</ele>
        <time>2019-05-26T14:34:16.000Z</time>
      </trkpt>
      <trkpt lat="44.91183" lon="4.86286">
        <ele>106.34</ele>
        <time>2019-05-26T14:34:21.000Z</time>
      </trkpt>
      <trkpt lat="44.91214" lon="4.8628">
        <ele>106.09</ele>
        <time>2019-05-26T14:34:28.000Z</time>
      </trkpt>
      <trkpt lat="44.91244" lon="4.86276">
        <ele>107.01</ele>
        <time>2019-05-26T14:34:33.000Z</time>
      </trkpt>
      <trkpt lat="44.91269" lon="4.86276">
        <ele>106.09</ele>
        <time>2019-05-26T14:35:45.000Z</time>
      </trkpt>
      <trkpt lat="44.91293" lon="4.8628">
        <ele>106.34</ele>
        <time>2019-05-26T14:35:50.000Z</time>
      </trkpt>
      <trkpt lat="44.91314" lon="4.86285">
        <ele>105.4</ele>
        <time>2019-05-26T14:35:55.000Z</time>
      </trkpt>
      <trkpt lat="44.91335" lon="4.86291">
        <ele>106.03</ele>
        <time>2019-05-26T14:36:00.000Z</time>
      </trkpt>
      <trkpt lat="44.91353" lon="4.86295">
        <ele>107.08</ele>
        <time>2019-05-26T14:36:05.000Z</time>
      </trkpt>
      <trkpt lat="44.91372" lon="4.86301">
        <ele>106.84</ele>
        <time>2019-05-26T14:36:10.000Z</time>
      </trkpt>
      <trkpt lat="44.91391" lon="4.86306">
        <ele>107.78</ele>
        <time>2019-05-26T14:36:15.000Z</time>
      </trkpt>
      <trkpt lat="44.91411" lon="4.86312">
        <ele>108.09</ele>
        <time>2019-05-26T14:36:21.000Z</time>
      </trkpt>
      <trkpt lat="44.91431" lon="4.86317">
        <ele>109.09</ele>
        <time>2019-05-26T14:36:27.000Z</time>
      </trkpt>
      <trkpt lat="44.91449" lon="4.86322">
        <ele>109.07</ele>
        <time>2019-05-26T14:36:33.000Z</time>
      </trkpt>
      <trkpt lat="44.91468" lon="4.86326">
        <ele>109.14</ele>
        <time>2019-05-26T14:36:39.000Z</time>
      </trkpt>
      <trkpt lat="44.91486" lon="4.86331">
        <ele>108.11</ele>
        <time>2019-05-26T14:36:44.000Z</time>
      </trkpt>
      <trkpt lat="44.91505" lon="4.86335">
        <ele>107.84</ele>
        <time>2019-05-26T14:36:49.000Z</time>
      </trkpt>
      <trkpt lat="44.91524" lon="4.8634">
        <ele>109.09</ele>
        <time>2019-05-26T14:36:54.000Z</time>
      </trkpt>
      <trkpt lat="44.91543" lon="4.86345">
        <ele>109.09</ele>
        <time>2019-05-26T14:36:59.000Z</time>
      </trkpt>
      <trkpt lat="44.91562" lon="4.86351">
        <ele>109.09</ele>
        <time>2019-05-26T14:37:04.000Z</time>
      </trkpt>
      <trkpt lat="44.91582" lon="4.86353">
        <ele>109.09</ele>
        <time>2019-05-26T14:37:09.000Z</time>
      </trkpt>
      <trkpt lat="44.91603" lon="4.86355">
        <ele>108.84</ele>
        <time>2019-05-26T14:37:14.000Z</time>
      </trkpt>
      <trkpt lat="44.91624" lon="4.86356">
        <ele>108.9</ele>
        <time>2019-05-26T14:37:19.000Z</time>
      </trkpt>
      <trkpt lat="44.91644" lon="4.86356">
        <ele>108.29</ele>
        <time>2019-05-26T14:37:24.000Z</time>
      </trkpt>
      <trkpt lat="44.91663" lon="4.86353">
        <ele>109.08</ele>
        <time>2019-05-26T14:37:54.000Z</time>
      </trkpt>
      <trkpt lat="44.91675" lon="4.8635">
        <ele>109.09</ele>
        <time>2019-05-26T14:38:04.000Z</time>
      </trkpt>
      <trkpt lat="44.91667" lon="4.86359">
        <ele>109.83</ele>
        <time>2019-05-26T14:38:15.000Z</time>
      </trkpt>
      <trkpt lat="44.91648" lon="4.86361">
        <ele>109.11</ele>
        <time>2019-05-26T14:38:20.000Z</time>
      </trkpt>
      <trkpt lat="44.91626" lon="4.86374">
        <ele>107.36</ele>
        <time>2019-05-26T14:38:25.000Z</time>
      </trkpt>
      <trkpt lat="44.91595" lon="4.86379">
        <ele>105.16</ele>
        <time>2019-05-26T14:38:45.000Z</time>
      </trkpt>
      <trkpt lat="44.91562" lon="4.86376">
        <ele>104.11</ele>
        <time>2019-05-26T14:39:03.000Z</time>
      </trkpt>
      <trkpt lat="44.91528" lon="4.86375">
        <ele>103.09</ele>
        <time>2019-05-26T14:39:08.000Z</time>
      </trkpt>
      <trkpt lat="44.91497" lon="4.86394">
        <ele>103.09</ele>
        <time>2019-05-26T14:39:13.000Z</time>
      </trkpt>
      <trkpt lat="44.91466" lon="4.86407">
        <ele>102.09</ele>
        <time>2019-05-26T14:39:18.000Z</time>
      </trkpt>
      <trkpt lat="44.91436" lon="4.86392">
        <ele>101.05</ele>
        <time>2019-05-26T14:39:23.000Z</time>
      </trkpt>
      <trkpt lat="44.91403" lon="4.86385">
        <ele>102.84</ele>
        <time>2019-05-26T14:39:28.000Z</time>
      </trkpt>
      <trkpt lat="44.91372" lon="4.86385">
        <ele>102.1</ele>
        <time>2019-05-26T14:39:33.000Z</time>
      </trkpt>
      <trkpt lat="44.91344" lon="4.86375">
        <ele>102.09</ele>
        <time>2019-05-26T14:39:38.000Z</time>
      </trkpt>
      <trkpt lat="44.91318" lon="4.86354">
        <ele>102.09</ele>
        <time>2019-05-26T14:39:43.000Z</time>
      </trkpt>
      <trkpt lat="44.91289" lon="4.86341">
        <ele>103.09</ele>
        <time>2019-05-26T14:39:48.000Z</time>
      </trkpt>
      <trkpt lat="44.91259" lon="4.8634">
        <ele>104.08</ele>
        <time>2019-05-26T14:39:53.000Z</time>
      </trkpt>
      <trkpt lat="44.9123" lon="4.86336">
        <ele>103.34</ele>
        <time>2019-05-26T14:39:58.000Z</time>
      </trkpt>
      <trkpt lat="44.91196" lon="4.86334">
        <ele>103.84</ele>
        <time>2019-05-26T14:40:03.000Z</time>
      </trkpt>
      <trkpt lat="44.91163" lon="4.86331">
        <ele>103.15</ele>
        <time>2019-05-26T14:40:08.000Z</time>
      </trkpt>
      <trkpt lat="44.91146" lon="4.86361">
        <ele>104.03</ele>
        <time>2019-05-26T14:40:13.000Z</time>
      </trkpt>
      <trkpt lat="44.91135" lon="4.86402">
        <ele>103.85</ele>
        <time>2019-05-26T14:40:18.000Z</time>
      </trkpt>
      <trkpt lat="44.91117" lon="4.86431">
        <ele>104.09</ele>
        <time>2019-05-26T14:40:23.000Z</time>
      </trkpt>
      <trkpt lat="44.91096" lon="4.86444">
        <ele>105.08</ele>
        <time>2019-05-26T14:40:28.000Z</time>
      </trkpt>
      <trkpt lat="44.91074" lon="4.86452">
        <ele>105.84</ele>
        <time>2019-05-26T14:40:33.000Z</time>
      </trkpt>
      <trkpt lat="44.9106" lon="4.86444">
        <ele>106.13</ele>
        <time>2019-05-26T14:40:38.000Z</time>
      </trkpt>
      <trkpt lat="44.91049" lon="4.8642">
        <ele>105.34</ele>
        <time>2019-05-26T14:40:43.000Z</time>
      </trkpt>
      <trkpt lat="44.91035" lon="4.86389">
        <ele>104.34</ele>
        <time>2019-05-26T14:40:48.000Z</time>
      </trkpt>
      <trkpt lat="44.91023" lon="4.8636">
        <ele>104.09</ele>
        <time>2019-05-26T14:40:53.000Z</time>
      </trkpt>
      <trkpt lat="44.91017" lon="4.86334">
        <ele>105.79</ele>
        <time>2019-05-26T14:40:58.000Z</time>
      </trkpt>
      <trkpt lat="44.91017" lon="4.86349">
        <ele>106.1</ele>
        <time>2019-05-26T14:41:03.000Z</time>
      </trkpt>
      <trkpt lat="44.9103" lon="4.86346">
        <ele>103.4</ele>
        <time>2019-05-26T14:41:08.000Z</time>
      </trkpt>
      <trkpt lat="44.91039" lon="4.86342">
        <ele>104.08</ele>
        <time>2019-05-26T14:41:13.000Z</time>
      </trkpt>
      <trkpt lat="44.91031" lon="4.86338">
        <ele>101.35</ele>
        <time>2019-05-26T14:41:18.000Z</time>
      </trkpt>
      <trkpt lat="44.91036" lon="4.8635">
        <ele>104.1</ele>
        <time>2019-05-26T14:41:23.000Z</time>
      </trkpt>
      <trkpt lat="44.91031" lon="4.86338">
        <ele>108.21</ele>
        <time>2019-05-26T14:41:28.000Z</time>
      </trkpt>
      <trkpt lat="44.91041" lon="4.86334">
        <ele>103.84</ele>
        <time>2019-05-26T14:41:33.000Z</time>
      </trkpt>
      <trkpt lat="44.9105" lon="4.86333">
        <ele>102.09</ele>
        <time>2019-05-26T14:41:38.000Z</time>
      </trkpt>
      <trkpt lat="44.91051" lon="4.86346">
        <ele>109.33</ele>
        <time>2019-05-26T14:41:43.000Z</time>
      </trkpt>
      <trkpt lat="44.91056" lon="4.86334">
        <ele>108.15</ele>
        <time>2019-05-26T14:41:48.000Z</time>
      </trkpt>
      <trkpt lat="44.91054" lon="4.8632">
        <ele>105.81</ele>
        <time>2019-05-26T14:41:53.000Z</time>
      </trkpt>
      <trkpt lat="44.91063" lon="4.86316">
        <ele>107.02</ele>
        <time>2019-05-26T14:41:58.000Z</time>
      </trkpt>
      <trkpt lat="44.91054" lon="4.86318">
        <ele>104.96</ele>
        <time>2019-05-26T14:42:03.000Z</time>
      </trkpt>
      <trkpt lat="44.91044" lon="4.8632">
        <ele>104.4</ele>
        <time>2019-05-26T14:42:08.000Z</time>
      </trkpt>
      <trkpt lat="44.91034" lon="4.86326">
        <ele>103.9</ele>
        <time>2019-05-26T14:42:13.000Z</time>
      </trkpt>
      <trkpt lat="44.9103" lon="4.86342">
        <ele>104.83</ele>
        <time>2019-05-26T14:42:18.000Z</time>
      </trkpt>
      <trkpt lat="44.9104" lon="4.86352">
        <ele>98.43</ele>
        <time>2019-05-26T14:42:23.000Z</time>
      </trkpt>
      <trkpt lat="44.91045" lon="4.86374">
        <ele>98.1</ele>
        <time>2019-05-26T14:42:28.000Z</time>
      </trkpt>
      <trkpt lat="44.91036" lon="4.8638">
        <ele>98.1</ele>
        <time>2019-05-26T14:42:33.000Z</time>
      </trkpt>
      <trkpt lat="44.91029" lon="4.86368">
        <ele>97.67</ele>
        <time>2019-05-26T14:42:38.000Z</time>
      </trkpt>
      <trkpt lat="44.9102" lon="4.86352">
        <ele>100.02</ele>
        <time>2019-05-26T14:42:43.000Z</time>
      </trkpt>
      <trkpt lat="44.91007" lon="4.86366">
        <ele>101.89</ele>
        <time>2019-05-26T14:42:48.000Z</time>
      </trkpt>
      <trkpt lat="44.90996" lon="4.86379">
        <ele>103.08</ele>
        <time>2019-05-26T14:42:53.000Z</time>
      </trkpt>
      <trkpt lat="44.90989" lon="4.86388">
        <ele>105.02</ele>
        <time>2019-05-26T14:42:58.000Z</time>
      </trkpt>
      <trkpt lat="44.90982" lon="4.86398">
        <ele>105.03</ele>
        <time>2019-05-26T14:43:03.000Z</time>
      </trkpt>
      <trkpt lat="44.90976" lon="4.86409">
        <ele>104.09</ele>
        <time>2019-05-26T14:43:08.000Z</time>
      </trkpt>
      <trkpt lat="44.9097" lon="4.86399">
        <ele>104.07</ele>
        <time>2019-05-26T14:43:13.000Z</time>
      </trkpt>
      <trkpt lat="44.90976" lon="4.86384">
        <ele>106.02</ele>
        <time>2019-05-26T14:43:18.000Z</time>
      </trkpt>
      <trkpt lat="44.90988" lon="4.86369">
        <ele>106.08</ele>
        <time>2019-05-26T14:43:23.000Z</time>
      </trkpt>
      <trkpt lat="44.91" lon="4.86351">
        <ele>106.09</ele>
        <time>2019-05-26T14:43:28.000Z</time>
      </trkpt>
      <trkpt lat="44.9101" lon="4.86332">
        <ele>106.09</ele>
        <time>2019-05-26T14:43:33.000Z</time>
      </trkpt>
      <trkpt lat="44.91005" lon="4.86311">
        <ele>106.09</ele>
        <time>2019-05-26T14:43:38.000Z</time>
      </trkpt>
      <trkpt lat="44.90996" lon="4.86289">
        <ele>105.4</ele>
        <time>2019-05-26T14:43:43.000Z</time>
      </trkpt>
      <trkpt lat="44.90985" lon="4.86262">
        <ele>104.15</ele>
        <time>2019-05-26T14:43:48.000Z</time>
      </trkpt>
      <trkpt lat="44.90975" lon="4.86241">
        <ele>103.34</ele>
        <time>2019-05-26T14:43:53.000Z</time>
      </trkpt>
      <trkpt lat="44.90967" lon="4.86248">
        <ele>102.34</ele>
        <time>2019-05-26T14:43:58.000Z</time>
      </trkpt>
      <trkpt lat="44.90961" lon="4.86257">
        <ele>104.79</ele>
        <time>2019-05-26T14:44:03.000Z</time>
      </trkpt>
      <trkpt lat="44.90962" lon="4.86244">
        <ele>104.84</ele>
        <time>2019-05-26T14:44:08.000Z</time>
      </trkpt>
      <trkpt lat="44.90952" lon="4.8624">
        <ele>106.07</ele>
        <time>2019-05-26T14:44:13.000Z</time>
      </trkpt>
      <trkpt lat="44.90942" lon="4.86234">
        <ele>104.35</ele>
        <time>2019-05-26T14:44:18.000Z</time>
      </trkpt>
      <trkpt lat="44.90932" lon="4.86233">
        <ele>102.14</ele>
        <time>2019-05-26T14:44:23.000Z</time>
      </trkpt>
      <trkpt lat="44.90941" lon="4.86232">
        <ele>102.31</ele>
        <time>2019-05-26T14:44:28.000Z</time>
      </trkpt>
      <trkpt lat="44.9095" lon="4.86239">
        <ele>103.14</ele>
        <time>2019-05-26T14:44:33.000Z</time>
      </trkpt>
      <trkpt lat="44.90964" lon="4.86245">
        <ele>103.09</ele>
        <time>2019-05-26T14:44:38.000Z</time>
      </trkpt>
      <trkpt lat="44.90973" lon="4.86234">
        <ele>103.1</ele>
        <time>2019-05-26T14:44:43.000Z</time>
      </trkpt>
      <trkpt lat="44.90971" lon="4.86202">
        <ele>103.82</ele>
        <time>2019-05-26T14:44:48.000Z</time>
      </trkpt>
      <trkpt lat="44.90971" lon="4.86165">
        <ele>104.33</ele>
        <time>2019-05-26T14:44:53.000Z</time>
      </trkpt>
      <trkpt lat="44.90973" lon="4.86129">
        <ele>104.09</ele>
        <time>2019-05-26T14:44:58.000Z</time>
      </trkpt>
      <trkpt lat="44.90974" lon="4.86097">
        <ele>105.89</ele>
        <time>2019-05-26T14:45:03.000Z</time>
      </trkpt>
      <trkpt lat="44.90978" lon="4.86065">
        <ele>106.58</ele>
        <time>2019-05-26T14:45:08.000Z</time>
      </trkpt>
      <trkpt lat="44.90978" lon="4.86025">
        <ele>105.29</ele>
        <time>2019-05-26T14:45:13.000Z</time>
      </trkpt>
      <trkpt lat="44.90978" lon="4.85989">
        <ele>106.13</ele>
        <time>2019-05-26T14:45:18.000Z</time>
      </trkpt>
      <trkpt lat="44.90984" lon="4.85951">
        <ele>105.03</ele>
        <time>2019-05-26T14:45:23.000Z</time>
      </trkpt>
      <trkpt lat="44.90985" lon="4.8591">
        <ele>104.08</ele>
        <time>2019-05-26T14:45:28.000Z</time>
      </trkpt>
      <trkpt lat="44.90986" lon="4.85872">
        <ele>104.21</ele>
        <time>2019-05-26T14:45:33.000Z</time>
      </trkpt>
      <trkpt lat="44.90989" lon="4.85837">
        <ele>104.02</ele>
        <time>2019-05-26T14:45:38.000Z</time>
      </trkpt>
      <trkpt lat="44.90991" lon="4.85796">
        <ele>104.08</ele>
        <time>2019-05-26T14:45:43.000Z</time>
      </trkpt>
      <trkpt lat="44.90991" lon="4.85754">
        <ele>103.08</ele>
        <time>2019-05-26T14:45:48.000Z</time>
      </trkpt>
      <trkpt lat="44.90993" lon="4.85714">
        <ele>106.19</ele>
        <time>2019-05-26T14:45:53.000Z</time>
      </trkpt>
      <trkpt lat="44.90995" lon="4.85676">
        <ele>106.27</ele>
        <time>2019-05-26T14:45:58.000Z</time>
      </trkpt>
      <trkpt lat="44.90998" lon="4.85636">
        <ele>106.1</ele>
        <time>2019-05-26T14:46:03.000Z</time>
      </trkpt>
      <trkpt lat="44.91003" lon="4.856">
        <ele>105.13</ele>
        <time>2019-05-26T14:46:08.000Z</time>
      </trkpt>
      <trkpt lat="44.91011" lon="4.8557">
        <ele>105.08</ele>
        <time>2019-05-26T14:46:13.000Z</time>
      </trkpt>
      <trkpt lat="44.9102" lon="4.8554">
        <ele>106.02</ele>
        <time>2019-05-26T14:46:18.000Z</time>
      </trkpt>
      <trkpt lat="44.9103" lon="4.85509">
        <ele>105.08</ele>
        <time>2019-05-26T14:46:23.000Z</time>
      </trkpt>
      <trkpt lat="44.91034" lon="4.85489">
        <ele>107.25</ele>
        <time>2019-05-26T14:46:28.000Z</time>
      </trkpt>
      <trkpt lat="44.91016" lon="4.85475">
        <ele>105.34</ele>
        <time>2019-05-26T14:46:33.000Z</time>
      </trkpt>
      <trkpt lat="44.90992" lon="4.8546">
        <ele>105.08</ele>
        <time>2019-05-26T14:46:38.000Z</time>
      </trkpt>
      <trkpt lat="44.90967" lon="4.85443">
        <ele>104.13</ele>
        <time>2019-05-26T14:46:43.000Z</time>
      </trkpt>
      <trkpt lat="44.90939" lon="4.85424">
        <ele>102.1</ele>
        <time>2019-05-26T14:46:48.000Z</time>
      </trkpt>
      <trkpt lat="44.90912" lon="4.8541">
        <ele>102.08</ele>
        <time>2019-05-26T14:46:53.000Z</time>
      </trkpt>
      <trkpt lat="44.90883" lon="4.85402">
        <ele>104.01</ele>
        <time>2019-05-26T14:46:58.000Z</time>
      </trkpt>
      <trkpt lat="44.90855" lon="4.85394">
        <ele>103.03</ele>
        <time>2019-05-26T14:47:03.000Z</time>
      </trkpt>
      <trkpt lat="44.90828" lon="4.85389">
        <ele>104.02</ele>
        <time>2019-05-26T14:47:08.000Z</time>
      </trkpt>
      <trkpt lat="44.908" lon="4.85385">
        <ele>106.62</ele>
        <time>2019-05-26T14:47:13.000Z</time>
      </trkpt>
      <trkpt lat="44.90768" lon="4.85381">
        <ele>105.08</ele>
        <time>2019-05-26T14:47:18.000Z</time>
      </trkpt>
      <trkpt lat="44.90741" lon="4.85374">
        <ele>106.08</ele>
        <time>2019-05-26T14:47:23.000Z</time>
      </trkpt>
      <trkpt lat="44.90715" lon="4.85372">
        <ele>106.09</ele>
        <time>2019-05-26T14:47:28.000Z</time>
      </trkpt>
      <trkpt lat="44.90683" lon="4.85371">
        <ele>104.14</ele>
        <time>2019-05-26T14:47:33.000Z</time>
      </trkpt>
      <trkpt lat="44.90649" lon="4.85375">
        <ele>103.08</ele>
        <time>2019-05-26T14:47:38.000Z</time>
      </trkpt>
      <trkpt lat="44.90616" lon="4.85374">
        <ele>105.75</ele>
        <time>2019-05-26T14:47:43.000Z</time>
      </trkpt>
      <trkpt lat="44.90586" lon="4.85371">
        <ele>106.87</ele>
        <time>2019-05-26T14:47:48.000Z</time>
      </trkpt>
      <trkpt lat="44.90562" lon="4.8537">
        <ele>107.07</ele>
        <time>2019-05-26T14:47:53.000Z</time>
      </trkpt>
      <trkpt lat="44.90537" lon="4.85369">
        <ele>108.08</ele>
        <time>2019-05-26T14:47:58.000Z</time>
      </trkpt>
      <trkpt lat="44.9051" lon="4.85368">
        <ele>108.08</ele>
        <time>2019-05-26T14:48:03.000Z</time>
      </trkpt>
      <trkpt lat="44.90482" lon="4.85364">
        <ele>107.09</ele>
        <time>2019-05-26T14:48:08.000Z</time>
      </trkpt>
      <trkpt lat="44.90452" lon="4.85361">
        <ele>108.07</ele>
        <time>2019-05-26T14:48:13.000Z</time>
      </trkpt>
      <trkpt lat="44.90422" lon="4.85356">
        <ele>107.08</ele>
        <time>2019-05-26T14:48:18.000Z</time>
      </trkpt>
      <trkpt lat="44.90391" lon="4.8535">
        <ele>108.07</ele>
        <time>2019-05-26T14:48:23.000Z</time>
      </trkpt>
      <trkpt lat="44.90361" lon="4.85342">
        <ele>108.31</ele>
        <time>2019-05-26T14:48:28.000Z</time>
      </trkpt>
      <trkpt lat="44.9033" lon="4.85331">
        <ele>108.28</ele>
        <time>2019-05-26T14:48:33.000Z</time>
      </trkpt>
      <trkpt lat="44.903" lon="4.8532">
        <ele>108.08</ele>
        <time>2019-05-26T14:48:38.000Z</time>
      </trkpt>
      <trkpt lat="44.90266" lon="4.85308">
        <ele>107.09</ele>
        <time>2019-05-26T14:48:43.000Z</time>
      </trkpt>
      <trkpt lat="44.90233" lon="4.85293">
        <ele>106.33</ele>
        <time>2019-05-26T14:48:48.000Z</time>
      </trkpt>
      <trkpt lat="44.90201" lon="4.8528">
        <ele>106.08</ele>
        <time>2019-05-26T14:48:53.000Z</time>
      </trkpt>
      <trkpt lat="44.90168" lon="4.85266">
        <ele>104.15</ele>
        <time>2019-05-26T14:48:58.000Z</time>
      </trkpt>
      <trkpt lat="44.90131" lon="4.85253">
        <ele>104.07</ele>
        <time>2019-05-26T14:49:03.000Z</time>
      </trkpt>
      <trkpt lat="44.90096" lon="4.85246">
        <ele>105.26</ele>
        <time>2019-05-26T14:49:08.000Z</time>
      </trkpt>
      <trkpt lat="44.90059" lon="4.85237">
        <ele>104.89</ele>
        <time>2019-05-26T14:49:13.000Z</time>
      </trkpt>
      <trkpt lat="44.90024" lon="4.85231">
        <ele>104.09</ele>
        <time>2019-05-26T14:49:18.000Z</time>
      </trkpt>
      <trkpt lat="44.89988" lon="4.85227">
        <ele>104.08</ele>
        <time>2019-05-26T14:49:23.000Z</time>
      </trkpt>
      <trkpt lat="44.89952" lon="4.85222">
        <ele>104.32</ele>
        <time>2019-05-26T14:49:28.000Z</time>
      </trkpt>
      <trkpt lat="44.89915" lon="4.85219">
        <ele>103.33</ele>
        <time>2019-05-26T14:49:33.000Z</time>
      </trkpt>
      <trkpt lat="44.8988" lon="4.85215">
        <ele>104.01</ele>
        <time>2019-05-26T14:49:38.000Z</time>
      </trkpt>
      <trkpt lat="44.89845" lon="4.85213">
        <ele>103.26</ele>
        <time>2019-05-26T14:49:43.000Z</time>
      </trkpt>
      <trkpt lat="44.8981" lon="4.85209">
        <ele>104.06</ele>
        <time>2019-05-26T14:49:48.000Z</time>
      </trkpt>
      <trkpt lat="44.89774" lon="4.85205">
        <ele>103.08</ele>
        <time>2019-05-26T14:49:53.000Z</time>
      </trkpt>
      <trkpt lat="44.89738" lon="4.85202">
        <ele>103.07</ele>
        <time>2019-05-26T14:49:58.000Z</time>
      </trkpt>
      <trkpt lat="44.89702" lon="4.85197">
        <ele>102.32</ele>
        <time>2019-05-26T14:50:03.000Z</time>
      </trkpt>
      <trkpt lat="44.89666" lon="4.85194">
        <ele>102.82</ele>
        <time>2019-05-26T14:50:08.000Z</time>
      </trkpt>
      <trkpt lat="44.8963" lon="4.85192">
        <ele>104.06</ele>
        <time>2019-05-26T14:50:13.000Z</time>
      </trkpt>
      <trkpt lat="44.89595" lon="4.85188">
        <ele>104.07</ele>
        <time>2019-05-26T14:50:18.000Z</time>
      </trkpt>
      <trkpt lat="44.8956" lon="4.85184">
        <ele>104.08</ele>
        <time>2019-05-26T14:50:23.000Z</time>
      </trkpt>
      <trkpt lat="44.89524" lon="4.85182">
        <ele>105.02</ele>
        <time>2019-05-26T14:50:28.000Z</time>
      </trkpt>
      <trkpt lat="44.8949" lon="4.85176">
        <ele>106.99</ele>
        <time>2019-05-26T14:50:33.000Z</time>
      </trkpt>
      <trkpt lat="44.89457" lon="4.85176">
        <ele>107.07</ele>
        <time>2019-05-26T14:50:38.000Z</time>
      </trkpt>
      <trkpt lat="44.89422" lon="4.85175">
        <ele>106.82</ele>
        <time>2019-05-26T14:50:43.000Z</time>
      </trkpt>
      <trkpt lat="44.89386" lon="4.85175">
        <ele>107.26</ele>
        <time>2019-05-26T14:50:48.000Z</time>
      </trkpt>
      <trkpt lat="44.89347" lon="4.85173">
        <ele>107.32</ele>
        <time>2019-05-26T14:50:53.000Z</time>
      </trkpt>
      <trkpt lat="44.89305" lon="4.8517">
        <ele>105.32</ele>
        <time>2019-05-26T14:50:58.000Z</time>
      </trkpt>
      <trkpt lat="44.89264" lon="4.85172">
        <ele>105.07</ele>
        <time>2019-05-26T14:51:03.000Z</time>
      </trkpt>
      <trkpt lat="44.89226" lon="4.85176">
        <ele>104.32</ele>
        <time>2019-05-26T14:51:08.000Z</time>
      </trkpt>
      <trkpt lat="44.89189" lon="4.85185">
        <ele>103.32</ele>
        <time>2019-05-26T14:51:13.000Z</time>
      </trkpt>
      <trkpt lat="44.89152" lon="4.85192">
        <ele>101.38</ele>
        <time>2019-05-26T14:51:18.000Z</time>
      </trkpt>
      <trkpt lat="44.89116" lon="4.852">
        <ele>101.08</ele>
        <time>2019-05-26T14:51:23.000Z</time>
      </trkpt>
      <trkpt lat="44.89081" lon="4.8521">
        <ele>102.07</ele>
        <time>2019-05-26T14:51:28.000Z</time>
      </trkpt>
      <trkpt lat="44.89048" lon="4.85217">
        <ele>102.07</ele>
        <time>2019-05-26T14:51:33.000Z</time>
      </trkpt>
      <trkpt lat="44.89016" lon="4.85224">
        <ele>102.07</ele>
        <time>2019-05-26T14:51:38.000Z</time>
      </trkpt>
      <trkpt lat="44.88993" lon="4.85228">
        <ele>102.01</ele>
        <time>2019-05-26T14:51:43.000Z</time>
      </trkpt>
      <trkpt lat="44.88973" lon="4.85233">
        <ele>104.05</ele>
        <time>2019-05-26T14:51:48.000Z</time>
      </trkpt>
      <trkpt lat="44.88958" lon="4.85236">
        <ele>104.07</ele>
        <time>2019-05-26T14:51:53.000Z</time>
      </trkpt>
      <trkpt lat="44.88939" lon="4.85243">
        <ele>104.83</ele>
        <time>2019-05-26T14:51:58.000Z</time>
      </trkpt>
      <trkpt lat="44.88917" lon="4.85247">
        <ele>104.08</ele>
        <time>2019-05-26T14:52:03.000Z</time>
      </trkpt>
      <trkpt lat="44.88896" lon="4.85253">
        <ele>104.11</ele>
        <time>2019-05-26T14:52:08.000Z</time>
      </trkpt>
      <trkpt lat="44.88875" lon="4.85265">
        <ele>104.07</ele>
        <time>2019-05-26T14:52:13.000Z</time>
      </trkpt>
      <trkpt lat="44.88854" lon="4.85275">
        <ele>102.9</ele>
        <time>2019-05-26T14:52:18.000Z</time>
      </trkpt>
      <trkpt lat="44.8883" lon="4.85286">
        <ele>102.08</ele>
        <time>2019-05-26T14:52:23.000Z</time>
      </trkpt>
      <trkpt lat="44.88805" lon="4.853">
        <ele>101.13</ele>
        <time>2019-05-26T14:52:28.000Z</time>
      </trkpt>
      <trkpt lat="44.8878" lon="4.85313">
        <ele>101.07</ele>
        <time>2019-05-26T14:52:33.000Z</time>
      </trkpt>
      <trkpt lat="44.88755" lon="4.85326">
        <ele>101.06</ele>
        <time>2019-05-26T14:52:38.000Z</time>
      </trkpt>
      <trkpt lat="44.88731" lon="4.85337">
        <ele>102.87</ele>
        <time>2019-05-26T14:52:43.000Z</time>
      </trkpt>
      <trkpt lat="44.8871" lon="4.85351">
        <ele>101.38</ele>
        <time>2019-05-26T14:52:48.000Z</time>
      </trkpt>
      <trkpt lat="44.88687" lon="4.85364">
        <ele>103.8</ele>
        <time>2019-05-26T14:52:53.000Z</time>
      </trkpt>
      <trkpt lat="44.88665" lon="4.85379">
        <ele>103.5</ele>
        <time>2019-05-26T14:52:58.000Z</time>
      </trkpt>
      <trkpt lat="44.88642" lon="4.85392">
        <ele>105.99</ele>
        <time>2019-05-26T14:53:03.000Z</time>
      </trkpt>
      <trkpt lat="44.88618" lon="4.85409">
        <ele>104.09</ele>
        <time>2019-05-26T14:53:08.000Z</time>
      </trkpt>
      <trkpt lat="44.88594" lon="4.85426">
        <ele>102.38</ele>
        <time>2019-05-26T14:53:13.000Z</time>
      </trkpt>
      <trkpt lat="44.8857" lon="4.85443">
        <ele>102.06</ele>
        <time>2019-05-26T14:53:18.000Z</time>
      </trkpt>
      <trkpt lat="44.88546" lon="4.85459">
        <ele>101.32</ele>
        <time>2019-05-26T14:53:23.000Z</time>
      </trkpt>
      <trkpt lat="44.88521" lon="4.85467">
        <ele>102.87</ele>
        <time>2019-05-26T14:53:28.000Z</time>
      </trkpt>
      <trkpt lat="44.88494" lon="4.85468">
        <ele>102.32</ele>
        <time>2019-05-26T14:53:33.000Z</time>
      </trkpt>
      <trkpt lat="44.88467" lon="4.85477">
        <ele>101.88</ele>
        <time>2019-05-26T14:53:38.000Z</time>
      </trkpt>
      <trkpt lat="44.88441" lon="4.85483">
        <ele>101.82</ele>
        <time>2019-05-26T14:53:43.000Z</time>
      </trkpt>
      <trkpt lat="44.88413" lon="4.85487">
        <ele>103.05</ele>
        <time>2019-05-26T14:53:48.000Z</time>
      </trkpt>
      <trkpt lat="44.88388" lon="4.8549">
        <ele>102.32</ele>
        <time>2019-05-26T14:53:53.000Z</time>
      </trkpt>
      <trkpt lat="44.88364" lon="4.85493">
        <ele>101.13</ele>
        <time>2019-05-26T14:53:58.000Z</time>
      </trkpt>
      <trkpt lat="44.88339" lon="4.85495">
        <ele>101.3</ele>
        <time>2019-05-26T14:54:03.000Z</time>
      </trkpt>
      <trkpt lat="44.88315" lon="4.85492">
        <ele>101.82</ele>
        <time>2019-05-26T14:54:08.000Z</time>
      </trkpt>
      <trkpt lat="44.88292" lon="4.8548">
        <ele>102.06</ele>
        <time>2019-05-26T14:54:13.000Z</time>
      </trkpt>
      <trkpt lat="44.88267" lon="4.85466">
        <ele>102.06</ele>
        <time>2019-05-26T14:54:18.000Z</time>
      </trkpt>
      <trkpt lat="44.88242" lon="4.85452">
        <ele>103.06</ele>
        <time>2019-05-26T14:54:23.000Z</time>
      </trkpt>
      <trkpt lat="44.88215" lon="4.85439">
        <ele>104.05</ele>
        <time>2019-05-26T14:54:28.000Z</time>
      </trkpt>
      <trkpt lat="44.88188" lon="4.85427">
        <ele>103.13</ele>
        <time>2019-05-26T14:54:33.000Z</time>
      </trkpt>
      <trkpt lat="44.88162" lon="4.85414">
        <ele>102.31</ele>
        <time>2019-05-26T14:54:38.000Z</time>
      </trkpt>
      <trkpt lat="44.88134" lon="4.85407">
        <ele>102.11</ele>
        <time>2019-05-26T14:54:43.000Z</time>
      </trkpt>
      <trkpt lat="44.88106" lon="4.854">
        <ele>102.06</ele>
        <time>2019-05-26T14:54:48.000Z</time>
      </trkpt>
      <trkpt lat="44.88083" lon="4.85379">
        <ele>101.08</ele>
        <time>2019-05-26T14:54:53.000Z</time>
      </trkpt>
      <trkpt lat="44.88071" lon="4.85348">
        <ele>101.3</ele>
        <time>2019-05-26T14:54:58.000Z</time>
      </trkpt>
      <trkpt lat="44.88055" lon="4.85315">
        <ele>100.13</ele>
        <time>2019-05-26T14:55:03.000Z</time>
      </trkpt>
      <trkpt lat="44.8804" lon="4.85282">
        <ele>99.07</ele>
        <time>2019-05-26T14:55:08.000Z</time>
      </trkpt>
      <trkpt lat="44.8802" lon="4.8525">
        <ele>98.08</ele>
        <time>2019-05-26T14:55:13.000Z</time>
      </trkpt>
      <trkpt lat="44.87992" lon="4.85235">
        <ele>97.06</ele>
        <time>2019-05-26T14:55:18.000Z</time>
      </trkpt>
      <trkpt lat="44.87965" lon="4.85235">
        <ele>98</ele>
        <time>2019-05-26T14:55:23.000Z</time>
      </trkpt>
      <trkpt lat="44.87944" lon="4.85221">
        <ele>98.07</ele>
        <time>2019-05-26T14:55:28.000Z</time>
      </trkpt>
      <trkpt lat="44.87937" lon="4.8518">
        <ele>96.92</ele>
        <time>2019-05-26T14:55:33.000Z</time>
      </trkpt>
      <trkpt lat="44.87941" lon="4.85148">
        <ele>99.03</ele>
        <time>2019-05-26T14:55:38.000Z</time>
      </trkpt>
      <trkpt lat="44.87954" lon="4.85127">
        <ele>101.98</ele>
        <time>2019-05-26T14:55:43.000Z</time>
      </trkpt>
      <trkpt lat="44.87972" lon="4.85108">
        <ele>103.06</ele>
        <time>2019-05-26T14:55:48.000Z</time>
      </trkpt>
      <trkpt lat="44.8799" lon="4.85094">
        <ele>103.62</ele>
        <time>2019-05-26T14:55:53.000Z</time>
      </trkpt>
      <trkpt lat="44.8801" lon="4.85079">
        <ele>103</ele>
        <time>2019-05-26T14:55:58.000Z</time>
      </trkpt>
      <trkpt lat="44.88028" lon="4.85073">
        <ele>101.14</ele>
        <time>2019-05-26T14:56:03.000Z</time>
      </trkpt>
      <trkpt lat="44.88046" lon="4.85071">
        <ele>101.56</ele>
        <time>2019-05-26T14:56:08.000Z</time>
      </trkpt>
      <trkpt lat="44.88066" lon="4.85078">
        <ele>103.95</ele>
        <time>2019-05-26T14:56:13.000Z</time>
      </trkpt>
      <trkpt lat="44.88077" lon="4.8507">
        <ele>105.05</ele>
        <time>2019-05-26T14:56:18.000Z</time>
      </trkpt>
      <trkpt lat="44.88064" lon="4.85064">
        <ele>106.75</ele>
        <time>2019-05-26T14:56:23.000Z</time>
      </trkpt>
      <trkpt lat="44.88045" lon="4.85062">
        <ele>107.06</ele>
        <time>2019-05-26T14:56:28.000Z</time>
      </trkpt>
      <trkpt lat="44.88024" lon="4.85056">
        <ele>108.05</ele>
        <time>2019-05-26T14:56:33.000Z</time>
      </trkpt>
      <trkpt lat="44.88004" lon="4.85052">
        <ele>107.37</ele>
        <time>2019-05-26T14:56:38.000Z</time>
      </trkpt>
      <trkpt lat="44.87987" lon="4.85047">
        <ele>108.76</ele>
        <time>2019-05-26T14:56:43.000Z</time>
      </trkpt>
      <trkpt lat="44.8797" lon="4.85042">
        <ele>107.76</ele>
        <time>2019-05-26T14:56:48.000Z</time>
      </trkpt>
      <trkpt lat="44.8795" lon="4.85038">
        <ele>108.75</ele>
        <time>2019-05-26T14:56:53.000Z</time>
      </trkpt>
      <trkpt lat="44.87932" lon="4.85033">
        <ele>110.04</ele>
        <time>2019-05-26T14:56:58.000Z</time>
      </trkpt>
      <trkpt lat="44.87912" lon="4.85027">
        <ele>108.08</ele>
        <time>2019-05-26T14:57:03.000Z</time>
      </trkpt>
      <trkpt lat="44.87888" lon="4.85023">
        <ele>109.04</ele>
        <time>2019-05-26T14:57:08.000Z</time>
      </trkpt>
      <trkpt lat="44.87861" lon="4.85018">
        <ele>108.07</ele>
        <time>2019-05-26T14:57:13.000Z</time>
      </trkpt>
      <trkpt lat="44.87835" lon="4.85007">
        <ele>107.25</ele>
        <time>2019-05-26T14:57:18.000Z</time>
      </trkpt>
      <trkpt lat="44.87807" lon="4.85">
        <ele>107</ele>
        <time>2019-05-26T14:57:23.000Z</time>
      </trkpt>
      <trkpt lat="44.87777" lon="4.84997">
        <ele>108.04</ele>
        <time>2019-05-26T14:57:28.000Z</time>
      </trkpt>
      <trkpt lat="44.87747" lon="4.85007">
        <ele>109</ele>
        <time>2019-05-26T14:57:33.000Z</time>
      </trkpt>
      <trkpt lat="44.87717" lon="4.85021">
        <ele>107.31</ele>
        <time>2019-05-26T14:57:38.000Z</time>
      </trkpt>
      <trkpt lat="44.87689" lon="4.85033">
        <ele>107.06</ele>
        <time>2019-05-26T14:57:43.000Z</time>
      </trkpt>
      <trkpt lat="44.87662" lon="4.85043">
        <ele>107.06</ele>
        <time>2019-05-26T14:57:48.000Z</time>
      </trkpt>
      <trkpt lat="44.87633" lon="4.85053">
        <ele>107</ele>
        <time>2019-05-26T14:57:53.000Z</time>
      </trkpt>
      <trkpt lat="44.87604" lon="4.85059">
        <ele>105.37</ele>
        <time>2019-05-26T14:57:58.000Z</time>
      </trkpt>
      <trkpt lat="44.87574" lon="4.85058">
        <ele>104.31</ele>
        <time>2019-05-26T14:58:03.000Z</time>
      </trkpt>
      <trkpt lat="44.87543" lon="4.85057">
        <ele>103.09</ele>
        <time>2019-05-26T14:58:08.000Z</time>
      </trkpt>
      <trkpt lat="44.87512" lon="4.85056">
        <ele>104</ele>
        <time>2019-05-26T14:58:13.000Z</time>
      </trkpt>
      <trkpt lat="44.87481" lon="4.85049">
        <ele>103.81</ele>
        <time>2019-05-26T14:58:18.000Z</time>
      </trkpt>
      <trkpt lat="44.8745" lon="4.85039">
        <ele>105</ele>
        <time>2019-05-26T14:58:23.000Z</time>
      </trkpt>
      <trkpt lat="44.8742" lon="4.85028">
        <ele>106.06</ele>
        <time>2019-05-26T14:58:28.000Z</time>
      </trkpt>
      <trkpt lat="44.8739" lon="4.8502">
        <ele>106.81</ele>
        <time>2019-05-26T14:58:33.000Z</time>
      </trkpt>
      <trkpt lat="44.8736" lon="4.8501">
        <ele>107.06</ele>
        <time>2019-05-26T14:58:38.000Z</time>
      </trkpt>
      <trkpt lat="44.87328" lon="4.84992">
        <ele>107.06</ele>
        <time>2019-05-26T14:58:43.000Z</time>
      </trkpt>
      <trkpt lat="44.873" lon="4.84966">
        <ele>107.06</ele>
        <time>2019-05-26T14:58:48.000Z</time>
      </trkpt>
      <trkpt lat="44.87269" lon="4.84956">
        <ele>105.87</ele>
        <time>2019-05-26T14:58:53.000Z</time>
      </trkpt>
      <trkpt lat="44.87238" lon="4.84949">
        <ele>106.06</ele>
        <time>2019-05-26T14:58:58.000Z</time>
      </trkpt>
      <trkpt lat="44.87207" lon="4.8494">
        <ele>106.12</ele>
        <time>2019-05-26T14:59:03.000Z</time>
      </trkpt>
      <trkpt lat="44.87172" lon="4.8493">
        <ele>104.13</ele>
        <time>2019-05-26T14:59:08.000Z</time>
      </trkpt>
      <trkpt lat="44.87136" lon="4.84922">
        <ele>102.12</ele>
        <time>2019-05-26T14:59:13.000Z</time>
      </trkpt>
      <trkpt lat="44.87102" lon="4.84915">
        <ele>102.06</ele>
        <time>2019-05-26T14:59:18.000Z</time>
      </trkpt>
      <trkpt lat="44.87068" lon="4.84906">
        <ele>101.99</ele>
        <time>2019-05-26T14:59:23.000Z</time>
      </trkpt>
      <trkpt lat="44.87035" lon="4.84899">
        <ele>102.01</ele>
        <time>2019-05-26T14:59:28.000Z</time>
      </trkpt>
      <trkpt lat="44.87003" lon="4.84892">
        <ele>103.87</ele>
        <time>2019-05-26T14:59:33.000Z</time>
      </trkpt>
      <trkpt lat="44.86971" lon="4.84884">
        <ele>103.06</ele>
        <time>2019-05-26T14:59:38.000Z</time>
      </trkpt>
      <trkpt lat="44.86938" lon="4.84877">
        <ele>103.05</ele>
        <time>2019-05-26T14:59:46.000Z</time>
      </trkpt>
      <trkpt lat="44.86908" lon="4.84863">
        <ele>102.12</ele>
        <time>2019-05-26T14:59:51.000Z</time>
      </trkpt>
      <trkpt lat="44.86888" lon="4.84861">
        <ele>101.06</ele>
        <time>2019-05-26T14:59:56.000Z</time>
      </trkpt>
      <trkpt lat="44.86893" lon="4.84845">
        <ele>101.05</ele>
        <time>2019-05-26T15:00:01.000Z</time>
      </trkpt>
      <trkpt lat="44.86904" lon="4.84822">
        <ele>102.05</ele>
        <time>2019-05-26T15:00:06.000Z</time>
      </trkpt>
      <trkpt lat="44.86915" lon="4.84798">
        <ele>103.04</ele>
        <time>2019-05-26T15:00:11.000Z</time>
      </trkpt>
      <trkpt lat="44.86928" lon="4.84771">
        <ele>103.05</ele>
        <time>2019-05-26T15:00:16.000Z</time>
      </trkpt>
      <trkpt lat="44.86942" lon="4.84744">
        <ele>103.8</ele>
        <time>2019-05-26T15:00:21.000Z</time>
      </trkpt>
      <trkpt lat="44.86954" lon="4.84717">
        <ele>103.32</ele>
        <time>2019-05-26T15:00:26.000Z</time>
      </trkpt>
      <trkpt lat="44.86966" lon="4.84691">
        <ele>102.06</ele>
        <time>2019-05-26T15:00:31.000Z</time>
      </trkpt>
      <trkpt lat="44.86978" lon="4.84666">
        <ele>103.05</ele>
        <time>2019-05-26T15:00:36.000Z</time>
      </trkpt>
      <trkpt lat="44.8699" lon="4.84639">
        <ele>102.07</ele>
        <time>2019-05-26T15:00:41.000Z</time>
      </trkpt>
      <trkpt lat="44.87002" lon="4.84615">
        <ele>103.05</ele>
        <time>2019-05-26T15:00:46.000Z</time>
      </trkpt>
      <trkpt lat="44.87014" lon="4.84589">
        <ele>103.05</ele>
        <time>2019-05-26T15:00:51.000Z</time>
      </trkpt>
      <trkpt lat="44.87026" lon="4.84563">
        <ele>103.8</ele>
        <time>2019-05-26T15:00:56.000Z</time>
      </trkpt>
      <trkpt lat="44.87038" lon="4.84541">
        <ele>103.3</ele>
        <time>2019-05-26T15:01:01.000Z</time>
      </trkpt>
      <trkpt lat="44.87049" lon="4.84519">
        <ele>103.99</ele>
        <time>2019-05-26T15:01:06.000Z</time>
      </trkpt>
      <trkpt lat="44.87062" lon="4.84496">
        <ele>105.04</ele>
        <time>2019-05-26T15:01:11.000Z</time>
      </trkpt>
      <trkpt lat="44.87075" lon="4.84475">
        <ele>104.26</ele>
        <time>2019-05-26T15:01:16.000Z</time>
      </trkpt>
      <trkpt lat="44.87085" lon="4.84455">
        <ele>104.3</ele>
        <time>2019-05-26T15:01:21.000Z</time>
      </trkpt>
      <trkpt lat="44.87074" lon="4.84441">
        <ele>105.04</ele>
        <time>2019-05-26T15:01:26.000Z</time>
      </trkpt>
      <trkpt lat="44.87056" lon="4.84426">
        <ele>105.05</ele>
        <time>2019-05-26T15:03:22.000Z</time>
      </trkpt>
      <trkpt lat="44.87036" lon="4.8441">
        <ele>105.01</ele>
        <time>2019-05-26T15:03:43.000Z</time>
      </trkpt>
      <trkpt lat="44.87016" lon="4.84393">
        <ele>105.8</ele>
        <time>2019-05-26T15:03:48.000Z</time>
      </trkpt>
      <trkpt lat="44.86992" lon="4.84375">
        <ele>105.11</ele>
        <time>2019-05-26T15:03:53.000Z</time>
      </trkpt>
      <trkpt lat="44.86966" lon="4.84354">
        <ele>106.99</ele>
        <time>2019-05-26T15:03:58.000Z</time>
      </trkpt>
      <trkpt lat="44.86939" lon="4.84331">
        <ele>106.29</ele>
        <time>2019-05-26T15:04:05.000Z</time>
      </trkpt>
      <trkpt lat="44.86911" lon="4.84307">
        <ele>105.31</ele>
        <time>2019-05-26T15:04:10.000Z</time>
      </trkpt>
      <trkpt lat="44.8688" lon="4.84284">
        <ele>106.05</ele>
        <time>2019-05-26T15:09:47.000Z</time>
      </trkpt>
      <trkpt lat="44.8685" lon="4.84263">
        <ele>106.05</ele>
        <time>2019-05-26T15:09:53.000Z</time>
      </trkpt>
      <trkpt lat="44.86819" lon="4.84238">
        <ele>106.8</ele>
        <time>2019-05-26T15:09:59.000Z</time>
      </trkpt>
      <trkpt lat="44.86787" lon="4.84213">
        <ele>107.05</ele>
        <time>2019-05-26T15:10:04.000Z</time>
      </trkpt>
      <trkpt lat="44.86756" lon="4.84189">
        <ele>106.07</ele>
        <time>2019-05-26T15:10:10.000Z</time>
      </trkpt>
      <trkpt lat="44.86725" lon="4.84164">
        <ele>105.3</ele>
      </trkpt>
      <trkpt lat="44.86696" lon="4.8414">
        <ele>106.04</ele>
      </trkpt>
      <trkpt lat="44.86665" lon="4.84116">
        <ele>105.8</ele>
      </trkpt>
      <trkpt lat="44.86634" lon="4.84093">
        <ele>106.99</ele>
      </trkpt>
      <trkpt lat="44.86607" lon="4.84073">
        <ele>107.05</ele>
      </trkpt>
      <trkpt lat="44.8659" lon="4.84064">
        <ele>108.03</ele>
      </trkpt>
      <trkpt lat="44.86578" lon="4.84057">
        <ele>108</ele>
      </trkpt>
      <trkpt lat="44.86562" lon="4.84043">
        <ele>107.85</ele>
      </trkpt>
      <trkpt lat="44.8654" lon="4.84027">
        <ele>107.06</ele>
      </trkpt>
      <trkpt lat="44.86517" lon="4.84007">
        <ele>108.98</ele>
      </trkpt>
      <trkpt lat="44.86494" lon="4.83988">
        <ele>108.05</ele>
      </trkpt>
      <trkpt lat="44.8647" lon="4.83968">
        <ele>107.28</ele>
      </trkpt>
      <trkpt lat="44.86446" lon="4.83949">
        <ele>108.05</ele>
      </trkpt>
      <trkpt lat="44.86421" lon="4.83927">
        <ele>107.8</ele>
      </trkpt>
      <trkpt lat="44.86396" lon="4.83908">
        <ele>107.11</ele>
      </trkpt>
      <trkpt lat="44.86369" lon="4.83886">
        <ele>107.06</ele>
      </trkpt>
      <trkpt lat="44.86344" lon="4.83862">
        <ele>107.05</ele>
      </trkpt>
      <trkpt lat="44.86317" lon="4.83847">
        <ele>107.05</ele>
      </trkpt>
      <trkpt lat="44.86292" lon="4.83827">
        <ele>107.05</ele>
      </trkpt>
      <trkpt lat="44.86267" lon="4.83807">
        <ele>107.79</ele>
      </trkpt>
      <trkpt lat="44.86243" lon="4.83786">
        <ele>108.04</ele>
      </trkpt>
      <trkpt lat="44.8622" lon="4.83765">
        <ele>108.09</ele>
      </trkpt>
      <trkpt lat="44.86199" lon="4.83747">
        <ele>107.25</ele>
      </trkpt>
      <trkpt lat="44.86183" lon="4.83743">
        <ele>107.78</ele>
      </trkpt>
      <trkpt lat="44.86168" lon="4.83755">
        <ele>107.29</ele>
      </trkpt>
      <trkpt lat="44.86154" lon="4.8377">
        <ele>107.23</ele>
      </trkpt>
      <trkpt lat="44.86138" lon="4.83755">
        <ele>108.84</ele>
      </trkpt>
      <trkpt lat="44.86121" lon="4.83738">
        <ele>108.86</ele>
      </trkpt>
      <trkpt lat="44.86103" lon="4.83722">
        <ele>110.98</ele>
      </trkpt>
      <trkpt lat="44.86085" lon="4.83706">
        <ele>111.03</ele>
      </trkpt>
      <trkpt lat="44.86069" lon="4.83687">
        <ele>113.03</ele>
      </trkpt>
      <trkpt lat="44.86054" lon="4.83668">
        <ele>113.98</ele>
      </trkpt>
      <trkpt lat="44.86039" lon="4.83656">
        <ele>113.24</ele>
      </trkpt>
      <trkpt lat="44.8603" lon="4.83654">
        <ele>113.06</ele>
      </trkpt>
      <trkpt lat="44.86017" lon="4.83649">
        <ele>115.78</ele>
      </trkpt>
      <trkpt lat="44.86004" lon="4.83626">
        <ele>117.23</ele>
      </trkpt>
      <trkpt lat="44.85985" lon="4.83603">
        <ele>116.05</ele>
      </trkpt>
      <trkpt lat="44.85963" lon="4.8358">
        <ele>114.3</ele>
      </trkpt>
      <trkpt lat="44.85946" lon="4.83552">
        <ele>113.06</ele>
      </trkpt>
      <trkpt lat="44.85921" lon="4.83559">
        <ele>110.3</ele>
      </trkpt>
      <trkpt lat="44.85896" lon="4.83579">
        <ele>109.06</ele>
      </trkpt>
      <trkpt lat="44.85869" lon="4.83596">
        <ele>108.11</ele>
      </trkpt>
      <trkpt lat="44.85841" lon="4.83614">
        <ele>106.25</ele>
      </trkpt>
      <trkpt lat="44.85813" lon="4.83633">
        <ele>106.05</ele>
      </trkpt>
      <trkpt lat="44.85784" lon="4.83654">
        <ele>105.25</ele>
      </trkpt>
      <trkpt lat="44.85755" lon="4.83678">
        <ele>106.04</ele>
      </trkpt>
      <trkpt lat="44.85727" lon="4.837">
        <ele>106.04</ele>
      </trkpt>
      <trkpt lat="44.85702" lon="4.83718">
        <ele>105</ele>
      </trkpt>
      <trkpt lat="44.85674" lon="4.83737">
        <ele>104.28</ele>
      </trkpt>
      <trkpt lat="44.85644" lon="4.83758">
        <ele>105.23</ele>
      </trkpt>
      <trkpt lat="44.85616" lon="4.83776">
        <ele>105</ele>
      </trkpt>
      <trkpt lat="44.85588" lon="4.83787">
        <ele>105.04</ele>
      </trkpt>
      <trkpt lat="44.85563" lon="4.83786">
        <ele>104</ele>
      </trkpt>
      <trkpt lat="44.85544" lon="4.83788">
        <ele>104.1</ele>
      </trkpt>
      <trkpt lat="44.85534" lon="4.83789">
        <ele>96.73</ele>
      </trkpt>
      <trkpt lat="44.85525" lon="4.83793">
        <ele>97.04</ele>
      </trkpt>
      <trkpt lat="44.85529" lon="4.83806">
        <ele>98.98</ele>
      </trkpt>
      <trkpt lat="44.8554" lon="4.83823">
        <ele>99.84</ele>
      </trkpt>
      <trkpt lat="44.85553" lon="4.83844">
        <ele>100.79</ele>
      </trkpt>
      <trkpt lat="44.85562" lon="4.83843">
        <ele>102.79</ele>
      </trkpt>
      <trkpt lat="44.85566" lon="4.83829">
        <ele>103.04</ele>
      </trkpt>
      <trkpt lat="44.85572" lon="4.83817">
        <ele>107.98</ele>
      </trkpt>
      <trkpt lat="44.85582" lon="4.83815">
        <ele>107.06</ele>
      </trkpt>
      <trkpt lat="44.8559" lon="4.83822">
        <ele>107.09</ele>
      </trkpt>
      <trkpt lat="44.85599" lon="4.83828">
        <ele>108.04</ele>
      </trkpt>
      <trkpt lat="44.85607" lon="4.83835">
        <ele>109.03</ele>
      </trkpt>
    </trkseg>
  </trk>
</gpx>